<?xml version='1.0' encoding='UTF-8'?><gpx version="1.1" creator="JPX - https://github.com/jenetics/jpx" xmlns="http://www.topografix.com/GPX/1/1"><trk><trkseg><trkpt lat="43.5091439" lon="10.6166122"><ele>292.0</ele><time>2026-05-02T08:47:39.115Z</time></trkpt><trkpt lat="43.5091189" lon="10.6165105"><ele>292.0</ele><time>2026-05-02T08:47:41.147Z</time></trkpt><trkpt lat="43.5090966" lon="10.6164084"><ele>292.0</ele><time>2026-05-02T08:47:43.122Z</time></trkpt><trkpt lat="43.5090805" lon="10.616272"><ele>292.0</ele><time>2026-05-02T08:47:45.117Z</time></trkpt><trkpt lat="43.5090727" lon="10.6161855"><ele>292.0</ele><time>2026-05-02T08:47:46.113Z</time></trkpt><trkpt lat="43.5090954" lon="10.6160283"><ele>292.0</ele><time>2026-05-02T08:47:48.111Z</time></trkpt><trkpt lat="43.5091528" lon="10.6158744"><ele>292.3333333333333</ele><time>2026-05-02T08:47:50.117Z</time></trkpt><trkpt lat="43.5091896" lon="10.6157731"><ele>292.66666666666663</ele><time>2026-05-02T08:47:51.113Z</time></trkpt><trkpt lat="43.5092182" lon="10.6156727"><ele>293.0</ele><time>2026-05-02T08:47:52.122Z</time></trkpt><trkpt lat="43.5092369" lon="10.6155733"><ele>293.3333333333333</ele><time>2026-05-02T08:47:53.104Z</time></trkpt><trkpt lat="43.5092646" lon="10.6154593"><ele>293.6666666666667</ele><time>2026-05-02T08:47:54.12Z</time></trkpt><trkpt lat="43.5092862" lon="10.6153375"><ele>294.0</ele><time>2026-05-02T08:47:55.135Z</time></trkpt><trkpt lat="43.5093136" lon="10.6152105"><ele>294.4</ele><time>2026-05-02T08:47:56.134Z</time></trkpt><trkpt lat="43.5093442" lon="10.6150832"><ele>294.79999999999995</ele><time>2026-05-02T08:47:57.146Z</time></trkpt><trkpt lat="43.5093788" lon="10.6149479"><ele>295.20000000000005</ele><time>2026-05-02T08:47:58.132Z</time></trkpt><trkpt lat="43.5094227" lon="10.6148055"><ele>295.6</ele><time>2026-05-02T08:47:59.117Z</time></trkpt><trkpt lat="43.5094664" lon="10.6146685"><ele>296.0</ele><time>2026-05-02T08:48:00.115Z</time></trkpt><trkpt lat="43.509511" lon="10.6145287"><ele>297.0</ele><time>2026-05-02T08:48:01.137Z</time></trkpt><trkpt lat="43.5095594" lon="10.6143854"><ele>298.0</ele><time>2026-05-02T08:48:02.117Z</time></trkpt><trkpt lat="43.509606" lon="10.6142456"><ele>299.0</ele><time>2026-05-02T08:48:03.103Z</time></trkpt><trkpt lat="43.5096573" lon="10.6141004"><ele>300.0</ele><time>2026-05-02T08:48:04.103Z</time></trkpt><trkpt lat="43.5097089" lon="10.6139519"><ele>296.25</ele><time>2026-05-02T08:48:05.124Z</time></trkpt><trkpt lat="43.5097648" lon="10.6138037"><ele>292.5</ele><time>2026-05-02T08:48:06.108Z</time></trkpt><trkpt lat="43.5098205" lon="10.613655"><ele>288.75</ele><time>2026-05-02T08:48:07.119Z</time></trkpt><trkpt lat="43.5098799" lon="10.6135112"><ele>285.0</ele><time>2026-05-02T08:48:08.116Z</time></trkpt><trkpt lat="43.509948" lon="10.6133647"><ele>285.0</ele><time>2026-05-02T08:48:09.112Z</time></trkpt><trkpt lat="43.510028" lon="10.6132179"><ele>285.0</ele><time>2026-05-02T08:48:10.106Z</time></trkpt><trkpt lat="43.5101247" lon="10.6130873"><ele>285.0</ele><time>2026-05-02T08:48:11.147Z</time></trkpt><trkpt lat="43.5102264" lon="10.6129642"><ele>285.0</ele><time>2026-05-02T08:48:12.13Z</time></trkpt><trkpt lat="43.5103278" lon="10.6128443"><ele>283.5</ele><time>2026-05-02T08:48:13.114Z</time></trkpt><trkpt lat="43.5104278" lon="10.6127348"><ele>282.0</ele><time>2026-05-02T08:48:14.128Z</time></trkpt><trkpt lat="43.5105239" lon="10.6126273"><ele>280.5</ele><time>2026-05-02T08:48:15.129Z</time></trkpt><trkpt lat="43.5106108" lon="10.612529"><ele>279.0</ele><time>2026-05-02T08:48:16.13Z</time></trkpt><trkpt lat="43.5107051" lon="10.6124313"><ele>279.0</ele><time>2026-05-02T08:48:17.14Z</time></trkpt><trkpt lat="43.5108068" lon="10.6123439"><ele>279.0</ele><time>2026-05-02T08:48:18.123Z</time></trkpt><trkpt lat="43.5109166" lon="10.6122634"><ele>279.0</ele><time>2026-05-02T08:48:19.119Z</time></trkpt><trkpt lat="43.5110307" lon="10.6121847"><ele>279.0</ele><time>2026-05-02T08:48:20.12Z</time></trkpt><trkpt lat="43.5111524" lon="10.6121227"><ele>279.25</ele><time>2026-05-02T08:48:21.129Z</time></trkpt><trkpt lat="43.5112761" lon="10.6120771"><ele>279.5</ele><time>2026-05-02T08:48:22.128Z</time></trkpt><trkpt lat="43.5114053" lon="10.6120519"><ele>279.75</ele><time>2026-05-02T08:48:23.13Z</time></trkpt><trkpt lat="43.5115318" lon="10.6120412"><ele>280.0</ele><time>2026-05-02T08:48:24.139Z</time></trkpt><trkpt lat="43.511657" lon="10.6120529"><ele>280.0</ele><time>2026-05-02T08:48:25.113Z</time></trkpt><trkpt lat="43.5117831" lon="10.6120763"><ele>280.0</ele><time>2026-05-02T08:48:26.123Z</time></trkpt><trkpt lat="43.511908" lon="10.6120998"><ele>280.0</ele><time>2026-05-02T08:48:27.124Z</time></trkpt><trkpt lat="43.5120282" lon="10.6121203"><ele>280.0</ele><time>2026-05-02T08:48:28.136Z</time></trkpt><trkpt lat="43.5121487" lon="10.6121311"><ele>282.5</ele><time>2026-05-02T08:48:29.129Z</time></trkpt><trkpt lat="43.5122625" lon="10.6121327"><ele>285.0</ele><time>2026-05-02T08:48:30.144Z</time></trkpt><trkpt lat="43.5123805" lon="10.612119"><ele>287.5</ele><time>2026-05-02T08:48:31.202Z</time></trkpt><trkpt lat="43.5124928" lon="10.6120963"><ele>290.0</ele><time>2026-05-02T08:48:32.185Z</time></trkpt><trkpt lat="43.5126048" lon="10.6120566"><ele>290.0</ele><time>2026-05-02T08:48:33.177Z</time></trkpt><trkpt lat="43.5127138" lon="10.6120084"><ele>290.0</ele><time>2026-05-02T08:48:34.173Z</time></trkpt><trkpt lat="43.5128123" lon="10.6119464"><ele>290.0</ele><time>2026-05-02T08:48:35.161Z</time></trkpt><trkpt lat="43.5129002" lon="10.6118666"><ele>290.0</ele><time>2026-05-02T08:48:36.165Z</time></trkpt><trkpt lat="43.5129676" lon="10.6117551"><ele>290.0</ele><time>2026-05-02T08:48:37.173Z</time></trkpt><trkpt lat="43.5130249" lon="10.6116327"><ele>288.5</ele><time>2026-05-02T08:48:38.164Z</time></trkpt><trkpt lat="43.5130635" lon="10.611495"><ele>287.0</ele><time>2026-05-02T08:48:39.168Z</time></trkpt><trkpt lat="43.5130859" lon="10.6113507"><ele>285.5</ele><time>2026-05-02T08:48:40.182Z</time></trkpt><trkpt lat="43.5131189" lon="10.6111945"><ele>284.0</ele><time>2026-05-02T08:48:41.167Z</time></trkpt><trkpt lat="43.5131409" lon="10.6110335"><ele>283.5</ele><time>2026-05-02T08:48:42.175Z</time></trkpt><trkpt lat="43.5131603" lon="10.6108664"><ele>283.0</ele><time>2026-05-02T08:48:43.179Z</time></trkpt><trkpt lat="43.5131789" lon="10.6106955"><ele>282.5</ele><time>2026-05-02T08:48:44.193Z</time></trkpt><trkpt lat="43.5131918" lon="10.6105195"><ele>282.0</ele><time>2026-05-02T08:48:45.175Z</time></trkpt><trkpt lat="43.513206" lon="10.6103443"><ele>281.25</ele><time>2026-05-02T08:48:46.168Z</time></trkpt><trkpt lat="43.5132235" lon="10.6101731"><ele>280.5</ele><time>2026-05-02T08:48:47.168Z</time></trkpt><trkpt lat="43.5132453" lon="10.6099955"><ele>279.75</ele><time>2026-05-02T08:48:48.161Z</time></trkpt><trkpt lat="43.5132796" lon="10.6098155"><ele>279.0</ele><time>2026-05-02T08:48:49.169Z</time></trkpt><trkpt lat="43.5133384" lon="10.6096476"><ele>277.75</ele><time>2026-05-02T08:48:50.18Z</time></trkpt><trkpt lat="43.5134132" lon="10.6094867"><ele>276.5</ele><time>2026-05-02T08:48:51.171Z</time></trkpt><trkpt lat="43.5135067" lon="10.6093354"><ele>275.25</ele><time>2026-05-02T08:48:52.18Z</time></trkpt><trkpt lat="43.51361" lon="10.6091745"><ele>274.0</ele><time>2026-05-02T08:48:53.169Z</time></trkpt><trkpt lat="43.5137176" lon="10.6090396"><ele>269.3333333333333</ele><time>2026-05-02T08:48:54.191Z</time></trkpt><trkpt lat="43.5138353" lon="10.6089065"><ele>264.6666666666667</ele><time>2026-05-02T08:48:55.164Z</time></trkpt><trkpt lat="43.5139521" lon="10.6087591"><ele>260.0</ele><time>2026-05-02T08:48:56.184Z</time></trkpt><trkpt lat="43.5140721" lon="10.6086132"><ele>260.0</ele><time>2026-05-02T08:48:57.171Z</time></trkpt><trkpt lat="43.5141754" lon="10.6084199"><ele>260.0</ele><time>2026-05-02T08:48:58.189Z</time></trkpt><trkpt lat="43.5143116" lon="10.608257"><ele>260.0</ele><time>2026-05-02T08:48:59.17Z</time></trkpt><trkpt lat="43.5144359" lon="10.608089"><ele>260.0</ele><time>2026-05-02T08:49:00.172Z</time></trkpt><trkpt lat="43.51456" lon="10.6079185"><ele>260.0</ele><time>2026-05-02T08:49:01.172Z</time></trkpt><trkpt lat="43.5146856" lon="10.6077521"><ele>260.0</ele><time>2026-05-02T08:49:02.175Z</time></trkpt><trkpt lat="43.5148095" lon="10.607588"><ele>258.33333333333337</ele><time>2026-05-02T08:49:03.17Z</time></trkpt><trkpt lat="43.5149323" lon="10.6074269"><ele>256.6666666666667</ele><time>2026-05-02T08:49:04.178Z</time></trkpt><trkpt lat="43.5150512" lon="10.6072654"><ele>255.0</ele><time>2026-05-02T08:49:05.163Z</time></trkpt><trkpt lat="43.5151673" lon="10.6071071"><ele>253.66666666666669</ele><time>2026-05-02T08:49:06.172Z</time></trkpt><trkpt lat="43.5152847" lon="10.6069509"><ele>252.33333333333334</ele><time>2026-05-02T08:49:07.191Z</time></trkpt><trkpt lat="43.5153959" lon="10.6067952"><ele>251.0</ele><time>2026-05-02T08:49:08.174Z</time></trkpt><trkpt lat="43.5155114" lon="10.6066435"><ele>249.66666666666669</ele><time>2026-05-02T08:49:09.182Z</time></trkpt><trkpt lat="43.5156304" lon="10.606496"><ele>248.33333333333331</ele><time>2026-05-02T08:49:10.178Z</time></trkpt><trkpt lat="43.5157533" lon="10.6063571"><ele>247.0</ele><time>2026-05-02T08:49:11.186Z</time></trkpt><trkpt lat="43.5158774" lon="10.6062314"><ele>246.66666666666666</ele><time>2026-05-02T08:49:12.17Z</time></trkpt><trkpt lat="43.5160142" lon="10.6061169"><ele>246.33333333333331</ele><time>2026-05-02T08:49:13.192Z</time></trkpt><trkpt lat="43.5161511" lon="10.6060077"><ele>246.0</ele><time>2026-05-02T08:49:14.171Z</time></trkpt><trkpt lat="43.5162897" lon="10.6058999"><ele>245.33333333333331</ele><time>2026-05-02T08:49:15.178Z</time></trkpt><trkpt lat="43.5164312" lon="10.6058055"><ele>244.66666666666666</ele><time>2026-05-02T08:49:16.188Z</time></trkpt><trkpt lat="43.5165787" lon="10.6057373"><ele>244.0</ele><time>2026-05-02T08:49:17.176Z</time></trkpt><trkpt lat="43.5167445" lon="10.6057002"><ele>244.0</ele><time>2026-05-02T08:49:18.167Z</time></trkpt><trkpt lat="43.5169137" lon="10.6056633"><ele>244.0</ele><time>2026-05-02T08:49:19.174Z</time></trkpt><trkpt lat="43.5170827" lon="10.6056305"><ele>244.0</ele><time>2026-05-02T08:49:20.175Z</time></trkpt><trkpt lat="43.5172533" lon="10.6056043"><ele>243.33333333333331</ele><time>2026-05-02T08:49:21.175Z</time></trkpt><trkpt lat="43.5174188" lon="10.6055715"><ele>242.66666666666669</ele><time>2026-05-02T08:49:22.177Z</time></trkpt><trkpt lat="43.5175769" lon="10.6055377"><ele>242.0</ele><time>2026-05-02T08:49:23.171Z</time></trkpt><trkpt lat="43.5177331" lon="10.6055061"><ele>242.0</ele><time>2026-05-02T08:49:24.17Z</time></trkpt><trkpt lat="43.5178905" lon="10.6054896"><ele>242.0</ele><time>2026-05-02T08:49:25.179Z</time></trkpt><trkpt lat="43.5180506" lon="10.6054399"><ele>242.0</ele><time>2026-05-02T08:49:26.183Z</time></trkpt><trkpt lat="43.5182075" lon="10.6053704"><ele>243.0</ele><time>2026-05-02T08:49:27.182Z</time></trkpt><trkpt lat="43.518358" lon="10.6052775"><ele>244.0</ele><time>2026-05-02T08:49:28.159Z</time></trkpt><trkpt lat="43.518508" lon="10.6051602"><ele>245.0</ele><time>2026-05-02T08:49:29.19Z</time></trkpt><trkpt lat="43.5186531" lon="10.6050305"><ele>245.0</ele><time>2026-05-02T08:49:30.182Z</time></trkpt><trkpt lat="43.5187955" lon="10.6048991"><ele>245.0</ele><time>2026-05-02T08:49:31.17Z</time></trkpt><trkpt lat="43.518938" lon="10.6047642"><ele>245.0</ele><time>2026-05-02T08:49:32.161Z</time></trkpt><trkpt lat="43.5190834" lon="10.6046357"><ele>245.0</ele><time>2026-05-02T08:49:33.166Z</time></trkpt><trkpt lat="43.5192256" lon="10.6045073"><ele>245.0</ele><time>2026-05-02T08:49:34.184Z</time></trkpt><trkpt lat="43.5193693" lon="10.6043829"><ele>245.0</ele><time>2026-05-02T08:49:35.182Z</time></trkpt><trkpt lat="43.5195074" lon="10.6042644"><ele>246.33333333333334</ele><time>2026-05-02T08:49:36.162Z</time></trkpt><trkpt lat="43.5196432" lon="10.6041464"><ele>247.66666666666669</ele><time>2026-05-02T08:49:37.171Z</time></trkpt><trkpt lat="43.5197789" lon="10.6040309"><ele>249.0</ele><time>2026-05-02T08:49:38.186Z</time></trkpt><trkpt lat="43.5199102" lon="10.603914"><ele>249.0</ele><time>2026-05-02T08:49:39.176Z</time></trkpt><trkpt lat="43.5200351" lon="10.6037979"><ele>249.0</ele><time>2026-05-02T08:49:40.184Z</time></trkpt><trkpt lat="43.5201636" lon="10.6036827"><ele>249.0</ele><time>2026-05-02T08:49:41.19Z</time></trkpt><trkpt lat="43.5202907" lon="10.6035684"><ele>252.5</ele><time>2026-05-02T08:49:42.189Z</time></trkpt><trkpt lat="43.5204088" lon="10.6034626"><ele>256.0</ele><time>2026-05-02T08:49:43.18Z</time></trkpt><trkpt lat="43.5205355" lon="10.6033632"><ele>259.5</ele><time>2026-05-02T08:49:44.189Z</time></trkpt><trkpt lat="43.5206521" lon="10.6032661"><ele>263.0</ele><time>2026-05-02T08:49:45.181Z</time></trkpt><trkpt lat="43.520768" lon="10.6031605"><ele>263.0</ele><time>2026-05-02T08:49:46.196Z</time></trkpt><trkpt lat="43.5208873" lon="10.6030566"><ele>263.0</ele><time>2026-05-02T08:49:47.187Z</time></trkpt><trkpt lat="43.5210027" lon="10.6029581"><ele>263.0</ele><time>2026-05-02T08:49:48.188Z</time></trkpt><trkpt lat="43.5211159" lon="10.602855"><ele>263.0</ele><time>2026-05-02T08:49:49.169Z</time></trkpt><trkpt lat="43.5212233" lon="10.6027458"><ele>264.5</ele><time>2026-05-02T08:49:50.175Z</time></trkpt><trkpt lat="43.5213291" lon="10.6026248"><ele>266.0</ele><time>2026-05-02T08:49:51.155Z</time></trkpt><trkpt lat="43.5214264" lon="10.6024959"><ele>267.5</ele><time>2026-05-02T08:49:52.189Z</time></trkpt><trkpt lat="43.5215215" lon="10.6023572"><ele>269.0</ele><time>2026-05-02T08:49:53.176Z</time></trkpt><trkpt lat="43.5216115" lon="10.60221"><ele>269.0</ele><time>2026-05-02T08:49:54.182Z</time></trkpt><trkpt lat="43.5216943" lon="10.6020535"><ele>269.0</ele><time>2026-05-02T08:49:55.168Z</time></trkpt><trkpt lat="43.5217715" lon="10.601894"><ele>269.0</ele><time>2026-05-02T08:49:56.177Z</time></trkpt><trkpt lat="43.5218488" lon="10.60173"><ele>269.0</ele><time>2026-05-02T08:49:57.173Z</time></trkpt><trkpt lat="43.5219229" lon="10.6015737"><ele>271.2</ele><time>2026-05-02T08:49:58.183Z</time></trkpt><trkpt lat="43.5219942" lon="10.6014307"><ele>273.4</ele><time>2026-05-02T08:49:59.164Z</time></trkpt><trkpt lat="43.522055" lon="10.6013001"><ele>275.6</ele><time>2026-05-02T08:50:00.182Z</time></trkpt><trkpt lat="43.5221132" lon="10.6011821"><ele>277.8</ele><time>2026-05-02T08:50:01.156Z</time></trkpt><trkpt lat="43.5221693" lon="10.6010697"><ele>280.0</ele><time>2026-05-02T08:50:02.145Z</time></trkpt><trkpt lat="43.5222249" lon="10.6009617"><ele>280.6</ele><time>2026-05-02T08:50:03.175Z</time></trkpt><trkpt lat="43.5222899" lon="10.6008545"><ele>281.2</ele><time>2026-05-02T08:50:04.165Z</time></trkpt><trkpt lat="43.5223598" lon="10.6007479"><ele>281.8</ele><time>2026-05-02T08:50:05.157Z</time></trkpt><trkpt lat="43.5224467" lon="10.6006433"><ele>282.4</ele><time>2026-05-02T08:50:06.155Z</time></trkpt><trkpt lat="43.5225335" lon="10.6005347"><ele>283.0</ele><time>2026-05-02T08:50:07.152Z</time></trkpt><trkpt lat="43.5226296" lon="10.6004266"><ele>281.5</ele><time>2026-05-02T08:50:08.144Z</time></trkpt><trkpt lat="43.5227337" lon="10.6003178"><ele>280.0</ele><time>2026-05-02T08:50:09.154Z</time></trkpt><trkpt lat="43.5228316" lon="10.6002033"><ele>278.5</ele><time>2026-05-02T08:50:10.153Z</time></trkpt><trkpt lat="43.5229282" lon="10.6000909"><ele>277.0</ele><time>2026-05-02T08:50:11.165Z</time></trkpt><trkpt lat="43.5230274" lon="10.599978"><ele>277.0</ele><time>2026-05-02T08:50:12.153Z</time></trkpt><trkpt lat="43.5231253" lon="10.5998643"><ele>277.0</ele><time>2026-05-02T08:50:13.157Z</time></trkpt><trkpt lat="43.5232219" lon="10.5997449"><ele>277.0</ele><time>2026-05-02T08:50:14.158Z</time></trkpt><trkpt lat="43.5233069" lon="10.5996076"><ele>277.0</ele><time>2026-05-02T08:50:15.165Z</time></trkpt><trkpt lat="43.5233758" lon="10.5994462"><ele>274.25</ele><time>2026-05-02T08:50:16.187Z</time></trkpt><trkpt lat="43.5234286" lon="10.5992673"><ele>271.5</ele><time>2026-05-02T08:50:17.172Z</time></trkpt><trkpt lat="43.5234671" lon="10.5990876"><ele>268.75</ele><time>2026-05-02T08:50:18.173Z</time></trkpt><trkpt lat="43.5235049" lon="10.5989059"><ele>266.0</ele><time>2026-05-02T08:50:19.165Z</time></trkpt><trkpt lat="43.5235479" lon="10.5987214"><ele>264.5</ele><time>2026-05-02T08:50:20.176Z</time></trkpt><trkpt lat="43.5236034" lon="10.5985489"><ele>263.0</ele><time>2026-05-02T08:50:21.154Z</time></trkpt><trkpt lat="43.5236766" lon="10.598393"><ele>261.5</ele><time>2026-05-02T08:50:22.162Z</time></trkpt><trkpt lat="43.5237721" lon="10.5982469"><ele>260.0</ele><time>2026-05-02T08:50:23.158Z</time></trkpt><trkpt lat="43.5238715" lon="10.598103"><ele>261.0</ele><time>2026-05-02T08:50:24.164Z</time></trkpt><trkpt lat="43.5239753" lon="10.5979585"><ele>262.0</ele><time>2026-05-02T08:50:25.153Z</time></trkpt><trkpt lat="43.5240848" lon="10.5978229"><ele>263.0</ele><time>2026-05-02T08:50:26.173Z</time></trkpt><trkpt lat="43.5241984" lon="10.597691"><ele>264.0</ele><time>2026-05-02T08:50:27.165Z</time></trkpt><trkpt lat="43.5243115" lon="10.5975772"><ele>264.0</ele><time>2026-05-02T08:50:28.178Z</time></trkpt><trkpt lat="43.5244247" lon="10.5974887"><ele>264.0</ele><time>2026-05-02T08:50:29.152Z</time></trkpt><trkpt lat="43.5245478" lon="10.5974299"><ele>264.0</ele><time>2026-05-02T08:50:30.16Z</time></trkpt><trkpt lat="43.5246767" lon="10.597407"><ele>264.0</ele><time>2026-05-02T08:50:31.186Z</time></trkpt><trkpt lat="43.5248124" lon="10.5974231"><ele>266.0</ele><time>2026-05-02T08:50:32.178Z</time></trkpt><trkpt lat="43.5249448" lon="10.5974605"><ele>268.0</ele><time>2026-05-02T08:50:33.17Z</time></trkpt><trkpt lat="43.5250788" lon="10.5975109"><ele>270.0</ele><time>2026-05-02T08:50:34.175Z</time></trkpt><trkpt lat="43.5252144" lon="10.5975811"><ele>272.0</ele><time>2026-05-02T08:50:35.178Z</time></trkpt><trkpt lat="43.5253536" lon="10.5976579"><ele>271.0</ele><time>2026-05-02T08:50:36.184Z</time></trkpt><trkpt lat="43.5254977" lon="10.5977345"><ele>270.0</ele><time>2026-05-02T08:50:37.169Z</time></trkpt><trkpt lat="43.525642" lon="10.5978132"><ele>269.0</ele><time>2026-05-02T08:50:38.174Z</time></trkpt><trkpt lat="43.5257873" lon="10.5978889"><ele>269.0</ele><time>2026-05-02T08:50:39.158Z</time></trkpt><trkpt lat="43.5259316" lon="10.5979661"><ele>269.0</ele><time>2026-05-02T08:50:40.158Z</time></trkpt><trkpt lat="43.5260725" lon="10.5980411"><ele>269.0</ele><time>2026-05-02T08:50:41.173Z</time></trkpt><trkpt lat="43.5262121" lon="10.5981152"><ele>268.0</ele><time>2026-05-02T08:50:42.18Z</time></trkpt><trkpt lat="43.526347" lon="10.5981894"><ele>267.0</ele><time>2026-05-02T08:50:43.197Z</time></trkpt><trkpt lat="43.5264763" lon="10.5982621"><ele>266.0</ele><time>2026-05-02T08:50:44.178Z</time></trkpt><trkpt lat="43.5266029" lon="10.5983328"><ele>265.0</ele><time>2026-05-02T08:50:45.161Z</time></trkpt><trkpt lat="43.5267273" lon="10.5983987"><ele>265.0</ele><time>2026-05-02T08:50:46.178Z</time></trkpt><trkpt lat="43.5268486" lon="10.5984467"><ele>265.0</ele><time>2026-05-02T08:50:47.178Z</time></trkpt><trkpt lat="43.5269757" lon="10.5984621"><ele>265.0</ele><time>2026-05-02T08:50:48.189Z</time></trkpt><trkpt lat="43.527101" lon="10.5984385"><ele>265.0</ele><time>2026-05-02T08:50:49.199Z</time></trkpt><trkpt lat="43.5272277" lon="10.598385"><ele>263.5</ele><time>2026-05-02T08:50:50.177Z</time></trkpt><trkpt lat="43.5273594" lon="10.5983126"><ele>262.0</ele><time>2026-05-02T08:50:51.17Z</time></trkpt><trkpt lat="43.5274897" lon="10.5982273"><ele>260.5</ele><time>2026-05-02T08:50:52.187Z</time></trkpt><trkpt lat="43.5276139" lon="10.5981339"><ele>259.0</ele><time>2026-05-02T08:50:53.182Z</time></trkpt><trkpt lat="43.5277411" lon="10.5980479"><ele>259.0</ele><time>2026-05-02T08:50:54.183Z</time></trkpt><trkpt lat="43.5278739" lon="10.5979479"><ele>259.0</ele><time>2026-05-02T08:50:55.179Z</time></trkpt><trkpt lat="43.5280057" lon="10.5978372"><ele>259.0</ele><time>2026-05-02T08:50:56.166Z</time></trkpt><trkpt lat="43.5281276" lon="10.5977091"><ele>258.0</ele><time>2026-05-02T08:50:57.186Z</time></trkpt><trkpt lat="43.5282396" lon="10.5975663"><ele>257.0</ele><time>2026-05-02T08:50:58.164Z</time></trkpt><trkpt lat="43.5283462" lon="10.5974129"><ele>256.0</ele><time>2026-05-02T08:50:59.17Z</time></trkpt><trkpt lat="43.5284515" lon="10.5972558"><ele>256.0</ele><time>2026-05-02T08:51:00.204Z</time></trkpt><trkpt lat="43.5285565" lon="10.5970953"><ele>256.0</ele><time>2026-05-02T08:51:01.162Z</time></trkpt><trkpt lat="43.5286654" lon="10.5969389"><ele>256.0</ele><time>2026-05-02T08:51:02.177Z</time></trkpt><trkpt lat="43.5287705" lon="10.5967785"><ele>253.33333333333331</ele><time>2026-05-02T08:51:03.176Z</time></trkpt><trkpt lat="43.5288791" lon="10.5966178"><ele>250.66666666666669</ele><time>2026-05-02T08:51:04.175Z</time></trkpt><trkpt lat="43.5289847" lon="10.5964504"><ele>248.0</ele><time>2026-05-02T08:51:05.17Z</time></trkpt><trkpt lat="43.5290929" lon="10.5962812"><ele>245.66666666666669</ele><time>2026-05-02T08:51:06.171Z</time></trkpt><trkpt lat="43.5291912" lon="10.5961055"><ele>243.33333333333331</ele><time>2026-05-02T08:51:07.191Z</time></trkpt><trkpt lat="43.5292882" lon="10.5959251"><ele>241.0</ele><time>2026-05-02T08:51:08.185Z</time></trkpt><trkpt lat="43.5293704" lon="10.5957304"><ele>241.0</ele><time>2026-05-02T08:51:09.177Z</time></trkpt><trkpt lat="43.5294431" lon="10.5955264"><ele>241.0</ele><time>2026-05-02T08:51:10.176Z</time></trkpt><trkpt lat="43.5295088" lon="10.5953102"><ele>241.0</ele><time>2026-05-02T08:51:11.182Z</time></trkpt><trkpt lat="43.5295627" lon="10.5950833"><ele>240.33333333333331</ele><time>2026-05-02T08:51:12.182Z</time></trkpt><trkpt lat="43.5296068" lon="10.5948499"><ele>239.66666666666669</ele><time>2026-05-02T08:51:13.17Z</time></trkpt><trkpt lat="43.529639" lon="10.5946135"><ele>239.0</ele><time>2026-05-02T08:51:14.186Z</time></trkpt><trkpt lat="43.5296627" lon="10.5943827"><ele>239.0</ele><time>2026-05-02T08:51:15.173Z</time></trkpt><trkpt lat="43.5296841" lon="10.5941634"><ele>239.0</ele><time>2026-05-02T08:51:16.188Z</time></trkpt><trkpt lat="43.5297048" lon="10.5939636"><ele>239.0</ele><time>2026-05-02T08:51:17.17Z</time></trkpt><trkpt lat="43.5297185" lon="10.5937862"><ele>239.0</ele><time>2026-05-02T08:51:18.178Z</time></trkpt><trkpt lat="43.5297353" lon="10.5936377"><ele>239.00000000000003</ele><time>2026-05-02T08:51:19.182Z</time></trkpt><trkpt lat="43.5297466" lon="10.5935177"><ele>239.0</ele><time>2026-05-02T08:51:20.183Z</time></trkpt><trkpt lat="43.5297512" lon="10.5934257"><ele>239.0</ele><time>2026-05-02T08:51:21.174Z</time></trkpt><trkpt lat="43.5296953" lon="10.5933296"><ele>239.0</ele><time>2026-05-02T08:51:23.185Z</time></trkpt><trkpt lat="43.5295911" lon="10.5932713"><ele>239.00000000000003</ele><time>2026-05-02T08:51:25.182Z</time></trkpt><trkpt lat="43.5295283" lon="10.5932324"><ele>239.0</ele><time>2026-05-02T08:51:26.183Z</time></trkpt><trkpt lat="43.529472" lon="10.5931875"><ele>237.71428571428575</ele><time>2026-05-02T08:51:27.175Z</time></trkpt><trkpt lat="43.529417" lon="10.5931435"><ele>236.42857142857144</ele><time>2026-05-02T08:51:28.173Z</time></trkpt><trkpt lat="43.5293609" lon="10.5930954"><ele>235.14285714285714</ele><time>2026-05-02T08:51:29.177Z</time></trkpt><trkpt lat="43.5293027" lon="10.5930446"><ele>233.85714285714286</ele><time>2026-05-02T08:51:30.189Z</time></trkpt><trkpt lat="43.5292407" lon="10.5929921"><ele>232.57142857142856</ele><time>2026-05-02T08:51:31.172Z</time></trkpt><trkpt lat="43.5291689" lon="10.592946"><ele>231.28571428571425</ele><time>2026-05-02T08:51:32.176Z</time></trkpt><trkpt lat="43.5290941" lon="10.5929024"><ele>229.99999999999997</ele><time>2026-05-02T08:51:33.178Z</time></trkpt><trkpt lat="43.5290217" lon="10.5928493"><ele>230.28571428571425</ele><time>2026-05-02T08:51:34.168Z</time></trkpt><trkpt lat="43.5289593" lon="10.592788"><ele>230.57142857142856</ele><time>2026-05-02T08:51:35.179Z</time></trkpt><trkpt lat="43.5288989" lon="10.5927314"><ele>230.85714285714286</ele><time>2026-05-02T08:51:36.182Z</time></trkpt><trkpt lat="43.5288431" lon="10.5926771"><ele>231.14285714285714</ele><time>2026-05-02T08:51:37.187Z</time></trkpt><trkpt lat="43.5287894" lon="10.5926299"><ele>231.42857142857144</ele><time>2026-05-02T08:51:38.166Z</time></trkpt><trkpt lat="43.5287303" lon="10.5925926"><ele>231.71428571428575</ele><time>2026-05-02T08:51:39.169Z</time></trkpt><trkpt lat="43.5286651" lon="10.5925623"><ele>232.00000000000003</ele><time>2026-05-02T08:51:40.166Z</time></trkpt><trkpt lat="43.5285966" lon="10.5925366"><ele>230.49999999999997</ele><time>2026-05-02T08:51:41.167Z</time></trkpt><trkpt lat="43.5285364" lon="10.5924991"><ele>229.0</ele><time>2026-05-02T08:51:42.179Z</time></trkpt><trkpt lat="43.5284444" lon="10.5924374"><ele>227.5</ele><time>2026-05-02T08:51:44.173Z</time></trkpt><trkpt lat="43.528377" lon="10.5923674"><ele>226.0</ele><time>2026-05-02T08:51:46.191Z</time></trkpt><trkpt lat="43.5283134" lon="10.5923018"><ele>224.49999999999997</ele><time>2026-05-02T08:51:53.176Z</time></trkpt><trkpt lat="43.5282583" lon="10.5922555"><ele>223.0</ele><time>2026-05-02T08:51:56.169Z</time></trkpt><trkpt lat="43.528187" lon="10.5922065"><ele>223.0</ele><time>2026-05-02T08:51:59.181Z</time></trkpt><trkpt lat="43.5281304" lon="10.5921596"><ele>223.0</ele><time>2026-05-02T08:52:02.182Z</time></trkpt><trkpt lat="43.5280598" lon="10.5921378"><ele>223.0</ele><time>2026-05-02T08:52:06.181Z</time></trkpt><trkpt lat="43.5279858" lon="10.5921337"><ele>223.0</ele><time>2026-05-02T08:52:10.156Z</time></trkpt><trkpt lat="43.527902" lon="10.5921108"><ele>223.0</ele><time>2026-05-02T08:52:14.165Z</time></trkpt><trkpt lat="43.5278397" lon="10.5920854"><ele>223.0</ele><time>2026-05-02T08:52:17.161Z</time></trkpt><trkpt lat="43.5277652" lon="10.5920604"><ele>223.0</ele><time>2026-05-02T08:52:21.154Z</time></trkpt><trkpt lat="43.5276826" lon="10.5920215"><ele>222.42857142857142</ele><time>2026-05-02T08:52:25.164Z</time></trkpt><trkpt lat="43.5276153" lon="10.5920128"><ele>221.85714285714283</ele><time>2026-05-02T08:52:29.161Z</time></trkpt><trkpt lat="43.5275362" lon="10.5920079"><ele>221.28571428571428</ele><time>2026-05-02T08:52:33.162Z</time></trkpt><trkpt lat="43.5274602" lon="10.5920019"><ele>220.71428571428572</ele><time>2026-05-02T08:52:37.154Z</time></trkpt><trkpt lat="43.5273887" lon="10.5920007"><ele>220.14285714285714</ele><time>2026-05-02T08:52:41.14Z</time></trkpt><trkpt lat="43.5273254" lon="10.5919812"><ele>219.57142857142858</ele><time>2026-05-02T08:52:45.146Z</time></trkpt><trkpt lat="43.5272489" lon="10.5919679"><ele>219.0</ele><time>2026-05-02T08:52:49.163Z</time></trkpt><trkpt lat="43.5271741" lon="10.5919265"><ele>216.85714285714286</ele><time>2026-05-02T08:52:53.147Z</time></trkpt><trkpt lat="43.5271121" lon="10.5919034"><ele>214.7142857142857</ele><time>2026-05-02T08:52:56.155Z</time></trkpt><trkpt lat="43.5270324" lon="10.5918643"><ele>212.57142857142856</ele><time>2026-05-02T08:53:00.161Z</time></trkpt><trkpt lat="43.5269677" lon="10.5918257"><ele>210.42857142857144</ele><time>2026-05-02T08:53:04.155Z</time></trkpt><trkpt lat="43.5269092" lon="10.5917902"><ele>208.28571428571428</ele><time>2026-05-02T08:53:08.167Z</time></trkpt><trkpt lat="43.5268518" lon="10.5917468"><ele>206.14285714285714</ele><time>2026-05-02T08:53:12.164Z</time></trkpt><trkpt lat="43.5268108" lon="10.5916594"><ele>204.0</ele><time>2026-05-02T08:53:16.163Z</time></trkpt><trkpt lat="43.5267705" lon="10.5915728"><ele>202.71428571428572</ele><time>2026-05-02T08:53:20.149Z</time></trkpt><trkpt lat="43.5267214" lon="10.5915087"><ele>201.42857142857144</ele><time>2026-05-02T08:53:23.173Z</time></trkpt><trkpt lat="43.5266591" lon="10.5914527"><ele>200.14285714285714</ele><time>2026-05-02T08:53:26.157Z</time></trkpt><trkpt lat="43.5265964" lon="10.5914299"><ele>198.85714285714286</ele><time>2026-05-02T08:53:29.151Z</time></trkpt><trkpt lat="43.5265268" lon="10.5914397"><ele>197.57142857142856</ele><time>2026-05-02T08:53:32.161Z</time></trkpt><trkpt lat="43.5264665" lon="10.591474"><ele>196.28571428571428</ele><time>2026-05-02T08:53:35.164Z</time></trkpt><trkpt lat="43.5264097" lon="10.5915198"><ele>195.0</ele><time>2026-05-02T08:53:38.17Z</time></trkpt><trkpt lat="43.5263338" lon="10.5914858"><ele>195.0</ele><time>2026-05-02T08:53:42.149Z</time></trkpt><trkpt lat="43.5262862" lon="10.5914232"><ele>195.0</ele><time>2026-05-02T08:53:45.146Z</time></trkpt><trkpt lat="43.5262551" lon="10.5913332"><ele>195.0</ele><time>2026-05-02T08:53:48.16Z</time></trkpt><trkpt lat="43.5262343" lon="10.5912325"><ele>195.0</ele><time>2026-05-02T08:53:51.155Z</time></trkpt><trkpt lat="43.5262209" lon="10.5911314"><ele>195.0</ele><time>2026-05-02T08:53:54.164Z</time></trkpt><trkpt lat="43.5262061" lon="10.5910398"><ele>195.0</ele><time>2026-05-02T08:53:57.178Z</time></trkpt><trkpt lat="43.5261991" lon="10.5909288"><ele>195.0</ele><time>2026-05-02T08:54:01.163Z</time></trkpt><trkpt lat="43.526179" lon="10.5908341"><ele>193.14285714285714</ele><time>2026-05-02T08:54:05.146Z</time></trkpt><trkpt lat="43.5261146" lon="10.5907583"><ele>191.28571428571428</ele><time>2026-05-02T08:54:09.155Z</time></trkpt><trkpt lat="43.5260443" lon="10.590728"><ele>189.42857142857144</ele><time>2026-05-02T08:54:13.16Z</time></trkpt><trkpt lat="43.5259852" lon="10.5906849"><ele>187.57142857142856</ele><time>2026-05-02T08:54:17.155Z</time></trkpt><trkpt lat="43.52592" lon="10.5906409"><ele>185.71428571428572</ele><time>2026-05-02T08:54:22.153Z</time></trkpt><trkpt lat="43.525851" lon="10.5906194"><ele>183.85714285714286</ele><time>2026-05-02T08:54:26.169Z</time></trkpt><trkpt lat="43.5257777" lon="10.5906453"><ele>182.0</ele><time>2026-05-02T08:54:30.152Z</time></trkpt><trkpt lat="43.5257063" lon="10.5906367"><ele>182.0</ele><time>2026-05-02T08:54:34.16Z</time></trkpt><trkpt lat="43.5256632" lon="10.5905461"><ele>182.0</ele><time>2026-05-02T08:54:39.157Z</time></trkpt><trkpt lat="43.5256001" lon="10.5904988"><ele>182.0</ele><time>2026-05-02T08:54:43.159Z</time></trkpt><trkpt lat="43.5255374" lon="10.5904637"><ele>182.0</ele><time>2026-05-02T08:54:47.154Z</time></trkpt><trkpt lat="43.5254662" lon="10.5904543"><ele>182.0</ele><time>2026-05-02T08:54:51.159Z</time></trkpt><trkpt lat="43.5253984" lon="10.5904577"><ele>182.0</ele><time>2026-05-02T08:54:55.148Z</time></trkpt><trkpt lat="43.5253221" lon="10.5904521"><ele>182.0</ele><time>2026-05-02T08:54:59.155Z</time></trkpt><trkpt lat="43.5252445" lon="10.5904784"><ele>180.14285714285714</ele><time>2026-05-02T08:55:04.16Z</time></trkpt><trkpt lat="43.5251717" lon="10.5904981"><ele>178.28571428571428</ele><time>2026-05-02T08:55:08.154Z</time></trkpt><trkpt lat="43.5250979" lon="10.5905339"><ele>176.42857142857144</ele><time>2026-05-02T08:55:14.16Z</time></trkpt><trkpt lat="43.5250266" lon="10.5905482"><ele>174.57142857142856</ele><time>2026-05-02T08:55:18.149Z</time></trkpt><trkpt lat="43.5249605" lon="10.5905479"><ele>172.71428571428572</ele><time>2026-05-02T08:55:22.162Z</time></trkpt><trkpt lat="43.5248833" lon="10.5905689"><ele>170.85714285714286</ele><time>2026-05-02T08:55:27.155Z</time></trkpt><trkpt lat="43.5248464" lon="10.5906512"><ele>169.0</ele><time>2026-05-02T08:55:31.149Z</time></trkpt><trkpt lat="43.5248292" lon="10.5907435"><ele>169.0</ele><time>2026-05-02T08:55:35.15Z</time></trkpt><trkpt lat="43.5247977" lon="10.5908313"><ele>169.0</ele><time>2026-05-02T08:55:39.149Z</time></trkpt><trkpt lat="43.5247598" lon="10.5909175"><ele>169.0</ele><time>2026-05-02T08:55:42.165Z</time></trkpt><trkpt lat="43.5247116" lon="10.5909801"><ele>169.0</ele><time>2026-05-02T08:55:46.137Z</time></trkpt><trkpt lat="43.5246439" lon="10.5910021"><ele>169.0</ele><time>2026-05-02T08:55:56.142Z</time></trkpt><trkpt lat="43.5245819" lon="10.5909817"><ele>169.0</ele><time>2026-05-02T08:56:08.151Z</time></trkpt><trkpt lat="43.5245727" lon="10.5908869"><ele>169.0</ele><time>2026-05-02T08:56:13.148Z</time></trkpt><trkpt lat="43.5245998" lon="10.5907929"><ele>169.0</ele><time>2026-05-02T08:56:17.144Z</time></trkpt><trkpt lat="43.5246136" lon="10.5906926"><ele>169.0</ele><time>2026-05-02T08:56:21.149Z</time></trkpt><trkpt lat="43.5246198" lon="10.5905858"><ele>169.0</ele><time>2026-05-02T08:56:25.154Z</time></trkpt><trkpt lat="43.5246268" lon="10.5904836"><ele>169.0</ele><time>2026-05-02T08:56:29.147Z</time></trkpt><trkpt lat="43.5246625" lon="10.5904055"><ele>169.0</ele><time>2026-05-02T08:56:33.15Z</time></trkpt><trkpt lat="43.5246856" lon="10.5903066"><ele>169.0</ele><time>2026-05-02T08:56:38.153Z</time></trkpt><trkpt lat="43.5247096" lon="10.5902028"><ele>169.0</ele><time>2026-05-02T08:56:42.152Z</time></trkpt><trkpt lat="43.5247598" lon="10.5901245"><ele>169.85714285714286</ele><time>2026-05-02T08:56:46.15Z</time></trkpt><trkpt lat="43.524807" lon="10.5900601"><ele>170.71428571428572</ele><time>2026-05-02T08:56:49.15Z</time></trkpt><trkpt lat="43.5248546" lon="10.5899703"><ele>171.57142857142856</ele><time>2026-05-02T08:56:53.143Z</time></trkpt><trkpt lat="43.5249064" lon="10.5899082"><ele>172.42857142857144</ele><time>2026-05-02T08:56:56.152Z</time></trkpt><trkpt lat="43.5249775" lon="10.5898653"><ele>173.28571428571428</ele><time>2026-05-02T08:57:00.147Z</time></trkpt><trkpt lat="43.5250239" lon="10.5898049"><ele>174.14285714285714</ele><time>2026-05-02T08:57:04.159Z</time></trkpt><trkpt lat="43.5250435" lon="10.5897145"><ele>175.0</ele><time>2026-05-02T08:57:07.154Z</time></trkpt><trkpt lat="43.5250471" lon="10.5896256"><ele>175.0</ele><time>2026-05-02T08:57:10.145Z</time></trkpt><trkpt lat="43.5250462" lon="10.5895197"><ele>175.0</ele><time>2026-05-02T08:57:14.158Z</time></trkpt><trkpt lat="43.525029" lon="10.5894094"><ele>175.0</ele><time>2026-05-02T08:57:18.153Z</time></trkpt><trkpt lat="43.5250227" lon="10.5893004"><ele>175.0</ele><time>2026-05-02T08:57:22.161Z</time></trkpt><trkpt lat="43.525028" lon="10.589195"><ele>175.0</ele><time>2026-05-02T08:57:26.161Z</time></trkpt><trkpt lat="43.5250398" lon="10.5890948"><ele>175.0</ele><time>2026-05-02T08:57:30.158Z</time></trkpt><trkpt lat="43.5250375" lon="10.5889927"><ele>177.5</ele><time>2026-05-02T08:57:34.167Z</time></trkpt><trkpt lat="43.5250575" lon="10.5888715"><ele>180.0</ele><time>2026-05-02T08:57:39.167Z</time></trkpt><trkpt lat="43.5250732" lon="10.5887847"><ele>182.5</ele><time>2026-05-02T08:57:42.167Z</time></trkpt><trkpt lat="43.5251119" lon="10.588688"><ele>185.0</ele><time>2026-05-02T08:57:46.166Z</time></trkpt><trkpt lat="43.525113" lon="10.5886005"><ele>187.5</ele><time>2026-05-02T08:57:49.17Z</time></trkpt><trkpt lat="43.5250838" lon="10.5884919"><ele>190.0</ele><time>2026-05-02T08:57:53.168Z</time></trkpt><trkpt lat="43.525051" lon="10.5883991"><ele>191.0</ele><time>2026-05-02T08:57:56.163Z</time></trkpt><trkpt lat="43.525019" lon="10.588304"><ele>192.0</ele><time>2026-05-02T08:58:00.165Z</time></trkpt><trkpt lat="43.5249671" lon="10.5882161"><ele>193.0</ele><time>2026-05-02T08:58:04.169Z</time></trkpt><trkpt lat="43.5249373" lon="10.5881343"><ele>194.0</ele><time>2026-05-02T08:58:08.162Z</time></trkpt><trkpt lat="43.5248998" lon="10.5880524"><ele>194.99999999999997</ele><time>2026-05-02T08:58:11.156Z</time></trkpt><trkpt lat="43.5248677" lon="10.5879645"><ele>196.0</ele><time>2026-05-02T08:58:14.164Z</time></trkpt><trkpt lat="43.5248236" lon="10.5878666"><ele>194.71428571428572</ele><time>2026-05-02T08:58:18.164Z</time></trkpt><trkpt lat="43.5247777" lon="10.5878013"><ele>193.42857142857144</ele><time>2026-05-02T08:58:21.159Z</time></trkpt><trkpt lat="43.5247387" lon="10.5877091"><ele>192.14285714285714</ele><time>2026-05-02T08:58:25.156Z</time></trkpt><trkpt lat="43.5247167" lon="10.5876039"><ele>190.85714285714286</ele><time>2026-05-02T08:58:30.157Z</time></trkpt><trkpt lat="43.5247138" lon="10.5875144"><ele>189.57142857142858</ele><time>2026-05-02T08:58:33.152Z</time></trkpt><trkpt lat="43.5246569" lon="10.5874266"><ele>188.28571428571428</ele><time>2026-05-02T08:58:37.161Z</time></trkpt><trkpt lat="43.5246125" lon="10.5873437"><ele>187.0</ele><time>2026-05-02T08:58:43.163Z</time></trkpt><trkpt lat="43.5246154" lon="10.5872427"><ele>187.0</ele><time>2026-05-02T08:58:50.152Z</time></trkpt><trkpt lat="43.5245924" lon="10.5871609"><ele>187.0</ele><time>2026-05-02T08:58:52.147Z</time></trkpt><trkpt lat="43.524567" lon="10.5870658"><ele>187.0</ele><time>2026-05-02T08:58:55.153Z</time></trkpt><trkpt lat="43.5245275" lon="10.58697"><ele>187.0</ele><time>2026-05-02T08:58:58.168Z</time></trkpt><trkpt lat="43.5244788" lon="10.5869102"><ele>187.0</ele><time>2026-05-02T08:59:01.152Z</time></trkpt><trkpt lat="43.5244252" lon="10.5868394"><ele>187.0</ele><time>2026-05-02T08:59:04.15Z</time></trkpt><trkpt lat="43.524366" lon="10.5867708"><ele>187.0</ele><time>2026-05-02T08:59:07.153Z</time></trkpt><trkpt lat="43.524325" lon="10.5866952"><ele>190.0</ele><time>2026-05-02T08:59:10.159Z</time></trkpt><trkpt lat="43.5242838" lon="10.5866288"><ele>193.0</ele><time>2026-05-02T08:59:13.157Z</time></trkpt><trkpt lat="43.5242252" lon="10.5865859"><ele>196.0</ele><time>2026-05-02T08:59:16.163Z</time></trkpt><trkpt lat="43.5241455" lon="10.5865415"><ele>199.0</ele><time>2026-05-02T08:59:20.16Z</time></trkpt><trkpt lat="43.5240833" lon="10.5865046"><ele>202.0</ele><time>2026-05-02T08:59:24.157Z</time></trkpt><trkpt lat="43.5240038" lon="10.5864653"><ele>205.0</ele><time>2026-05-02T08:59:28.159Z</time></trkpt><trkpt lat="43.5239398" lon="10.5864337"><ele>208.0</ele><time>2026-05-02T08:59:31.165Z</time></trkpt><trkpt lat="43.5239313" lon="10.5863265"><ele>208.0</ele><time>2026-05-02T08:59:38.163Z</time></trkpt><trkpt lat="43.5239861" lon="10.5862761"><ele>208.0</ele><time>2026-05-02T08:59:42.151Z</time></trkpt><trkpt lat="43.524037" lon="10.5862072"><ele>208.0</ele><time>2026-05-02T08:59:46.143Z</time></trkpt><trkpt lat="43.5240932" lon="10.5861385"><ele>208.0</ele><time>2026-05-02T08:59:50.145Z</time></trkpt><trkpt lat="43.5241597" lon="10.5860681"><ele>208.0</ele><time>2026-05-02T08:59:54.15Z</time></trkpt><trkpt lat="43.5242165" lon="10.5860067"><ele>208.0</ele><time>2026-05-02T08:59:57.156Z</time></trkpt><trkpt lat="43.5242668" lon="10.5859379"><ele>208.0</ele><time>2026-05-02T09:00:00.154Z</time></trkpt><trkpt lat="43.5242786" lon="10.5858417"><ele>207.7142857142857</ele><time>2026-05-02T09:00:03.153Z</time></trkpt><trkpt lat="43.5242791" lon="10.5857534"><ele>207.42857142857144</ele><time>2026-05-02T09:00:06.159Z</time></trkpt><trkpt lat="43.5242759" lon="10.585665"><ele>207.14285714285714</ele><time>2026-05-02T09:00:09.161Z</time></trkpt><trkpt lat="43.5242578" lon="10.5855608"><ele>206.85714285714283</ele><time>2026-05-02T09:00:13.149Z</time></trkpt><trkpt lat="43.5242426" lon="10.5854596"><ele>206.57142857142856</ele><time>2026-05-02T09:00:16.149Z</time></trkpt><trkpt lat="43.5242358" lon="10.5853502"><ele>206.28571428571428</ele><time>2026-05-02T09:00:20.157Z</time></trkpt><trkpt lat="43.5242182" lon="10.5852579"><ele>206.0</ele><time>2026-05-02T09:00:25.153Z</time></trkpt><trkpt lat="43.5242115" lon="10.5851313"><ele>205.57142857142856</ele><time>2026-05-02T09:00:30.149Z</time></trkpt><trkpt lat="43.5242105" lon="10.5850419"><ele>205.14285714285714</ele><time>2026-05-02T09:00:32.175Z</time></trkpt><trkpt lat="43.5242109" lon="10.584945"><ele>204.71428571428572</ele><time>2026-05-02T09:00:35.157Z</time></trkpt><trkpt lat="43.5241859" lon="10.584856"><ele>204.28571428571428</ele><time>2026-05-02T09:00:38.149Z</time></trkpt><trkpt lat="43.5241627" lon="10.5847743"><ele>203.85714285714286</ele><time>2026-05-02T09:00:42.137Z</time></trkpt><trkpt lat="43.5241263" lon="10.584675"><ele>203.42857142857142</ele><time>2026-05-02T09:00:46.145Z</time></trkpt><trkpt lat="43.5240686" lon="10.5845819"><ele>203.0</ele><time>2026-05-02T09:00:49.145Z</time></trkpt><trkpt lat="43.5240423" lon="10.5844863"><ele>200.71428571428572</ele><time>2026-05-02T09:00:53.143Z</time></trkpt><trkpt lat="43.5240281" lon="10.5843955"><ele>198.42857142857144</ele><time>2026-05-02T09:00:58.134Z</time></trkpt><trkpt lat="43.524031" lon="10.5842996"><ele>196.14285714285714</ele><time>2026-05-02T09:02:55.137Z</time></trkpt><trkpt lat="43.5240336" lon="10.5842039"><ele>193.85714285714286</ele><time>2026-05-02T09:03:00.15Z</time></trkpt><trkpt lat="43.5240056" lon="10.5841115"><ele>191.57142857142858</ele><time>2026-05-02T09:03:04.149Z</time></trkpt><trkpt lat="43.5239632" lon="10.5840123"><ele>189.28571428571428</ele><time>2026-05-02T09:03:09.155Z</time></trkpt><trkpt lat="43.5239369" lon="10.5839182"><ele>187.0</ele><time>2026-05-02T09:03:13.149Z</time></trkpt><trkpt lat="43.5239293" lon="10.5838135"><ele>187.0</ele><time>2026-05-02T09:03:17.156Z</time></trkpt><trkpt lat="43.5238987" lon="10.5837283"><ele>187.0</ele><time>2026-05-02T09:03:20.137Z</time></trkpt><trkpt lat="43.5238407" lon="10.583669"><ele>187.0</ele><time>2026-05-02T09:03:24.149Z</time></trkpt><trkpt lat="43.523791" lon="10.5835941"><ele>187.0</ele><time>2026-05-02T09:03:27.156Z</time></trkpt><trkpt lat="43.523746" lon="10.5835176"><ele>187.0</ele><time>2026-05-02T09:03:31.142Z</time></trkpt><trkpt lat="43.5237125" lon="10.5834345"><ele>187.0</ele><time>2026-05-02T09:03:34.146Z</time></trkpt><trkpt lat="43.5236765" lon="10.5833379"><ele>187.0</ele><time>2026-05-02T09:03:38.144Z</time></trkpt><trkpt lat="43.5236281" lon="10.5832506"><ele>188.7142857142857</ele><time>2026-05-02T09:03:41.149Z</time></trkpt><trkpt lat="43.5235845" lon="10.5831725"><ele>190.42857142857144</ele><time>2026-05-02T09:03:45.146Z</time></trkpt><trkpt lat="43.5235328" lon="10.5830893"><ele>192.14285714285714</ele><time>2026-05-02T09:03:49.141Z</time></trkpt><trkpt lat="43.5234985" lon="10.5830132"><ele>193.85714285714283</ele><time>2026-05-02T09:03:52.145Z</time></trkpt><trkpt lat="43.523457" lon="10.5829171"><ele>195.57142857142856</ele><time>2026-05-02T09:03:56.147Z</time></trkpt><trkpt lat="43.5234271" lon="10.582832"><ele>197.28571428571428</ele><time>2026-05-02T09:03:59.146Z</time></trkpt><trkpt lat="43.5233965" lon="10.5827419"><ele>199.0</ele><time>2026-05-02T09:04:02.146Z</time></trkpt><trkpt lat="43.5233685" lon="10.5826569"><ele>198.99999999999997</ele><time>2026-05-02T09:04:05.147Z</time></trkpt><trkpt lat="43.5233343" lon="10.5825555"><ele>199.0</ele><time>2026-05-02T09:04:09.144Z</time></trkpt><trkpt lat="43.5233052" lon="10.5824744"><ele>199.0</ele><time>2026-05-02T09:04:12.146Z</time></trkpt><trkpt lat="43.5232613" lon="10.5823848"><ele>199.0</ele><time>2026-05-02T09:04:16.148Z</time></trkpt><trkpt lat="43.5232115" lon="10.5823116"><ele>198.99999999999997</ele><time>2026-05-02T09:04:20.148Z</time></trkpt><trkpt lat="43.5231692" lon="10.5822215"><ele>199.0</ele><time>2026-05-02T09:04:24.144Z</time></trkpt><trkpt lat="43.5231109" lon="10.5821585"><ele>198.99999999999997</ele><time>2026-05-02T09:04:28.158Z</time></trkpt><trkpt lat="43.5230465" lon="10.582184"><ele>199.0</ele><time>2026-05-02T09:04:32.146Z</time></trkpt><trkpt lat="43.5229695" lon="10.5822271"><ele>199.0</ele><time>2026-05-02T09:04:36.159Z</time></trkpt><trkpt lat="43.5228984" lon="10.5822584"><ele>199.0</ele><time>2026-05-02T09:04:40.144Z</time></trkpt><trkpt lat="43.5228276" lon="10.5823034"><ele>199.0</ele><time>2026-05-02T09:04:44.148Z</time></trkpt><trkpt lat="43.5227667" lon="10.5823478"><ele>198.99999999999997</ele><time>2026-05-02T09:04:48.148Z</time></trkpt><trkpt lat="43.5227062" lon="10.5823976"><ele>199.0</ele><time>2026-05-02T09:04:52.132Z</time></trkpt><trkpt lat="43.5226507" lon="10.5824495"><ele>199.49999999999997</ele><time>2026-05-02T09:04:56.14Z</time></trkpt><trkpt lat="43.522581" lon="10.582503"><ele>200.0</ele><time>2026-05-02T09:05:00.135Z</time></trkpt><trkpt lat="43.5225199" lon="10.5825356"><ele>200.5</ele><time>2026-05-02T09:05:03.137Z</time></trkpt><trkpt lat="43.5224484" lon="10.5825998"><ele>201.0</ele><time>2026-05-02T09:05:07.133Z</time></trkpt><trkpt lat="43.5223902" lon="10.5826578"><ele>201.49999999999997</ele><time>2026-05-02T09:05:10.137Z</time></trkpt><trkpt lat="43.5223297" lon="10.5827317"><ele>202.0</ele><time>2026-05-02T09:05:13.147Z</time></trkpt><trkpt lat="43.5222692" lon="10.5827788"><ele>202.0</ele><time>2026-05-02T09:05:17.137Z</time></trkpt><trkpt lat="43.5221807" lon="10.5827991"><ele>202.0</ele><time>2026-05-02T09:05:21.127Z</time></trkpt><trkpt lat="43.5221175" lon="10.582825"><ele>202.0</ele><time>2026-05-02T09:05:24.145Z</time></trkpt><trkpt lat="43.5220531" lon="10.5828782"><ele>202.0</ele><time>2026-05-02T09:05:27.144Z</time></trkpt><trkpt lat="43.5219973" lon="10.5829286"><ele>202.0</ele><time>2026-05-02T09:05:30.139Z</time></trkpt><trkpt lat="43.5219384" lon="10.5829987"><ele>202.0</ele><time>2026-05-02T09:05:34.143Z</time></trkpt><trkpt lat="43.5218969" lon="10.5830826"><ele>202.0</ele><time>2026-05-02T09:05:38.149Z</time></trkpt><trkpt lat="43.5218675" lon="10.5831601"><ele>204.66666666666666</ele><time>2026-05-02T09:05:43.136Z</time></trkpt><trkpt lat="43.5217902" lon="10.5831366"><ele>207.33333333333331</ele><time>2026-05-02T09:05:49.14Z</time></trkpt><trkpt lat="43.521713" lon="10.5831203"><ele>210.0</ele><time>2026-05-02T09:05:53.13Z</time></trkpt><trkpt lat="43.5216321" lon="10.5831252"><ele>212.66666666666669</ele><time>2026-05-02T09:05:57.141Z</time></trkpt><trkpt lat="43.5215576" lon="10.5831316"><ele>215.33333333333334</ele><time>2026-05-02T09:06:02.144Z</time></trkpt><trkpt lat="43.5214839" lon="10.5831452"><ele>218.0</ele><time>2026-05-02T09:06:06.142Z</time></trkpt><trkpt lat="43.5214189" lon="10.583202"><ele>218.00000000000003</ele><time>2026-05-02T09:06:10.154Z</time></trkpt><trkpt lat="43.5213265" lon="10.5832325"><ele>218.0</ele><time>2026-05-02T09:06:15.135Z</time></trkpt><trkpt lat="43.5212645" lon="10.5832644"><ele>218.0</ele><time>2026-05-02T09:06:18.13Z</time></trkpt><trkpt lat="43.5212043" lon="10.5833226"><ele>218.0</ele><time>2026-05-02T09:06:21.129Z</time></trkpt><trkpt lat="43.521153" lon="10.5833742"><ele>218.00000000000003</ele><time>2026-05-02T09:06:24.14Z</time></trkpt><trkpt lat="43.521086" lon="10.5834383"><ele>218.0</ele><time>2026-05-02T09:06:29.146Z</time></trkpt><trkpt lat="43.5210237" lon="10.5834994"><ele>219.50000000000003</ele><time>2026-05-02T09:06:33.141Z</time></trkpt><trkpt lat="43.5209582" lon="10.5835258"><ele>221.0</ele><time>2026-05-02T09:06:37.136Z</time></trkpt><trkpt lat="43.5208761" lon="10.5835447"><ele>222.5</ele><time>2026-05-02T09:06:41.137Z</time></trkpt><trkpt lat="43.5207988" lon="10.583584"><ele>224.0</ele><time>2026-05-02T09:06:44.149Z</time></trkpt><trkpt lat="43.5207348" lon="10.583641"><ele>225.50000000000003</ele><time>2026-05-02T09:06:48.145Z</time></trkpt><trkpt lat="43.5206787" lon="10.5837009"><ele>227.0</ele><time>2026-05-02T09:06:51.159Z</time></trkpt><trkpt lat="43.5206287" lon="10.5837723"><ele>227.0</ele><time>2026-05-02T09:06:54.129Z</time></trkpt><trkpt lat="43.5205891" lon="10.5838534"><ele>227.00000000000003</ele><time>2026-05-02T09:06:57.143Z</time></trkpt><trkpt lat="43.5205356" lon="10.5839147"><ele>227.0</ele><time>2026-05-02T09:07:00.145Z</time></trkpt><trkpt lat="43.5204923" lon="10.5839786"><ele>227.0</ele><time>2026-05-02T09:07:03.147Z</time></trkpt><trkpt lat="43.5204694" lon="10.5840665"><ele>227.00000000000003</ele><time>2026-05-02T09:07:06.142Z</time></trkpt><trkpt lat="43.5204615" lon="10.5841534"><ele>227.0</ele><time>2026-05-02T09:07:09.154Z</time></trkpt><trkpt lat="43.5204657" lon="10.5842525"><ele>227.0</ele><time>2026-05-02T09:07:13.143Z</time></trkpt><trkpt lat="43.5204609" lon="10.5843518"><ele>227.00000000000003</ele><time>2026-05-02T09:07:18.136Z</time></trkpt><trkpt lat="43.5204602" lon="10.5844523"><ele>227.0</ele><time>2026-05-02T09:07:22.144Z</time></trkpt><trkpt lat="43.520472" lon="10.5845548"><ele>227.0</ele><time>2026-05-02T09:07:27.143Z</time></trkpt><trkpt lat="43.5203933" lon="10.5845543"><ele>227.0</ele><time>2026-05-02T09:07:36.146Z</time></trkpt><trkpt lat="43.5203198" lon="10.5845297"><ele>227.00000000000003</ele><time>2026-05-02T09:07:41.149Z</time></trkpt><trkpt lat="43.5202399" lon="10.5845433"><ele>227.0</ele><time>2026-05-02T09:07:45.135Z</time></trkpt><trkpt lat="43.5201682" lon="10.5845408"><ele>227.42857142857144</ele><time>2026-05-02T09:07:49.142Z</time></trkpt><trkpt lat="43.5200978" lon="10.5845548"><ele>227.8571428571429</ele><time>2026-05-02T09:07:53.151Z</time></trkpt><trkpt lat="43.5200403" lon="10.5845903"><ele>228.28571428571428</ele><time>2026-05-02T09:07:57.143Z</time></trkpt><trkpt lat="43.5199986" lon="10.5846815"><ele>228.71428571428572</ele><time>2026-05-02T09:08:04.151Z</time></trkpt><trkpt lat="43.5199552" lon="10.5847778"><ele>229.14285714285714</ele><time>2026-05-02T09:08:07.144Z</time></trkpt><trkpt lat="43.5199136" lon="10.5848617"><ele>229.57142857142856</ele><time>2026-05-02T09:08:10.153Z</time></trkpt><trkpt lat="43.5198898" lon="10.5849535"><ele>229.99999999999997</ele><time>2026-05-02T09:08:14.147Z</time></trkpt><trkpt lat="43.5198644" lon="10.5850558"><ele>229.99999999999997</ele><time>2026-05-02T09:08:19.146Z</time></trkpt><trkpt lat="43.5198504" lon="10.5851592"><ele>230.0</ele><time>2026-05-02T09:08:24.15Z</time></trkpt><trkpt lat="43.5198248" lon="10.5852456"><ele>229.99999999999997</ele><time>2026-05-02T09:08:29.135Z</time></trkpt><trkpt lat="43.5198168" lon="10.5853462"><ele>229.99999999999997</ele><time>2026-05-02T09:08:34.148Z</time></trkpt><trkpt lat="43.5197885" lon="10.5854278"><ele>230.0</ele><time>2026-05-02T09:08:39.142Z</time></trkpt><trkpt lat="43.5197743" lon="10.585521"><ele>229.99999999999997</ele><time>2026-05-02T09:08:45.149Z</time></trkpt><trkpt lat="43.5198292" lon="10.5855799"><ele>229.99999999999997</ele><time>2026-05-02T09:09:13.142Z</time></trkpt><trkpt lat="43.5198919" lon="10.5855362"><ele>233.28571428571425</ele><time>2026-05-02T09:09:18.14Z</time></trkpt><trkpt lat="43.5199497" lon="10.5854909"><ele>236.57142857142856</ele><time>2026-05-02T09:09:23.139Z</time></trkpt><trkpt lat="43.5200103" lon="10.5854593"><ele>239.85714285714286</ele><time>2026-05-02T09:09:27.149Z</time></trkpt><trkpt lat="43.5200837" lon="10.5854425"><ele>243.14285714285714</ele><time>2026-05-02T09:09:32.144Z</time></trkpt><trkpt lat="43.5201483" lon="10.5854687"><ele>246.42857142857144</ele><time>2026-05-02T09:09:37.159Z</time></trkpt><trkpt lat="43.5200893" lon="10.5855266"><ele>249.71428571428575</ele><time>2026-05-02T09:09:42.147Z</time></trkpt><trkpt lat="43.5200945" lon="10.585615"><ele>253.00000000000003</ele><time>2026-05-02T09:09:47.142Z</time></trkpt><trkpt lat="43.5201614" lon="10.5856"><ele>252.99999999999997</ele><time>2026-05-02T09:09:53.151Z</time></trkpt><trkpt lat="43.5202327" lon="10.58561"><ele>253.0</ele><time>2026-05-02T09:11:44.145Z</time></trkpt><trkpt lat="43.5203121" lon="10.5856451"><ele>253.0</ele><time>2026-05-02T09:11:49.149Z</time></trkpt><trkpt lat="43.5203832" lon="10.5856884"><ele>253.0</ele><time>2026-05-02T09:11:53.154Z</time></trkpt><trkpt lat="43.52043" lon="10.5857736"><ele>252.99999999999997</ele><time>2026-05-02T09:11:58.146Z</time></trkpt><trkpt lat="43.5204659" lon="10.5858707"><ele>253.0</ele><time>2026-05-02T09:12:02.152Z</time></trkpt><trkpt lat="43.5204912" lon="10.5859529"><ele>255.42857142857144</ele><time>2026-05-02T09:12:06.144Z</time></trkpt><trkpt lat="43.5205008" lon="10.5860388"><ele>257.8571428571429</ele><time>2026-05-02T09:12:10.145Z</time></trkpt><trkpt lat="43.5205285" lon="10.5861228"><ele>260.2857142857143</ele><time>2026-05-02T09:12:14.152Z</time></trkpt><trkpt lat="43.5205525" lon="10.5862261"><ele>262.7142857142857</ele><time>2026-05-02T09:12:18.154Z</time></trkpt><trkpt lat="43.5206115" lon="10.586258"><ele>265.1428571428571</ele><time>2026-05-02T09:12:40.138Z</time></trkpt><trkpt lat="43.5206644" lon="10.5862088"><ele>267.57142857142856</ele><time>2026-05-02T09:12:43.142Z</time></trkpt><trkpt lat="43.5207243" lon="10.5861401"><ele>270.0</ele><time>2026-05-02T09:12:47.146Z</time></trkpt><trkpt lat="43.5207645" lon="10.5860667"><ele>270.0</ele><time>2026-05-02T09:12:50.152Z</time></trkpt><trkpt lat="43.5207972" lon="10.5859843"><ele>270.0</ele><time>2026-05-02T09:12:54.151Z</time></trkpt><trkpt lat="43.5208419" lon="10.5859041"><ele>270.0</ele><time>2026-05-02T09:12:57.145Z</time></trkpt><trkpt lat="43.5208922" lon="10.5858259"><ele>270.0</ele><time>2026-05-02T09:13:02.145Z</time></trkpt><trkpt lat="43.5209427" lon="10.585756"><ele>270.0</ele><time>2026-05-02T09:13:07.134Z</time></trkpt><trkpt lat="43.5210027" lon="10.5856901"><ele>270.0</ele><time>2026-05-02T09:13:11.145Z</time></trkpt><trkpt lat="43.5210642" lon="10.5856169"><ele>270.0</ele><time>2026-05-02T09:13:16.135Z</time></trkpt><trkpt lat="43.5211134" lon="10.5855395"><ele>270.0</ele><time>2026-05-02T09:13:21.149Z</time></trkpt><trkpt lat="43.5211565" lon="10.5854649"><ele>270.0</ele><time>2026-05-02T09:13:25.146Z</time></trkpt><trkpt lat="43.5212143" lon="10.585379"><ele>270.0</ele><time>2026-05-02T09:13:29.141Z</time></trkpt><trkpt lat="43.5212644" lon="10.5853157"><ele>270.0</ele><time>2026-05-02T09:13:33.146Z</time></trkpt><trkpt lat="43.521349" lon="10.5852786"><ele>270.0</ele><time>2026-05-02T09:13:38.154Z</time></trkpt><trkpt lat="43.5214164" lon="10.5853088"><ele>270.0</ele><time>2026-05-02T09:13:42.149Z</time></trkpt><trkpt lat="43.5214829" lon="10.5853586"><ele>272.1428571428571</ele><time>2026-05-02T09:13:45.151Z</time></trkpt><trkpt lat="43.5215408" lon="10.5853963"><ele>274.2857142857143</ele><time>2026-05-02T09:13:49.148Z</time></trkpt><trkpt lat="43.521609" lon="10.5853917"><ele>276.42857142857144</ele><time>2026-05-02T09:13:51.16Z</time></trkpt><trkpt lat="43.5216828" lon="10.5854096"><ele>278.57142857142856</ele><time>2026-05-02T09:13:56.153Z</time></trkpt><trkpt lat="43.5216488" lon="10.5855104"><ele>280.7142857142857</ele><time>2026-05-02T09:14:01.156Z</time></trkpt><trkpt lat="43.5216339" lon="10.5856111"><ele>282.85714285714283</ele><time>2026-05-02T09:14:05.164Z</time></trkpt><trkpt lat="43.5216235" lon="10.5856986"><ele>285.0</ele><time>2026-05-02T09:14:08.163Z</time></trkpt><trkpt lat="43.5215971" lon="10.5857815"><ele>285.0</ele><time>2026-05-02T09:14:12.16Z</time></trkpt><trkpt lat="43.5215919" lon="10.5859052"><ele>285.0</ele><time>2026-05-02T09:14:16.152Z</time></trkpt><trkpt lat="43.5215813" lon="10.5860047"><ele>285.0</ele><time>2026-05-02T09:14:20.163Z</time></trkpt><trkpt lat="43.52155" lon="10.5860874"><ele>285.0</ele><time>2026-05-02T09:14:24.175Z</time></trkpt><trkpt lat="43.5215058" lon="10.5861697"><ele>285.0</ele><time>2026-05-02T09:14:28.169Z</time></trkpt><trkpt lat="43.5214751" lon="10.5862456"><ele>285.0</ele><time>2026-05-02T09:14:31.162Z</time></trkpt><trkpt lat="43.5214459" lon="10.5863408"><ele>285.0</ele><time>2026-05-02T09:14:35.158Z</time></trkpt><trkpt lat="43.5214188" lon="10.5864245"><ele>284.8333333333333</ele><time>2026-05-02T09:14:39.158Z</time></trkpt><trkpt lat="43.5213936" lon="10.5865372"><ele>284.6666666666667</ele><time>2026-05-02T09:14:43.155Z</time></trkpt><trkpt lat="43.521362" lon="10.5866126"><ele>284.5</ele><time>2026-05-02T09:14:46.162Z</time></trkpt><trkpt lat="43.5213299" lon="10.5867031"><ele>284.33333333333337</ele><time>2026-05-02T09:14:50.151Z</time></trkpt><trkpt lat="43.5212909" lon="10.5868009"><ele>284.1666666666667</ele><time>2026-05-02T09:14:54.146Z</time></trkpt><trkpt lat="43.5212255" lon="10.5868728"><ele>284.0</ele><time>2026-05-02T09:14:59.146Z</time></trkpt><trkpt lat="43.5211801" lon="10.5869518"><ele>285.2857142857143</ele><time>2026-05-02T09:15:03.148Z</time></trkpt><trkpt lat="43.5211189" lon="10.587012"><ele>286.57142857142856</ele><time>2026-05-02T09:15:07.144Z</time></trkpt><trkpt lat="43.5210448" lon="10.5870312"><ele>287.85714285714283</ele><time>2026-05-02T09:15:11.143Z</time></trkpt><trkpt lat="43.5209904" lon="10.5871082"><ele>289.1428571428571</ele><time>2026-05-02T09:15:14.147Z</time></trkpt><trkpt lat="43.5209463" lon="10.5871896"><ele>290.42857142857144</ele><time>2026-05-02T09:15:17.153Z</time></trkpt><trkpt lat="43.5208991" lon="10.587259"><ele>291.71428571428567</ele><time>2026-05-02T09:15:20.15Z</time></trkpt><trkpt lat="43.520845" lon="10.5873058"><ele>293.0</ele><time>2026-05-02T09:15:23.146Z</time></trkpt><trkpt lat="43.5207825" lon="10.587351"><ele>292.99999999999994</ele><time>2026-05-02T09:15:26.151Z</time></trkpt><trkpt lat="43.5207254" lon="10.5874029"><ele>293.0</ele><time>2026-05-02T09:15:30.157Z</time></trkpt><trkpt lat="43.5206628" lon="10.5874659"><ele>293.0</ele><time>2026-05-02T09:15:35.141Z</time></trkpt><trkpt lat="43.5206253" lon="10.5875634"><ele>293.0</ele><time>2026-05-02T09:15:37.163Z</time></trkpt><trkpt lat="43.5206562" lon="10.5876661"><ele>293.0</ele><time>2026-05-02T09:15:40.152Z</time></trkpt><trkpt lat="43.5206775" lon="10.5877496"><ele>292.99999999999994</ele><time>2026-05-02T09:15:45.148Z</time></trkpt><trkpt lat="43.5206342" lon="10.5878162"><ele>293.0</ele><time>2026-05-02T09:15:49.143Z</time></trkpt><trkpt lat="43.5205677" lon="10.5878773"><ele>293.0</ele><time>2026-05-02T09:15:53.14Z</time></trkpt><trkpt lat="43.5205059" lon="10.5879198"><ele>293.0</ele><time>2026-05-02T09:15:57.147Z</time></trkpt><trkpt lat="43.5204322" lon="10.5879726"><ele>293.0</ele><time>2026-05-02T09:16:01.143Z</time></trkpt><trkpt lat="43.5203725" lon="10.588008"><ele>293.0</ele><time>2026-05-02T09:16:04.15Z</time></trkpt><trkpt lat="43.5203141" lon="10.5880585"><ele>293.0</ele><time>2026-05-02T09:16:09.149Z</time></trkpt><trkpt lat="43.5202528" lon="10.5880951"><ele>293.0</ele><time>2026-05-02T09:16:13.144Z</time></trkpt><trkpt lat="43.5201692" lon="10.5881807"><ele>292.99999999999994</ele><time>2026-05-02T09:16:16.145Z</time></trkpt><trkpt lat="43.5201305" lon="10.5882566"><ele>293.0</ele><time>2026-05-02T09:16:20.126Z</time></trkpt><trkpt lat="43.5201048" lon="10.5883456"><ele>293.0</ele><time>2026-05-02T09:16:24.143Z</time></trkpt><trkpt lat="43.5200472" lon="10.5884035"><ele>293.0</ele><time>2026-05-02T09:16:27.157Z</time></trkpt><trkpt lat="43.5199836" lon="10.5884642"><ele>293.0</ele><time>2026-05-02T09:16:31.145Z</time></trkpt><trkpt lat="43.5199292" lon="10.5885209"><ele>292.99999999999994</ele><time>2026-05-02T09:16:34.141Z</time></trkpt><trkpt lat="43.5198735" lon="10.5885673"><ele>293.0</ele><time>2026-05-02T09:16:37.145Z</time></trkpt><trkpt lat="43.5198123" lon="10.588603"><ele>293.0</ele><time>2026-05-02T09:16:40.145Z</time></trkpt><trkpt lat="43.5197476" lon="10.5886381"><ele>293.0</ele><time>2026-05-02T09:16:43.149Z</time></trkpt><trkpt lat="43.5196686" lon="10.5886615"><ele>293.0</ele><time>2026-05-02T09:16:46.147Z</time></trkpt><trkpt lat="43.5195894" lon="10.5886925"><ele>293.0</ele><time>2026-05-02T09:16:49.14Z</time></trkpt><trkpt lat="43.5194993" lon="10.5887393"><ele>293.0</ele><time>2026-05-02T09:16:52.14Z</time></trkpt><trkpt lat="43.5194275" lon="10.5887897"><ele>293.0</ele><time>2026-05-02T09:16:55.147Z</time></trkpt><trkpt lat="43.5193824" lon="10.588851"><ele>292.33333333333337</ele><time>2026-05-02T09:16:58.152Z</time></trkpt><trkpt lat="43.5193246" lon="10.58893"><ele>291.6666666666667</ele><time>2026-05-02T09:17:01.156Z</time></trkpt><trkpt lat="43.5192752" lon="10.5889931"><ele>291.0</ele><time>2026-05-02T09:17:03.163Z</time></trkpt><trkpt lat="43.5191993" lon="10.5890273"><ele>290.3333333333333</ele><time>2026-05-02T09:17:06.162Z</time></trkpt><trkpt lat="43.5191233" lon="10.589076"><ele>289.66666666666663</ele><time>2026-05-02T09:17:09.159Z</time></trkpt><trkpt lat="43.5190535" lon="10.5891237"><ele>289.0</ele><time>2026-05-02T09:17:12.152Z</time></trkpt><trkpt lat="43.5189927" lon="10.5891704"><ele>289.0</ele><time>2026-05-02T09:17:15.165Z</time></trkpt><trkpt lat="43.5189175" lon="10.5891896"><ele>289.0</ele><time>2026-05-02T09:17:18.161Z</time></trkpt><trkpt lat="43.5188387" lon="10.5891975"><ele>289.0</ele><time>2026-05-02T09:17:21.157Z</time></trkpt><trkpt lat="43.5187646" lon="10.5892041"><ele>289.0</ele><time>2026-05-02T09:17:24.169Z</time></trkpt><trkpt lat="43.5186903" lon="10.5892003"><ele>289.0</ele><time>2026-05-02T09:17:27.158Z</time></trkpt><trkpt lat="43.5186128" lon="10.5891864"><ele>289.0</ele><time>2026-05-02T09:17:30.154Z</time></trkpt><trkpt lat="43.518529" lon="10.5891514"><ele>290.2857142857143</ele><time>2026-05-02T09:17:33.16Z</time></trkpt><trkpt lat="43.5184545" lon="10.5891324"><ele>291.57142857142856</ele><time>2026-05-02T09:17:36.157Z</time></trkpt><trkpt lat="43.5183805" lon="10.5891253"><ele>292.85714285714283</ele><time>2026-05-02T09:17:39.155Z</time></trkpt><trkpt lat="43.5183119" lon="10.5891351"><ele>294.1428571428571</ele><time>2026-05-02T09:17:42.154Z</time></trkpt><trkpt lat="43.5182384" lon="10.5891635"><ele>295.4285714285714</ele><time>2026-05-02T09:17:45.151Z</time></trkpt><trkpt lat="43.5181713" lon="10.5891705"><ele>296.7142857142857</ele><time>2026-05-02T09:17:48.153Z</time></trkpt><trkpt lat="43.5181092" lon="10.5891894"><ele>298.0</ele><time>2026-05-02T09:17:51.158Z</time></trkpt><trkpt lat="43.5180411" lon="10.5892181"><ele>298.0</ele><time>2026-05-02T09:17:54.153Z</time></trkpt><trkpt lat="43.518003" lon="10.5893002"><ele>298.0</ele><time>2026-05-02T09:17:57.154Z</time></trkpt><trkpt lat="43.5179351" lon="10.5893306"><ele>298.0</ele><time>2026-05-02T09:18:03.165Z</time></trkpt><trkpt lat="43.5178663" lon="10.5893619"><ele>298.0</ele><time>2026-05-02T09:18:07.151Z</time></trkpt><trkpt lat="43.5177993" lon="10.5893797"><ele>298.0</ele><time>2026-05-02T09:18:10.163Z</time></trkpt><trkpt lat="43.5177184" lon="10.5893878"><ele>298.0</ele><time>2026-05-02T09:18:14.165Z</time></trkpt><trkpt lat="43.5176569" lon="10.5894112"><ele>298.0</ele><time>2026-05-02T09:18:16.161Z</time></trkpt><trkpt lat="43.5175845" lon="10.5894272"><ele>298.8333333333333</ele><time>2026-05-02T09:18:19.156Z</time></trkpt><trkpt lat="43.5175204" lon="10.5894349"><ele>299.66666666666663</ele><time>2026-05-02T09:18:22.148Z</time></trkpt><trkpt lat="43.5174374" lon="10.5894417"><ele>300.5</ele><time>2026-05-02T09:18:25.15Z</time></trkpt><trkpt lat="43.5173693" lon="10.589457"><ele>301.3333333333333</ele><time>2026-05-02T09:18:28.154Z</time></trkpt><trkpt lat="43.5172823" lon="10.589462"><ele>302.1666666666667</ele><time>2026-05-02T09:18:31.163Z</time></trkpt><trkpt lat="43.5172069" lon="10.5894848"><ele>303.0</ele><time>2026-05-02T09:18:34.156Z</time></trkpt><trkpt lat="43.5171357" lon="10.5895092"><ele>303.0</ele><time>2026-05-02T09:18:37.153Z</time></trkpt><trkpt lat="43.5170702" lon="10.5895639"><ele>303.0</ele><time>2026-05-02T09:18:41.153Z</time></trkpt><trkpt lat="43.5170035" lon="10.5896275"><ele>303.0</ele><time>2026-05-02T09:18:44.155Z</time></trkpt><trkpt lat="43.5169339" lon="10.5896795"><ele>303.0</ele><time>2026-05-02T09:18:47.156Z</time></trkpt><trkpt lat="43.5168727" lon="10.5897183"><ele>303.0</ele><time>2026-05-02T09:18:50.159Z</time></trkpt><trkpt lat="43.5167908" lon="10.5897624"><ele>303.0</ele><time>2026-05-02T09:18:53.147Z</time></trkpt><trkpt lat="43.5167228" lon="10.5897669"><ele>305.3333333333333</ele><time>2026-05-02T09:18:56.151Z</time></trkpt><trkpt lat="43.5166349" lon="10.5897549"><ele>307.6666666666667</ele><time>2026-05-02T09:18:59.148Z</time></trkpt><trkpt lat="43.5165652" lon="10.5897423"><ele>310.0</ele><time>2026-05-02T09:19:01.146Z</time></trkpt><trkpt lat="43.5164773" lon="10.5897376"><ele>312.33333333333337</ele><time>2026-05-02T09:19:04.167Z</time></trkpt><trkpt lat="43.5164072" lon="10.5897386"><ele>314.6666666666667</ele><time>2026-05-02T09:19:07.149Z</time></trkpt><trkpt lat="43.5163375" lon="10.5897281"><ele>317.0</ele><time>2026-05-02T09:19:10.153Z</time></trkpt><trkpt lat="43.5162606" lon="10.589717"><ele>318.83333333333337</ele><time>2026-05-02T09:19:13.162Z</time></trkpt><trkpt lat="43.5161898" lon="10.5896946"><ele>320.6666666666667</ele><time>2026-05-02T09:19:16.156Z</time></trkpt><trkpt lat="43.5161276" lon="10.5896782"><ele>322.5</ele><time>2026-05-02T09:19:19.159Z</time></trkpt><trkpt lat="43.5160594" lon="10.589678"><ele>324.3333333333333</ele><time>2026-05-02T09:19:21.155Z</time></trkpt><trkpt lat="43.5159883" lon="10.5897173"><ele>326.16666666666663</ele><time>2026-05-02T09:19:23.154Z</time></trkpt><trkpt lat="43.5159018" lon="10.5897253"><ele>328.0</ele><time>2026-05-02T09:19:28.154Z</time></trkpt><trkpt lat="43.5158157" lon="10.5897523"><ele>328.0</ele><time>2026-05-02T09:19:31.152Z</time></trkpt><trkpt lat="43.5157311" lon="10.5897906"><ele>328.0</ele><time>2026-05-02T09:19:34.153Z</time></trkpt><trkpt lat="43.515651" lon="10.5898385"><ele>328.0</ele><time>2026-05-02T09:19:37.154Z</time></trkpt><trkpt lat="43.5156057" lon="10.5899241"><ele>328.0</ele><time>2026-05-02T09:19:40.152Z</time></trkpt><trkpt lat="43.5156191" lon="10.5900319"><ele>328.0</ele><time>2026-05-02T09:19:43.189Z</time></trkpt><trkpt lat="43.5156233" lon="10.5901201"><ele>328.0</ele><time>2026-05-02T09:19:46.152Z</time></trkpt><trkpt lat="43.5156007" lon="10.5902118"><ele>328.0</ele><time>2026-05-02T09:19:49.149Z</time></trkpt><trkpt lat="43.5155868" lon="10.590329"><ele>328.0</ele><time>2026-05-02T09:19:52.154Z</time></trkpt><trkpt lat="43.5155605" lon="10.5904228"><ele>328.0</ele><time>2026-05-02T09:19:55.144Z</time></trkpt><trkpt lat="43.5155292" lon="10.5905208"><ele>328.0</ele><time>2026-05-02T09:19:58.149Z</time></trkpt><trkpt lat="43.5154963" lon="10.5906243"><ele>328.0</ele><time>2026-05-02T09:20:01.141Z</time></trkpt><trkpt lat="43.5154704" lon="10.5907306"><ele>328.0</ele><time>2026-05-02T09:20:04.155Z</time></trkpt><trkpt lat="43.5154516" lon="10.5908378"><ele>327.5</ele><time>2026-05-02T09:20:07.149Z</time></trkpt><trkpt lat="43.515436" lon="10.5909366"><ele>327.0</ele><time>2026-05-02T09:20:10.151Z</time></trkpt><trkpt lat="43.5154192" lon="10.5910391"><ele>326.5</ele><time>2026-05-02T09:20:13.143Z</time></trkpt><trkpt lat="43.5153892" lon="10.591149"><ele>326.0</ele><time>2026-05-02T09:20:16.156Z</time></trkpt><trkpt lat="43.5153585" lon="10.5912644"><ele>325.5</ele><time>2026-05-02T09:20:19.159Z</time></trkpt><trkpt lat="43.5153262" lon="10.5913774"><ele>325.0</ele><time>2026-05-02T09:20:22.149Z</time></trkpt><trkpt lat="43.5153008" lon="10.5914896"><ele>324.8333333333333</ele><time>2026-05-02T09:20:25.156Z</time></trkpt><trkpt lat="43.5152666" lon="10.5916012"><ele>324.66666666666663</ele><time>2026-05-02T09:20:28.162Z</time></trkpt><trkpt lat="43.515234" lon="10.5917126"><ele>324.5</ele><time>2026-05-02T09:20:31.146Z</time></trkpt><trkpt lat="43.5151867" lon="10.5918266"><ele>324.3333333333333</ele><time>2026-05-02T09:20:34.161Z</time></trkpt><trkpt lat="43.5151554" lon="10.5919339"><ele>324.1666666666667</ele><time>2026-05-02T09:20:37.166Z</time></trkpt><trkpt lat="43.51514" lon="10.5920323"><ele>324.0</ele><time>2026-05-02T09:20:40.174Z</time></trkpt><trkpt lat="43.5151293" lon="10.5921189"><ele>324.0</ele><time>2026-05-02T09:20:43.154Z</time></trkpt><trkpt lat="43.5150967" lon="10.592225"><ele>324.0</ele><time>2026-05-02T09:20:46.154Z</time></trkpt><trkpt lat="43.51505" lon="10.5923399"><ele>324.0</ele><time>2026-05-02T09:20:49.16Z</time></trkpt><trkpt lat="43.5150011" lon="10.5924547"><ele>324.0</ele><time>2026-05-02T09:20:52.164Z</time></trkpt><trkpt lat="43.5149589" lon="10.5925726"><ele>324.0</ele><time>2026-05-02T09:20:55.15Z</time></trkpt><trkpt lat="43.5149324" lon="10.5926523"><ele>324.0</ele><time>2026-05-02T09:20:57.155Z</time></trkpt><trkpt lat="43.5149082" lon="10.5927676"><ele>322.5</ele><time>2026-05-02T09:21:00.157Z</time></trkpt><trkpt lat="43.5148972" lon="10.5928875"><ele>321.0</ele><time>2026-05-02T09:21:03.157Z</time></trkpt><trkpt lat="43.5148878" lon="10.593003"><ele>319.5</ele><time>2026-05-02T09:21:06.157Z</time></trkpt><trkpt lat="43.5148765" lon="10.5931255"><ele>318.0</ele><time>2026-05-02T09:21:09.165Z</time></trkpt><trkpt lat="43.514868" lon="10.5932545"><ele>316.5</ele><time>2026-05-02T09:21:12.168Z</time></trkpt><trkpt lat="43.5148585" lon="10.5933495"><ele>315.0</ele><time>2026-05-02T09:21:14.155Z</time></trkpt><trkpt lat="43.5148514" lon="10.5934459"><ele>315.0</ele><time>2026-05-02T09:21:16.166Z</time></trkpt><trkpt lat="43.5148324" lon="10.5935701"><ele>315.0</ele><time>2026-05-02T09:21:19.164Z</time></trkpt><trkpt lat="43.5148127" lon="10.5936798"><ele>315.0</ele><time>2026-05-02T09:21:22.163Z</time></trkpt><trkpt lat="43.5148126" lon="10.5937672"><ele>315.0</ele><time>2026-05-02T09:21:24.167Z</time></trkpt><trkpt lat="43.514812" lon="10.5938555"><ele>315.0</ele><time>2026-05-02T09:21:26.166Z</time></trkpt><trkpt lat="43.5147991" lon="10.5939889"><ele>315.0</ele><time>2026-05-02T09:21:29.162Z</time></trkpt><trkpt lat="43.5147921" lon="10.5941178"><ele>313.3333333333333</ele><time>2026-05-02T09:21:32.172Z</time></trkpt><trkpt lat="43.51478" lon="10.5942391"><ele>311.6666666666667</ele><time>2026-05-02T09:21:35.157Z</time></trkpt><trkpt lat="43.5147693" lon="10.5943257"><ele>310.0</ele><time>2026-05-02T09:21:37.161Z</time></trkpt><trkpt lat="43.5147471" lon="10.594424"><ele>308.33333333333337</ele><time>2026-05-02T09:21:39.166Z</time></trkpt><trkpt lat="43.5147364" lon="10.5945452"><ele>306.6666666666667</ele><time>2026-05-02T09:21:42.162Z</time></trkpt><trkpt lat="43.5147465" lon="10.5946506"><ele>305.0</ele><time>2026-05-02T09:21:45.161Z</time></trkpt><trkpt lat="43.5147664" lon="10.594764"><ele>303.8571428571429</ele><time>2026-05-02T09:21:48.162Z</time></trkpt><trkpt lat="43.5148136" lon="10.5948415"><ele>302.71428571428567</ele><time>2026-05-02T09:21:50.164Z</time></trkpt><trkpt lat="43.5148745" lon="10.5948979"><ele>301.57142857142856</ele><time>2026-05-02T09:21:52.161Z</time></trkpt><trkpt lat="43.514932" lon="10.5949403"><ele>300.42857142857144</ele><time>2026-05-02T09:21:54.165Z</time></trkpt><trkpt lat="43.5149907" lon="10.5949847"><ele>299.28571428571433</ele><time>2026-05-02T09:21:56.168Z</time></trkpt><trkpt lat="43.515067" lon="10.5950393"><ele>298.14285714285717</ele><time>2026-05-02T09:21:59.156Z</time></trkpt><trkpt lat="43.5151316" lon="10.5950432"><ele>297.0</ele><time>2026-05-02T09:22:01.156Z</time></trkpt><trkpt lat="43.5152104" lon="10.5950601"><ele>297.0</ele><time>2026-05-02T09:22:04.157Z</time></trkpt><trkpt lat="43.5152574" lon="10.5951291"><ele>297.0</ele><time>2026-05-02T09:22:39.169Z</time></trkpt><trkpt lat="43.5152979" lon="10.5952035"><ele>297.0</ele><time>2026-05-02T09:22:42.168Z</time></trkpt><trkpt lat="43.5152955" lon="10.5952961"><ele>297.0</ele><time>2026-05-02T09:22:45.153Z</time></trkpt><trkpt lat="43.5152597" lon="10.5953709"><ele>297.0</ele><time>2026-05-02T09:22:48.17Z</time></trkpt><trkpt lat="43.515199" lon="10.5954315"><ele>297.0</ele><time>2026-05-02T09:22:51.167Z</time></trkpt><trkpt lat="43.5151308" lon="10.5954698"><ele>297.0</ele><time>2026-05-02T09:22:54.148Z</time></trkpt><trkpt lat="43.515048" lon="10.5954627"><ele>294.8333333333333</ele><time>2026-05-02T09:22:58.159Z</time></trkpt><trkpt lat="43.514975" lon="10.5954976"><ele>292.6666666666667</ele><time>2026-05-02T09:23:02.179Z</time></trkpt><trkpt lat="43.5149209" lon="10.5955481"><ele>290.5</ele><time>2026-05-02T09:23:05.152Z</time></trkpt><trkpt lat="43.5148683" lon="10.5956169"><ele>288.33333333333337</ele><time>2026-05-02T09:23:09.177Z</time></trkpt><trkpt lat="43.5148247" lon="10.5957132"><ele>286.1666666666667</ele><time>2026-05-02T09:23:13.176Z</time></trkpt><trkpt lat="43.5147973" lon="10.5958108"><ele>284.0</ele><time>2026-05-02T09:23:16.164Z</time></trkpt><trkpt lat="43.5147529" lon="10.5959061"><ele>284.0</ele><time>2026-05-02T09:23:20.153Z</time></trkpt><trkpt lat="43.5146839" lon="10.5959329"><ele>284.0</ele><time>2026-05-02T09:23:23.164Z</time></trkpt><trkpt lat="43.5146027" lon="10.595959"><ele>284.0</ele><time>2026-05-02T09:23:26.164Z</time></trkpt><trkpt lat="43.5145256" lon="10.5959824"><ele>284.0</ele><time>2026-05-02T09:23:29.176Z</time></trkpt><trkpt lat="43.5144469" lon="10.5959987"><ele>284.0</ele><time>2026-05-02T09:23:32.17Z</time></trkpt><trkpt lat="43.5143731" lon="10.5960206"><ele>284.0</ele><time>2026-05-02T09:23:35.159Z</time></trkpt><trkpt lat="43.5143058" lon="10.5960256"><ele>283.0</ele><time>2026-05-02T09:23:38.189Z</time></trkpt><trkpt lat="43.5142361" lon="10.596021"><ele>282.0</ele><time>2026-05-02T09:23:41.181Z</time></trkpt><trkpt lat="43.5141672" lon="10.5960069"><ele>281.0</ele><time>2026-05-02T09:23:44.166Z</time></trkpt><trkpt lat="43.5141029" lon="10.5959785"><ele>280.0</ele><time>2026-05-02T09:23:47.155Z</time></trkpt><trkpt lat="43.5140319" lon="10.595952"><ele>279.0</ele><time>2026-05-02T09:23:50.166Z</time></trkpt><trkpt lat="43.5139573" lon="10.5959539"><ele>278.0</ele><time>2026-05-02T09:23:53.151Z</time></trkpt><trkpt lat="43.5138912" lon="10.5960164"><ele>277.0</ele><time>2026-05-02T09:23:56.179Z</time></trkpt><trkpt lat="43.5138369" lon="10.5961185"><ele>275.8333333333333</ele><time>2026-05-02T09:23:59.153Z</time></trkpt><trkpt lat="43.5138034" lon="10.5962311"><ele>274.66666666666663</ele><time>2026-05-02T09:24:02.161Z</time></trkpt><trkpt lat="43.513769" lon="10.5963446"><ele>273.5</ele><time>2026-05-02T09:24:05.144Z</time></trkpt><trkpt lat="43.5137378" lon="10.5964493"><ele>272.3333333333333</ele><time>2026-05-02T09:24:08.154Z</time></trkpt><trkpt lat="43.5137123" lon="10.5965295"><ele>271.1666666666667</ele><time>2026-05-02T09:24:10.177Z</time></trkpt><trkpt lat="43.5136867" lon="10.5966148"><ele>270.0</ele><time>2026-05-02T09:24:12.182Z</time></trkpt><trkpt lat="43.5136598" lon="10.5967308"><ele>270.0</ele><time>2026-05-02T09:24:15.152Z</time></trkpt><trkpt lat="43.5136378" lon="10.596856"><ele>270.0</ele><time>2026-05-02T09:24:18.178Z</time></trkpt><trkpt lat="43.5136288" lon="10.5969477"><ele>270.0</ele><time>2026-05-02T09:24:21.147Z</time></trkpt><trkpt lat="43.5136299" lon="10.5970556"><ele>270.0</ele><time>2026-05-02T09:24:26.16Z</time></trkpt><trkpt lat="43.5136452" lon="10.5971486"><ele>270.0</ele><time>2026-05-02T09:24:30.152Z</time></trkpt><trkpt lat="43.5136695" lon="10.597255"><ele>270.0</ele><time>2026-05-02T09:24:34.17Z</time></trkpt><trkpt lat="43.5136921" lon="10.5973546"><ele>266.5</ele><time>2026-05-02T09:24:37.153Z</time></trkpt><trkpt lat="43.5137278" lon="10.5974448"><ele>263.0</ele><time>2026-05-02T09:24:40.155Z</time></trkpt><trkpt lat="43.513774" lon="10.5975289"><ele>259.5</ele><time>2026-05-02T09:24:44.161Z</time></trkpt><trkpt lat="43.5138149" lon="10.5975974"><ele>256.0</ele><time>2026-05-02T09:24:55.153Z</time></trkpt><trkpt lat="43.5138492" lon="10.5976968"><ele>252.5</ele><time>2026-05-02T09:25:01.15Z</time></trkpt><trkpt lat="43.5139342" lon="10.5977293"><ele>249.0</ele><time>2026-05-02T09:25:04.152Z</time></trkpt><trkpt lat="43.5140079" lon="10.5977597"><ele>249.0</ele><time>2026-05-02T09:25:07.15Z</time></trkpt><trkpt lat="43.51408" lon="10.5977305"><ele>248.99999999999997</ele><time>2026-05-02T09:25:12.159Z</time></trkpt><trkpt lat="43.5140237" lon="10.5976876"><ele>249.0</ele><time>2026-05-02T09:25:26.155Z</time></trkpt><trkpt lat="43.5139526" lon="10.597671"><ele>249.0</ele><time>2026-05-02T09:25:29.145Z</time></trkpt><trkpt lat="43.5138895" lon="10.5976519"><ele>248.99999999999997</ele><time>2026-05-02T09:25:32.155Z</time></trkpt><trkpt lat="43.5138159" lon="10.5976151"><ele>249.0</ele><time>2026-05-02T09:25:36.147Z</time></trkpt><trkpt lat="43.51376" lon="10.5975678"><ele>249.0</ele><time>2026-05-02T09:25:41.158Z</time></trkpt><trkpt lat="43.5137131" lon="10.5975092"><ele>249.0</ele><time>2026-05-02T09:25:52.143Z</time></trkpt><trkpt lat="43.5136606" lon="10.5974367"><ele>248.99999999999997</ele><time>2026-05-02T09:25:56.144Z</time></trkpt><trkpt lat="43.5136234" lon="10.5973531"><ele>249.0</ele><time>2026-05-02T09:25:59.155Z</time></trkpt><trkpt lat="43.5135903" lon="10.5972526"><ele>249.0</ele><time>2026-05-02T09:26:02.143Z</time></trkpt><trkpt lat="43.5135586" lon="10.5971694"><ele>248.99999999999997</ele><time>2026-05-02T09:26:04.141Z</time></trkpt><trkpt lat="43.5135073" lon="10.5971015"><ele>249.0</ele><time>2026-05-02T09:26:06.148Z</time></trkpt><trkpt lat="43.5134424" lon="10.5970794"><ele>249.0</ele><time>2026-05-02T09:26:08.145Z</time></trkpt><trkpt lat="43.5133757" lon="10.5971041"><ele>249.0</ele><time>2026-05-02T09:26:10.145Z</time></trkpt><trkpt lat="43.5133033" lon="10.597151"><ele>248.99999999999997</ele><time>2026-05-02T09:26:12.156Z</time></trkpt><trkpt lat="43.5132484" lon="10.5972039"><ele>249.0</ele><time>2026-05-02T09:26:14.144Z</time></trkpt><trkpt lat="43.5131946" lon="10.5972585"><ele>249.0</ele><time>2026-05-02T09:26:16.141Z</time></trkpt><trkpt lat="43.5131388" lon="10.5973031"><ele>248.99999999999997</ele><time>2026-05-02T09:26:18.154Z</time></trkpt><trkpt lat="43.5130795" lon="10.5973466"><ele>249.0</ele><time>2026-05-02T09:26:20.156Z</time></trkpt><trkpt lat="43.5129931" lon="10.5973585"><ele>249.0</ele><time>2026-05-02T09:26:23.146Z</time></trkpt><trkpt lat="43.5129211" lon="10.5973494"><ele>249.85714285714283</ele><time>2026-05-02T09:26:25.15Z</time></trkpt><trkpt lat="43.5128547" lon="10.5973207"><ele>250.7142857142857</ele><time>2026-05-02T09:26:27.148Z</time></trkpt><trkpt lat="43.5127937" lon="10.5972932"><ele>251.57142857142856</ele><time>2026-05-02T09:26:29.141Z</time></trkpt><trkpt lat="43.5127237" lon="10.5972652"><ele>252.42857142857144</ele><time>2026-05-02T09:26:31.152Z</time></trkpt><trkpt lat="43.5126578" lon="10.5972158"><ele>253.2857142857143</ele><time>2026-05-02T09:26:33.152Z</time></trkpt><trkpt lat="43.5125935" lon="10.5971591"><ele>254.14285714285717</ele><time>2026-05-02T09:26:35.147Z</time></trkpt><trkpt lat="43.5125411" lon="10.5971003"><ele>255.0</ele><time>2026-05-02T09:26:37.154Z</time></trkpt><trkpt lat="43.5124811" lon="10.5970472"><ele>255.0</ele><time>2026-05-02T09:26:39.15Z</time></trkpt><trkpt lat="43.5124127" lon="10.597059"><ele>255.0</ele><time>2026-05-02T09:26:41.15Z</time></trkpt><trkpt lat="43.5123417" lon="10.5971106"><ele>255.0</ele><time>2026-05-02T09:26:43.146Z</time></trkpt><trkpt lat="43.5122743" lon="10.5971601"><ele>255.0</ele><time>2026-05-02T09:26:45.142Z</time></trkpt><trkpt lat="43.5122007" lon="10.5971901"><ele>255.0</ele><time>2026-05-02T09:26:47.146Z</time></trkpt><trkpt lat="43.5121297" lon="10.597203"><ele>255.0</ele><time>2026-05-02T09:26:49.152Z</time></trkpt><trkpt lat="43.5120537" lon="10.5971896"><ele>255.83333333333334</ele><time>2026-05-02T09:26:51.146Z</time></trkpt><trkpt lat="43.5119819" lon="10.5971588"><ele>256.6666666666667</ele><time>2026-05-02T09:26:53.151Z</time></trkpt><trkpt lat="43.5119167" lon="10.5971243"><ele>257.5</ele><time>2026-05-02T09:26:55.146Z</time></trkpt><trkpt lat="43.5118381" lon="10.5970939"><ele>258.33333333333337</ele><time>2026-05-02T09:26:57.156Z</time></trkpt><trkpt lat="43.5117627" lon="10.5970611"><ele>259.1666666666667</ele><time>2026-05-02T09:26:59.16Z</time></trkpt><trkpt lat="43.5116922" lon="10.5970393"><ele>260.0</ele><time>2026-05-02T09:27:01.144Z</time></trkpt><trkpt lat="43.5116102" lon="10.5969965"><ele>262.83333333333337</ele><time>2026-05-02T09:27:04.151Z</time></trkpt><trkpt lat="43.5115483" lon="10.5969342"><ele>265.6666666666667</ele><time>2026-05-02T09:27:06.154Z</time></trkpt><trkpt lat="43.5114819" lon="10.5968692"><ele>268.5</ele><time>2026-05-02T09:27:07.149Z</time></trkpt><trkpt lat="43.5114333" lon="10.5968057"><ele>271.3333333333333</ele><time>2026-05-02T09:27:09.149Z</time></trkpt><trkpt lat="43.5113895" lon="10.5967295"><ele>274.16666666666663</ele><time>2026-05-02T09:27:11.146Z</time></trkpt><trkpt lat="43.5113429" lon="10.5966165"><ele>277.0</ele><time>2026-05-02T09:27:14.16Z</time></trkpt><trkpt lat="43.5113201" lon="10.5965162"><ele>277.0</ele><time>2026-05-02T09:27:16.147Z</time></trkpt><trkpt lat="43.5113082" lon="10.5964085"><ele>277.0</ele><time>2026-05-02T09:27:18.156Z</time></trkpt><trkpt lat="43.5112996" lon="10.5963008"><ele>277.0</ele><time>2026-05-02T09:27:20.149Z</time></trkpt><trkpt lat="43.511289" lon="10.5961911"><ele>277.0</ele><time>2026-05-02T09:27:22.14Z</time></trkpt><trkpt lat="43.5112681" lon="10.5960813"><ele>277.0</ele><time>2026-05-02T09:27:24.138Z</time></trkpt><trkpt lat="43.5112472" lon="10.5959835"><ele>277.0</ele><time>2026-05-02T09:27:26.134Z</time></trkpt><trkpt lat="43.5112107" lon="10.5958924"><ele>279.5</ele><time>2026-05-02T09:27:28.154Z</time></trkpt><trkpt lat="43.5111603" lon="10.5958019"><ele>282.0</ele><time>2026-05-02T09:27:30.146Z</time></trkpt><trkpt lat="43.5110742" lon="10.5957226"><ele>284.5</ele><time>2026-05-02T09:27:32.145Z</time></trkpt><trkpt lat="43.5110011" lon="10.5956449"><ele>287.0</ele><time>2026-05-02T09:27:34.139Z</time></trkpt><trkpt lat="43.5109516" lon="10.5955787"><ele>289.5</ele><time>2026-05-02T09:27:35.147Z</time></trkpt><trkpt lat="43.5109134" lon="10.5955067"><ele>292.0</ele><time>2026-05-02T09:27:36.143Z</time></trkpt><trkpt lat="43.5108806" lon="10.5954257"><ele>293.16666666666663</ele><time>2026-05-02T09:27:37.143Z</time></trkpt><trkpt lat="43.5107951" lon="10.5953164"><ele>294.3333333333333</ele><time>2026-05-02T09:27:39.144Z</time></trkpt><trkpt lat="43.5107467" lon="10.5952566"><ele>295.5</ele><time>2026-05-02T09:27:40.137Z</time></trkpt><trkpt lat="43.5106921" lon="10.5952128"><ele>296.6666666666667</ele><time>2026-05-02T09:27:41.137Z</time></trkpt><trkpt lat="43.5105865" lon="10.5951505"><ele>297.83333333333337</ele><time>2026-05-02T09:27:43.139Z</time></trkpt><trkpt lat="43.5105064" lon="10.5951031"><ele>299.0</ele><time>2026-05-02T09:27:45.145Z</time></trkpt><trkpt lat="43.5104491" lon="10.5950626"><ele>300.0</ele><time>2026-05-02T09:27:47.145Z</time></trkpt><trkpt lat="43.5103932" lon="10.5950219"><ele>301.0</ele><time>2026-05-02T09:27:49.141Z</time></trkpt><trkpt lat="43.5103304" lon="10.5949675"><ele>302.0</ele><time>2026-05-02T09:27:52.129Z</time></trkpt><trkpt lat="43.5102342" lon="10.5948421"><ele>303.0</ele><time>2026-05-02T09:27:55.15Z</time></trkpt><trkpt lat="43.5101139" lon="10.5947378"><ele>304.0</ele><time>2026-05-02T09:27:57.132Z</time></trkpt><trkpt lat="43.5100399" lon="10.5947079"><ele>304.0</ele><time>2026-05-02T09:27:58.137Z</time></trkpt><trkpt lat="43.5099499" lon="10.5947"><ele>304.0</ele><time>2026-05-02T09:28:00.127Z</time></trkpt><trkpt lat="43.5098592" lon="10.5947018"><ele>304.0</ele><time>2026-05-02T09:28:02.142Z</time></trkpt><trkpt lat="43.5097626" lon="10.5947183"><ele>304.0</ele><time>2026-05-02T09:28:04.137Z</time></trkpt><trkpt lat="43.509662" lon="10.594757"><ele>304.0</ele><time>2026-05-02T09:28:06.133Z</time></trkpt><trkpt lat="43.5095687" lon="10.5948202"><ele>305.2</ele><time>2026-05-02T09:28:08.144Z</time></trkpt><trkpt lat="43.5094895" lon="10.5948875"><ele>306.4</ele><time>2026-05-02T09:28:10.148Z</time></trkpt><trkpt lat="43.5094188" lon="10.5949618"><ele>307.6</ele><time>2026-05-02T09:28:12.151Z</time></trkpt><trkpt lat="43.5093664" lon="10.5950543"><ele>308.8</ele><time>2026-05-02T09:28:14.145Z</time></trkpt><trkpt lat="43.5093832" lon="10.595209"><ele>310.0</ele><time>2026-05-02T09:28:16.151Z</time></trkpt><trkpt lat="43.5094267" lon="10.5953455"><ele>310.66666666666663</ele><time>2026-05-02T09:28:18.147Z</time></trkpt><trkpt lat="43.5095027" lon="10.595461"><ele>311.3333333333333</ele><time>2026-05-02T09:28:20.147Z</time></trkpt><trkpt lat="43.509552" lon="10.5955182"><ele>312.0</ele><time>2026-05-02T09:28:21.151Z</time></trkpt><trkpt lat="43.5096051" lon="10.5955657"><ele>312.6666666666667</ele><time>2026-05-02T09:28:22.141Z</time></trkpt><trkpt lat="43.5097061" lon="10.5956068"><ele>313.33333333333337</ele><time>2026-05-02T09:28:24.148Z</time></trkpt><trkpt lat="43.5098007" lon="10.5956091"><ele>314.0</ele><time>2026-05-02T09:28:26.152Z</time></trkpt><trkpt lat="43.5098818" lon="10.5955849"><ele>314.0</ele><time>2026-05-02T09:28:28.157Z</time></trkpt><trkpt lat="43.5099538" lon="10.5955837"><ele>314.0</ele><time>2026-05-02T09:28:30.154Z</time></trkpt><trkpt lat="43.5100132" lon="10.5956276"><ele>314.0</ele><time>2026-05-02T09:28:32.156Z</time></trkpt><trkpt lat="43.5100651" lon="10.5957063"><ele>314.0</ele><time>2026-05-02T09:28:34.153Z</time></trkpt><trkpt lat="43.5100999" lon="10.5958189"><ele>314.0</ele><time>2026-05-02T09:28:36.173Z</time></trkpt><trkpt lat="43.5101158" lon="10.595952"><ele>314.0</ele><time>2026-05-02T09:28:38.167Z</time></trkpt><trkpt lat="43.5101214" lon="10.5960858"><ele>315.79999999999995</ele><time>2026-05-02T09:28:40.158Z</time></trkpt><trkpt lat="43.5101155" lon="10.5962114"><ele>317.59999999999997</ele><time>2026-05-02T09:28:42.154Z</time></trkpt><trkpt lat="43.5101005" lon="10.5963349"><ele>319.4</ele><time>2026-05-02T09:28:44.158Z</time></trkpt><trkpt lat="43.5100808" lon="10.5964659"><ele>321.2</ele><time>2026-05-02T09:28:46.151Z</time></trkpt><trkpt lat="43.5100593" lon="10.5966054"><ele>323.0</ele><time>2026-05-02T09:28:48.161Z</time></trkpt><trkpt lat="43.5100224" lon="10.5967251"><ele>323.0</ele><time>2026-05-02T09:28:50.171Z</time></trkpt><trkpt lat="43.5099771" lon="10.5968177"><ele>323.0</ele><time>2026-05-02T09:28:52.169Z</time></trkpt><trkpt lat="43.509916" lon="10.5969004"><ele>323.0</ele><time>2026-05-02T09:28:54.16Z</time></trkpt><trkpt lat="43.5098445" lon="10.5969645"><ele>323.0</ele><time>2026-05-02T09:28:56.168Z</time></trkpt><trkpt lat="43.5097647" lon="10.5969803"><ele>323.0</ele><time>2026-05-02T09:28:58.156Z</time></trkpt><trkpt lat="43.5096906" lon="10.5969743"><ele>323.0</ele><time>2026-05-02T09:29:00.156Z</time></trkpt><trkpt lat="43.5096085" lon="10.5969604"><ele>323.4</ele><time>2026-05-02T09:29:02.151Z</time></trkpt><trkpt lat="43.5095107" lon="10.5969269"><ele>323.79999999999995</ele><time>2026-05-02T09:29:04.165Z</time></trkpt><trkpt lat="43.5094152" lon="10.596903"><ele>324.2</ele><time>2026-05-02T09:29:06.162Z</time></trkpt><trkpt lat="43.5093267" lon="10.5968481"><ele>324.6</ele><time>2026-05-02T09:29:08.166Z</time></trkpt><trkpt lat="43.5092251" lon="10.5967834"><ele>325.0</ele><time>2026-05-02T09:29:10.164Z</time></trkpt><trkpt lat="43.5091261" lon="10.596723"><ele>325.0</ele><time>2026-05-02T09:29:12.159Z</time></trkpt><trkpt lat="43.5090347" lon="10.5966727"><ele>325.0</ele><time>2026-05-02T09:29:14.159Z</time></trkpt><trkpt lat="43.5089496" lon="10.5966248"><ele>325.0</ele><time>2026-05-02T09:29:16.169Z</time></trkpt><trkpt lat="43.5088751" lon="10.5965799"><ele>325.0</ele><time>2026-05-02T09:29:18.163Z</time></trkpt><trkpt lat="43.5088007" lon="10.5965299"><ele>325.0</ele><time>2026-05-02T09:29:20.171Z</time></trkpt><trkpt lat="43.5087247" lon="10.5964766"><ele>325.0</ele><time>2026-05-02T09:29:22.16Z</time></trkpt><trkpt lat="43.5086345" lon="10.5964447"><ele>326.0</ele><time>2026-05-02T09:29:24.165Z</time></trkpt><trkpt lat="43.5085399" lon="10.5964348"><ele>327.0</ele><time>2026-05-02T09:29:26.172Z</time></trkpt><trkpt lat="43.5084449" lon="10.5964395"><ele>328.0</ele><time>2026-05-02T09:29:28.165Z</time></trkpt><trkpt lat="43.5083536" lon="10.5964432"><ele>329.0</ele><time>2026-05-02T09:29:30.167Z</time></trkpt><trkpt lat="43.508251" lon="10.5964482"><ele>330.0</ele><time>2026-05-02T09:29:32.172Z</time></trkpt><trkpt lat="43.5081484" lon="10.5964528"><ele>330.0</ele><time>2026-05-02T09:29:34.174Z</time></trkpt><trkpt lat="43.508043" lon="10.5964475"><ele>330.0</ele><time>2026-05-02T09:29:36.163Z</time></trkpt><trkpt lat="43.5079469" lon="10.5964198"><ele>330.0</ele><time>2026-05-02T09:29:38.159Z</time></trkpt><trkpt lat="43.5078598" lon="10.5963791"><ele>330.0</ele><time>2026-05-02T09:29:40.177Z</time></trkpt><trkpt lat="43.5077695" lon="10.5963227"><ele>330.0</ele><time>2026-05-02T09:29:42.163Z</time></trkpt><trkpt lat="43.5076715" lon="10.5962595"><ele>331.4</ele><time>2026-05-02T09:29:44.159Z</time></trkpt><trkpt lat="43.5075753" lon="10.5961932"><ele>332.8</ele><time>2026-05-02T09:29:46.179Z</time></trkpt><trkpt lat="43.5074853" lon="10.5961298"><ele>334.20000000000005</ele><time>2026-05-02T09:29:48.156Z</time></trkpt><trkpt lat="43.5074177" lon="10.5960629"><ele>335.6</ele><time>2026-05-02T09:29:50.167Z</time></trkpt><trkpt lat="43.5073655" lon="10.5959816"><ele>337.0</ele><time>2026-05-02T09:29:52.164Z</time></trkpt><trkpt lat="43.5073065" lon="10.595909"><ele>338.14285714285717</ele><time>2026-05-02T09:29:55.159Z</time></trkpt><trkpt lat="43.5072447" lon="10.5958846"><ele>339.2857142857143</ele><time>2026-05-02T09:29:57.157Z</time></trkpt><trkpt lat="43.5071812" lon="10.595883"><ele>340.42857142857144</ele><time>2026-05-02T09:29:59.158Z</time></trkpt><trkpt lat="43.5071143" lon="10.5958826"><ele>341.57142857142856</ele><time>2026-05-02T09:30:01.159Z</time></trkpt><trkpt lat="43.5070279" lon="10.5958818"><ele>342.7142857142857</ele><time>2026-05-02T09:30:04.154Z</time></trkpt><trkpt lat="43.5069365" lon="10.5958499"><ele>343.8571428571429</ele><time>2026-05-02T09:30:07.153Z</time></trkpt><trkpt lat="43.5068683" lon="10.5958245"><ele>345.0</ele><time>2026-05-02T09:30:09.151Z</time></trkpt><trkpt lat="43.5067806" lon="10.5958065"><ele>346.0</ele><time>2026-05-02T09:30:12.166Z</time></trkpt><trkpt lat="43.5066929" lon="10.5958408"><ele>347.0</ele><time>2026-05-02T09:30:15.168Z</time></trkpt><trkpt lat="43.5066011" lon="10.5958593"><ele>348.0</ele><time>2026-05-02T09:30:18.166Z</time></trkpt><trkpt lat="43.5065069" lon="10.5958557"><ele>349.0</ele><time>2026-05-02T09:30:21.152Z</time></trkpt><trkpt lat="43.5064166" lon="10.5958705"><ele>350.0</ele><time>2026-05-02T09:30:24.161Z</time></trkpt><trkpt lat="43.5063484" lon="10.5958772"><ele>351.0</ele><time>2026-05-02T09:30:26.163Z</time></trkpt><trkpt lat="43.5062636" lon="10.5959139"><ele>351.5</ele><time>2026-05-02T09:30:29.147Z</time></trkpt><trkpt lat="43.5062046" lon="10.5959888"><ele>352.0</ele><time>2026-05-02T09:30:32.153Z</time></trkpt><trkpt lat="43.5061657" lon="10.5960696"><ele>352.5</ele><time>2026-05-02T09:30:35.148Z</time></trkpt><trkpt lat="43.5061239" lon="10.5961562"><ele>353.0</ele><time>2026-05-02T09:30:38.15Z</time></trkpt><trkpt lat="43.5060538" lon="10.59622"><ele>353.5</ele><time>2026-05-02T09:30:41.147Z</time></trkpt><trkpt lat="43.5059699" lon="10.5962332"><ele>354.0</ele><time>2026-05-02T09:30:44.144Z</time></trkpt><trkpt lat="43.5059086" lon="10.596268"><ele>352.42857142857144</ele><time>2026-05-02T09:30:46.152Z</time></trkpt><trkpt lat="43.5058647" lon="10.5963328"><ele>350.85714285714283</ele><time>2026-05-02T09:30:49.15Z</time></trkpt><trkpt lat="43.5058235" lon="10.5964197"><ele>349.2857142857143</ele><time>2026-05-02T09:30:52.155Z</time></trkpt><trkpt lat="43.5057797" lon="10.5965118"><ele>347.7142857142857</ele><time>2026-05-02T09:30:55.15Z</time></trkpt><trkpt lat="43.5057204" lon="10.5965584"><ele>346.1428571428571</ele><time>2026-05-02T09:30:58.148Z</time></trkpt><trkpt lat="43.505657" lon="10.5965828"><ele>344.57142857142856</ele><time>2026-05-02T09:31:01.153Z</time></trkpt><trkpt lat="43.5055755" lon="10.596556"><ele>343.0</ele><time>2026-05-02T09:31:04.146Z</time></trkpt><trkpt lat="43.5055072" lon="10.5965364"><ele>343.0</ele><time>2026-05-02T09:31:07.149Z</time></trkpt><trkpt lat="43.5054319" lon="10.5965311"><ele>343.0</ele><time>2026-05-02T09:31:11.148Z</time></trkpt><trkpt lat="43.5053553" lon="10.5965079"><ele>343.0</ele><time>2026-05-02T09:31:14.154Z</time></trkpt><trkpt lat="43.5052732" lon="10.5964913"><ele>343.0</ele><time>2026-05-02T09:31:18.161Z</time></trkpt><trkpt lat="43.5052008" lon="10.5964904"><ele>343.0</ele><time>2026-05-02T09:31:22.145Z</time></trkpt><trkpt lat="43.5051359" lon="10.5965341"><ele>343.0</ele><time>2026-05-02T09:31:25.148Z</time></trkpt><trkpt lat="43.5050558" lon="10.5965073"><ele>342.0</ele><time>2026-05-02T09:31:29.144Z</time></trkpt><trkpt lat="43.5050128" lon="10.5964358"><ele>341.0</ele><time>2026-05-02T09:31:32.145Z</time></trkpt><trkpt lat="43.5049768" lon="10.5963522"><ele>340.0</ele><time>2026-05-02T09:31:35.157Z</time></trkpt><trkpt lat="43.5049405" lon="10.5962589"><ele>339.0</ele><time>2026-05-02T09:31:38.153Z</time></trkpt><trkpt lat="43.5049058" lon="10.5961578"><ele>338.0</ele><time>2026-05-02T09:31:41.141Z</time></trkpt><trkpt lat="43.5048644" lon="10.5960674"><ele>337.0</ele><time>2026-05-02T09:31:44.156Z</time></trkpt><trkpt lat="43.5048073" lon="10.5960137"><ele>336.0</ele><time>2026-05-02T09:31:47.157Z</time></trkpt><trkpt lat="43.5047344" lon="10.5960485"><ele>336.14285714285717</ele><time>2026-05-02T09:31:50.151Z</time></trkpt><trkpt lat="43.5046779" lon="10.5961062"><ele>336.2857142857143</ele><time>2026-05-02T09:31:53.145Z</time></trkpt><trkpt lat="43.5046062" lon="10.596161"><ele>336.42857142857144</ele><time>2026-05-02T09:31:56.147Z</time></trkpt><trkpt lat="43.5045462" lon="10.5962009"><ele>336.57142857142856</ele><time>2026-05-02T09:31:59.153Z</time></trkpt><trkpt lat="43.5044874" lon="10.5962414"><ele>336.7142857142857</ele><time>2026-05-02T09:32:02.156Z</time></trkpt><trkpt lat="43.5044375" lon="10.5963097"><ele>336.8571428571429</ele><time>2026-05-02T09:32:13.161Z</time></trkpt><trkpt lat="43.5043779" lon="10.5963668"><ele>337.0</ele><time>2026-05-02T09:32:17.144Z</time></trkpt><trkpt lat="43.5043165" lon="10.5964053"><ele>337.00000000000006</ele><time>2026-05-02T09:32:21.154Z</time></trkpt><trkpt lat="43.5042493" lon="10.5964359"><ele>337.0</ele><time>2026-05-02T09:32:25.161Z</time></trkpt><trkpt lat="43.5041828" lon="10.5964548"><ele>337.0</ele><time>2026-05-02T09:32:28.152Z</time></trkpt><trkpt lat="43.5041099" lon="10.596504"><ele>337.0</ele><time>2026-05-02T09:32:32.143Z</time></trkpt><trkpt lat="43.5040444" lon="10.596569"><ele>337.0</ele><time>2026-05-02T09:32:36.143Z</time></trkpt><trkpt lat="43.5039941" lon="10.5966306"><ele>337.00000000000006</ele><time>2026-05-02T09:32:40.156Z</time></trkpt><trkpt lat="43.503956" lon="10.5967118"><ele>337.0</ele><time>2026-05-02T09:32:43.146Z</time></trkpt><trkpt lat="43.5039391" lon="10.5968176"><ele>337.0</ele><time>2026-05-02T09:32:47.148Z</time></trkpt><trkpt lat="43.5038974" lon="10.5969058"><ele>337.0</ele><time>2026-05-02T09:32:51.148Z</time></trkpt><trkpt lat="43.5038583" lon="10.5969881"><ele>337.0</ele><time>2026-05-02T09:32:54.153Z</time></trkpt><trkpt lat="43.5037978" lon="10.5970566"><ele>337.0</ele><time>2026-05-02T09:32:58.153Z</time></trkpt><trkpt lat="43.5037549" lon="10.597145"><ele>337.0</ele><time>2026-05-02T09:33:02.152Z</time></trkpt><trkpt lat="43.5037219" lon="10.59725"><ele>337.0</ele><time>2026-05-02T09:33:06.151Z</time></trkpt><trkpt lat="43.5037049" lon="10.5973543"><ele>337.5714285714286</ele><time>2026-05-02T09:33:09.153Z</time></trkpt><trkpt lat="43.5036453" lon="10.5973994"><ele>338.14285714285717</ele><time>2026-05-02T09:33:13.157Z</time></trkpt><trkpt lat="43.50358" lon="10.5974255"><ele>338.7142857142857</ele><time>2026-05-02T09:33:16.155Z</time></trkpt><trkpt lat="43.5035346" lon="10.5974916"><ele>339.28571428571433</ele><time>2026-05-02T09:33:23.151Z</time></trkpt><trkpt lat="43.5034792" lon="10.5975459"><ele>339.8571428571429</ele><time>2026-05-02T09:33:29.14Z</time></trkpt><trkpt lat="43.5034065" lon="10.5976047"><ele>340.42857142857144</ele><time>2026-05-02T09:33:33.149Z</time></trkpt><trkpt lat="43.5033562" lon="10.5976594"><ele>341.0</ele><time>2026-05-02T09:33:37.137Z</time></trkpt><trkpt lat="43.5032922" lon="10.5977308"><ele>341.0</ele><time>2026-05-02T09:33:41.15Z</time></trkpt><trkpt lat="43.5032427" lon="10.5978065"><ele>341.0</ele><time>2026-05-02T09:33:47.149Z</time></trkpt><trkpt lat="43.5032103" lon="10.597898"><ele>341.0</ele><time>2026-05-02T09:33:52.139Z</time></trkpt><trkpt lat="43.5031947" lon="10.5980128"><ele>341.0</ele><time>2026-05-02T09:33:57.139Z</time></trkpt><trkpt lat="43.503192" lon="10.5981054"><ele>341.0</ele><time>2026-05-02T09:34:02.152Z</time></trkpt><trkpt lat="43.5031707" lon="10.5982033"><ele>341.0</ele><time>2026-05-02T09:34:09.147Z</time></trkpt><trkpt lat="43.5031778" lon="10.598296"><ele>341.0</ele><time>2026-05-02T09:34:15.151Z</time></trkpt><trkpt lat="43.5032374" lon="10.5983577"><ele>339.6666666666667</ele><time>2026-05-02T09:34:21.156Z</time></trkpt><trkpt lat="43.5032877" lon="10.5984267"><ele>338.33333333333337</ele><time>2026-05-02T09:34:28.144Z</time></trkpt><trkpt lat="43.5033501" lon="10.5985526"><ele>337.0</ele><time>2026-05-02T09:34:31.159Z</time></trkpt><trkpt lat="43.5033769" lon="10.5986426"><ele>335.6666666666667</ele><time>2026-05-02T09:34:35.154Z</time></trkpt><trkpt lat="43.5034391" lon="10.5986728"><ele>334.3333333333333</ele><time>2026-05-02T09:34:39.141Z</time></trkpt><trkpt lat="43.5035032" lon="10.5986879"><ele>333.0</ele><time>2026-05-02T09:34:45.146Z</time></trkpt><trkpt lat="43.5035588" lon="10.598748"><ele>331.0</ele><time>2026-05-02T09:34:51.144Z</time></trkpt><trkpt lat="43.5036209" lon="10.5987949"><ele>329.0</ele><time>2026-05-02T09:34:53.161Z</time></trkpt><trkpt lat="43.5036905" lon="10.5988446"><ele>327.0</ele><time>2026-05-02T09:34:55.141Z</time></trkpt><trkpt lat="43.5037682" lon="10.5988959"><ele>325.0</ele><time>2026-05-02T09:34:58.16Z</time></trkpt><trkpt lat="43.5038211" lon="10.5989446"><ele>323.0</ele><time>2026-05-02T09:35:01.154Z</time></trkpt><trkpt lat="43.5038772" lon="10.5990135"><ele>321.0</ele><time>2026-05-02T09:35:04.161Z</time></trkpt><trkpt lat="43.5039287" lon="10.5990819"><ele>319.0</ele><time>2026-05-02T09:35:07.156Z</time></trkpt><trkpt lat="43.5039705" lon="10.5991635"><ele>319.0</ele><time>2026-05-02T09:35:10.158Z</time></trkpt><trkpt lat="43.5040287" lon="10.5992396"><ele>319.0</ele><time>2026-05-02T09:35:14.16Z</time></trkpt><trkpt lat="43.5040482" lon="10.5993287"><ele>319.0</ele><time>2026-05-02T09:35:18.142Z</time></trkpt><trkpt lat="43.504049" lon="10.5994318"><ele>319.0</ele><time>2026-05-02T09:35:22.156Z</time></trkpt><trkpt lat="43.504058" lon="10.5995471"><ele>319.0</ele><time>2026-05-02T09:35:26.145Z</time></trkpt><trkpt lat="43.5040779" lon="10.5996537"><ele>319.0</ele><time>2026-05-02T09:35:31.151Z</time></trkpt><trkpt lat="43.5041121" lon="10.5997542"><ele>320.8333333333333</ele><time>2026-05-02T09:35:34.157Z</time></trkpt><trkpt lat="43.5041496" lon="10.5998265"><ele>322.66666666666663</ele><time>2026-05-02T09:35:36.149Z</time></trkpt><trkpt lat="43.5042055" lon="10.599913"><ele>324.5</ele><time>2026-05-02T09:35:39.146Z</time></trkpt><trkpt lat="43.5042583" lon="10.5999669"><ele>326.3333333333333</ele><time>2026-05-02T09:35:41.158Z</time></trkpt><trkpt lat="43.5043417" lon="10.6000252"><ele>328.1666666666667</ele><time>2026-05-02T09:35:44.15Z</time></trkpt><trkpt lat="43.504399" lon="10.6000822"><ele>330.0</ele><time>2026-05-02T09:35:46.147Z</time></trkpt><trkpt lat="43.5044586" lon="10.6001645"><ele>330.0</ele><time>2026-05-02T09:35:49.154Z</time></trkpt><trkpt lat="43.5045065" lon="10.6002214"><ele>330.0</ele><time>2026-05-02T09:35:51.146Z</time></trkpt><trkpt lat="43.5045831" lon="10.6002838"><ele>330.0</ele><time>2026-05-02T09:35:54.151Z</time></trkpt><trkpt lat="43.5046419" lon="10.6003417"><ele>330.0</ele><time>2026-05-02T09:35:57.168Z</time></trkpt><trkpt lat="43.504695" lon="10.6004202"><ele>330.0</ele><time>2026-05-02T09:36:00.174Z</time></trkpt><trkpt lat="43.504737" lon="10.6004877"><ele>330.0</ele><time>2026-05-02T09:36:02.154Z</time></trkpt><trkpt lat="43.5047822" lon="10.6005904"><ele>330.28571428571433</ele><time>2026-05-02T09:36:05.179Z</time></trkpt><trkpt lat="43.5048074" lon="10.600705"><ele>330.57142857142856</ele><time>2026-05-02T09:36:08.163Z</time></trkpt><trkpt lat="43.5048167" lon="10.600793"><ele>330.8571428571429</ele><time>2026-05-02T09:36:11.186Z</time></trkpt><trkpt lat="43.5047663" lon="10.6008474"><ele>331.14285714285717</ele><time>2026-05-02T09:36:19.161Z</time></trkpt><trkpt lat="43.5047254" lon="10.6007752"><ele>331.42857142857144</ele><time>2026-05-02T09:36:22.161Z</time></trkpt><trkpt lat="43.5046785" lon="10.600673"><ele>331.7142857142857</ele><time>2026-05-02T09:36:26.15Z</time></trkpt><trkpt lat="43.5046208" lon="10.6006204"><ele>332.0</ele><time>2026-05-02T09:36:29.158Z</time></trkpt><trkpt lat="43.5045646" lon="10.6005775"><ele>332.0</ele><time>2026-05-02T09:36:32.158Z</time></trkpt><trkpt lat="43.5044845" lon="10.6005518"><ele>332.0</ele><time>2026-05-02T09:36:37.158Z</time></trkpt><trkpt lat="43.5044187" lon="10.6005621"><ele>332.0</ele><time>2026-05-02T09:36:42.16Z</time></trkpt><trkpt lat="43.5043531" lon="10.6005242"><ele>332.0</ele><time>2026-05-02T09:36:48.164Z</time></trkpt><trkpt lat="43.5042836" lon="10.6005174"><ele>332.0</ele><time>2026-05-02T09:36:56.151Z</time></trkpt><trkpt lat="43.5042073" lon="10.6004948"><ele>332.0</ele><time>2026-05-02T09:37:02.154Z</time></trkpt><trkpt lat="43.5041416" lon="10.600484"><ele>332.0</ele><time>2026-05-02T09:37:06.152Z</time></trkpt><trkpt lat="43.5040671" lon="10.6004789"><ele>332.0</ele><time>2026-05-02T09:37:10.147Z</time></trkpt><trkpt lat="43.5039812" lon="10.6004986"><ele>332.0</ele><time>2026-05-02T09:37:16.15Z</time></trkpt><trkpt lat="43.5039155" lon="10.6005309"><ele>332.0</ele><time>2026-05-02T09:37:20.15Z</time></trkpt><trkpt lat="43.5038451" lon="10.6005795"><ele>332.0</ele><time>2026-05-02T09:37:26.156Z</time></trkpt><trkpt lat="43.5037929" lon="10.60064"><ele>332.0</ele><time>2026-05-02T09:37:31.174Z</time></trkpt><trkpt lat="43.5037341" lon="10.6006737"><ele>332.0</ele><time>2026-05-02T09:37:36.163Z</time></trkpt><trkpt lat="43.5036574" lon="10.6006748"><ele>332.0</ele><time>2026-05-02T09:37:41.154Z</time></trkpt><trkpt lat="43.5036199" lon="10.6005869"><ele>334.57142857142856</ele><time>2026-05-02T09:37:47.151Z</time></trkpt><trkpt lat="43.5035939" lon="10.6005052"><ele>337.14285714285717</ele><time>2026-05-02T09:37:52.155Z</time></trkpt><trkpt lat="43.5035543" lon="10.6004308"><ele>339.7142857142857</ele><time>2026-05-02T09:37:56.151Z</time></trkpt><trkpt lat="43.5035048" lon="10.6003499"><ele>342.2857142857143</ele><time>2026-05-02T09:38:01.147Z</time></trkpt><trkpt lat="43.5034613" lon="10.6002816"><ele>344.8571428571429</ele><time>2026-05-02T09:38:06.146Z</time></trkpt><trkpt lat="43.5034208" lon="10.600197"><ele>347.42857142857144</ele><time>2026-05-02T09:38:11.145Z</time></trkpt><trkpt lat="43.5033949" lon="10.6001174"><ele>350.0</ele><time>2026-05-02T09:38:15.148Z</time></trkpt><trkpt lat="43.5033676" lon="10.600021"><ele>351.0</ele><time>2026-05-02T09:38:20.142Z</time></trkpt><trkpt lat="43.5033345" lon="10.5999229"><ele>352.0</ele><time>2026-05-02T09:38:24.147Z</time></trkpt><trkpt lat="43.5033052" lon="10.5998239"><ele>353.0</ele><time>2026-05-02T09:38:28.157Z</time></trkpt><trkpt lat="43.5032815" lon="10.5997428"><ele>354.0</ele><time>2026-05-02T09:38:31.141Z</time></trkpt><trkpt lat="43.5032327" lon="10.5996672"><ele>355.0</ele><time>2026-05-02T09:38:35.157Z</time></trkpt><trkpt lat="43.5031653" lon="10.5996387"><ele>356.0</ele><time>2026-05-02T09:38:39.145Z</time></trkpt><trkpt lat="43.503099" lon="10.5995827"><ele>357.0</ele><time>2026-05-02T09:38:47.149Z</time></trkpt><trkpt lat="43.5030431" lon="10.5995403"><ele>357.0</ele><time>2026-05-02T09:39:06.163Z</time></trkpt><trkpt lat="43.502979" lon="10.5995177"><ele>357.0</ele><time>2026-05-02T09:39:11.149Z</time></trkpt><trkpt lat="43.5029121" lon="10.5995035"><ele>357.0</ele><time>2026-05-02T09:39:16.153Z</time></trkpt><trkpt lat="43.5028493" lon="10.5994834"><ele>357.0</ele><time>2026-05-02T09:39:20.142Z</time></trkpt><trkpt lat="43.5027667" lon="10.5994359"><ele>357.0</ele><time>2026-05-02T09:39:26.155Z</time></trkpt><trkpt lat="43.5026955" lon="10.5994259"><ele>357.0</ele><time>2026-05-02T09:39:31.142Z</time></trkpt><trkpt lat="43.5026248" lon="10.5993935"><ele>357.0</ele><time>2026-05-02T09:39:36.146Z</time></trkpt><trkpt lat="43.5025544" lon="10.5994025"><ele>358.85714285714283</ele><time>2026-05-02T09:39:40.148Z</time></trkpt><trkpt lat="43.5024871" lon="10.5994434"><ele>360.7142857142857</ele><time>2026-05-02T09:39:44.142Z</time></trkpt><trkpt lat="43.5024433" lon="10.5995094"><ele>362.57142857142856</ele><time>2026-05-02T09:39:48.145Z</time></trkpt><trkpt lat="43.5024189" lon="10.5995905"><ele>364.42857142857144</ele><time>2026-05-02T09:39:52.149Z</time></trkpt><trkpt lat="43.5023983" lon="10.5996729"><ele>366.2857142857143</ele><time>2026-05-02T09:39:56.155Z</time></trkpt><trkpt lat="43.5023393" lon="10.5997564"><ele>368.1428571428571</ele><time>2026-05-02T09:40:01.161Z</time></trkpt><trkpt lat="43.5022736" lon="10.5997562"><ele>370.0</ele><time>2026-05-02T09:40:04.168Z</time></trkpt><trkpt lat="43.5022106" lon="10.599757"><ele>370.71428571428567</ele><time>2026-05-02T09:40:08.16Z</time></trkpt><trkpt lat="43.5021343" lon="10.5997572"><ele>371.42857142857144</ele><time>2026-05-02T09:40:13.164Z</time></trkpt><trkpt lat="43.5020853" lon="10.5996892"><ele>372.1428571428571</ele><time>2026-05-02T09:40:17.162Z</time></trkpt><trkpt lat="43.5020573" lon="10.5996088"><ele>372.85714285714283</ele><time>2026-05-02T09:40:21.159Z</time></trkpt><trkpt lat="43.5020464" lon="10.5995016"><ele>373.57142857142856</ele><time>2026-05-02T09:40:26.167Z</time></trkpt><trkpt lat="43.5020438" lon="10.5994078"><ele>374.2857142857143</ele><time>2026-05-02T09:40:30.168Z</time></trkpt><trkpt lat="43.502032" lon="10.5993089"><ele>375.0</ele><time>2026-05-02T09:40:35.161Z</time></trkpt><trkpt lat="43.5020154" lon="10.5992124"><ele>376.8333333333333</ele><time>2026-05-02T09:40:40.162Z</time></trkpt><trkpt lat="43.5019974" lon="10.5991169"><ele>378.66666666666663</ele><time>2026-05-02T09:40:44.157Z</time></trkpt><trkpt lat="43.501969" lon="10.5990119"><ele>380.5</ele><time>2026-05-02T09:40:48.166Z</time></trkpt><trkpt lat="43.5019472" lon="10.5989227"><ele>382.3333333333333</ele><time>2026-05-02T09:40:51.149Z</time></trkpt><trkpt lat="43.5019089" lon="10.5988251"><ele>384.16666666666663</ele><time>2026-05-02T09:40:55.154Z</time></trkpt><trkpt lat="43.5018706" lon="10.598738"><ele>386.0</ele><time>2026-05-02T09:40:59.153Z</time></trkpt><trkpt lat="43.5018383" lon="10.5986328"><ele>387.00000000000006</ele><time>2026-05-02T09:41:03.163Z</time></trkpt><trkpt lat="43.5018114" lon="10.5985351"><ele>388.0</ele><time>2026-05-02T09:41:07.145Z</time></trkpt><trkpt lat="43.5017857" lon="10.5984407"><ele>389.0</ele><time>2026-05-02T09:41:11.147Z</time></trkpt><trkpt lat="43.501754" lon="10.5983575"><ele>390.0</ele><time>2026-05-02T09:41:15.159Z</time></trkpt><trkpt lat="43.501705" lon="10.5982731"><ele>391.0</ele><time>2026-05-02T09:41:19.153Z</time></trkpt><trkpt lat="43.501655" lon="10.5982048"><ele>392.00000000000006</ele><time>2026-05-02T09:41:23.169Z</time></trkpt><trkpt lat="43.5016149" lon="10.5981315"><ele>393.0</ele><time>2026-05-02T09:41:27.149Z</time></trkpt><trkpt lat="43.5015929" lon="10.5980448"><ele>393.0</ele><time>2026-05-02T09:41:31.164Z</time></trkpt><trkpt lat="43.5015575" lon="10.5979468"><ele>393.0</ele><time>2026-05-02T09:41:35.165Z</time></trkpt><trkpt lat="43.5015767" lon="10.5978522"><ele>393.0</ele><time>2026-05-02T09:41:39.154Z</time></trkpt><trkpt lat="43.5016439" lon="10.5978023"><ele>393.0</ele><time>2026-05-02T09:41:43.146Z</time></trkpt><trkpt lat="43.5017056" lon="10.5977395"><ele>393.0</ele><time>2026-05-02T09:41:47.154Z</time></trkpt><trkpt lat="43.5017559" lon="10.5976664"><ele>393.0</ele><time>2026-05-02T09:41:51.178Z</time></trkpt><trkpt lat="43.5018043" lon="10.5975698"><ele>393.7142857142857</ele><time>2026-05-02T09:41:55.158Z</time></trkpt><trkpt lat="43.5018148" lon="10.5974687"><ele>394.42857142857144</ele><time>2026-05-02T09:41:59.159Z</time></trkpt><trkpt lat="43.5018046" lon="10.5973757"><ele>395.1428571428571</ele><time>2026-05-02T09:42:03.162Z</time></trkpt><trkpt lat="43.5017848" lon="10.5972795"><ele>395.8571428571429</ele><time>2026-05-02T09:42:07.146Z</time></trkpt><trkpt lat="43.5017699" lon="10.5971837"><ele>396.57142857142856</ele><time>2026-05-02T09:42:11.177Z</time></trkpt><trkpt lat="43.5017367" lon="10.5970997"><ele>397.2857142857143</ele><time>2026-05-02T09:42:15.15Z</time></trkpt><trkpt lat="43.5017006" lon="10.597001"><ele>398.0</ele><time>2026-05-02T09:42:20.165Z</time></trkpt><trkpt lat="43.5016641" lon="10.5969205"><ele>398.57142857142856</ele><time>2026-05-02T09:42:24.147Z</time></trkpt><trkpt lat="43.5016307" lon="10.5968367"><ele>399.1428571428571</ele><time>2026-05-02T09:42:28.158Z</time></trkpt><trkpt lat="43.5015993" lon="10.5967456"><ele>399.71428571428567</ele><time>2026-05-02T09:42:32.16Z</time></trkpt><trkpt lat="43.501574" lon="10.5966414"><ele>400.2857142857143</ele><time>2026-05-02T09:42:36.158Z</time></trkpt><trkpt lat="43.501541" lon="10.5965445"><ele>400.8571428571429</ele><time>2026-05-02T09:42:40.16Z</time></trkpt><trkpt lat="43.5015104" lon="10.5964655"><ele>401.4285714285714</ele><time>2026-05-02T09:42:43.163Z</time></trkpt><trkpt lat="43.501489" lon="10.5963701"><ele>402.0</ele><time>2026-05-02T09:42:47.154Z</time></trkpt><trkpt lat="43.5014774" lon="10.5962807"><ele>402.0</ele><time>2026-05-02T09:42:51.161Z</time></trkpt><trkpt lat="43.5014546" lon="10.5961915"><ele>402.0</ele><time>2026-05-02T09:42:55.197Z</time></trkpt><trkpt lat="43.5014145" lon="10.5960909"><ele>402.0</ele><time>2026-05-02T09:42:59.162Z</time></trkpt><trkpt lat="43.5013782" lon="10.5959933"><ele>402.0</ele><time>2026-05-02T09:43:03.165Z</time></trkpt><trkpt lat="43.5013492" lon="10.5959117"><ele>402.0</ele><time>2026-05-02T09:43:07.164Z</time></trkpt><trkpt lat="43.5013249" lon="10.5958201"><ele>402.0</ele><time>2026-05-02T09:43:11.164Z</time></trkpt><trkpt lat="43.5013252" lon="10.5957205"><ele>402.0</ele><time>2026-05-02T09:43:16.158Z</time></trkpt><trkpt lat="43.5013282" lon="10.5956325"><ele>402.1428571428571</ele><time>2026-05-02T09:43:35.158Z</time></trkpt><trkpt lat="43.5013153" lon="10.5955458"><ele>402.28571428571433</ele><time>2026-05-02T09:43:41.172Z</time></trkpt><trkpt lat="43.5012806" lon="10.5954696"><ele>402.42857142857144</ele><time>2026-05-02T09:43:47.154Z</time></trkpt><trkpt lat="43.5012389" lon="10.5953933"><ele>402.57142857142856</ele><time>2026-05-02T09:43:52.164Z</time></trkpt><trkpt lat="43.501229" lon="10.5953058"><ele>402.71428571428567</ele><time>2026-05-02T09:43:56.165Z</time></trkpt><trkpt lat="43.5012064" lon="10.5952138"><ele>402.8571428571429</ele><time>2026-05-02T09:44:03.154Z</time></trkpt><trkpt lat="43.5011792" lon="10.5951347"><ele>403.0</ele><time>2026-05-02T09:44:07.158Z</time></trkpt><trkpt lat="43.5011476" lon="10.5950558"><ele>401.7142857142857</ele><time>2026-05-02T09:44:13.162Z</time></trkpt><trkpt lat="43.5011078" lon="10.594988"><ele>400.4285714285714</ele><time>2026-05-02T09:46:03.168Z</time></trkpt><trkpt lat="43.5010512" lon="10.5948829"><ele>399.1428571428571</ele><time>2026-05-02T09:47:59.154Z</time></trkpt><trkpt lat="43.5010288" lon="10.5947984"><ele>397.8571428571429</ele><time>2026-05-02T09:48:06.143Z</time></trkpt><trkpt lat="43.5009914" lon="10.5947277"><ele>396.57142857142856</ele><time>2026-05-02T09:48:11.156Z</time></trkpt><trkpt lat="43.5009385" lon="10.5946656"><ele>395.2857142857143</ele><time>2026-05-02T09:50:46.159Z</time></trkpt><trkpt lat="43.5009042" lon="10.594589"><ele>394.0</ele><time>2026-05-02T09:50:51.154Z</time></trkpt><trkpt lat="43.5008576" lon="10.59453"><ele>393.0</ele><time>2026-05-02T09:50:55.149Z</time></trkpt><trkpt lat="43.5008105" lon="10.5944606"><ele>392.0</ele><time>2026-05-02T09:51:00.154Z</time></trkpt><trkpt lat="43.5007765" lon="10.5943699"><ele>391.0</ele><time>2026-05-02T09:51:06.146Z</time></trkpt><trkpt lat="43.5007172" lon="10.5943193"><ele>390.0</ele><time>2026-05-02T09:51:11.152Z</time></trkpt><trkpt lat="43.5006512" lon="10.5942787"><ele>389.0</ele><time>2026-05-02T09:51:16.159Z</time></trkpt><trkpt lat="43.5006007" lon="10.5942238"><ele>388.0</ele><time>2026-05-02T09:53:06.144Z</time></trkpt><trkpt lat="43.5005667" lon="10.5941504"><ele>387.0</ele><time>2026-05-02T09:55:02.166Z</time></trkpt><trkpt lat="43.5005422" lon="10.5940682"><ele>387.0</ele><time>2026-05-02T09:57:26.136Z</time></trkpt><trkpt lat="43.5004969" lon="10.5940027"><ele>387.0</ele><time>2026-05-02T09:57:58.145Z</time></trkpt><trkpt lat="43.500437" lon="10.5939629"><ele>387.0</ele><time>2026-05-02T09:58:07.166Z</time></trkpt><trkpt lat="43.5003663" lon="10.5939598"><ele>387.0</ele><time>2026-05-02T09:58:29.13Z</time></trkpt><trkpt lat="43.5003006" lon="10.5939431"><ele>387.0</ele><time>2026-05-02T09:58:37.143Z</time></trkpt><trkpt lat="43.5001923" lon="10.5938904"><ele>387.0</ele><time>2026-05-02T10:04:28.136Z</time></trkpt><trkpt lat="43.5001282" lon="10.5938789"><ele>387.0</ele><time>2026-05-02T10:04:42.133Z</time></trkpt><trkpt lat="43.5000677" lon="10.5939068"><ele>385.2857142857143</ele><time>2026-05-02T10:04:47.142Z</time></trkpt><trkpt lat="43.5000068" lon="10.5939441"><ele>383.57142857142856</ele><time>2026-05-02T10:04:52.141Z</time></trkpt><trkpt lat="43.4999466" lon="10.5939863"><ele>381.8571428571429</ele><time>2026-05-02T10:04:55.131Z</time></trkpt><trkpt lat="43.4998908" lon="10.5940395"><ele>380.1428571428571</ele><time>2026-05-02T10:04:59.143Z</time></trkpt><trkpt lat="43.4998462" lon="10.5941044"><ele>378.4285714285714</ele><time>2026-05-02T10:05:03.142Z</time></trkpt><trkpt lat="43.4997957" lon="10.5941925"><ele>376.7142857142857</ele><time>2026-05-02T10:05:08.15Z</time></trkpt><trkpt lat="43.4997593" lon="10.5941006"><ele>375.0</ele><time>2026-05-02T10:05:38.148Z</time></trkpt><trkpt lat="43.4997395" lon="10.5940136"><ele>375.0</ele><time>2026-05-02T10:05:42.153Z</time></trkpt><trkpt lat="43.4997048" lon="10.5939278"><ele>375.0</ele><time>2026-05-02T10:05:46.142Z</time></trkpt><trkpt lat="43.4996548" lon="10.5938417"><ele>375.0</ele><time>2026-05-02T10:05:50.155Z</time></trkpt><trkpt lat="43.4996303" lon="10.5937599"><ele>375.0</ele><time>2026-05-02T10:05:54.144Z</time></trkpt><trkpt lat="43.4995791" lon="10.5936899"><ele>375.0</ele><time>2026-05-02T10:05:58.156Z</time></trkpt><trkpt lat="43.4995303" lon="10.5936094"><ele>375.0</ele><time>2026-05-02T10:06:02.168Z</time></trkpt><trkpt lat="43.4994646" lon="10.5935458"><ele>375.0</ele><time>2026-05-02T10:06:07.139Z</time></trkpt><trkpt lat="43.4994061" lon="10.593505"><ele>375.2857142857143</ele><time>2026-05-02T10:06:10.146Z</time></trkpt><trkpt lat="43.499353" lon="10.5934526"><ele>375.57142857142856</ele><time>2026-05-02T10:06:14.145Z</time></trkpt><trkpt lat="43.4993212" lon="10.593376"><ele>375.85714285714283</ele><time>2026-05-02T10:06:18.143Z</time></trkpt><trkpt lat="43.4993108" lon="10.5932758"><ele>376.1428571428571</ele><time>2026-05-02T10:06:22.137Z</time></trkpt><trkpt lat="43.4992652" lon="10.5932142"><ele>376.42857142857144</ele><time>2026-05-02T10:06:25.151Z</time></trkpt><trkpt lat="43.4992108" lon="10.593167"><ele>376.71428571428567</ele><time>2026-05-02T10:06:28.134Z</time></trkpt><trkpt lat="43.4991459" lon="10.5931315"><ele>377.0</ele><time>2026-05-02T10:06:31.143Z</time></trkpt><trkpt lat="43.4990904" lon="10.593089"><ele>376.99999999999994</ele><time>2026-05-02T10:06:34.176Z</time></trkpt><trkpt lat="43.4990287" lon="10.5930402"><ele>377.0</ele><time>2026-05-02T10:06:38.151Z</time></trkpt><trkpt lat="43.498972" lon="10.592998"><ele>377.0</ele><time>2026-05-02T10:06:41.15Z</time></trkpt><trkpt lat="43.4988981" lon="10.592963"><ele>377.0</ele><time>2026-05-02T10:06:44.207Z</time></trkpt><trkpt lat="43.4988261" lon="10.5929447"><ele>377.0</ele><time>2026-05-02T10:06:47.174Z</time></trkpt><trkpt lat="43.4987619" lon="10.5929124"><ele>376.99999999999994</ele><time>2026-05-02T10:06:50.17Z</time></trkpt><trkpt lat="43.4986955" lon="10.5928628"><ele>377.0</ele><time>2026-05-02T10:06:53.149Z</time></trkpt><trkpt lat="43.4986431" lon="10.5928036"><ele>377.85714285714283</ele><time>2026-05-02T10:06:58.148Z</time></trkpt><trkpt lat="43.4985853" lon="10.5927331"><ele>378.7142857142857</ele><time>2026-05-02T10:07:01.15Z</time></trkpt><trkpt lat="43.4985523" lon="10.5926582"><ele>379.57142857142856</ele><time>2026-05-02T10:07:04.135Z</time></trkpt><trkpt lat="43.498485" lon="10.5926534"><ele>380.42857142857144</ele><time>2026-05-02T10:11:08.16Z</time></trkpt><trkpt lat="43.4984205" lon="10.5926312"><ele>381.2857142857143</ele><time>2026-05-02T10:11:12.192Z</time></trkpt><trkpt lat="43.498355" lon="10.5925978"><ele>382.1428571428571</ele><time>2026-05-02T10:11:17.15Z</time></trkpt><trkpt lat="43.4982919" lon="10.5925606"><ele>383.0</ele><time>2026-05-02T10:11:21.171Z</time></trkpt><trkpt lat="43.4982175" lon="10.5925428"><ele>383.0</ele><time>2026-05-02T10:11:25.147Z</time></trkpt><trkpt lat="43.498139" lon="10.5925364"><ele>383.0</ele><time>2026-05-02T10:11:29.146Z</time></trkpt><trkpt lat="43.4980624" lon="10.5925317"><ele>383.0</ele><time>2026-05-02T10:11:33.15Z</time></trkpt><trkpt lat="43.4980008" lon="10.5925506"><ele>383.0</ele><time>2026-05-02T10:11:36.144Z</time></trkpt><trkpt lat="43.4979381" lon="10.592562"><ele>383.0</ele><time>2026-05-02T10:11:39.15Z</time></trkpt><trkpt lat="43.4978611" lon="10.5925749"><ele>383.0</ele><time>2026-05-02T10:11:43.157Z</time></trkpt><trkpt lat="43.4977951" lon="10.5925946"><ele>383.0</ele><time>2026-05-02T10:11:46.139Z</time></trkpt><trkpt lat="43.4977251" lon="10.5925666"><ele>385.1428571428571</ele><time>2026-05-02T10:11:50.154Z</time></trkpt><trkpt lat="43.497654" lon="10.5925242"><ele>387.2857142857143</ele><time>2026-05-02T10:11:54.158Z</time></trkpt><trkpt lat="43.4975984" lon="10.5924743"><ele>389.42857142857144</ele><time>2026-05-02T10:11:58.159Z</time></trkpt><trkpt lat="43.4975524" lon="10.5924016"><ele>391.57142857142856</ele><time>2026-05-02T10:12:02.168Z</time></trkpt><trkpt lat="43.4975221" lon="10.5923038"><ele>393.7142857142857</ele><time>2026-05-02T10:12:06.151Z</time></trkpt><trkpt lat="43.4974934" lon="10.5921935"><ele>395.85714285714283</ele><time>2026-05-02T10:12:09.167Z</time></trkpt><trkpt lat="43.4974593" lon="10.5921172"><ele>398.0</ele><time>2026-05-02T10:12:13.156Z</time></trkpt><trkpt lat="43.4974033" lon="10.5920701"><ele>397.99999999999994</ele><time>2026-05-02T10:12:24.165Z</time></trkpt><trkpt lat="43.4973267" lon="10.5920664"><ele>398.0</ele><time>2026-05-02T10:12:29.151Z</time></trkpt><trkpt lat="43.4972532" lon="10.5920814"><ele>398.0</ele><time>2026-05-02T10:12:33.157Z</time></trkpt><trkpt lat="43.497187" lon="10.5920919"><ele>398.0</ele><time>2026-05-02T10:12:37.159Z</time></trkpt><trkpt lat="43.4971173" lon="10.5921109"><ele>398.0</ele><time>2026-05-02T10:12:41.141Z</time></trkpt><trkpt lat="43.4970519" lon="10.5921318"><ele>397.99999999999994</ele><time>2026-05-02T10:12:45.197Z</time></trkpt><trkpt lat="43.496988" lon="10.5921782"><ele>398.0</ele><time>2026-05-02T10:12:50.151Z</time></trkpt><trkpt lat="43.4969346" lon="10.5922367"><ele>397.99999999999994</ele><time>2026-05-02T10:12:54.15Z</time></trkpt><trkpt lat="43.496863" lon="10.5922776"><ele>398.0</ele><time>2026-05-02T10:12:58.14Z</time></trkpt><trkpt lat="43.4967999" lon="10.5922581"><ele>398.0</ele><time>2026-05-02T10:13:02.142Z</time></trkpt><trkpt lat="43.4967548" lon="10.5921918"><ele>398.0</ele><time>2026-05-02T10:13:06.15Z</time></trkpt><trkpt lat="43.4967303" lon="10.5921007"><ele>398.0</ele><time>2026-05-02T10:13:10.148Z</time></trkpt><trkpt lat="43.4966894" lon="10.5920281"><ele>397.99999999999994</ele><time>2026-05-02T10:13:14.171Z</time></trkpt><trkpt lat="43.4966371" lon="10.5919794"><ele>398.0</ele><time>2026-05-02T10:13:19.194Z</time></trkpt><trkpt lat="43.496564" lon="10.591961"><ele>397.99999999999994</ele><time>2026-05-02T10:13:24.155Z</time></trkpt><trkpt lat="43.4965077" lon="10.5919145"><ele>398.0</ele><time>2026-05-02T10:13:28.185Z</time></trkpt><trkpt lat="43.4964441" lon="10.5918853"><ele>398.0</ele><time>2026-05-02T10:13:32.152Z</time></trkpt><trkpt lat="43.4963601" lon="10.5918752"><ele>398.0</ele><time>2026-05-02T10:13:36.192Z</time></trkpt><trkpt lat="43.496289" lon="10.5918855"><ele>398.0</ele><time>2026-05-02T10:13:40.143Z</time></trkpt><trkpt lat="43.4962213" lon="10.5918378"><ele>397.99999999999994</ele><time>2026-05-02T10:14:02.146Z</time></trkpt><trkpt lat="43.4961545" lon="10.591804"><ele>398.0</ele><time>2026-05-02T10:14:10.151Z</time></trkpt><trkpt lat="43.4960992" lon="10.5917571"><ele>401.2857142857143</ele><time>2026-05-02T10:14:16.151Z</time></trkpt><trkpt lat="43.4960564" lon="10.5916916"><ele>404.57142857142856</ele><time>2026-05-02T10:14:20.176Z</time></trkpt><trkpt lat="43.4960073" lon="10.5916305"><ele>407.8571428571429</ele><time>2026-05-02T10:14:24.161Z</time></trkpt><trkpt lat="43.4959673" lon="10.5915563"><ele>411.1428571428571</ele><time>2026-05-02T10:14:28.154Z</time></trkpt><trkpt lat="43.4959143" lon="10.5915077"><ele>414.42857142857144</ele><time>2026-05-02T10:14:32.173Z</time></trkpt><trkpt lat="43.4958565" lon="10.5914505"><ele>417.7142857142857</ele><time>2026-05-02T10:14:37.176Z</time></trkpt><trkpt lat="43.4958415" lon="10.5913656"><ele>421.0</ele><time>2026-05-02T10:14:41.151Z</time></trkpt><trkpt lat="43.495826" lon="10.5912568"><ele>421.00000000000006</ele><time>2026-05-02T10:14:45.15Z</time></trkpt><trkpt lat="43.4957906" lon="10.59118"><ele>421.0</ele><time>2026-05-02T10:14:49.146Z</time></trkpt><trkpt lat="43.4957475" lon="10.5911154"><ele>421.0</ele><time>2026-05-02T10:14:53.158Z</time></trkpt><trkpt lat="43.4956973" lon="10.5910592"><ele>421.0</ele><time>2026-05-02T10:14:57.158Z</time></trkpt><trkpt lat="43.4956537" lon="10.5909843"><ele>421.0</ele><time>2026-05-02T10:15:00.162Z</time></trkpt><trkpt lat="43.4956616" lon="10.5908972"><ele>421.00000000000006</ele><time>2026-05-02T10:15:05.159Z</time></trkpt><trkpt lat="43.4956687" lon="10.5908057"><ele>421.0</ele><time>2026-05-02T10:15:09.162Z</time></trkpt><trkpt lat="43.495667" lon="10.5907119"><ele>421.00000000000006</ele><time>2026-05-02T10:15:12.162Z</time></trkpt><trkpt lat="43.4956501" lon="10.5906099"><ele>421.0</ele><time>2026-05-02T10:15:16.174Z</time></trkpt><trkpt lat="43.4956936" lon="10.5905166"><ele>421.0</ele><time>2026-05-02T10:15:20.176Z</time></trkpt><trkpt lat="43.4957463" lon="10.5904496"><ele>421.0</ele><time>2026-05-02T10:15:23.167Z</time></trkpt><trkpt lat="43.4957945" lon="10.590371"><ele>421.0</ele><time>2026-05-02T10:15:26.149Z</time></trkpt><trkpt lat="43.4958509" lon="10.5903224"><ele>421.00000000000006</ele><time>2026-05-02T10:15:30.171Z</time></trkpt><trkpt lat="43.4958692" lon="10.5902379"><ele>421.0</ele><time>2026-05-02T10:15:45.168Z</time></trkpt><trkpt lat="43.4958418" lon="10.5903164"><ele>421.00000000000006</ele><time>2026-05-02T10:22:31.15Z</time></trkpt><trkpt lat="43.4957824" lon="10.5903455"><ele>421.0</ele><time>2026-05-02T10:26:10.155Z</time></trkpt><trkpt lat="43.4956969" lon="10.5903945"><ele>421.0</ele><time>2026-05-02T10:35:48.162Z</time></trkpt><trkpt lat="43.4957706" lon="10.5903622"><ele>421.0</ele><time>2026-05-02T10:35:52.161Z</time></trkpt><trkpt lat="43.495859" lon="10.5903346"><ele>421.00000000000006</ele><time>2026-05-02T10:35:55.144Z</time></trkpt><trkpt lat="43.4959215" lon="10.5902984"><ele>421.0</ele><time>2026-05-02T10:35:57.164Z</time></trkpt><trkpt lat="43.4959862" lon="10.5902698"><ele>421.00000000000006</ele><time>2026-05-02T10:35:59.146Z</time></trkpt><trkpt lat="43.4960481" lon="10.5902203"><ele>421.0</ele><time>2026-05-02T10:36:02.147Z</time></trkpt><trkpt lat="43.4961022" lon="10.590158"><ele>421.0</ele><time>2026-05-02T10:36:05.156Z</time></trkpt><trkpt lat="43.4961533" lon="10.5900835"><ele>421.0</ele><time>2026-05-02T10:36:09.144Z</time></trkpt><trkpt lat="43.49621" lon="10.5900286"><ele>421.0</ele><time>2026-05-02T10:36:15.143Z</time></trkpt><trkpt lat="43.4962622" lon="10.5899563"><ele>421.00000000000006</ele><time>2026-05-02T10:36:23.201Z</time></trkpt><trkpt lat="43.4963148" lon="10.5899012"><ele>421.0</ele><time>2026-05-02T10:36:30.169Z</time></trkpt><trkpt lat="43.4963652" lon="10.5898454"><ele>418.8571428571429</ele><time>2026-05-02T10:36:38.154Z</time></trkpt><trkpt lat="43.4963958" lon="10.5897657"><ele>416.7142857142857</ele><time>2026-05-02T10:36:58.153Z</time></trkpt><trkpt lat="43.4964206" lon="10.5896832"><ele>414.57142857142856</ele><time>2026-05-02T10:38:10.143Z</time></trkpt><trkpt lat="43.4964634" lon="10.5896139"><ele>412.42857142857144</ele><time>2026-05-02T10:38:30.138Z</time></trkpt><trkpt lat="43.4965131" lon="10.5895553"><ele>410.2857142857143</ele><time>2026-05-02T10:38:37.148Z</time></trkpt><trkpt lat="43.4965552" lon="10.5894646"><ele>408.14285714285717</ele><time>2026-05-02T10:38:42.141Z</time></trkpt><trkpt lat="43.4965421" lon="10.5893591"><ele>406.0</ele><time>2026-05-02T10:38:48.15Z</time></trkpt><trkpt lat="43.496525" lon="10.58927"><ele>406.0</ele><time>2026-05-02T10:38:56.14Z</time></trkpt><trkpt lat="43.4965309" lon="10.5891806"><ele>406.0</ele><time>2026-05-02T10:39:05.143Z</time></trkpt><trkpt lat="43.4965014" lon="10.5890957"><ele>406.0</ele><time>2026-05-02T10:39:24.142Z</time></trkpt><trkpt lat="43.4964894" lon="10.5889841"><ele>406.0</ele><time>2026-05-02T10:40:08.14Z</time></trkpt><trkpt lat="43.496484" lon="10.5888976"><ele>406.0</ele><time>2026-05-02T10:42:35.085Z</time></trkpt><trkpt lat="43.4964897" lon="10.5888061"><ele>406.0</ele><time>2026-05-02T10:43:38.089Z</time></trkpt><trkpt lat="43.4964712" lon="10.5887156"><ele>406.0</ele><time>2026-05-02T10:43:53.082Z</time></trkpt><trkpt lat="43.4964843" lon="10.5886269"><ele>406.14285714285717</ele><time>2026-05-02T10:44:01.091Z</time></trkpt><trkpt lat="43.4964404" lon="10.5885578"><ele>406.2857142857143</ele><time>2026-05-02T10:47:36.103Z</time></trkpt><trkpt lat="43.496387" lon="10.5885028"><ele>406.42857142857144</ele><time>2026-05-02T10:47:53.101Z</time></trkpt><trkpt lat="43.496322" lon="10.588453"><ele>406.57142857142856</ele><time>2026-05-02T10:47:57.084Z</time></trkpt><trkpt lat="43.4963" lon="10.5883382"><ele>406.7142857142857</ele><time>2026-05-02T10:48:23.081Z</time></trkpt><trkpt lat="43.4962936" lon="10.58825"><ele>406.8571428571429</ele><time>2026-05-02T10:48:31.084Z</time></trkpt><trkpt lat="43.4962563" lon="10.5881688"><ele>407.0</ele><time>2026-05-02T10:48:51.085Z</time></trkpt><trkpt lat="43.49623" lon="10.5880824"><ele>407.00000000000006</ele><time>2026-05-02T10:49:08.081Z</time></trkpt><trkpt lat="43.4962171" lon="10.5879966"><ele>407.0</ele><time>2026-05-02T10:49:28.092Z</time></trkpt><trkpt lat="43.4962383" lon="10.5879148"><ele>407.0</ele><time>2026-05-02T10:49:43.085Z</time></trkpt><trkpt lat="43.4962753" lon="10.5878329"><ele>407.0</ele><time>2026-05-02T10:49:55.09Z</time></trkpt><trkpt lat="43.4963155" lon="10.587764"><ele>407.0</ele><time>2026-05-02T10:50:00.077Z</time></trkpt><trkpt lat="43.4962776" lon="10.5876805"><ele>407.00000000000006</ele><time>2026-05-02T10:50:06.075Z</time></trkpt><trkpt lat="43.4962404" lon="10.5876102"><ele>407.0</ele><time>2026-05-02T10:50:10.073Z</time></trkpt><trkpt lat="43.496204" lon="10.5875258"><ele>404.49999999999994</ele><time>2026-05-02T10:50:15.098Z</time></trkpt><trkpt lat="43.4962095" lon="10.5874324"><ele>402.0</ele><time>2026-05-02T10:50:21.087Z</time></trkpt><trkpt lat="43.4962346" lon="10.5873482"><ele>399.5</ele><time>2026-05-02T10:50:30.078Z</time></trkpt><trkpt lat="43.4962508" lon="10.587213"><ele>397.0</ele><time>2026-05-02T10:50:55.082Z</time></trkpt><trkpt lat="43.4962708" lon="10.5871155"><ele>394.49999999999994</ele><time>2026-05-02T10:52:46.083Z</time></trkpt><trkpt lat="43.4962731" lon="10.5870092"><ele>392.0</ele><time>2026-05-02T10:53:47.139Z</time></trkpt><trkpt lat="43.4963309" lon="10.5869506"><ele>390.85714285714283</ele><time>2026-05-02T10:54:03.079Z</time></trkpt><trkpt lat="43.4963333" lon="10.5868617"><ele>389.7142857142857</ele><time>2026-05-02T10:54:16.093Z</time></trkpt><trkpt lat="43.4963538" lon="10.5867756"><ele>388.57142857142856</ele><time>2026-05-02T10:54:29.088Z</time></trkpt><trkpt lat="43.4963393" lon="10.5866797"><ele>387.42857142857144</ele><time>2026-05-02T10:54:46.096Z</time></trkpt><trkpt lat="43.4963326" lon="10.5865781"><ele>386.2857142857143</ele><time>2026-05-02T10:54:53.09Z</time></trkpt><trkpt lat="43.4963313" lon="10.5864871"><ele>385.1428571428571</ele><time>2026-05-02T10:54:57.082Z</time></trkpt><trkpt lat="43.4963413" lon="10.5863905"><ele>384.0</ele><time>2026-05-02T10:55:02.099Z</time></trkpt><trkpt lat="43.49635" lon="10.5862971"><ele>383.99999999999994</ele><time>2026-05-02T10:55:12.078Z</time></trkpt><trkpt lat="43.4963522" lon="10.5861972"><ele>384.0</ele><time>2026-05-02T10:55:17.098Z</time></trkpt><trkpt lat="43.4963502" lon="10.5861037"><ele>384.0</ele><time>2026-05-02T10:55:28.098Z</time></trkpt><trkpt lat="43.4963429" lon="10.5860015"><ele>384.0</ele><time>2026-05-02T10:55:41.107Z</time></trkpt><trkpt lat="43.4963211" lon="10.5859177"><ele>384.0</ele><time>2026-05-02T10:55:47.077Z</time></trkpt><trkpt lat="43.4962693" lon="10.5858504"><ele>383.99999999999994</ele><time>2026-05-02T10:56:02.094Z</time></trkpt><trkpt lat="43.4962652" lon="10.5857389"><ele>384.0</ele><time>2026-05-02T10:58:32.086Z</time></trkpt><trkpt lat="43.4962365" lon="10.5856442"><ele>381.4285714285714</ele><time>2026-05-02T10:58:40.086Z</time></trkpt><trkpt lat="43.4962286" lon="10.5855528"><ele>378.85714285714283</ele><time>2026-05-02T10:58:46.088Z</time></trkpt><trkpt lat="43.4962347" lon="10.5854578"><ele>376.2857142857143</ele><time>2026-05-02T10:58:54.091Z</time></trkpt><trkpt lat="43.4962349" lon="10.5853582"><ele>373.71428571428567</ele><time>2026-05-02T10:59:00.084Z</time></trkpt><trkpt lat="43.4962483" lon="10.5852656"><ele>371.14285714285717</ele><time>2026-05-02T10:59:06.1Z</time></trkpt><trkpt lat="43.4962315" lon="10.5851776"><ele>368.57142857142856</ele><time>2026-05-02T10:59:11.089Z</time></trkpt><trkpt lat="43.4962352" lon="10.5850758"><ele>366.0</ele><time>2026-05-02T10:59:17.086Z</time></trkpt><trkpt lat="43.4962211" lon="10.5849879"><ele>365.1666666666667</ele><time>2026-05-02T10:59:21.086Z</time></trkpt><trkpt lat="43.4961896" lon="10.5848929"><ele>364.3333333333333</ele><time>2026-05-02T10:59:26.083Z</time></trkpt><trkpt lat="43.4961853" lon="10.584792"><ele>363.5</ele><time>2026-05-02T10:59:31.087Z</time></trkpt><trkpt lat="43.4962052" lon="10.5846823"><ele>362.66666666666663</ele><time>2026-05-02T10:59:36.085Z</time></trkpt><trkpt lat="43.4962256" lon="10.5845809"><ele>361.8333333333333</ele><time>2026-05-02T10:59:40.089Z</time></trkpt><trkpt lat="43.4962358" lon="10.5844746"><ele>361.0</ele><time>2026-05-02T10:59:44.095Z</time></trkpt><trkpt lat="43.4962436" lon="10.5843859"><ele>361.8571428571429</ele><time>2026-05-02T10:59:47.082Z</time></trkpt><trkpt lat="43.4962566" lon="10.5842927"><ele>362.71428571428567</ele><time>2026-05-02T10:59:51.098Z</time></trkpt><trkpt lat="43.4962638" lon="10.5841853"><ele>363.57142857142856</ele><time>2026-05-02T10:59:55.087Z</time></trkpt><trkpt lat="43.4962688" lon="10.5840933"><ele>364.42857142857144</ele><time>2026-05-02T10:59:58.087Z</time></trkpt><trkpt lat="43.496268" lon="10.584001"><ele>365.28571428571433</ele><time>2026-05-02T11:00:01.098Z</time></trkpt><trkpt lat="43.4962771" lon="10.583908"><ele>366.1428571428571</ele><time>2026-05-02T11:00:05.087Z</time></trkpt><trkpt lat="43.496318" lon="10.5838277"><ele>367.0</ele><time>2026-05-02T11:00:09.088Z</time></trkpt><trkpt lat="43.4963654" lon="10.5837538"><ele>366.0</ele><time>2026-05-02T11:00:13.09Z</time></trkpt><trkpt lat="43.4964188" lon="10.5836655"><ele>365.0</ele><time>2026-05-02T11:00:17.093Z</time></trkpt><trkpt lat="43.4964772" lon="10.5835778"><ele>364.0</ele><time>2026-05-02T11:00:20.086Z</time></trkpt><trkpt lat="43.4965395" lon="10.5834834"><ele>363.0</ele><time>2026-05-02T11:00:23.086Z</time></trkpt><trkpt lat="43.4965954" lon="10.583412"><ele>362.0</ele><time>2026-05-02T11:00:26.078Z</time></trkpt><trkpt lat="43.4966384" lon="10.5833456"><ele>361.0</ele><time>2026-05-02T11:00:28.086Z</time></trkpt><trkpt lat="43.4966972" lon="10.5832574"><ele>361.0</ele><time>2026-05-02T11:00:31.08Z</time></trkpt><trkpt lat="43.4967517" lon="10.5831788"><ele>361.0</ele><time>2026-05-02T11:00:34.096Z</time></trkpt><trkpt lat="43.4968132" lon="10.5830899"><ele>361.0</ele><time>2026-05-02T11:00:37.088Z</time></trkpt><trkpt lat="43.4968619" lon="10.5830075"><ele>361.0</ele><time>2026-05-02T11:00:40.082Z</time></trkpt><trkpt lat="43.4969062" lon="10.5829283"><ele>361.0</ele><time>2026-05-02T11:00:43.086Z</time></trkpt><trkpt lat="43.4969463" lon="10.5828308"><ele>361.0</ele><time>2026-05-02T11:00:47.076Z</time></trkpt><trkpt lat="43.4969736" lon="10.5827341"><ele>361.16666666666663</ele><time>2026-05-02T11:00:50.092Z</time></trkpt><trkpt lat="43.4969998" lon="10.582635"><ele>361.3333333333333</ele><time>2026-05-02T11:00:54.089Z</time></trkpt><trkpt lat="43.4970173" lon="10.5825418"><ele>361.5</ele><time>2026-05-02T11:00:57.079Z</time></trkpt><trkpt lat="43.4970484" lon="10.5824364"><ele>361.6666666666667</ele><time>2026-05-02T11:01:01.091Z</time></trkpt><trkpt lat="43.4970694" lon="10.582335"><ele>361.83333333333337</ele><time>2026-05-02T11:01:05.086Z</time></trkpt><trkpt lat="43.4971011" lon="10.582237"><ele>362.0</ele><time>2026-05-02T11:01:09.082Z</time></trkpt><trkpt lat="43.4971275" lon="10.5821528"><ele>362.0</ele><time>2026-05-02T11:01:12.091Z</time></trkpt><trkpt lat="43.4971604" lon="10.5820538"><ele>362.0</ele><time>2026-05-02T11:01:16.08Z</time></trkpt><trkpt lat="43.4971909" lon="10.5819658"><ele>362.0</ele><time>2026-05-02T11:01:20.083Z</time></trkpt><trkpt lat="43.4972223" lon="10.5818793"><ele>362.0</ele><time>2026-05-02T11:01:25.083Z</time></trkpt><trkpt lat="43.4972431" lon="10.5817922"><ele>362.0</ele><time>2026-05-02T11:01:29.082Z</time></trkpt><trkpt lat="43.4972723" lon="10.5816873"><ele>362.0</ele><time>2026-05-02T11:01:33.078Z</time></trkpt><trkpt lat="43.4973084" lon="10.5816008"><ele>362.0</ele><time>2026-05-02T11:01:37.075Z</time></trkpt><trkpt lat="43.4973491" lon="10.5814928"><ele>361.2857142857143</ele><time>2026-05-02T11:01:41.077Z</time></trkpt><trkpt lat="43.4973805" lon="10.5814035"><ele>360.57142857142856</ele><time>2026-05-02T11:01:44.074Z</time></trkpt><trkpt lat="43.4974187" lon="10.581314"><ele>359.8571428571429</ele><time>2026-05-02T11:01:47.081Z</time></trkpt><trkpt lat="43.497454" lon="10.5812276"><ele>359.1428571428571</ele><time>2026-05-02T11:01:50.07Z</time></trkpt><trkpt lat="43.4974891" lon="10.5811458"><ele>358.42857142857144</ele><time>2026-05-02T11:01:52.073Z</time></trkpt><trkpt lat="43.4975319" lon="10.5810488"><ele>357.7142857142857</ele><time>2026-05-02T11:01:54.079Z</time></trkpt><trkpt lat="43.4975634" lon="10.5809656"><ele>357.0</ele><time>2026-05-02T11:01:56.084Z</time></trkpt><trkpt lat="43.4975991" lon="10.5808522"><ele>356.2857142857143</ele><time>2026-05-02T11:01:59.086Z</time></trkpt><trkpt lat="43.4976133" lon="10.5807369"><ele>355.57142857142856</ele><time>2026-05-02T11:02:02.08Z</time></trkpt><trkpt lat="43.4976077" lon="10.5806501"><ele>354.8571428571429</ele><time>2026-05-02T11:02:04.098Z</time></trkpt><trkpt lat="43.4975979" lon="10.5805573"><ele>354.1428571428571</ele><time>2026-05-02T11:02:06.085Z</time></trkpt><trkpt lat="43.4975968" lon="10.5804632"><ele>353.42857142857144</ele><time>2026-05-02T11:02:08.095Z</time></trkpt><trkpt lat="43.4975967" lon="10.5803536"><ele>352.7142857142857</ele><time>2026-05-02T11:02:11.084Z</time></trkpt><trkpt lat="43.4976047" lon="10.5802428"><ele>352.0</ele><time>2026-05-02T11:02:14.096Z</time></trkpt><trkpt lat="43.4976215" lon="10.5801552"><ele>351.0</ele><time>2026-05-02T11:02:17.079Z</time></trkpt><trkpt lat="43.4976407" lon="10.5800645"><ele>350.0</ele><time>2026-05-02T11:02:20.073Z</time></trkpt><trkpt lat="43.4976661" lon="10.5799689"><ele>349.0</ele><time>2026-05-02T11:02:24.099Z</time></trkpt><trkpt lat="43.4976894" lon="10.5798721"><ele>348.0</ele><time>2026-05-02T11:02:30.101Z</time></trkpt><trkpt lat="43.4977228" lon="10.579795"><ele>347.0</ele><time>2026-05-02T11:02:35.125Z</time></trkpt><trkpt lat="43.4977701" lon="10.5797166"><ele>346.0</ele><time>2026-05-02T11:02:39.085Z</time></trkpt><trkpt lat="43.4978087" lon="10.5796466"><ele>345.0</ele><time>2026-05-02T11:02:42.079Z</time></trkpt><trkpt lat="43.4978613" lon="10.5795565"><ele>345.0</ele><time>2026-05-02T11:02:46.073Z</time></trkpt><trkpt lat="43.4979159" lon="10.5794713"><ele>345.0</ele><time>2026-05-02T11:02:50.083Z</time></trkpt><trkpt lat="43.497967" lon="10.5793746"><ele>345.0</ele><time>2026-05-02T11:02:53.073Z</time></trkpt><trkpt lat="43.4980098" lon="10.5792813"><ele>345.0</ele><time>2026-05-02T11:02:56.067Z</time></trkpt><trkpt lat="43.498051" lon="10.5792088"><ele>345.0</ele><time>2026-05-02T11:02:59.074Z</time></trkpt><trkpt lat="43.4980889" lon="10.5791362"><ele>345.0</ele><time>2026-05-02T11:03:04.081Z</time></trkpt><trkpt lat="43.4981261" lon="10.5790529"><ele>345.0</ele><time>2026-05-02T11:03:09.074Z</time></trkpt><trkpt lat="43.498175" lon="10.5789815"><ele>345.0</ele><time>2026-05-02T11:03:14.084Z</time></trkpt><trkpt lat="43.4982317" lon="10.5789143"><ele>345.0</ele><time>2026-05-02T11:03:19.074Z</time></trkpt><trkpt lat="43.4982708" lon="10.5788219"><ele>345.0</ele><time>2026-05-02T11:03:24.086Z</time></trkpt><trkpt lat="43.4982917" lon="10.5787349"><ele>345.0</ele><time>2026-05-02T11:03:29.082Z</time></trkpt><trkpt lat="43.4983199" lon="10.578655"><ele>345.0</ele><time>2026-05-02T11:03:33.076Z</time></trkpt><trkpt lat="43.498339" lon="10.5785718"><ele>345.0</ele><time>2026-05-02T11:03:36.086Z</time></trkpt><trkpt lat="43.4983582" lon="10.5784636"><ele>343.0</ele><time>2026-05-02T11:03:41.08Z</time></trkpt><trkpt lat="43.4983902" lon="10.5783695"><ele>341.0</ele><time>2026-05-02T11:03:45.094Z</time></trkpt><trkpt lat="43.4984333" lon="10.5782887"><ele>339.0</ele><time>2026-05-02T11:03:49.071Z</time></trkpt><trkpt lat="43.498493" lon="10.5782205"><ele>337.0</ele><time>2026-05-02T11:03:54.085Z</time></trkpt><trkpt lat="43.4985296" lon="10.578146"><ele>335.0</ele><time>2026-05-02T11:03:58.085Z</time></trkpt><trkpt lat="43.4985351" lon="10.5780397"><ele>333.0</ele><time>2026-05-02T11:04:02.078Z</time></trkpt><trkpt lat="43.4985374" lon="10.5779399"><ele>331.0</ele><time>2026-05-02T11:04:06.081Z</time></trkpt><trkpt lat="43.4985397" lon="10.5778326"><ele>329.14285714285717</ele><time>2026-05-02T11:04:10.082Z</time></trkpt><trkpt lat="43.4985414" lon="10.5777431"><ele>327.2857142857143</ele><time>2026-05-02T11:04:14.076Z</time></trkpt><trkpt lat="43.4985283" lon="10.5776446"><ele>325.42857142857144</ele><time>2026-05-02T11:04:19.081Z</time></trkpt><trkpt lat="43.4985043" lon="10.5775595"><ele>323.57142857142856</ele><time>2026-05-02T11:04:24.089Z</time></trkpt><trkpt lat="43.4984789" lon="10.5774684"><ele>321.7142857142857</ele><time>2026-05-02T11:04:28.077Z</time></trkpt><trkpt lat="43.4984673" lon="10.5773824"><ele>319.85714285714283</ele><time>2026-05-02T11:04:32.079Z</time></trkpt><trkpt lat="43.4984579" lon="10.5772827"><ele>318.0</ele><time>2026-05-02T11:04:36.095Z</time></trkpt><trkpt lat="43.4984758" lon="10.5771776"><ele>318.0</ele><time>2026-05-02T11:04:41.082Z</time></trkpt><trkpt lat="43.4984597" lon="10.5770811"><ele>318.0</ele><time>2026-05-02T11:04:44.087Z</time></trkpt><trkpt lat="43.4984371" lon="10.5769655"><ele>318.0</ele><time>2026-05-02T11:04:47.082Z</time></trkpt><trkpt lat="43.4984247" lon="10.576849"><ele>318.0</ele><time>2026-05-02T11:04:50.091Z</time></trkpt><trkpt lat="43.4984019" lon="10.5767323"><ele>318.0</ele><time>2026-05-02T11:04:53.078Z</time></trkpt><trkpt lat="43.4983947" lon="10.5766395"><ele>318.0</ele><time>2026-05-02T11:04:55.077Z</time></trkpt><trkpt lat="43.4983838" lon="10.5765335"><ele>316.6666666666667</ele><time>2026-05-02T11:04:57.096Z</time></trkpt><trkpt lat="43.4983772" lon="10.5763919"><ele>315.3333333333333</ele><time>2026-05-02T11:04:59.091Z</time></trkpt><trkpt lat="43.4983722" lon="10.5762868"><ele>314.0</ele><time>2026-05-02T11:05:01.092Z</time></trkpt><trkpt lat="43.4983702" lon="10.5761817"><ele>312.66666666666663</ele><time>2026-05-02T11:05:04.079Z</time></trkpt><trkpt lat="43.4983656" lon="10.5760853"><ele>311.3333333333333</ele><time>2026-05-02T11:05:07.08Z</time></trkpt><trkpt lat="43.4983851" lon="10.5759827"><ele>310.0</ele><time>2026-05-02T11:05:10.085Z</time></trkpt><trkpt lat="43.4984009" lon="10.5758743"><ele>309.66666666666663</ele><time>2026-05-02T11:05:14.085Z</time></trkpt><trkpt lat="43.498402" lon="10.5757814"><ele>309.3333333333333</ele><time>2026-05-02T11:05:17.077Z</time></trkpt><trkpt lat="43.4984035" lon="10.5756613"><ele>309.0</ele><time>2026-05-02T11:05:20.091Z</time></trkpt><trkpt lat="43.4984176" lon="10.5755409"><ele>308.6666666666667</ele><time>2026-05-02T11:05:23.076Z</time></trkpt><trkpt lat="43.4984295" lon="10.5754238"><ele>308.33333333333337</ele><time>2026-05-02T11:05:26.088Z</time></trkpt><trkpt lat="43.4984464" lon="10.5753207"><ele>308.0</ele><time>2026-05-02T11:05:29.085Z</time></trkpt><trkpt lat="43.4984652" lon="10.5752212"><ele>307.85714285714283</ele><time>2026-05-02T11:05:32.081Z</time></trkpt><trkpt lat="43.4984916" lon="10.5751292"><ele>307.7142857142857</ele><time>2026-05-02T11:05:35.089Z</time></trkpt><trkpt lat="43.4985316" lon="10.5750457"><ele>307.57142857142856</ele><time>2026-05-02T11:05:38.099Z</time></trkpt><trkpt lat="43.4985854" lon="10.5749497"><ele>307.42857142857144</ele><time>2026-05-02T11:05:41.1Z</time></trkpt><trkpt lat="43.498619" lon="10.5748671"><ele>307.2857142857143</ele><time>2026-05-02T11:05:43.08Z</time></trkpt><trkpt lat="43.4986546" lon="10.5747944"><ele>307.1428571428571</ele><time>2026-05-02T11:05:45.082Z</time></trkpt><trkpt lat="43.4987067" lon="10.5747173"><ele>307.0</ele><time>2026-05-02T11:05:48.073Z</time></trkpt><trkpt lat="43.4987528" lon="10.5746396"><ele>306.5</ele><time>2026-05-02T11:05:51.088Z</time></trkpt><trkpt lat="43.4988073" lon="10.5745577"><ele>306.0</ele><time>2026-05-02T11:05:54.092Z</time></trkpt><trkpt lat="43.4988534" lon="10.5744738"><ele>305.5</ele><time>2026-05-02T11:05:57.084Z</time></trkpt><trkpt lat="43.4989034" lon="10.5743846"><ele>305.0</ele><time>2026-05-02T11:06:00.098Z</time></trkpt><trkpt lat="43.4989589" lon="10.5743095"><ele>304.5</ele><time>2026-05-02T11:06:03.084Z</time></trkpt><trkpt lat="43.4990003" lon="10.5742184"><ele>304.0</ele><time>2026-05-02T11:06:07.093Z</time></trkpt><trkpt lat="43.499036" lon="10.574115"><ele>304.0</ele><time>2026-05-02T11:06:11.082Z</time></trkpt><trkpt lat="43.499089" lon="10.5740318"><ele>304.0</ele><time>2026-05-02T11:06:14.102Z</time></trkpt><trkpt lat="43.4991293" lon="10.5739599"><ele>304.0</ele><time>2026-05-02T11:06:17.082Z</time></trkpt><trkpt lat="43.4991772" lon="10.5738934"><ele>304.0</ele><time>2026-05-02T11:06:20.097Z</time></trkpt><trkpt lat="43.4992012" lon="10.5738076"><ele>304.0</ele><time>2026-05-02T11:06:24.107Z</time></trkpt><trkpt lat="43.4992451" lon="10.5737091"><ele>304.0</ele><time>2026-05-02T11:06:28.103Z</time></trkpt><trkpt lat="43.4992636" lon="10.5736173"><ele>304.0</ele><time>2026-05-02T11:06:31.081Z</time></trkpt><trkpt lat="43.4992836" lon="10.573506"><ele>302.85714285714283</ele><time>2026-05-02T11:06:35.076Z</time></trkpt><trkpt lat="43.4992902" lon="10.5734111"><ele>301.7142857142857</ele><time>2026-05-02T11:06:39.073Z</time></trkpt><trkpt lat="43.4992836" lon="10.5733067"><ele>300.57142857142856</ele><time>2026-05-02T11:06:43.083Z</time></trkpt><trkpt lat="43.4992458" lon="10.5732102"><ele>299.42857142857144</ele><time>2026-05-02T11:06:48.09Z</time></trkpt><trkpt lat="43.4992018" lon="10.5731262"><ele>298.2857142857143</ele><time>2026-05-02T11:06:53.07Z</time></trkpt><trkpt lat="43.4991834" lon="10.5730399"><ele>297.14285714285717</ele><time>2026-05-02T11:06:57.078Z</time></trkpt><trkpt lat="43.4991668" lon="10.5729447"><ele>296.0</ele><time>2026-05-02T11:07:01.078Z</time></trkpt><trkpt lat="43.4991485" lon="10.5728575"><ele>293.0</ele><time>2026-05-02T11:07:05.074Z</time></trkpt><trkpt lat="43.4991254" lon="10.5727709"><ele>290.0</ele><time>2026-05-02T11:07:09.076Z</time></trkpt><trkpt lat="43.4990948" lon="10.5726816"><ele>287.0</ele><time>2026-05-02T11:07:12.077Z</time></trkpt><trkpt lat="43.4990683" lon="10.5725725"><ele>284.0</ele><time>2026-05-02T11:07:15.085Z</time></trkpt><trkpt lat="43.4990741" lon="10.5724591"><ele>281.0</ele><time>2026-05-02T11:07:19.075Z</time></trkpt><trkpt lat="43.4990667" lon="10.572354"><ele>278.0</ele><time>2026-05-02T11:07:23.099Z</time></trkpt><trkpt lat="43.4990636" lon="10.5722453"><ele>278.0</ele><time>2026-05-02T11:07:27.087Z</time></trkpt><trkpt lat="43.4990666" lon="10.5721499"><ele>278.0</ele><time>2026-05-02T11:07:30.092Z</time></trkpt><trkpt lat="43.4990414" lon="10.5720542"><ele>278.0</ele><time>2026-05-02T11:07:34.083Z</time></trkpt><trkpt lat="43.4990237" lon="10.5719552"><ele>278.0</ele><time>2026-05-02T11:07:38.087Z</time></trkpt><trkpt lat="43.4990234" lon="10.5718669"><ele>278.0</ele><time>2026-05-02T11:07:41.074Z</time></trkpt><trkpt lat="43.4990468" lon="10.5717614"><ele>278.0</ele><time>2026-05-02T11:07:44.098Z</time></trkpt><trkpt lat="43.4990503" lon="10.5716432"><ele>278.0</ele><time>2026-05-02T11:07:47.094Z</time></trkpt><trkpt lat="43.4990538" lon="10.5715251"><ele>270.0</ele><time>2026-05-02T11:07:50.086Z</time></trkpt><trkpt lat="43.4990646" lon="10.5714287"><ele>270.0</ele><time>2026-05-02T11:07:53.096Z</time></trkpt><trkpt lat="43.4990619" lon="10.5713317"><ele>270.0</ele><time>2026-05-02T11:07:58.112Z</time></trkpt><trkpt lat="43.4990429" lon="10.5712325"><ele>270.0</ele><time>2026-05-02T11:08:03.088Z</time></trkpt><trkpt lat="43.4990722" lon="10.5711484"><ele>270.0</ele><time>2026-05-02T11:08:08.086Z</time></trkpt><trkpt lat="43.4990978" lon="10.5710644"><ele>270.0</ele><time>2026-05-02T11:58:36.086Z</time></trkpt></trkseg><trkseg><trkpt lat="43.499065" lon="10.5710203"><ele>270.0</ele><time>2026-05-02T12:37:25.084Z</time></trkpt><trkpt lat="43.4990399" lon="10.5709356"><ele>270.0</ele><time>2026-05-02T12:37:29.092Z</time></trkpt><trkpt lat="43.4990461" lon="10.5708286"><ele>270.0</ele><time>2026-05-02T12:37:34.1Z</time></trkpt><trkpt lat="43.4990524" lon="10.5707275"><ele>270.0</ele><time>2026-05-02T12:37:37.106Z</time></trkpt><trkpt lat="43.4990574" lon="10.5706313"><ele>270.0</ele><time>2026-05-02T12:37:40.102Z</time></trkpt><trkpt lat="43.4990674" lon="10.5705192"><ele>270.0</ele><time>2026-05-02T12:37:43.11Z</time></trkpt><trkpt lat="43.4990671" lon="10.5704291"><ele>270.0</ele><time>2026-05-02T12:37:46.102Z</time></trkpt><trkpt lat="43.4990132" lon="10.5703425"><ele>270.0</ele><time>2026-05-02T12:37:49.098Z</time></trkpt><trkpt lat="43.4989308" lon="10.5703649"><ele>270.0</ele><time>2026-05-02T12:37:52.092Z</time></trkpt><trkpt lat="43.4988778" lon="10.5704508"><ele>270.0</ele><time>2026-05-02T12:37:55.096Z</time></trkpt><trkpt lat="43.4988117" lon="10.5704737"><ele>270.0</ele><time>2026-05-02T12:37:58.111Z</time></trkpt><trkpt lat="43.4988236" lon="10.5703758"><ele>270.0</ele><time>2026-05-02T12:38:02.104Z</time></trkpt><trkpt lat="43.498855" lon="10.5702741"><ele>270.0</ele><time>2026-05-02T12:38:05.102Z</time></trkpt><trkpt lat="43.4988933" lon="10.570164"><ele>268.8333333333333</ele><time>2026-05-02T12:38:08.1Z</time></trkpt><trkpt lat="43.4989144" lon="10.5700819"><ele>267.6666666666667</ele><time>2026-05-02T12:38:10.093Z</time></trkpt><trkpt lat="43.4989409" lon="10.5699564"><ele>266.5</ele><time>2026-05-02T12:38:13.099Z</time></trkpt><trkpt lat="43.4989666" lon="10.5698475"><ele>265.33333333333337</ele><time>2026-05-02T12:38:16.114Z</time></trkpt><trkpt lat="43.4989852" lon="10.5697475"><ele>264.1666666666667</ele><time>2026-05-02T12:38:19.098Z</time></trkpt><trkpt lat="43.4989993" lon="10.5696293"><ele>263.0</ele><time>2026-05-02T12:38:22.096Z</time></trkpt><trkpt lat="43.4990244" lon="10.5695453"><ele>260.57142857142856</ele><time>2026-05-02T12:38:24.101Z</time></trkpt><trkpt lat="43.49907" lon="10.5694702"><ele>258.1428571428571</ele><time>2026-05-02T12:38:26.099Z</time></trkpt><trkpt lat="43.4991477" lon="10.5694154"><ele>255.71428571428572</ele><time>2026-05-02T12:38:29.089Z</time></trkpt><trkpt lat="43.4992098" lon="10.5693907"><ele>253.28571428571428</ele><time>2026-05-02T12:38:32.097Z</time></trkpt><trkpt lat="43.499218" lon="10.5693038"><ele>250.85714285714286</ele><time>2026-05-02T12:38:36.105Z</time></trkpt><trkpt lat="43.4991358" lon="10.5692667"><ele>248.42857142857144</ele><time>2026-05-02T12:38:39.093Z</time></trkpt><trkpt lat="43.4990682" lon="10.5692695"><ele>246.00000000000003</ele><time>2026-05-02T12:38:41.095Z</time></trkpt><trkpt lat="43.4990049" lon="10.5692823"><ele>246.00000000000003</ele><time>2026-05-02T12:38:43.1Z</time></trkpt><trkpt lat="43.4989447" lon="10.5693259"><ele>246.0</ele><time>2026-05-02T12:38:46.095Z</time></trkpt><trkpt lat="43.498881" lon="10.5693365"><ele>246.00000000000003</ele><time>2026-05-02T12:38:49.094Z</time></trkpt><trkpt lat="43.4988377" lon="10.5692652"><ele>246.00000000000003</ele><time>2026-05-02T12:38:52.103Z</time></trkpt><trkpt lat="43.4988476" lon="10.5691522"><ele>246.0</ele><time>2026-05-02T12:38:55.087Z</time></trkpt><trkpt lat="43.4988972" lon="10.5690638"><ele>246.00000000000003</ele><time>2026-05-02T12:38:58.091Z</time></trkpt><trkpt lat="43.498886" lon="10.5689737"><ele>246.00000000000003</ele><time>2026-05-02T12:39:01.098Z</time></trkpt><trkpt lat="43.4988067" lon="10.5689573"><ele>242.83333333333334</ele><time>2026-05-02T12:39:04.106Z</time></trkpt><trkpt lat="43.4987376" lon="10.5690331"><ele>239.66666666666669</ele><time>2026-05-02T12:39:07.103Z</time></trkpt><trkpt lat="43.498685" lon="10.5691134"><ele>236.5</ele><time>2026-05-02T12:39:09.098Z</time></trkpt><trkpt lat="43.4986377" lon="10.569205"><ele>233.33333333333334</ele><time>2026-05-02T12:39:11.089Z</time></trkpt><trkpt lat="43.4985835" lon="10.5692976"><ele>230.16666666666669</ele><time>2026-05-02T12:39:13.096Z</time></trkpt><trkpt lat="43.4985475" lon="10.5693723"><ele>227.0</ele><time>2026-05-02T12:39:15.097Z</time></trkpt><trkpt lat="43.4985044" lon="10.5694428"><ele>227.00000000000003</ele><time>2026-05-02T12:39:18.101Z</time></trkpt><trkpt lat="43.4984762" lon="10.5693621"><ele>227.0</ele><time>2026-05-02T12:39:23.117Z</time></trkpt><trkpt lat="43.4985352" lon="10.5692642"><ele>227.0</ele><time>2026-05-02T12:39:26.107Z</time></trkpt><trkpt lat="43.4985865" lon="10.5691668"><ele>227.0</ele><time>2026-05-02T12:39:29.096Z</time></trkpt><trkpt lat="43.4986194" lon="10.5690892"><ele>227.00000000000003</ele><time>2026-05-02T12:39:31.095Z</time></trkpt><trkpt lat="43.4986655" lon="10.5689773"><ele>227.0</ele><time>2026-05-02T12:39:34.092Z</time></trkpt><trkpt lat="43.4987006" lon="10.5688916"><ele>227.00000000000003</ele><time>2026-05-02T12:39:36.094Z</time></trkpt><trkpt lat="43.4987498" lon="10.5688247"><ele>227.0</ele><time>2026-05-02T12:39:38.092Z</time></trkpt><trkpt lat="43.4988012" lon="10.5687698"><ele>227.0</ele><time>2026-05-02T12:39:40.092Z</time></trkpt><trkpt lat="43.4988764" lon="10.5687179"><ele>227.0</ele><time>2026-05-02T12:39:43.104Z</time></trkpt><trkpt lat="43.4989559" lon="10.5686611"><ele>227.00000000000003</ele><time>2026-05-02T12:39:46.098Z</time></trkpt><trkpt lat="43.4990386" lon="10.5686194"><ele>227.0</ele><time>2026-05-02T12:39:49.088Z</time></trkpt><trkpt lat="43.4991167" lon="10.5685599"><ele>226.66666666666669</ele><time>2026-05-02T12:39:52.095Z</time></trkpt><trkpt lat="43.499193" lon="10.5684842"><ele>226.33333333333334</ele><time>2026-05-02T12:39:55.092Z</time></trkpt><trkpt lat="43.4992462" lon="10.5684258"><ele>226.0</ele><time>2026-05-02T12:39:57.094Z</time></trkpt><trkpt lat="43.4993021" lon="10.5683654"><ele>225.66666666666669</ele><time>2026-05-02T12:39:59.091Z</time></trkpt><trkpt lat="43.4993578" lon="10.5682943"><ele>225.33333333333334</ele><time>2026-05-02T12:40:01.085Z</time></trkpt><trkpt lat="43.4994124" lon="10.5682121"><ele>225.0</ele><time>2026-05-02T12:40:03.09Z</time></trkpt><trkpt lat="43.4994528" lon="10.5681341"><ele>225.0</ele><time>2026-05-02T12:40:05.087Z</time></trkpt><trkpt lat="43.4994903" lon="10.5680133"><ele>225.0</ele><time>2026-05-02T12:40:08.092Z</time></trkpt><trkpt lat="43.4995198" lon="10.5679198"><ele>225.0</ele><time>2026-05-02T12:40:10.1Z</time></trkpt><trkpt lat="43.4995639" lon="10.5678168"><ele>225.0</ele><time>2026-05-02T12:40:13.092Z</time></trkpt><trkpt lat="43.4995923" lon="10.5677298"><ele>225.0</ele><time>2026-05-02T12:40:16.091Z</time></trkpt><trkpt lat="43.4996381" lon="10.5676156"><ele>225.0</ele><time>2026-05-02T12:40:19.103Z</time></trkpt><trkpt lat="43.4996894" lon="10.5674995"><ele>221.66666666666666</ele><time>2026-05-02T12:40:22.097Z</time></trkpt><trkpt lat="43.4997454" lon="10.5673931"><ele>218.33333333333331</ele><time>2026-05-02T12:40:25.106Z</time></trkpt><trkpt lat="43.4997869" lon="10.5673158"><ele>215.0</ele><time>2026-05-02T12:40:27.107Z</time></trkpt><trkpt lat="43.4998341" lon="10.56721"><ele>211.66666666666666</ele><time>2026-05-02T12:40:30.095Z</time></trkpt><trkpt lat="43.4998788" lon="10.5671157"><ele>208.33333333333331</ele><time>2026-05-02T12:40:31.977Z</time></trkpt><trkpt lat="43.4999206" lon="10.5670471"><ele>205.0</ele><time>2026-05-02T12:40:33.099Z</time></trkpt><trkpt lat="43.4999721" lon="10.5669936"><ele>202.49999999999997</ele><time>2026-05-02T12:40:35.098Z</time></trkpt><trkpt lat="43.5000628" lon="10.566929"><ele>200.0</ele><time>2026-05-02T12:40:38.097Z</time></trkpt><trkpt lat="43.5001276" lon="10.5668888"><ele>197.5</ele><time>2026-05-02T12:40:40.104Z</time></trkpt><trkpt lat="43.500215" lon="10.5668288"><ele>195.0</ele><time>2026-05-02T12:40:43.098Z</time></trkpt><trkpt lat="43.5002767" lon="10.5667689"><ele>192.5</ele><time>2026-05-02T12:40:46.136Z</time></trkpt><trkpt lat="43.5003355" lon="10.5666829"><ele>190.0</ele><time>2026-05-02T12:40:49.095Z</time></trkpt><trkpt lat="43.5003704" lon="10.5665693"><ele>190.0</ele><time>2026-05-02T12:40:52.1Z</time></trkpt><trkpt lat="43.5004112" lon="10.5664572"><ele>190.0</ele><time>2026-05-02T12:40:55.1Z</time></trkpt><trkpt lat="43.5004796" lon="10.566447"><ele>190.0</ele><time>2026-05-02T12:40:58.084Z</time></trkpt><trkpt lat="43.5005388" lon="10.5665236"><ele>190.0</ele><time>2026-05-02T12:41:02.103Z</time></trkpt><trkpt lat="43.5005804" lon="10.5666067"><ele>190.0</ele><time>2026-05-02T12:41:05.097Z</time></trkpt><trkpt lat="43.5006106" lon="10.5666861"><ele>190.0</ele><time>2026-05-02T12:41:07.089Z</time></trkpt><trkpt lat="43.5006092" lon="10.566789"><ele>188.33333333333334</ele><time>2026-05-02T12:41:10.051Z</time></trkpt><trkpt lat="43.500572" lon="10.5668696"><ele>186.66666666666669</ele><time>2026-05-02T12:41:12.124Z</time></trkpt><trkpt lat="43.5005589" lon="10.5669666"><ele>185.0</ele><time>2026-05-02T12:41:16.088Z</time></trkpt><trkpt lat="43.50063" lon="10.5669496"><ele>183.33333333333334</ele><time>2026-05-02T12:41:22.091Z</time></trkpt><trkpt lat="43.500686" lon="10.5668943"><ele>181.66666666666666</ele><time>2026-05-02T12:41:25.088Z</time></trkpt><trkpt lat="43.5007566" lon="10.5668129"><ele>180.0</ele><time>2026-05-02T12:41:28.098Z</time></trkpt><trkpt lat="43.5008099" lon="10.5667347"><ele>180.0</ele><time>2026-05-02T12:41:30.097Z</time></trkpt><trkpt lat="43.5008367" lon="10.5666384"><ele>180.0</ele><time>2026-05-02T12:41:32.09Z</time></trkpt><trkpt lat="43.500859" lon="10.5665192"><ele>180.0</ele><time>2026-05-02T12:41:35.091Z</time></trkpt><trkpt lat="43.5008479" lon="10.5664235"><ele>180.0</ele><time>2026-05-02T12:41:38.091Z</time></trkpt><trkpt lat="43.5008242" lon="10.5663196"><ele>180.0</ele><time>2026-05-02T12:41:41.087Z</time></trkpt><trkpt lat="43.5007935" lon="10.5662126"><ele>180.0</ele><time>2026-05-02T12:41:44.094Z</time></trkpt><trkpt lat="43.5007758" lon="10.5661253"><ele>178.33333333333334</ele><time>2026-05-02T12:41:47.083Z</time></trkpt><trkpt lat="43.5008033" lon="10.5660255"><ele>176.66666666666666</ele><time>2026-05-02T12:42:24.112Z</time></trkpt><trkpt lat="43.5007614" lon="10.5659265"><ele>175.0</ele><time>2026-05-02T12:42:28.086Z</time></trkpt><trkpt lat="43.5007133" lon="10.5658119"><ele>173.33333333333331</ele><time>2026-05-02T12:42:31.092Z</time></trkpt><trkpt lat="43.5006602" lon="10.5657454"><ele>171.66666666666666</ele><time>2026-05-02T12:42:33.091Z</time></trkpt><trkpt lat="43.5005978" lon="10.5656936"><ele>170.0</ele><time>2026-05-02T12:42:35.085Z</time></trkpt><trkpt lat="43.5005056" lon="10.5656837"><ele>170.0</ele><time>2026-05-02T12:42:37.096Z</time></trkpt><trkpt lat="43.5004253" lon="10.5656775"><ele>170.0</ele><time>2026-05-02T12:42:39.089Z</time></trkpt><trkpt lat="43.5003581" lon="10.5656744"><ele>170.0</ele><time>2026-05-02T12:42:41.095Z</time></trkpt><trkpt lat="43.5002902" lon="10.5656604"><ele>170.0</ele><time>2026-05-02T12:42:43.092Z</time></trkpt><trkpt lat="43.5002362" lon="10.5656103"><ele>170.0</ele><time>2026-05-02T12:42:45.087Z</time></trkpt><trkpt lat="43.500196" lon="10.5655046"><ele>170.0</ele><time>2026-05-02T12:42:48.082Z</time></trkpt><trkpt lat="43.5001952" lon="10.565404"><ele>170.0</ele><time>2026-05-02T12:42:51.083Z</time></trkpt><trkpt lat="43.500199" lon="10.5652869"><ele>170.2857142857143</ele><time>2026-05-02T12:42:54.084Z</time></trkpt><trkpt lat="43.500238" lon="10.5652175"><ele>170.57142857142856</ele><time>2026-05-02T12:42:56.077Z</time></trkpt><trkpt lat="43.5002939" lon="10.5651748"><ele>170.85714285714286</ele><time>2026-05-02T12:42:58.087Z</time></trkpt><trkpt lat="43.5003514" lon="10.5651187"><ele>171.14285714285717</ele><time>2026-05-02T12:43:00.084Z</time></trkpt><trkpt lat="43.500394" lon="10.5650327"><ele>171.42857142857144</ele><time>2026-05-02T12:43:02.078Z</time></trkpt><trkpt lat="43.5004099" lon="10.5649355"><ele>171.71428571428572</ele><time>2026-05-02T12:43:04.093Z</time></trkpt><trkpt lat="43.5003494" lon="10.5648335"><ele>172.0</ele><time>2026-05-02T12:43:07.083Z</time></trkpt><trkpt lat="43.5002877" lon="10.5648062"><ele>172.0</ele><time>2026-05-02T12:43:09.086Z</time></trkpt><trkpt lat="43.5002229" lon="10.5647903"><ele>172.0</ele><time>2026-05-02T12:43:11.094Z</time></trkpt><trkpt lat="43.5001347" lon="10.5647502"><ele>172.0</ele><time>2026-05-02T12:43:14.083Z</time></trkpt><trkpt lat="43.5000468" lon="10.5646914"><ele>172.0</ele><time>2026-05-02T12:43:17.092Z</time></trkpt><trkpt lat="43.4999733" lon="10.5646369"><ele>172.0</ele><time>2026-05-02T12:43:19.102Z</time></trkpt><trkpt lat="43.4999108" lon="10.5645915"><ele>172.0</ele><time>2026-05-02T12:43:21.088Z</time></trkpt><trkpt lat="43.4999847" lon="10.5646422"><ele>172.00000000000003</ele><time>2026-05-02T12:43:51.087Z</time></trkpt><trkpt lat="43.5000463" lon="10.5646891"><ele>172.0</ele><time>2026-05-02T12:43:56.113Z</time></trkpt><trkpt lat="43.5001068" lon="10.5647212"><ele>172.0</ele><time>2026-05-02T12:44:01.086Z</time></trkpt><trkpt lat="43.5001699" lon="10.5647573"><ele>172.0</ele><time>2026-05-02T12:44:05.082Z</time></trkpt><trkpt lat="43.5000958" lon="10.5647479"><ele>172.0</ele><time>2026-05-02T12:44:33.096Z</time></trkpt><trkpt lat="43.5000293" lon="10.5647056"><ele>172.00000000000003</ele><time>2026-05-02T12:44:36.09Z</time></trkpt><trkpt lat="43.4999711" lon="10.5646601"><ele>172.0</ele><time>2026-05-02T12:44:38.089Z</time></trkpt><trkpt lat="43.4999084" lon="10.5646059"><ele>172.00000000000003</ele><time>2026-05-02T12:44:40.092Z</time></trkpt><trkpt lat="43.4998412" lon="10.5645496"><ele>172.0</ele><time>2026-05-02T12:44:42.107Z</time></trkpt><trkpt lat="43.4997787" lon="10.5644886"><ele>172.0</ele><time>2026-05-02T12:44:44.095Z</time></trkpt><trkpt lat="43.4997211" lon="10.5644266"><ele>172.0</ele><time>2026-05-02T12:44:46.106Z</time></trkpt><trkpt lat="43.4996766" lon="10.5643579"><ele>172.0</ele><time>2026-05-02T12:44:48.098Z</time></trkpt><trkpt lat="43.4996698" lon="10.5642519"><ele>172.00000000000003</ele><time>2026-05-02T12:44:51.091Z</time></trkpt><trkpt lat="43.4997104" lon="10.5641758"><ele>172.0</ele><time>2026-05-02T12:44:54.077Z</time></trkpt><trkpt lat="43.4997993" lon="10.564194"><ele>172.33333333333334</ele><time>2026-05-02T12:44:57.098Z</time></trkpt><trkpt lat="43.4998763" lon="10.5641638"><ele>172.66666666666669</ele><time>2026-05-02T12:45:00.091Z</time></trkpt><trkpt lat="43.4999115" lon="10.5640761"><ele>173.0</ele><time>2026-05-02T12:45:02.096Z</time></trkpt><trkpt lat="43.4998984" lon="10.5639533"><ele>173.33333333333334</ele><time>2026-05-02T12:45:04.1Z</time></trkpt><trkpt lat="43.4998955" lon="10.5638381"><ele>173.66666666666666</ele><time>2026-05-02T12:45:06.095Z</time></trkpt><trkpt lat="43.4998977" lon="10.5637235"><ele>174.0</ele><time>2026-05-02T12:45:08.098Z</time></trkpt><trkpt lat="43.4999306" lon="10.5636044"><ele>174.6</ele><time>2026-05-02T12:45:10.105Z</time></trkpt><trkpt lat="43.4999546" lon="10.5634749"><ele>175.2</ele><time>2026-05-02T12:45:12.095Z</time></trkpt><trkpt lat="43.4999886" lon="10.5633626"><ele>175.79999999999998</ele><time>2026-05-02T12:45:14.093Z</time></trkpt><trkpt lat="43.4999982" lon="10.5632334"><ele>176.39999999999998</ele><time>2026-05-02T12:45:16.089Z</time></trkpt><trkpt lat="43.500009" lon="10.5630993"><ele>177.0</ele><time>2026-05-02T12:45:18.097Z</time></trkpt><trkpt lat="43.5000127" lon="10.5629746"><ele>177.66666666666666</ele><time>2026-05-02T12:45:20.088Z</time></trkpt><trkpt lat="43.5000172" lon="10.5628591"><ele>178.33333333333334</ele><time>2026-05-02T12:45:22.102Z</time></trkpt><trkpt lat="43.5000451" lon="10.5627568"><ele>179.0</ele><time>2026-05-02T12:45:24.096Z</time></trkpt><trkpt lat="43.5000949" lon="10.5626805"><ele>179.66666666666669</ele><time>2026-05-02T12:45:26.091Z</time></trkpt><trkpt lat="43.5001449" lon="10.5625979"><ele>180.33333333333334</ele><time>2026-05-02T12:45:28.095Z</time></trkpt><trkpt lat="43.5002277" lon="10.5624985"><ele>181.0</ele><time>2026-05-02T12:45:30.08Z</time></trkpt><trkpt lat="43.5003109" lon="10.5624001"><ele>176.8</ele><time>2026-05-02T12:45:32.095Z</time></trkpt><trkpt lat="43.5004192" lon="10.5623125"><ele>172.60000000000002</ele><time>2026-05-02T12:45:34.092Z</time></trkpt><trkpt lat="43.5004743" lon="10.5622682"><ele>168.4</ele><time>2026-05-02T12:45:35.09Z</time></trkpt><trkpt lat="43.5005627" lon="10.5621774"><ele>164.2</ele><time>2026-05-02T12:45:37.096Z</time></trkpt><trkpt lat="43.5005973" lon="10.5620533"><ele>160.0</ele><time>2026-05-02T12:45:39.128Z</time></trkpt><trkpt lat="43.5005926" lon="10.5619353"><ele>159.6</ele><time>2026-05-02T12:45:41.095Z</time></trkpt><trkpt lat="43.5005981" lon="10.5618162"><ele>159.2</ele><time>2026-05-02T12:45:43.088Z</time></trkpt><trkpt lat="43.5006237" lon="10.5616819"><ele>158.8</ele><time>2026-05-02T12:45:45.092Z</time></trkpt><trkpt lat="43.5006405" lon="10.5615368"><ele>158.4</ele><time>2026-05-02T12:45:47.094Z</time></trkpt><trkpt lat="43.5006438" lon="10.5613904"><ele>158.0</ele><time>2026-05-02T12:45:49.094Z</time></trkpt><trkpt lat="43.5006327" lon="10.561238"><ele>157.20000000000002</ele><time>2026-05-02T12:45:51.098Z</time></trkpt><trkpt lat="43.5006237" lon="10.561086"><ele>156.4</ele><time>2026-05-02T12:45:53.096Z</time></trkpt><trkpt lat="43.5006265" lon="10.5609381"><ele>155.60000000000002</ele><time>2026-05-02T12:45:55.095Z</time></trkpt><trkpt lat="43.5006414" lon="10.5608064"><ele>154.8</ele><time>2026-05-02T12:45:57.094Z</time></trkpt><trkpt lat="43.5006745" lon="10.5606852"><ele>154.0</ele><time>2026-05-02T12:45:59.095Z</time></trkpt><trkpt lat="43.5007245" lon="10.5605666"><ele>154.0</ele><time>2026-05-02T12:46:01.101Z</time></trkpt><trkpt lat="43.5007649" lon="10.5604592"><ele>154.0</ele><time>2026-05-02T12:46:03.089Z</time></trkpt><trkpt lat="43.5008022" lon="10.5603323"><ele>154.0</ele><time>2026-05-02T12:46:05.082Z</time></trkpt><trkpt lat="43.5008264" lon="10.5601941"><ele>154.0</ele><time>2026-05-02T12:46:07.091Z</time></trkpt><trkpt lat="43.5008465" lon="10.5600603"><ele>154.0</ele><time>2026-05-02T12:46:09.101Z</time></trkpt><trkpt lat="43.5008694" lon="10.5599183"><ele>153.8</ele><time>2026-05-02T12:46:11.093Z</time></trkpt><trkpt lat="43.5008945" lon="10.559778"><ele>153.60000000000002</ele><time>2026-05-02T12:46:13.1Z</time></trkpt><trkpt lat="43.5009157" lon="10.5596333"><ele>153.4</ele><time>2026-05-02T12:46:15.09Z</time></trkpt><trkpt lat="43.5009287" lon="10.5594895"><ele>153.20000000000002</ele><time>2026-05-02T12:46:17.098Z</time></trkpt><trkpt lat="43.5009445" lon="10.5593276"><ele>153.0</ele><time>2026-05-02T12:46:19.102Z</time></trkpt><trkpt lat="43.5009605" lon="10.5591645"><ele>150.8</ele><time>2026-05-02T12:46:21.093Z</time></trkpt><trkpt lat="43.500977" lon="10.5589955"><ele>148.60000000000002</ele><time>2026-05-02T12:46:23.101Z</time></trkpt><trkpt lat="43.500975" lon="10.558843"><ele>146.39999999999998</ele><time>2026-05-02T12:46:25.097Z</time></trkpt><trkpt lat="43.5009721" lon="10.5587113"><ele>144.2</ele><time>2026-05-02T12:46:27.1Z</time></trkpt><trkpt lat="43.5009282" lon="10.5586293"><ele>142.0</ele><time>2026-05-02T12:46:29.101Z</time></trkpt><trkpt lat="43.5008652" lon="10.5585729"><ele>141.2</ele><time>2026-05-02T12:46:31.101Z</time></trkpt><trkpt lat="43.5007927" lon="10.5585534"><ele>140.39999999999998</ele><time>2026-05-02T12:46:45.101Z</time></trkpt><trkpt lat="43.5007068" lon="10.5585396"><ele>139.60000000000002</ele><time>2026-05-02T12:46:47.089Z</time></trkpt><trkpt lat="43.5006121" lon="10.5585344"><ele>138.8</ele><time>2026-05-02T12:46:49.097Z</time></trkpt><trkpt lat="43.5004811" lon="10.5585212"><ele>138.0</ele><time>2026-05-02T12:46:51.093Z</time></trkpt><trkpt lat="43.5004026" lon="10.5585057"><ele>138.0</ele><time>2026-05-02T12:46:52.101Z</time></trkpt><trkpt lat="43.5003211" lon="10.5584805"><ele>138.0</ele><time>2026-05-02T12:46:53.096Z</time></trkpt><trkpt lat="43.5002407" lon="10.5584612"><ele>138.0</ele><time>2026-05-02T12:46:54.096Z</time></trkpt><trkpt lat="43.5001573" lon="10.5584378"><ele>138.0</ele><time>2026-05-02T12:46:55.09Z</time></trkpt><trkpt lat="43.5000766" lon="10.5584043"><ele>138.0</ele><time>2026-05-02T12:46:56.085Z</time></trkpt><trkpt lat="43.4999993" lon="10.5583635"><ele>138.0</ele><time>2026-05-02T12:46:57.097Z</time></trkpt><trkpt lat="43.4999221" lon="10.5583216"><ele>138.0</ele><time>2026-05-02T12:46:58.087Z</time></trkpt><trkpt lat="43.4998434" lon="10.5582784"><ele>138.0</ele><time>2026-05-02T12:46:59.093Z</time></trkpt><trkpt lat="43.4997598" lon="10.5582518"><ele>138.0</ele><time>2026-05-02T12:47:00.09Z</time></trkpt><trkpt lat="43.499669" lon="10.5582213"><ele>138.0</ele><time>2026-05-02T12:47:01.09Z</time></trkpt><trkpt lat="43.499576" lon="10.5582018"><ele>138.0</ele><time>2026-05-02T12:47:02.101Z</time></trkpt><trkpt lat="43.4994862" lon="10.5581892"><ele>138.0</ele><time>2026-05-02T12:47:03.096Z</time></trkpt><trkpt lat="43.4993908" lon="10.5581845"><ele>139.4</ele><time>2026-05-02T12:47:04.114Z</time></trkpt><trkpt lat="43.499289" lon="10.5581888"><ele>140.8</ele><time>2026-05-02T12:47:05.092Z</time></trkpt><trkpt lat="43.4991894" lon="10.5581982"><ele>142.2</ele><time>2026-05-02T12:47:06.083Z</time></trkpt><trkpt lat="43.4990845" lon="10.5582133"><ele>143.6</ele><time>2026-05-02T12:47:07.092Z</time></trkpt><trkpt lat="43.4989814" lon="10.5582176"><ele>145.0</ele><time>2026-05-02T12:47:08.091Z</time></trkpt><trkpt lat="43.4988851" lon="10.5582083"><ele>145.0</ele><time>2026-05-02T12:47:09.088Z</time></trkpt><trkpt lat="43.4987931" lon="10.558176"><ele>145.0</ele><time>2026-05-02T12:47:10.088Z</time></trkpt><trkpt lat="43.4987048" lon="10.5581288"><ele>145.0</ele><time>2026-05-02T12:47:11.091Z</time></trkpt><trkpt lat="43.4986211" lon="10.5580763"><ele>145.0</ele><time>2026-05-02T12:47:12.103Z</time></trkpt><trkpt lat="43.4985405" lon="10.5580054"><ele>145.0</ele><time>2026-05-02T12:47:13.081Z</time></trkpt><trkpt lat="43.4984548" lon="10.5579452"><ele>146.2</ele><time>2026-05-02T12:47:14.094Z</time></trkpt><trkpt lat="43.4983649" lon="10.5579058"><ele>147.4</ele><time>2026-05-02T12:47:15.168Z</time></trkpt><trkpt lat="43.4982715" lon="10.5578766"><ele>148.6</ele><time>2026-05-02T12:47:16.153Z</time></trkpt><trkpt lat="43.4981726" lon="10.5578662"><ele>149.8</ele><time>2026-05-02T12:47:17.145Z</time></trkpt><trkpt lat="43.498071" lon="10.5578606"><ele>151.0</ele><time>2026-05-02T12:47:18.142Z</time></trkpt><trkpt lat="43.497973" lon="10.557857"><ele>151.2</ele><time>2026-05-02T12:47:19.144Z</time></trkpt><trkpt lat="43.4978752" lon="10.5578683"><ele>151.39999999999998</ele><time>2026-05-02T12:47:20.151Z</time></trkpt><trkpt lat="43.4977741" lon="10.557885"><ele>151.6</ele><time>2026-05-02T12:47:21.145Z</time></trkpt><trkpt lat="43.497677" lon="10.5579093"><ele>151.79999999999998</ele><time>2026-05-02T12:47:22.151Z</time></trkpt><trkpt lat="43.4975725" lon="10.5579272"><ele>152.0</ele><time>2026-05-02T12:47:23.154Z</time></trkpt><trkpt lat="43.497475" lon="10.5579498"><ele>152.0</ele><time>2026-05-02T12:47:24.137Z</time></trkpt><trkpt lat="43.4973858" lon="10.5579829"><ele>152.0</ele><time>2026-05-02T12:47:25.139Z</time></trkpt><trkpt lat="43.4972961" lon="10.5580301"><ele>152.0</ele><time>2026-05-02T12:47:26.156Z</time></trkpt><trkpt lat="43.4972112" lon="10.5580781"><ele>152.0</ele><time>2026-05-02T12:47:27.148Z</time></trkpt><trkpt lat="43.4971271" lon="10.5581207"><ele>152.0</ele><time>2026-05-02T12:47:28.155Z</time></trkpt><trkpt lat="43.4970365" lon="10.5581482"><ele>151.2</ele><time>2026-05-02T12:47:29.148Z</time></trkpt><trkpt lat="43.496958" lon="10.5581584"><ele>150.39999999999998</ele><time>2026-05-02T12:47:30.154Z</time></trkpt><trkpt lat="43.4968251" lon="10.5581505"><ele>149.60000000000002</ele><time>2026-05-02T12:47:31.091Z</time></trkpt><trkpt lat="43.4967206" lon="10.5581645"><ele>148.8</ele><time>2026-05-02T12:48:27.099Z</time></trkpt><trkpt lat="43.4966511" lon="10.5581834"><ele>148.0</ele><time>2026-05-02T12:48:30.102Z</time></trkpt><trkpt lat="43.496583" lon="10.5582137"><ele>148.0</ele><time>2026-05-02T12:48:32.098Z</time></trkpt><trkpt lat="43.4964947" lon="10.5582485"><ele>148.0</ele><time>2026-05-02T12:48:34.099Z</time></trkpt><trkpt lat="43.4963931" lon="10.558306"><ele>148.0</ele><time>2026-05-02T12:48:36.1Z</time></trkpt><trkpt lat="43.4963319" lon="10.5583553"><ele>148.0</ele><time>2026-05-02T12:48:37.098Z</time></trkpt><trkpt lat="43.4962723" lon="10.5584208"><ele>148.0</ele><time>2026-05-02T12:48:38.104Z</time></trkpt><trkpt lat="43.496209" lon="10.5584901"><ele>148.0</ele><time>2026-05-02T12:48:39.1Z</time></trkpt><trkpt lat="43.4961445" lon="10.5585632"><ele>146.83333333333334</ele><time>2026-05-02T12:48:40.106Z</time></trkpt><trkpt lat="43.4960912" lon="10.5586482"><ele>145.66666666666669</ele><time>2026-05-02T12:48:41.09Z</time></trkpt><trkpt lat="43.496038" lon="10.5587362"><ele>144.5</ele><time>2026-05-02T12:48:42.101Z</time></trkpt><trkpt lat="43.4959781" lon="10.5588168"><ele>143.33333333333334</ele><time>2026-05-02T12:48:43.084Z</time></trkpt><trkpt lat="43.4959177" lon="10.5588951"><ele>142.16666666666666</ele><time>2026-05-02T12:48:44.085Z</time></trkpt><trkpt lat="43.4958444" lon="10.5589614"><ele>141.0</ele><time>2026-05-02T12:48:45.087Z</time></trkpt><trkpt lat="43.4957673" lon="10.559016"><ele>143.66666666666666</ele><time>2026-05-02T12:48:46.087Z</time></trkpt><trkpt lat="43.4956875" lon="10.5590493"><ele>146.33333333333334</ele><time>2026-05-02T12:48:47.086Z</time></trkpt><trkpt lat="43.4956076" lon="10.5590769"><ele>149.0</ele><time>2026-05-02T12:48:48.087Z</time></trkpt><trkpt lat="43.495524" lon="10.5590853"><ele>151.66666666666669</ele><time>2026-05-02T12:48:49.087Z</time></trkpt><trkpt lat="43.4954376" lon="10.5590751"><ele>154.33333333333334</ele><time>2026-05-02T12:48:50.093Z</time></trkpt><trkpt lat="43.4953517" lon="10.5590485"><ele>157.0</ele><time>2026-05-02T12:48:51.104Z</time></trkpt><trkpt lat="43.4952616" lon="10.5590186"><ele>157.0</ele><time>2026-05-02T12:48:52.102Z</time></trkpt><trkpt lat="43.4951781" lon="10.558992"><ele>157.0</ele><time>2026-05-02T12:48:53.093Z</time></trkpt><trkpt lat="43.4950924" lon="10.5589801"><ele>157.0</ele><time>2026-05-02T12:48:54.094Z</time></trkpt><trkpt lat="43.4950095" lon="10.5589891"><ele>157.0</ele><time>2026-05-02T12:48:55.092Z</time></trkpt><trkpt lat="43.4949259" lon="10.5590107"><ele>157.0</ele><time>2026-05-02T12:48:56.095Z</time></trkpt><trkpt lat="43.4948412" lon="10.5590438"><ele>157.0</ele><time>2026-05-02T12:48:57.09Z</time></trkpt><trkpt lat="43.4947561" lon="10.5590799"><ele>157.0</ele><time>2026-05-02T12:48:58.095Z</time></trkpt><trkpt lat="43.4946692" lon="10.5591179"><ele>157.0</ele><time>2026-05-02T12:48:59.091Z</time></trkpt><trkpt lat="43.4945782" lon="10.5591496"><ele>157.0</ele><time>2026-05-02T12:49:00.094Z</time></trkpt><trkpt lat="43.4944809" lon="10.5591714"><ele>157.0</ele><time>2026-05-02T12:49:01.099Z</time></trkpt><trkpt lat="43.4943859" lon="10.5591899"><ele>157.0</ele><time>2026-05-02T12:49:02.096Z</time></trkpt><trkpt lat="43.4942879" lon="10.5591961"><ele>157.2</ele><time>2026-05-02T12:49:03.088Z</time></trkpt><trkpt lat="43.494191" lon="10.5591729"><ele>157.39999999999998</ele><time>2026-05-02T12:49:04.094Z</time></trkpt><trkpt lat="43.4940916" lon="10.5591305"><ele>157.60000000000002</ele><time>2026-05-02T12:49:05.094Z</time></trkpt><trkpt lat="43.493996" lon="10.5590803"><ele>157.8</ele><time>2026-05-02T12:49:06.085Z</time></trkpt><trkpt lat="43.4938984" lon="10.5590235"><ele>158.0</ele><time>2026-05-02T12:49:07.092Z</time></trkpt><trkpt lat="43.4938015" lon="10.5589708"><ele>158.4</ele><time>2026-05-02T12:49:08.096Z</time></trkpt><trkpt lat="43.4936996" lon="10.5589273"><ele>158.8</ele><time>2026-05-02T12:49:09.101Z</time></trkpt><trkpt lat="43.4935959" lon="10.558904"><ele>159.2</ele><time>2026-05-02T12:49:10.101Z</time></trkpt><trkpt lat="43.4934914" lon="10.5589035"><ele>159.6</ele><time>2026-05-02T12:49:11.101Z</time></trkpt><trkpt lat="43.4933879" lon="10.5589249"><ele>160.0</ele><time>2026-05-02T12:49:12.098Z</time></trkpt><trkpt lat="43.4932851" lon="10.5589472"><ele>160.0</ele><time>2026-05-02T12:49:13.101Z</time></trkpt><trkpt lat="43.4931798" lon="10.5589651"><ele>160.0</ele><time>2026-05-02T12:49:14.083Z</time></trkpt><trkpt lat="43.4930748" lon="10.5589738"><ele>160.0</ele><time>2026-05-02T12:49:15.099Z</time></trkpt><trkpt lat="43.4929709" lon="10.5589665"><ele>160.0</ele><time>2026-05-02T12:49:16.096Z</time></trkpt><trkpt lat="43.4928713" lon="10.5589573"><ele>160.0</ele><time>2026-05-02T12:49:17.097Z</time></trkpt><trkpt lat="43.4927764" lon="10.5589577"><ele>159.8</ele><time>2026-05-02T12:49:18.104Z</time></trkpt><trkpt lat="43.4926824" lon="10.5589763"><ele>159.6</ele><time>2026-05-02T12:49:19.102Z</time></trkpt><trkpt lat="43.492594" lon="10.5590149"><ele>159.4</ele><time>2026-05-02T12:49:20.098Z</time></trkpt><trkpt lat="43.4925142" lon="10.5590755"><ele>159.2</ele><time>2026-05-02T12:49:21.089Z</time></trkpt><trkpt lat="43.4924428" lon="10.5591483"><ele>159.0</ele><time>2026-05-02T12:49:22.103Z</time></trkpt><trkpt lat="43.4923819" lon="10.5592387"><ele>159.0</ele><time>2026-05-02T12:49:23.096Z</time></trkpt><trkpt lat="43.4923273" lon="10.5593384"><ele>159.0</ele><time>2026-05-02T12:49:24.094Z</time></trkpt><trkpt lat="43.4922734" lon="10.5594406"><ele>159.0</ele><time>2026-05-02T12:49:25.109Z</time></trkpt><trkpt lat="43.4922206" lon="10.5595434"><ele>159.0</ele><time>2026-05-02T12:49:26.102Z</time></trkpt><trkpt lat="43.4921695" lon="10.5596475"><ele>159.0</ele><time>2026-05-02T12:49:27.105Z</time></trkpt><trkpt lat="43.4921176" lon="10.5597508"><ele>159.0</ele><time>2026-05-02T12:49:28.106Z</time></trkpt><trkpt lat="43.4920634" lon="10.5598535"><ele>159.0</ele><time>2026-05-02T12:49:29.105Z</time></trkpt><trkpt lat="43.4920117" lon="10.559958"><ele>159.0</ele><time>2026-05-02T12:49:30.099Z</time></trkpt><trkpt lat="43.4919503" lon="10.5600531"><ele>159.0</ele><time>2026-05-02T12:49:31.097Z</time></trkpt><trkpt lat="43.4918792" lon="10.5601389"><ele>159.0</ele><time>2026-05-02T12:49:32.096Z</time></trkpt><trkpt lat="43.4918007" lon="10.5602108"><ele>159.0</ele><time>2026-05-02T12:49:33.096Z</time></trkpt><trkpt lat="43.4917183" lon="10.5602702"><ele>159.0</ele><time>2026-05-02T12:49:34.094Z</time></trkpt><trkpt lat="43.4916369" lon="10.5603218"><ele>159.0</ele><time>2026-05-02T12:49:35.099Z</time></trkpt><trkpt lat="43.4915495" lon="10.5603695"><ele>159.0</ele><time>2026-05-02T12:49:36.096Z</time></trkpt><trkpt lat="43.4914647" lon="10.5604179"><ele>159.0</ele><time>2026-05-02T12:49:37.105Z</time></trkpt><trkpt lat="43.4913832" lon="10.5604719"><ele>159.5</ele><time>2026-05-02T12:49:38.093Z</time></trkpt><trkpt lat="43.4912988" lon="10.5605255"><ele>160.0</ele><time>2026-05-02T12:49:39.101Z</time></trkpt><trkpt lat="43.4912207" lon="10.560584"><ele>160.5</ele><time>2026-05-02T12:49:40.094Z</time></trkpt><trkpt lat="43.4911488" lon="10.5606493"><ele>161.0</ele><time>2026-05-02T12:49:41.082Z</time></trkpt><trkpt lat="43.4910865" lon="10.5607291"><ele>161.5</ele><time>2026-05-02T12:49:42.099Z</time></trkpt><trkpt lat="43.4910326" lon="10.5608254"><ele>162.0</ele><time>2026-05-02T12:49:43.11Z</time></trkpt><trkpt lat="43.4909836" lon="10.5609261"><ele>162.0</ele><time>2026-05-02T12:49:44.092Z</time></trkpt><trkpt lat="43.4909352" lon="10.5610298"><ele>162.0</ele><time>2026-05-02T12:49:45.093Z</time></trkpt><trkpt lat="43.4908849" lon="10.561131"><ele>162.0</ele><time>2026-05-02T12:49:46.096Z</time></trkpt><trkpt lat="43.4908337" lon="10.5612303"><ele>162.0</ele><time>2026-05-02T12:49:47.086Z</time></trkpt><trkpt lat="43.4907746" lon="10.5613146"><ele>162.0</ele><time>2026-05-02T12:49:48.089Z</time></trkpt><trkpt lat="43.4907003" lon="10.5613816"><ele>162.0</ele><time>2026-05-02T12:49:49.097Z</time></trkpt><trkpt lat="43.490614" lon="10.5614344"><ele>164.2</ele><time>2026-05-02T12:49:50.096Z</time></trkpt><trkpt lat="43.4905225" lon="10.5614815"><ele>166.39999999999998</ele><time>2026-05-02T12:49:51.097Z</time></trkpt><trkpt lat="43.4904239" lon="10.5615049"><ele>168.60000000000002</ele><time>2026-05-02T12:49:52.1Z</time></trkpt><trkpt lat="43.4903246" lon="10.5615215"><ele>170.8</ele><time>2026-05-02T12:49:53.094Z</time></trkpt><trkpt lat="43.4902239" lon="10.561537"><ele>173.0</ele><time>2026-05-02T12:49:54.098Z</time></trkpt><trkpt lat="43.4901265" lon="10.5615672"><ele>173.0</ele><time>2026-05-02T12:49:55.105Z</time></trkpt><trkpt lat="43.4900363" lon="10.5616238"><ele>173.0</ele><time>2026-05-02T12:49:56.102Z</time></trkpt><trkpt lat="43.4899567" lon="10.5617074"><ele>173.0</ele><time>2026-05-02T12:49:57.089Z</time></trkpt><trkpt lat="43.4898885" lon="10.5617997"><ele>173.0</ele><time>2026-05-02T12:49:58.101Z</time></trkpt><trkpt lat="43.489823" lon="10.5618883"><ele>173.0</ele><time>2026-05-02T12:49:59.098Z</time></trkpt><trkpt lat="43.4897646" lon="10.5619774"><ele>174.0</ele><time>2026-05-02T12:50:00.1Z</time></trkpt><trkpt lat="43.4897174" lon="10.5620789"><ele>175.0</ele><time>2026-05-02T12:50:01.094Z</time></trkpt><trkpt lat="43.489669" lon="10.5621638"><ele>176.0</ele><time>2026-05-02T12:50:02.092Z</time></trkpt><trkpt lat="43.4896157" lon="10.5622314"><ele>177.0</ele><time>2026-05-02T12:50:03.091Z</time></trkpt><trkpt lat="43.4895613" lon="10.562276"><ele>178.0</ele><time>2026-05-02T12:50:04.087Z</time></trkpt><trkpt lat="43.4894947" lon="10.5622886"><ele>179.0</ele><time>2026-05-02T12:50:05.095Z</time></trkpt><trkpt lat="43.4894328" lon="10.56227"><ele>180.0</ele><time>2026-05-02T12:50:06.095Z</time></trkpt><trkpt lat="43.4893737" lon="10.5622192"><ele>180.0</ele><time>2026-05-02T12:50:07.092Z</time></trkpt><trkpt lat="43.489319" lon="10.5621498"><ele>180.0</ele><time>2026-05-02T12:50:08.098Z</time></trkpt><trkpt lat="43.4892695" lon="10.5620743"><ele>180.0</ele><time>2026-05-02T12:50:09.109Z</time></trkpt><trkpt lat="43.4892315" lon="10.5619986"><ele>180.0</ele><time>2026-05-02T12:50:10.107Z</time></trkpt><trkpt lat="43.4891982" lon="10.5619161"><ele>180.0</ele><time>2026-05-02T12:50:11.107Z</time></trkpt><trkpt lat="43.4891365" lon="10.5617646"><ele>180.0</ele><time>2026-05-02T12:50:13.093Z</time></trkpt><trkpt lat="43.4891017" lon="10.5616872"><ele>179.0</ele><time>2026-05-02T12:50:14.098Z</time></trkpt><trkpt lat="43.4890584" lon="10.5616179"><ele>178.0</ele><time>2026-05-02T12:50:15.094Z</time></trkpt><trkpt lat="43.4890092" lon="10.561558"><ele>177.0</ele><time>2026-05-02T12:50:16.098Z</time></trkpt><trkpt lat="43.4889501" lon="10.5615118"><ele>176.0</ele><time>2026-05-02T12:50:17.093Z</time></trkpt><trkpt lat="43.4888846" lon="10.5614881"><ele>175.0</ele><time>2026-05-02T12:50:18.101Z</time></trkpt><trkpt lat="43.4888145" lon="10.5614804"><ele>174.0</ele><time>2026-05-02T12:50:19.089Z</time></trkpt><trkpt lat="43.4887468" lon="10.5614987"><ele>173.0</ele><time>2026-05-02T12:50:20.1Z</time></trkpt><trkpt lat="43.4886811" lon="10.5615344"><ele>172.83333333333331</ele><time>2026-05-02T12:50:21.096Z</time></trkpt><trkpt lat="43.4886199" lon="10.5615847"><ele>172.66666666666666</ele><time>2026-05-02T12:50:22.093Z</time></trkpt><trkpt lat="43.4885621" lon="10.5616266"><ele>172.5</ele><time>2026-05-02T12:50:23.112Z</time></trkpt><trkpt lat="43.4884655" lon="10.5616857"><ele>172.33333333333334</ele><time>2026-05-02T12:50:25.102Z</time></trkpt><trkpt lat="43.4883779" lon="10.5616903"><ele>172.16666666666669</ele><time>2026-05-02T12:50:28.099Z</time></trkpt><trkpt lat="43.4883233" lon="10.5617592"><ele>172.0</ele><time>2026-05-02T12:50:31.1Z</time></trkpt><trkpt lat="43.4883684" lon="10.5618381"><ele>172.0</ele><time>2026-05-02T12:50:36.094Z</time></trkpt><trkpt lat="43.4884468" lon="10.5617536"><ele>172.0</ele><time>2026-05-02T12:50:38.101Z</time></trkpt><trkpt lat="43.4885505" lon="10.5616655"><ele>172.0</ele><time>2026-05-02T12:50:40.097Z</time></trkpt><trkpt lat="43.488615" lon="10.5616204"><ele>172.0</ele><time>2026-05-02T12:50:41.098Z</time></trkpt><trkpt lat="43.4886798" lon="10.5615772"><ele>172.0</ele><time>2026-05-02T12:50:42.107Z</time></trkpt><trkpt lat="43.4887458" lon="10.5615391"><ele>172.0</ele><time>2026-05-02T12:50:43.098Z</time></trkpt><trkpt lat="43.488819" lon="10.5615191"><ele>172.16666666666669</ele><time>2026-05-02T12:50:44.088Z</time></trkpt><trkpt lat="43.488896" lon="10.5615281"><ele>172.33333333333334</ele><time>2026-05-02T12:50:45.1Z</time></trkpt><trkpt lat="43.4889699" lon="10.5615706"><ele>172.5</ele><time>2026-05-02T12:50:46.098Z</time></trkpt><trkpt lat="43.4890325" lon="10.5616385"><ele>172.66666666666666</ele><time>2026-05-02T12:50:47.098Z</time></trkpt><trkpt lat="43.4890832" lon="10.5617239"><ele>172.83333333333331</ele><time>2026-05-02T12:50:48.101Z</time></trkpt><trkpt lat="43.4891288" lon="10.5618153"><ele>173.0</ele><time>2026-05-02T12:50:49.097Z</time></trkpt><trkpt lat="43.4891712" lon="10.5619152"><ele>173.0</ele><time>2026-05-02T12:50:50.098Z</time></trkpt><trkpt lat="43.4892116" lon="10.5620182"><ele>173.0</ele><time>2026-05-02T12:50:51.099Z</time></trkpt><trkpt lat="43.4892623" lon="10.5621172"><ele>173.0</ele><time>2026-05-02T12:50:52.104Z</time></trkpt><trkpt lat="43.4893183" lon="10.5622038"><ele>173.0</ele><time>2026-05-02T12:50:53.098Z</time></trkpt><trkpt lat="43.489385" lon="10.5622722"><ele>173.0</ele><time>2026-05-02T12:50:54.1Z</time></trkpt><trkpt lat="43.4894551" lon="10.5623207"><ele>173.0</ele><time>2026-05-02T12:50:55.099Z</time></trkpt><trkpt lat="43.4895335" lon="10.562332"><ele>173.0</ele><time>2026-05-02T12:50:56.09Z</time></trkpt><trkpt lat="43.4896075" lon="10.5623049"><ele>173.0</ele><time>2026-05-02T12:50:57.094Z</time></trkpt><trkpt lat="43.489673" lon="10.5622415"><ele>173.0</ele><time>2026-05-02T12:50:58.093Z</time></trkpt><trkpt lat="43.4897267" lon="10.5621536"><ele>173.0</ele><time>2026-05-02T12:50:59.091Z</time></trkpt><trkpt lat="43.4897802" lon="10.5620592"><ele>173.0</ele><time>2026-05-02T12:51:00.087Z</time></trkpt><trkpt lat="43.4898363" lon="10.5619624"><ele>173.0</ele><time>2026-05-02T12:51:01.097Z</time></trkpt><trkpt lat="43.4898962" lon="10.561874"><ele>173.0</ele><time>2026-05-02T12:51:02.101Z</time></trkpt><trkpt lat="43.4899532" lon="10.5617879"><ele>173.0</ele><time>2026-05-02T12:51:03.078Z</time></trkpt><trkpt lat="43.4900055" lon="10.5617203"><ele>173.0</ele><time>2026-05-02T12:51:04.095Z</time></trkpt><trkpt lat="43.4900662" lon="10.5616666"><ele>173.0</ele><time>2026-05-02T12:51:05.09Z</time></trkpt><trkpt lat="43.4901348" lon="10.5616349"><ele>173.0</ele><time>2026-05-02T12:51:06.095Z</time></trkpt><trkpt lat="43.4902375" lon="10.5616059"><ele>173.0</ele><time>2026-05-02T12:51:08.094Z</time></trkpt><trkpt lat="43.4903031" lon="10.5615969"><ele>173.0</ele><time>2026-05-02T12:51:11.082Z</time></trkpt><trkpt lat="43.4902953" lon="10.5614944"><ele>173.0</ele><time>2026-05-02T12:51:17.087Z</time></trkpt><trkpt lat="43.4902094" lon="10.5615062"><ele>173.0</ele><time>2026-05-02T12:51:20.084Z</time></trkpt><trkpt lat="43.490153" lon="10.5615543"><ele>173.0</ele><time>2026-05-02T12:51:30.098Z</time></trkpt><trkpt lat="43.4901105" lon="10.5616333"><ele>173.0</ele><time>2026-05-02T12:51:33.093Z</time></trkpt><trkpt lat="43.4900697" lon="10.5617202"><ele>173.0</ele><time>2026-05-02T12:51:37.091Z</time></trkpt><trkpt lat="43.4900224" lon="10.56181"><ele>173.0</ele><time>2026-05-02T12:51:41.091Z</time></trkpt><trkpt lat="43.4899878" lon="10.5618837"><ele>173.0</ele><time>2026-05-02T12:51:44.088Z</time></trkpt><trkpt lat="43.4899423" lon="10.5619671"><ele>173.0</ele><time>2026-05-02T12:51:48.091Z</time></trkpt><trkpt lat="43.4898978" lon="10.5620598"><ele>173.0</ele><time>2026-05-02T12:51:52.09Z</time></trkpt><trkpt lat="43.489865" lon="10.5621357"><ele>173.0</ele><time>2026-05-02T12:51:55.103Z</time></trkpt><trkpt lat="43.4898438" lon="10.5622304"><ele>173.0</ele><time>2026-05-02T12:51:59.093Z</time></trkpt><trkpt lat="43.4898304" lon="10.5623458"><ele>173.0</ele><time>2026-05-02T12:52:02.093Z</time></trkpt><trkpt lat="43.489817" lon="10.5624536"><ele>176.0</ele><time>2026-05-02T12:52:06.095Z</time></trkpt><trkpt lat="43.4897956" lon="10.5625425"><ele>179.0</ele><time>2026-05-02T12:52:09.096Z</time></trkpt><trkpt lat="43.489758" lon="10.5626195"><ele>182.0</ele><time>2026-05-02T12:52:12.097Z</time></trkpt><trkpt lat="43.4897176" lon="10.5627085"><ele>185.0</ele><time>2026-05-02T12:52:16.089Z</time></trkpt><trkpt lat="43.489679" lon="10.562811"><ele>188.0</ele><time>2026-05-02T12:52:20.1Z</time></trkpt><trkpt lat="43.4896566" lon="10.5629188"><ele>191.0</ele><time>2026-05-02T12:52:24.093Z</time></trkpt><trkpt lat="43.489685" lon="10.5630171"><ele>193.0</ele><time>2026-05-02T12:52:28.099Z</time></trkpt><trkpt lat="43.4897535" lon="10.5629885"><ele>195.0</ele><time>2026-05-02T12:52:32.105Z</time></trkpt><trkpt lat="43.4898174" lon="10.5629439"><ele>197.0</ele><time>2026-05-02T12:52:36.101Z</time></trkpt><trkpt lat="43.4898893" lon="10.5629378"><ele>199.0</ele><time>2026-05-02T12:52:40.1Z</time></trkpt><trkpt lat="43.4899647" lon="10.5629409"><ele>201.0</ele><time>2026-05-02T12:52:43.092Z</time></trkpt><trkpt lat="43.4900484" lon="10.5629294"><ele>203.0</ele><time>2026-05-02T12:52:46.087Z</time></trkpt><trkpt lat="43.4901098" lon="10.5628986"><ele>205.0</ele><time>2026-05-02T12:52:50.091Z</time></trkpt><trkpt lat="43.4901946" lon="10.5628765"><ele>205.0</ele><time>2026-05-02T12:52:55.091Z</time></trkpt><trkpt lat="43.4902687" lon="10.5628923"><ele>205.0</ele><time>2026-05-02T12:52:59.098Z</time></trkpt><trkpt lat="43.4902618" lon="10.5629906"><ele>205.0</ele><time>2026-05-02T12:53:03.101Z</time></trkpt><trkpt lat="43.4902662" lon="10.5630882"><ele>205.0</ele><time>2026-05-02T12:53:07.1Z</time></trkpt><trkpt lat="43.4903196" lon="10.5631359"><ele>205.0</ele><time>2026-05-02T12:53:10.099Z</time></trkpt><trkpt lat="43.4903827" lon="10.5631879"><ele>205.0</ele><time>2026-05-02T12:53:14.094Z</time></trkpt><trkpt lat="43.4904375" lon="10.5632501"><ele>205.0</ele><time>2026-05-02T12:53:19.091Z</time></trkpt><trkpt lat="43.4904725" lon="10.5633272"><ele>206.71428571428572</ele><time>2026-05-02T12:53:22.089Z</time></trkpt><trkpt lat="43.4905109" lon="10.5634215"><ele>208.42857142857142</ele><time>2026-05-02T12:53:26.097Z</time></trkpt><trkpt lat="43.4905629" lon="10.5635039"><ele>210.14285714285714</ele><time>2026-05-02T12:53:30.095Z</time></trkpt><trkpt lat="43.4906222" lon="10.5635678"><ele>211.85714285714286</ele><time>2026-05-02T12:53:34.093Z</time></trkpt><trkpt lat="43.4906824" lon="10.5636101"><ele>213.57142857142856</ele><time>2026-05-02T12:53:38.096Z</time></trkpt><trkpt lat="43.4907455" lon="10.5636095"><ele>215.28571428571428</ele><time>2026-05-02T12:53:41.092Z</time></trkpt><trkpt lat="43.4908079" lon="10.5635713"><ele>217.0</ele><time>2026-05-02T12:53:45.087Z</time></trkpt><trkpt lat="43.4908416" lon="10.5634818"><ele>217.0</ele><time>2026-05-02T12:53:48.094Z</time></trkpt><trkpt lat="43.4908859" lon="10.5633975"><ele>217.0</ele><time>2026-05-02T12:53:52.091Z</time></trkpt><trkpt lat="43.4909476" lon="10.5633643"><ele>217.0</ele><time>2026-05-02T12:53:56.087Z</time></trkpt><trkpt lat="43.4910212" lon="10.563392"><ele>217.0</ele><time>2026-05-02T12:53:59.09Z</time></trkpt><trkpt lat="43.491062" lon="10.563461"><ele>217.0</ele><time>2026-05-02T12:54:02.1Z</time></trkpt><trkpt lat="43.4911069" lon="10.5635505"><ele>217.0</ele><time>2026-05-02T12:54:06.097Z</time></trkpt><trkpt lat="43.4911402" lon="10.5636603"><ele>217.0</ele><time>2026-05-02T12:54:10.091Z</time></trkpt><trkpt lat="43.4911321" lon="10.5637468"><ele>219.33333333333331</ele><time>2026-05-02T12:54:13.104Z</time></trkpt><trkpt lat="43.4911464" lon="10.5638551"><ele>221.66666666666666</ele><time>2026-05-02T12:54:17.095Z</time></trkpt><trkpt lat="43.4911496" lon="10.5639636"><ele>224.0</ele><time>2026-05-02T12:54:21.104Z</time></trkpt><trkpt lat="43.4911226" lon="10.5640536"><ele>226.33333333333331</ele><time>2026-05-02T12:54:25.115Z</time></trkpt><trkpt lat="43.4911713" lon="10.5641451"><ele>228.66666666666666</ele><time>2026-05-02T12:54:29.095Z</time></trkpt><trkpt lat="43.4912335" lon="10.5642019"><ele>231.0</ele><time>2026-05-02T12:54:33.106Z</time></trkpt><trkpt lat="43.4912992" lon="10.5642638"><ele>231.0</ele><time>2026-05-02T12:54:37.108Z</time></trkpt><trkpt lat="43.4913271" lon="10.564364"><ele>231.0</ele><time>2026-05-02T12:54:41.106Z</time></trkpt><trkpt lat="43.4913591" lon="10.5644498"><ele>231.0</ele><time>2026-05-02T12:54:45.095Z</time></trkpt><trkpt lat="43.4913852" lon="10.5645554"><ele>231.0</ele><time>2026-05-02T12:54:49.101Z</time></trkpt><trkpt lat="43.4913824" lon="10.5646719"><ele>231.0</ele><time>2026-05-02T12:54:53.106Z</time></trkpt><trkpt lat="43.4913723" lon="10.5647578"><ele>231.0</ele><time>2026-05-02T12:54:56.105Z</time></trkpt><trkpt lat="43.4913772" lon="10.5648454"><ele>231.0</ele><time>2026-05-02T12:54:59.095Z</time></trkpt><trkpt lat="43.4914109" lon="10.5649286"><ele>233.28571428571428</ele><time>2026-05-02T12:55:03.108Z</time></trkpt><trkpt lat="43.4914629" lon="10.5649976"><ele>235.57142857142856</ele><time>2026-05-02T12:55:07.093Z</time></trkpt><trkpt lat="43.4915011" lon="10.5650765"><ele>237.85714285714286</ele><time>2026-05-02T12:55:11.094Z</time></trkpt><trkpt lat="43.491535" lon="10.5651551"><ele>240.14285714285714</ele><time>2026-05-02T12:55:14.106Z</time></trkpt><trkpt lat="43.4915492" lon="10.5652558"><ele>242.42857142857142</ele><time>2026-05-02T12:55:18.102Z</time></trkpt><trkpt lat="43.4915732" lon="10.5653451"><ele>244.71428571428572</ele><time>2026-05-02T12:55:21.097Z</time></trkpt><trkpt lat="43.4915899" lon="10.5654311"><ele>247.0</ele><time>2026-05-02T12:55:24.12Z</time></trkpt><trkpt lat="43.4916163" lon="10.5655186"><ele>249.57142857142858</ele><time>2026-05-02T12:55:27.107Z</time></trkpt><trkpt lat="43.4916438" lon="10.5656075"><ele>252.1428571428571</ele><time>2026-05-02T12:55:30.105Z</time></trkpt><trkpt lat="43.4916518" lon="10.5657036"><ele>254.7142857142857</ele><time>2026-05-02T12:55:33.098Z</time></trkpt><trkpt lat="43.4916529" lon="10.5657956"><ele>257.2857142857143</ele><time>2026-05-02T12:55:36.099Z</time></trkpt><trkpt lat="43.4916635" lon="10.5658828"><ele>259.85714285714283</ele><time>2026-05-02T12:55:39.112Z</time></trkpt><trkpt lat="43.4916731" lon="10.5659764"><ele>262.4285714285714</ele><time>2026-05-02T12:55:42.1Z</time></trkpt><trkpt lat="43.4916444" lon="10.5660551"><ele>265.0</ele><time>2026-05-02T12:55:45.116Z</time></trkpt><trkpt lat="43.4916194" lon="10.5661451"><ele>266.99999999999994</ele><time>2026-05-02T12:55:48.1Z</time></trkpt><trkpt lat="43.4916173" lon="10.566246"><ele>269.0</ele><time>2026-05-02T12:55:52.104Z</time></trkpt><trkpt lat="43.4916008" lon="10.5663489"><ele>271.0</ele><time>2026-05-02T12:55:56.087Z</time></trkpt><trkpt lat="43.4915894" lon="10.5664482"><ele>273.0</ele><time>2026-05-02T12:56:00.109Z</time></trkpt><trkpt lat="43.4915926" lon="10.5665568"><ele>275.0</ele><time>2026-05-02T12:56:04.103Z</time></trkpt><trkpt lat="43.4916077" lon="10.5666505"><ele>276.99999999999994</ele><time>2026-05-02T12:56:07.102Z</time></trkpt><trkpt lat="43.4916532" lon="10.5667371"><ele>279.0</ele><time>2026-05-02T12:56:11.107Z</time></trkpt><trkpt lat="43.4917031" lon="10.5668115"><ele>279.0</ele><time>2026-05-02T12:56:15.119Z</time></trkpt><trkpt lat="43.4917613" lon="10.5668798"><ele>279.0</ele><time>2026-05-02T12:56:19.106Z</time></trkpt><trkpt lat="43.4918206" lon="10.5669471"><ele>279.0</ele><time>2026-05-02T12:56:23.101Z</time></trkpt><trkpt lat="43.4918614" lon="10.5670491"><ele>279.0</ele><time>2026-05-02T12:56:27.104Z</time></trkpt><trkpt lat="43.4919041" lon="10.5671133"><ele>279.0</ele><time>2026-05-02T12:56:30.097Z</time></trkpt><trkpt lat="43.4919715" lon="10.5671772"><ele>279.0</ele><time>2026-05-02T12:56:34.095Z</time></trkpt><trkpt lat="43.4920191" lon="10.567246"><ele>280.3333333333333</ele><time>2026-05-02T12:56:37.099Z</time></trkpt><trkpt lat="43.4920624" lon="10.5673177"><ele>281.6666666666667</ele><time>2026-05-02T12:56:40.109Z</time></trkpt><trkpt lat="43.4921023" lon="10.5674115"><ele>283.0</ele><time>2026-05-02T12:56:44.108Z</time></trkpt><trkpt lat="43.4921267" lon="10.567509"><ele>284.33333333333337</ele><time>2026-05-02T12:56:48.107Z</time></trkpt><trkpt lat="43.4921426" lon="10.5676169"><ele>285.6666666666667</ele><time>2026-05-02T12:56:52.092Z</time></trkpt><trkpt lat="43.4921762" lon="10.5677238"><ele>287.0</ele><time>2026-05-02T12:56:56.104Z</time></trkpt><trkpt lat="43.4922201" lon="10.5678012"><ele>288.42857142857144</ele><time>2026-05-02T12:56:59.101Z</time></trkpt><trkpt lat="43.4922646" lon="10.567871"><ele>289.8571428571429</ele><time>2026-05-02T12:57:03.1Z</time></trkpt><trkpt lat="43.4923191" lon="10.5679489"><ele>291.2857142857143</ele><time>2026-05-02T12:57:07.098Z</time></trkpt><trkpt lat="43.4923651" lon="10.5680194"><ele>292.7142857142857</ele><time>2026-05-02T12:57:10.098Z</time></trkpt><trkpt lat="43.4924105" lon="10.5681008"><ele>294.14285714285717</ele><time>2026-05-02T12:57:13.1Z</time></trkpt><trkpt lat="43.4924561" lon="10.5681804"><ele>295.57142857142856</ele><time>2026-05-02T12:57:16.09Z</time></trkpt><trkpt lat="43.4924948" lon="10.5682629"><ele>297.0</ele><time>2026-05-02T12:57:19.1Z</time></trkpt><trkpt lat="43.4925423" lon="10.5683398"><ele>297.0</ele><time>2026-05-02T12:57:22.095Z</time></trkpt><trkpt lat="43.4925831" lon="10.5684179"><ele>297.0</ele><time>2026-05-02T12:57:25.1Z</time></trkpt><trkpt lat="43.4926167" lon="10.5685004"><ele>297.0</ele><time>2026-05-02T12:57:28.092Z</time></trkpt><trkpt lat="43.4926578" lon="10.5685772"><ele>297.0</ele><time>2026-05-02T12:57:31.098Z</time></trkpt><trkpt lat="43.4927039" lon="10.5686642"><ele>297.0</ele><time>2026-05-02T12:57:34.098Z</time></trkpt><trkpt lat="43.4927552" lon="10.5687343"><ele>297.0</ele><time>2026-05-02T12:57:37.091Z</time></trkpt><trkpt lat="43.4928239" lon="10.5687656"><ele>297.0</ele><time>2026-05-02T12:57:40.102Z</time></trkpt><trkpt lat="43.4928936" lon="10.5687985"><ele>297.2857142857143</ele><time>2026-05-02T12:57:43.091Z</time></trkpt><trkpt lat="43.4929561" lon="10.5688292"><ele>297.5714285714286</ele><time>2026-05-02T12:57:46.096Z</time></trkpt><trkpt lat="43.4930256" lon="10.5688681"><ele>297.8571428571429</ele><time>2026-05-02T12:57:49.105Z</time></trkpt><trkpt lat="43.4930999" lon="10.5688814"><ele>298.14285714285717</ele><time>2026-05-02T12:57:52.095Z</time></trkpt><trkpt lat="43.493169" lon="10.5688871"><ele>298.42857142857144</ele><time>2026-05-02T12:57:54.09Z</time></trkpt><trkpt lat="43.4932402" lon="10.5688852"><ele>298.7142857142857</ele><time>2026-05-02T12:57:57.087Z</time></trkpt><trkpt lat="43.4933106" lon="10.5688545"><ele>299.0</ele><time>2026-05-02T12:58:00.086Z</time></trkpt><trkpt lat="43.4933793" lon="10.568882"><ele>299.0</ele><time>2026-05-02T12:58:03.091Z</time></trkpt><trkpt lat="43.4933553" lon="10.5689868"><ele>299.0</ele><time>2026-05-02T12:58:06.093Z</time></trkpt><trkpt lat="43.4933357" lon="10.5690848"><ele>299.0</ele><time>2026-05-02T12:58:09.087Z</time></trkpt><trkpt lat="43.4933139" lon="10.5691853"><ele>299.0</ele><time>2026-05-02T12:58:12.089Z</time></trkpt><trkpt lat="43.4932912" lon="10.5692664"><ele>299.0</ele><time>2026-05-02T12:58:15.101Z</time></trkpt><trkpt lat="43.4932254" lon="10.5693084"><ele>299.0</ele><time>2026-05-02T12:58:18.09Z</time></trkpt><trkpt lat="43.4931569" lon="10.5693692"><ele>299.0</ele><time>2026-05-02T12:58:21.1Z</time></trkpt><trkpt lat="43.4931064" lon="10.5694255"><ele>299.0</ele><time>2026-05-02T12:58:24.091Z</time></trkpt><trkpt lat="43.4930206" lon="10.5694592"><ele>299.0</ele><time>2026-05-02T12:58:27.098Z</time></trkpt><trkpt lat="43.4929305" lon="10.5694637"><ele>299.0</ele><time>2026-05-02T12:58:30.101Z</time></trkpt><trkpt lat="43.4928376" lon="10.569467"><ele>299.0</ele><time>2026-05-02T12:58:33.107Z</time></trkpt><trkpt lat="43.4927507" lon="10.5694858"><ele>299.0</ele><time>2026-05-02T12:58:36.105Z</time></trkpt><trkpt lat="43.4926663" lon="10.569514"><ele>299.0</ele><time>2026-05-02T12:58:39.103Z</time></trkpt><trkpt lat="43.4925792" lon="10.569545"><ele>299.83333333333337</ele><time>2026-05-02T12:58:42.1Z</time></trkpt><trkpt lat="43.4924969" lon="10.5695834"><ele>300.6666666666667</ele><time>2026-05-02T12:58:45.093Z</time></trkpt><trkpt lat="43.492432" lon="10.5696139"><ele>301.5</ele><time>2026-05-02T12:58:48.106Z</time></trkpt><trkpt lat="43.4923878" lon="10.5696887"><ele>302.3333333333333</ele><time>2026-05-02T12:58:51.104Z</time></trkpt><trkpt lat="43.4923366" lon="10.569793"><ele>303.16666666666663</ele><time>2026-05-02T12:58:54.099Z</time></trkpt><trkpt lat="43.4923059" lon="10.5698844"><ele>304.0</ele><time>2026-05-02T12:58:57.101Z</time></trkpt><trkpt lat="43.4922842" lon="10.5699791"><ele>304.0</ele><time>2026-05-02T12:59:00.103Z</time></trkpt><trkpt lat="43.4922579" lon="10.5700966"><ele>304.0</ele><time>2026-05-02T12:59:03.098Z</time></trkpt><trkpt lat="43.4922352" lon="10.5701969"><ele>304.0</ele><time>2026-05-02T12:59:06.103Z</time></trkpt><trkpt lat="43.4922195" lon="10.5703027"><ele>304.0</ele><time>2026-05-02T12:59:09.097Z</time></trkpt><trkpt lat="43.4922089" lon="10.5704205"><ele>304.0</ele><time>2026-05-02T12:59:12.1Z</time></trkpt><trkpt lat="43.4922056" lon="10.5705475"><ele>304.0</ele><time>2026-05-02T12:59:15.096Z</time></trkpt><trkpt lat="43.4922038" lon="10.5706679"><ele>304.0</ele><time>2026-05-02T12:59:18.098Z</time></trkpt><trkpt lat="43.4921876" lon="10.5707845"><ele>304.0</ele><time>2026-05-02T12:59:21.109Z</time></trkpt><trkpt lat="43.4921604" lon="10.5708993"><ele>304.0</ele><time>2026-05-02T12:59:24.098Z</time></trkpt><trkpt lat="43.4921377" lon="10.5710046"><ele>304.0</ele><time>2026-05-02T12:59:27.104Z</time></trkpt><trkpt lat="43.4921337" lon="10.5711189"><ele>304.0</ele><time>2026-05-02T12:59:30.116Z</time></trkpt><trkpt lat="43.4921485" lon="10.5712317"><ele>304.0</ele><time>2026-05-02T12:59:33.099Z</time></trkpt><trkpt lat="43.4921612" lon="10.5713405"><ele>305.8333333333333</ele><time>2026-05-02T12:59:36.101Z</time></trkpt><trkpt lat="43.4921852" lon="10.5714442"><ele>307.66666666666663</ele><time>2026-05-02T12:59:39.102Z</time></trkpt><trkpt lat="43.49221" lon="10.5715563"><ele>309.5</ele><time>2026-05-02T12:59:42.106Z</time></trkpt><trkpt lat="43.4922288" lon="10.5716608"><ele>311.3333333333333</ele><time>2026-05-02T12:59:45.091Z</time></trkpt><trkpt lat="43.4922522" lon="10.5717727"><ele>313.1666666666667</ele><time>2026-05-02T12:59:48.11Z</time></trkpt><trkpt lat="43.4922572" lon="10.5718626"><ele>315.0</ele><time>2026-05-02T12:59:49.99Z</time></trkpt><trkpt lat="43.4922423" lon="10.571953"><ele>316.7142857142857</ele><time>2026-05-02T12:59:53.02Z</time></trkpt><trkpt lat="43.492236" lon="10.5720533"><ele>318.42857142857144</ele><time>2026-05-02T12:59:57.975Z</time></trkpt><trkpt lat="43.4922415" lon="10.572151"><ele>320.1428571428571</ele><time>2026-05-02T13:00:02.096Z</time></trkpt><trkpt lat="43.4922271" lon="10.5722441"><ele>321.8571428571429</ele><time>2026-05-02T13:00:06.106Z</time></trkpt><trkpt lat="43.4922015" lon="10.5723379"><ele>323.57142857142856</ele><time>2026-05-02T13:00:11.105Z</time></trkpt><trkpt lat="43.4921799" lon="10.5724409"><ele>325.2857142857143</ele><time>2026-05-02T13:00:15.089Z</time></trkpt><trkpt lat="43.4921153" lon="10.5725021"><ele>327.0</ele><time>2026-05-02T13:00:19.103Z</time></trkpt><trkpt lat="43.4920418" lon="10.5725506"><ele>327.85714285714283</ele><time>2026-05-02T13:00:23.101Z</time></trkpt><trkpt lat="43.4919688" lon="10.5725941"><ele>328.7142857142857</ele><time>2026-05-02T13:00:27.123Z</time></trkpt><trkpt lat="43.4919074" lon="10.5726258"><ele>329.57142857142856</ele><time>2026-05-02T13:00:30.107Z</time></trkpt><trkpt lat="43.4918426" lon="10.5726522"><ele>330.42857142857144</ele><time>2026-05-02T13:00:33.12Z</time></trkpt><trkpt lat="43.4917848" lon="10.5726884"><ele>331.2857142857143</ele><time>2026-05-02T13:00:36.112Z</time></trkpt><trkpt lat="43.4917319" lon="10.5727568"><ele>332.14285714285717</ele><time>2026-05-02T13:00:39.11Z</time></trkpt><trkpt lat="43.4916958" lon="10.5728369"><ele>333.0</ele><time>2026-05-02T13:00:43.103Z</time></trkpt><trkpt lat="43.4916611" lon="10.5729218"><ele>333.6666666666667</ele><time>2026-05-02T13:00:46.11Z</time></trkpt><trkpt lat="43.4916141" lon="10.5730271"><ele>334.3333333333333</ele><time>2026-05-02T13:00:49.107Z</time></trkpt><trkpt lat="43.4915562" lon="10.5731239"><ele>335.0</ele><time>2026-05-02T13:00:52.1Z</time></trkpt><trkpt lat="43.4915127" lon="10.573197"><ele>335.66666666666663</ele><time>2026-05-02T13:00:54.112Z</time></trkpt><trkpt lat="43.4914676" lon="10.5732592"><ele>336.3333333333333</ele><time>2026-05-02T13:00:56.106Z</time></trkpt><trkpt lat="43.4914198" lon="10.5733278"><ele>337.0</ele><time>2026-05-02T13:00:58.109Z</time></trkpt><trkpt lat="43.4913605" lon="10.5734163"><ele>337.00000000000006</ele><time>2026-05-02T13:01:01.112Z</time></trkpt><trkpt lat="43.4913149" lon="10.5734809"><ele>337.0</ele><time>2026-05-02T13:01:03.114Z</time></trkpt><trkpt lat="43.4912652" lon="10.5735493"><ele>337.0</ele><time>2026-05-02T13:01:05.111Z</time></trkpt><trkpt lat="43.491214" lon="10.5736129"><ele>337.0</ele><time>2026-05-02T13:01:07.114Z</time></trkpt><trkpt lat="43.4911639" lon="10.5736661"><ele>337.0</ele><time>2026-05-02T13:01:09.109Z</time></trkpt><trkpt lat="43.4911125" lon="10.5737242"><ele>337.00000000000006</ele><time>2026-05-02T13:01:11.114Z</time></trkpt><trkpt lat="43.4910495" lon="10.5737913"><ele>337.0</ele><time>2026-05-02T13:01:14.115Z</time></trkpt><trkpt lat="43.4910009" lon="10.5738936"><ele>337.5</ele><time>2026-05-02T13:01:17.108Z</time></trkpt><trkpt lat="43.4909465" lon="10.5739767"><ele>338.0</ele><time>2026-05-02T13:01:20.111Z</time></trkpt><trkpt lat="43.4908929" lon="10.5740672"><ele>338.5</ele><time>2026-05-02T13:01:23.105Z</time></trkpt><trkpt lat="43.4908257" lon="10.5741024"><ele>339.0</ele><time>2026-05-02T13:01:26.125Z</time></trkpt><trkpt lat="43.4907612" lon="10.5741444"><ele>339.5</ele><time>2026-05-02T13:01:29.114Z</time></trkpt><trkpt lat="43.4906986" lon="10.5742151"><ele>340.0</ele><time>2026-05-02T13:01:32.108Z</time></trkpt><trkpt lat="43.4906387" lon="10.5742918"><ele>340.0</ele><time>2026-05-02T13:01:35.102Z</time></trkpt><trkpt lat="43.4905693" lon="10.5743377"><ele>340.0</ele><time>2026-05-02T13:01:38.114Z</time></trkpt><trkpt lat="43.4905002" lon="10.5743707"><ele>340.0</ele><time>2026-05-02T13:01:41.103Z</time></trkpt><trkpt lat="43.4904321" lon="10.574456"><ele>340.0</ele><time>2026-05-02T13:01:44.09Z</time></trkpt><trkpt lat="43.4903723" lon="10.5745502"><ele>340.0</ele><time>2026-05-02T13:01:47.104Z</time></trkpt><trkpt lat="43.4903065" lon="10.5746441"><ele>340.0</ele><time>2026-05-02T13:01:50.1Z</time></trkpt><trkpt lat="43.4902552" lon="10.574746"><ele>338.3333333333333</ele><time>2026-05-02T13:01:53.094Z</time></trkpt><trkpt lat="43.4902091" lon="10.5748323"><ele>336.66666666666663</ele><time>2026-05-02T13:01:56.119Z</time></trkpt><trkpt lat="43.490172" lon="10.5749276"><ele>335.0</ele><time>2026-05-02T13:01:59.09Z</time></trkpt><trkpt lat="43.4901578" lon="10.575013"><ele>333.3333333333333</ele><time>2026-05-02T13:02:02.106Z</time></trkpt><trkpt lat="43.4901447" lon="10.5751129"><ele>331.6666666666667</ele><time>2026-05-02T13:02:05.098Z</time></trkpt><trkpt lat="43.4901264" lon="10.5752232"><ele>330.0</ele><time>2026-05-02T13:02:08.094Z</time></trkpt><trkpt lat="43.4900975" lon="10.5753295"><ele>329.1666666666667</ele><time>2026-05-02T13:02:11.098Z</time></trkpt><trkpt lat="43.4900627" lon="10.5754303"><ele>328.3333333333333</ele><time>2026-05-02T13:02:14.096Z</time></trkpt><trkpt lat="43.4900211" lon="10.5755225"><ele>327.5</ele><time>2026-05-02T13:02:17.097Z</time></trkpt><trkpt lat="43.4899572" lon="10.5755898"><ele>326.66666666666663</ele><time>2026-05-02T13:02:20.103Z</time></trkpt><trkpt lat="43.4898892" lon="10.575647"><ele>325.8333333333333</ele><time>2026-05-02T13:02:23.096Z</time></trkpt><trkpt lat="43.4898532" lon="10.5757464"><ele>325.0</ele><time>2026-05-02T13:02:26.12Z</time></trkpt><trkpt lat="43.4898262" lon="10.5758308"><ele>325.0</ele><time>2026-05-02T13:02:29.113Z</time></trkpt><trkpt lat="43.48978" lon="10.5759093"><ele>325.0</ele><time>2026-05-02T13:02:32.1Z</time></trkpt><trkpt lat="43.4897275" lon="10.5759986"><ele>325.0</ele><time>2026-05-02T13:02:35.105Z</time></trkpt><trkpt lat="43.4896837" lon="10.5761003"><ele>325.0</ele><time>2026-05-02T13:02:38.09Z</time></trkpt><trkpt lat="43.4896375" lon="10.5761855"><ele>325.0</ele><time>2026-05-02T13:02:41.104Z</time></trkpt><trkpt lat="43.4895789" lon="10.576258"><ele>325.0</ele><time>2026-05-02T13:02:44.106Z</time></trkpt><trkpt lat="43.4895619" lon="10.5763474"><ele>325.4285714285714</ele><time>2026-05-02T13:02:52.106Z</time></trkpt><trkpt lat="43.4895266" lon="10.5764253"><ele>325.8571428571429</ele><time>2026-05-02T13:02:55.101Z</time></trkpt><trkpt lat="43.4894726" lon="10.5765054"><ele>326.2857142857143</ele><time>2026-05-02T13:03:00.105Z</time></trkpt><trkpt lat="43.4894343" lon="10.5766033"><ele>326.71428571428567</ele><time>2026-05-02T13:03:04.105Z</time></trkpt><trkpt lat="43.4893891" lon="10.5766949"><ele>327.1428571428571</ele><time>2026-05-02T13:03:08.103Z</time></trkpt><trkpt lat="43.4893492" lon="10.5767628"><ele>327.57142857142856</ele><time>2026-05-02T13:03:12.107Z</time></trkpt><trkpt lat="43.4892979" lon="10.5768144"><ele>328.0</ele><time>2026-05-02T13:03:16.095Z</time></trkpt><trkpt lat="43.4892505" lon="10.5768805"><ele>327.99999999999994</ele><time>2026-05-02T13:03:20.111Z</time></trkpt><trkpt lat="43.4892009" lon="10.5769524"><ele>328.0</ele><time>2026-05-02T13:03:24.103Z</time></trkpt><trkpt lat="43.4891603" lon="10.577038"><ele>328.0</ele><time>2026-05-02T13:03:28.107Z</time></trkpt><trkpt lat="43.4891063" lon="10.5771136"><ele>328.0</ele><time>2026-05-02T13:03:32.116Z</time></trkpt><trkpt lat="43.4890545" lon="10.5771925"><ele>328.0</ele><time>2026-05-02T13:03:37.098Z</time></trkpt><trkpt lat="43.4889965" lon="10.5772312"><ele>327.99999999999994</ele><time>2026-05-02T13:03:44.115Z</time></trkpt><trkpt lat="43.4889484" lon="10.5773009"><ele>328.0</ele><time>2026-05-02T13:03:50.107Z</time></trkpt><trkpt lat="43.4889089" lon="10.5773755"><ele>328.4285714285714</ele><time>2026-05-02T13:03:54.111Z</time></trkpt><trkpt lat="43.4888514" lon="10.5774502"><ele>328.85714285714283</ele><time>2026-05-02T13:03:59.1Z</time></trkpt><trkpt lat="43.4888095" lon="10.5775155"><ele>329.2857142857143</ele><time>2026-05-02T13:04:03.102Z</time></trkpt><trkpt lat="43.4887481" lon="10.5775777"><ele>329.71428571428567</ele><time>2026-05-02T13:04:08.1Z</time></trkpt><trkpt lat="43.4886908" lon="10.577619"><ele>330.1428571428571</ele><time>2026-05-02T13:04:13.101Z</time></trkpt><trkpt lat="43.4886251" lon="10.5776526"><ele>330.57142857142856</ele><time>2026-05-02T13:04:19.098Z</time></trkpt><trkpt lat="43.4885565" lon="10.5777035"><ele>331.0</ele><time>2026-05-02T13:04:24.088Z</time></trkpt><trkpt lat="43.48849" lon="10.577719"><ele>333.0</ele><time>2026-05-02T13:04:29.108Z</time></trkpt><trkpt lat="43.4884389" lon="10.5777858"><ele>335.0</ele><time>2026-05-02T13:04:35.109Z</time></trkpt><trkpt lat="43.4883856" lon="10.5778383"><ele>337.0</ele><time>2026-05-02T13:04:41.117Z</time></trkpt><trkpt lat="43.4883189" lon="10.5778854"><ele>339.0</ele><time>2026-05-02T13:04:45.104Z</time></trkpt><trkpt lat="43.4882517" lon="10.5779223"><ele>341.0</ele><time>2026-05-02T13:04:49.102Z</time></trkpt><trkpt lat="43.488185" lon="10.577982"><ele>343.0</ele><time>2026-05-02T13:04:53.098Z</time></trkpt><trkpt lat="43.4881415" lon="10.5780583"><ele>345.0</ele><time>2026-05-02T13:04:56.098Z</time></trkpt><trkpt lat="43.4880949" lon="10.5781235"><ele>345.1666666666667</ele><time>2026-05-02T13:04:59.102Z</time></trkpt><trkpt lat="43.4880523" lon="10.5782117"><ele>345.3333333333333</ele><time>2026-05-02T13:05:03.108Z</time></trkpt><trkpt lat="43.4880267" lon="10.5783114"><ele>345.5</ele><time>2026-05-02T13:05:07.107Z</time></trkpt><trkpt lat="43.4879976" lon="10.5784154"><ele>345.66666666666663</ele><time>2026-05-02T13:05:11.1Z</time></trkpt><trkpt lat="43.4879864" lon="10.5785257"><ele>345.8333333333333</ele><time>2026-05-02T13:05:15.1Z</time></trkpt><trkpt lat="43.4879426" lon="10.5786054"><ele>346.0</ele><time>2026-05-02T13:05:19.101Z</time></trkpt><trkpt lat="43.4878984" lon="10.5786956"><ele>347.2857142857143</ele><time>2026-05-02T13:05:23.111Z</time></trkpt><trkpt lat="43.4878672" lon="10.5787763"><ele>348.5714285714286</ele><time>2026-05-02T13:05:27.1Z</time></trkpt><trkpt lat="43.4878236" lon="10.5788707"><ele>349.8571428571429</ele><time>2026-05-02T13:05:31.108Z</time></trkpt><trkpt lat="43.4877745" lon="10.5789504"><ele>351.1428571428571</ele><time>2026-05-02T13:05:36.106Z</time></trkpt><trkpt lat="43.4877391" lon="10.5790305"><ele>352.42857142857144</ele><time>2026-05-02T13:05:41.105Z</time></trkpt><trkpt lat="43.4877114" lon="10.5791316"><ele>353.7142857142857</ele><time>2026-05-02T13:05:45.113Z</time></trkpt><trkpt lat="43.4876789" lon="10.5792303"><ele>355.0</ele><time>2026-05-02T13:05:49.117Z</time></trkpt><trkpt lat="43.4876551" lon="10.5793149"><ele>355.0</ele><time>2026-05-02T13:05:53.111Z</time></trkpt><trkpt lat="43.4876276" lon="10.5793973"><ele>355.0</ele><time>2026-05-02T13:05:57.1Z</time></trkpt><trkpt lat="43.4875962" lon="10.5794848"><ele>355.0</ele><time>2026-05-02T13:06:02.112Z</time></trkpt><trkpt lat="43.4875792" lon="10.5795758"><ele>355.0</ele><time>2026-05-02T13:06:05.109Z</time></trkpt><trkpt lat="43.4875575" lon="10.5796617"><ele>355.0</ele><time>2026-05-02T13:06:08.106Z</time></trkpt><trkpt lat="43.4875359" lon="10.579759"><ele>355.0</ele><time>2026-05-02T13:06:12.099Z</time></trkpt><trkpt lat="43.4875127" lon="10.5798473"><ele>355.0</ele><time>2026-05-02T13:06:17.091Z</time></trkpt><trkpt lat="43.4874956" lon="10.5799341"><ele>355.0</ele><time>2026-05-02T13:06:21.095Z</time></trkpt><trkpt lat="43.4874706" lon="10.5800248"><ele>355.0</ele><time>2026-05-02T13:06:26.09Z</time></trkpt><trkpt lat="43.4874503" lon="10.5801079"><ele>355.0</ele><time>2026-05-02T13:06:36.09Z</time></trkpt><trkpt lat="43.4874147" lon="10.5802015"><ele>355.0</ele><time>2026-05-02T13:06:39.09Z</time></trkpt><trkpt lat="43.4873683" lon="10.5803065"><ele>355.0</ele><time>2026-05-02T13:06:42.098Z</time></trkpt><trkpt lat="43.4873176" lon="10.5804121"><ele>355.0</ele><time>2026-05-02T13:06:45.096Z</time></trkpt><trkpt lat="43.4872853" lon="10.5805108"><ele>354.42857142857144</ele><time>2026-05-02T13:06:49.104Z</time></trkpt><trkpt lat="43.487252" lon="10.580607"><ele>353.8571428571429</ele><time>2026-05-02T13:06:53.107Z</time></trkpt><trkpt lat="43.4872301" lon="10.5806935"><ele>353.28571428571433</ele><time>2026-05-02T13:06:56.094Z</time></trkpt><trkpt lat="43.4872165" lon="10.5807946"><ele>352.7142857142857</ele><time>2026-05-02T13:07:00.104Z</time></trkpt><trkpt lat="43.487193" lon="10.5808795"><ele>352.14285714285717</ele><time>2026-05-02T13:07:03.103Z</time></trkpt><trkpt lat="43.4871555" lon="10.5809657"><ele>351.5714285714286</ele><time>2026-05-02T13:07:07.1Z</time></trkpt><trkpt lat="43.4871306" lon="10.5810531"><ele>351.0</ele><time>2026-05-02T13:07:12.092Z</time></trkpt><trkpt lat="43.4871051" lon="10.5811537"><ele>352.14285714285717</ele><time>2026-05-02T13:07:22.086Z</time></trkpt><trkpt lat="43.4870857" lon="10.5812509"><ele>353.2857142857143</ele><time>2026-05-02T13:07:27.093Z</time></trkpt><trkpt lat="43.4870803" lon="10.5813473"><ele>354.42857142857144</ele><time>2026-05-02T13:07:36.101Z</time></trkpt><trkpt lat="43.4870772" lon="10.5814407"><ele>355.57142857142856</ele><time>2026-05-02T13:07:42.092Z</time></trkpt><trkpt lat="43.4870721" lon="10.5815317"><ele>356.7142857142857</ele><time>2026-05-02T13:07:47.096Z</time></trkpt><trkpt lat="43.4870585" lon="10.5816341"><ele>357.8571428571429</ele><time>2026-05-02T13:07:58.114Z</time></trkpt><trkpt lat="43.4870363" lon="10.5817224"><ele>359.0</ele><time>2026-05-02T13:08:04.096Z</time></trkpt><trkpt lat="43.4870184" lon="10.5818109"><ele>359.0</ele><time>2026-05-02T13:08:09.1Z</time></trkpt><trkpt lat="43.4869903" lon="10.5819039"><ele>359.0</ele><time>2026-05-02T13:08:14.098Z</time></trkpt><trkpt lat="43.486974" lon="10.5819942"><ele>359.0</ele><time>2026-05-02T13:08:20.098Z</time></trkpt><trkpt lat="43.4869501" lon="10.5820902"><ele>359.0</ele><time>2026-05-02T13:08:24.096Z</time></trkpt><trkpt lat="43.4868905" lon="10.5821229"><ele>359.0</ele><time>2026-05-02T13:08:30.119Z</time></trkpt><trkpt lat="43.4868741" lon="10.5822344"><ele>359.0</ele><time>2026-05-02T13:08:35.097Z</time></trkpt><trkpt lat="43.4868599" lon="10.5823285"><ele>359.0</ele><time>2026-05-02T13:08:39.107Z</time></trkpt><trkpt lat="43.4868556" lon="10.5824194"><ele>358.57142857142856</ele><time>2026-05-02T13:08:43.105Z</time></trkpt><trkpt lat="43.4868645" lon="10.5825135"><ele>358.14285714285717</ele><time>2026-05-02T13:08:47.097Z</time></trkpt><trkpt lat="43.4868605" lon="10.5826257"><ele>357.71428571428567</ele><time>2026-05-02T13:08:51.099Z</time></trkpt><trkpt lat="43.4868619" lon="10.5827154"><ele>357.2857142857143</ele><time>2026-05-02T13:08:54.099Z</time></trkpt><trkpt lat="43.4868548" lon="10.5828267"><ele>356.85714285714283</ele><time>2026-05-02T13:08:58.106Z</time></trkpt><trkpt lat="43.4868542" lon="10.5829345"><ele>356.4285714285714</ele><time>2026-05-02T13:09:02.101Z</time></trkpt><trkpt lat="43.4868325" lon="10.5830301"><ele>356.0</ele><time>2026-05-02T13:09:06.103Z</time></trkpt><trkpt lat="43.4867972" lon="10.5831267"><ele>356.0</ele><time>2026-05-02T13:09:10.108Z</time></trkpt><trkpt lat="43.486749" lon="10.583209"><ele>356.0</ele><time>2026-05-02T13:09:13.096Z</time></trkpt><trkpt lat="43.4867076" lon="10.5832866"><ele>356.0</ele><time>2026-05-02T13:09:16.09Z</time></trkpt><trkpt lat="43.4866776" lon="10.5833885"><ele>356.0</ele><time>2026-05-02T13:09:19.101Z</time></trkpt><trkpt lat="43.4866474" lon="10.5834878"><ele>356.0</ele><time>2026-05-02T13:09:22.099Z</time></trkpt><trkpt lat="43.4866275" lon="10.5836039"><ele>356.0</ele><time>2026-05-02T13:09:26.092Z</time></trkpt><trkpt lat="43.4865993" lon="10.5836949"><ele>356.2857142857143</ele><time>2026-05-02T13:09:34.097Z</time></trkpt><trkpt lat="43.4865933" lon="10.5837844"><ele>356.57142857142856</ele><time>2026-05-02T13:09:38.108Z</time></trkpt><trkpt lat="43.4866124" lon="10.5838782"><ele>356.8571428571429</ele><time>2026-05-02T13:10:37.099Z</time></trkpt><trkpt lat="43.4866435" lon="10.5839658"><ele>357.1428571428571</ele><time>2026-05-02T13:10:41.104Z</time></trkpt><trkpt lat="43.4866873" lon="10.584041"><ele>357.42857142857144</ele><time>2026-05-02T13:10:44.102Z</time></trkpt><trkpt lat="43.4867322" lon="10.5841103"><ele>357.7142857142857</ele><time>2026-05-02T13:10:47.11Z</time></trkpt><trkpt lat="43.4867715" lon="10.5842155"><ele>358.0</ele><time>2026-05-02T13:10:50.1Z</time></trkpt><trkpt lat="43.4868233" lon="10.5843056"><ele>358.00000000000006</ele><time>2026-05-02T13:10:53.107Z</time></trkpt><trkpt lat="43.4868713" lon="10.5843682"><ele>358.0</ele><time>2026-05-02T13:10:57.104Z</time></trkpt><trkpt lat="43.4869207" lon="10.5844587"><ele>358.0</ele><time>2026-05-02T13:11:01.098Z</time></trkpt><trkpt lat="43.4869659" lon="10.5845359"><ele>358.0</ele><time>2026-05-02T13:11:05.095Z</time></trkpt><trkpt lat="43.4870097" lon="10.584612"><ele>358.0</ele><time>2026-05-02T13:11:09.097Z</time></trkpt><trkpt lat="43.4870638" lon="10.5846843"><ele>358.00000000000006</ele><time>2026-05-02T13:11:13.088Z</time></trkpt><trkpt lat="43.4871215" lon="10.5847427"><ele>358.0</ele><time>2026-05-02T13:11:18.093Z</time></trkpt><trkpt lat="43.4871683" lon="10.5848365"><ele>359.66666666666663</ele><time>2026-05-02T13:11:22.119Z</time></trkpt><trkpt lat="43.4872084" lon="10.5849226"><ele>361.3333333333333</ele><time>2026-05-02T13:11:26.105Z</time></trkpt><trkpt lat="43.4872541" lon="10.5849943"><ele>363.0</ele><time>2026-05-02T13:11:29.109Z</time></trkpt><trkpt lat="43.4872892" lon="10.5851111"><ele>364.6666666666667</ele><time>2026-05-02T13:11:32.095Z</time></trkpt><trkpt lat="43.4873151" lon="10.5852219"><ele>366.33333333333337</ele><time>2026-05-02T13:11:35.092Z</time></trkpt><trkpt lat="43.4873372" lon="10.5853318"><ele>368.0</ele><time>2026-05-02T13:11:38.098Z</time></trkpt><trkpt lat="43.4873816" lon="10.5854013"><ele>368.6666666666667</ele><time>2026-05-02T13:11:41.099Z</time></trkpt><trkpt lat="43.4874199" lon="10.5854787"><ele>369.33333333333337</ele><time>2026-05-02T13:11:44.104Z</time></trkpt><trkpt lat="43.4874299" lon="10.5855818"><ele>370.0</ele><time>2026-05-02T13:11:47.095Z</time></trkpt><trkpt lat="43.4874198" lon="10.5856942"><ele>370.6666666666667</ele><time>2026-05-02T13:11:50.088Z</time></trkpt><trkpt lat="43.4874438" lon="10.585813"><ele>371.3333333333333</ele><time>2026-05-02T13:11:53.094Z</time></trkpt><trkpt lat="43.4875107" lon="10.5858839"><ele>372.0</ele><time>2026-05-02T13:11:56.122Z</time></trkpt><trkpt lat="43.4875713" lon="10.5859493"><ele>372.0</ele><time>2026-05-02T13:11:59.108Z</time></trkpt><trkpt lat="43.4876353" lon="10.5860143"><ele>372.0</ele><time>2026-05-02T13:12:02.091Z</time></trkpt><trkpt lat="43.4877017" lon="10.5860853"><ele>372.0</ele><time>2026-05-02T13:12:05.112Z</time></trkpt><trkpt lat="43.4877591" lon="10.586133"><ele>372.0</ele><time>2026-05-02T13:12:09.093Z</time></trkpt><trkpt lat="43.4878199" lon="10.5862096"><ele>372.0</ele><time>2026-05-02T13:12:13.101Z</time></trkpt><trkpt lat="43.4878845" lon="10.5862748"><ele>372.0</ele><time>2026-05-02T13:12:17.106Z</time></trkpt><trkpt lat="43.4879263" lon="10.5863512"><ele>373.5714285714286</ele><time>2026-05-02T13:12:21.089Z</time></trkpt><trkpt lat="43.4879654" lon="10.5864419"><ele>375.14285714285717</ele><time>2026-05-02T13:12:25.097Z</time></trkpt><trkpt lat="43.4880177" lon="10.5865019"><ele>376.7142857142857</ele><time>2026-05-02T13:12:29.09Z</time></trkpt><trkpt lat="43.4880685" lon="10.5865681"><ele>378.28571428571433</ele><time>2026-05-02T13:12:33.102Z</time></trkpt><trkpt lat="43.4880877" lon="10.5866596"><ele>379.85714285714283</ele><time>2026-05-02T13:12:38.102Z</time></trkpt><trkpt lat="43.4880931" lon="10.5867605"><ele>381.42857142857144</ele><time>2026-05-02T13:12:43.102Z</time></trkpt><trkpt lat="43.4881281" lon="10.5868451"><ele>383.0</ele><time>2026-05-02T13:12:46.096Z</time></trkpt><trkpt lat="43.4881561" lon="10.5869251"><ele>384.33333333333337</ele><time>2026-05-02T13:12:49.096Z</time></trkpt><trkpt lat="43.488173" lon="10.5870504"><ele>385.6666666666667</ele><time>2026-05-02T13:12:52.106Z</time></trkpt><trkpt lat="43.4881679" lon="10.5871906"><ele>387.0</ele><time>2026-05-02T13:12:55.1Z</time></trkpt><trkpt lat="43.4881696" lon="10.5872799"><ele>388.33333333333337</ele><time>2026-05-02T13:12:57.094Z</time></trkpt><trkpt lat="43.4881716" lon="10.5873901"><ele>389.6666666666667</ele><time>2026-05-02T13:13:00.101Z</time></trkpt><trkpt lat="43.4881852" lon="10.5874863"><ele>391.0</ele><time>2026-05-02T13:13:03.096Z</time></trkpt><trkpt lat="43.4881963" lon="10.5875928"><ele>390.99999999999994</ele><time>2026-05-02T13:13:08.104Z</time></trkpt><trkpt lat="43.4881904" lon="10.5877048"><ele>391.0</ele><time>2026-05-02T13:13:12.1Z</time></trkpt><trkpt lat="43.488166" lon="10.5878046"><ele>391.0</ele><time>2026-05-02T13:13:17.106Z</time></trkpt><trkpt lat="43.4881462" lon="10.5878934"><ele>391.0</ele><time>2026-05-02T13:13:22.139Z</time></trkpt><trkpt lat="43.4881203" lon="10.5879747"><ele>391.0</ele><time>2026-05-02T13:13:27.095Z</time></trkpt><trkpt lat="43.4880952" lon="10.5880573"><ele>390.99999999999994</ele><time>2026-05-02T13:13:33.109Z</time></trkpt><trkpt lat="43.4880363" lon="10.5880239"><ele>391.0</ele><time>2026-05-02T13:13:40.106Z</time></trkpt><trkpt lat="43.4880107" lon="10.5879303"><ele>391.4285714285714</ele><time>2026-05-02T13:13:45.137Z</time></trkpt><trkpt lat="43.4879415" lon="10.587911"><ele>391.85714285714283</ele><time>2026-05-02T13:13:50.139Z</time></trkpt><trkpt lat="43.4878954" lon="10.5879962"><ele>392.2857142857143</ele><time>2026-05-02T13:13:55.111Z</time></trkpt><trkpt lat="43.4878517" lon="10.588074"><ele>392.71428571428567</ele><time>2026-05-02T13:14:00.11Z</time></trkpt><trkpt lat="43.4878154" lon="10.5881634"><ele>393.14285714285717</ele><time>2026-05-02T13:14:05.106Z</time></trkpt><trkpt lat="43.487795" lon="10.5882601"><ele>393.57142857142856</ele><time>2026-05-02T13:14:09.108Z</time></trkpt><trkpt lat="43.4877729" lon="10.5883421"><ele>394.0</ele><time>2026-05-02T13:14:13.098Z</time></trkpt><trkpt lat="43.4877586" lon="10.5884394"><ele>394.0</ele><time>2026-05-02T13:14:17.096Z</time></trkpt><trkpt lat="43.4877709" lon="10.5885274"><ele>394.0</ele><time>2026-05-02T13:14:21.104Z</time></trkpt><trkpt lat="43.4877649" lon="10.5886233"><ele>394.0</ele><time>2026-05-02T13:14:25.112Z</time></trkpt><trkpt lat="43.4877763" lon="10.5887191"><ele>394.0</ele><time>2026-05-02T13:14:30.107Z</time></trkpt><trkpt lat="43.4877952" lon="10.5888163"><ele>394.0</ele><time>2026-05-02T13:14:34.099Z</time></trkpt><trkpt lat="43.4878223" lon="10.5889077"><ele>394.0</ele><time>2026-05-02T13:14:38.124Z</time></trkpt><trkpt lat="43.487842" lon="10.5889906"><ele>394.0</ele><time>2026-05-02T13:14:42.148Z</time></trkpt><trkpt lat="43.48787" lon="10.5890691"><ele>394.57142857142856</ele><time>2026-05-02T13:14:46.107Z</time></trkpt><trkpt lat="43.487906" lon="10.5891456"><ele>395.14285714285717</ele><time>2026-05-02T13:14:50.102Z</time></trkpt><trkpt lat="43.487953" lon="10.5892376"><ele>395.71428571428567</ele><time>2026-05-02T13:14:55.104Z</time></trkpt><trkpt lat="43.4879928" lon="10.5893117"><ele>396.2857142857143</ele><time>2026-05-02T13:14:59.116Z</time></trkpt><trkpt lat="43.4880422" lon="10.589377"><ele>396.85714285714283</ele><time>2026-05-02T13:15:03.166Z</time></trkpt><trkpt lat="43.4881068" lon="10.5894006"><ele>397.4285714285714</ele><time>2026-05-02T13:15:07.104Z</time></trkpt><trkpt lat="43.4881706" lon="10.5894251"><ele>398.0</ele><time>2026-05-02T13:15:10.104Z</time></trkpt><trkpt lat="43.488239" lon="10.5894521"><ele>399.4285714285714</ele><time>2026-05-02T13:15:14.098Z</time></trkpt><trkpt lat="43.4883187" lon="10.5894489"><ele>400.85714285714283</ele><time>2026-05-02T13:15:18.093Z</time></trkpt><trkpt lat="43.488385" lon="10.5894451"><ele>402.2857142857143</ele><time>2026-05-02T13:15:23.096Z</time></trkpt><trkpt lat="43.4884422" lon="10.5894928"><ele>403.71428571428567</ele><time>2026-05-02T13:15:26.108Z</time></trkpt><trkpt lat="43.4885078" lon="10.5895313"><ele>405.14285714285717</ele><time>2026-05-02T13:15:29.103Z</time></trkpt><trkpt lat="43.4885869" lon="10.5895685"><ele>406.57142857142856</ele><time>2026-05-02T13:15:33.103Z</time></trkpt><trkpt lat="43.4886502" lon="10.5895742"><ele>408.0</ele><time>2026-05-02T13:15:36.101Z</time></trkpt><trkpt lat="43.488709" lon="10.5896422"><ele>409.0</ele><time>2026-05-02T13:15:40.099Z</time></trkpt><trkpt lat="43.4887314" lon="10.5897238"><ele>410.0</ele><time>2026-05-02T13:15:44.095Z</time></trkpt><trkpt lat="43.4887781" lon="10.5898235"><ele>411.0</ele><time>2026-05-02T13:15:49.1Z</time></trkpt><trkpt lat="43.4888113" lon="10.5899231"><ele>412.0</ele><time>2026-05-02T13:15:54.101Z</time></trkpt><trkpt lat="43.4888418" lon="10.5900047"><ele>413.0</ele><time>2026-05-02T13:15:58.108Z</time></trkpt><trkpt lat="43.488904" lon="10.5900452"><ele>414.0</ele><time>2026-05-02T13:16:04.094Z</time></trkpt><trkpt lat="43.4889809" lon="10.5900307"><ele>415.0</ele><time>2026-05-02T13:16:10.126Z</time></trkpt><trkpt lat="43.4890519" lon="10.5900561"><ele>416.1666666666667</ele><time>2026-05-02T13:16:15.111Z</time></trkpt><trkpt lat="43.4891221" lon="10.5900933"><ele>417.33333333333337</ele><time>2026-05-02T13:16:20.104Z</time></trkpt><trkpt lat="43.4891713" lon="10.5901722"><ele>418.5</ele><time>2026-05-02T13:16:24.149Z</time></trkpt><trkpt lat="43.4891663" lon="10.5902765"><ele>419.66666666666663</ele><time>2026-05-02T13:16:28.112Z</time></trkpt><trkpt lat="43.4891343" lon="10.5903768"><ele>420.8333333333333</ele><time>2026-05-02T13:16:34.108Z</time></trkpt><trkpt lat="43.4890773" lon="10.5904374"><ele>422.0</ele><time>2026-05-02T13:16:38.13Z</time></trkpt><trkpt lat="43.4890325" lon="10.5905199"><ele>423.57142857142856</ele><time>2026-05-02T13:16:43.105Z</time></trkpt><trkpt lat="43.4889948" lon="10.5905986"><ele>425.14285714285717</ele><time>2026-05-02T13:16:48.095Z</time></trkpt><trkpt lat="43.4889445" lon="10.5906796"><ele>426.71428571428567</ele><time>2026-05-02T13:16:54.098Z</time></trkpt><trkpt lat="43.4889175" lon="10.5907916"><ele>428.2857142857143</ele><time>2026-05-02T13:17:00.093Z</time></trkpt><trkpt lat="43.4889113" lon="10.5909045"><ele>429.85714285714283</ele><time>2026-05-02T13:17:04.106Z</time></trkpt><trkpt lat="43.4889051" lon="10.5909943"><ele>431.4285714285714</ele><time>2026-05-02T13:17:08.1Z</time></trkpt><trkpt lat="43.488913" lon="10.5910817"><ele>433.0</ele><time>2026-05-02T13:17:12.111Z</time></trkpt><trkpt lat="43.4889607" lon="10.5911395"><ele>435.1428571428571</ele><time>2026-05-02T13:17:17.093Z</time></trkpt><trkpt lat="43.4890364" lon="10.5911907"><ele>437.2857142857143</ele><time>2026-05-02T13:17:22.113Z</time></trkpt><trkpt lat="43.4890812" lon="10.591281"><ele>439.42857142857144</ele><time>2026-05-02T13:17:26.106Z</time></trkpt><trkpt lat="43.4890946" lon="10.5913728"><ele>441.57142857142856</ele><time>2026-05-02T13:17:30.117Z</time></trkpt><trkpt lat="43.4890856" lon="10.5914605"><ele>443.7142857142857</ele><time>2026-05-02T13:17:36.1Z</time></trkpt><trkpt lat="43.4890469" lon="10.5915433"><ele>445.85714285714283</ele><time>2026-05-02T13:17:44.045Z</time></trkpt><trkpt lat="43.489006" lon="10.5916256"><ele>448.0</ele><time>2026-05-02T13:17:49.038Z</time></trkpt><trkpt lat="43.488961" lon="10.5917068"><ele>448.0</ele><time>2026-05-02T13:17:54.046Z</time></trkpt><trkpt lat="43.4889185" lon="10.5917842"><ele>448.0</ele><time>2026-05-02T13:17:59.046Z</time></trkpt><trkpt lat="43.4888934" lon="10.5918876"><ele>448.0</ele><time>2026-05-02T13:18:04.065Z</time></trkpt><trkpt lat="43.4888692" lon="10.5919791"><ele>448.0</ele><time>2026-05-02T13:18:09.058Z</time></trkpt><trkpt lat="43.4888519" lon="10.5920824"><ele>448.0</ele><time>2026-05-02T13:18:13.063Z</time></trkpt><trkpt lat="43.4888433" lon="10.5921792"><ele>448.0</ele><time>2026-05-02T13:18:17.036Z</time></trkpt><trkpt lat="43.4888596" lon="10.5922716"><ele>448.0</ele><time>2026-05-02T13:18:21.025Z</time></trkpt><trkpt lat="43.4888978" lon="10.5923669"><ele>449.2857142857143</ele><time>2026-05-02T13:18:25.045Z</time></trkpt><trkpt lat="43.4889156" lon="10.5924674"><ele>450.57142857142856</ele><time>2026-05-02T13:18:30.055Z</time></trkpt><trkpt lat="43.4889364" lon="10.5925662"><ele>451.8571428571429</ele><time>2026-05-02T13:18:34.047Z</time></trkpt><trkpt lat="43.4889453" lon="10.5926656"><ele>453.14285714285717</ele><time>2026-05-02T13:18:38.052Z</time></trkpt><trkpt lat="43.4889471" lon="10.5927525"><ele>454.42857142857144</ele><time>2026-05-02T13:18:41.034Z</time></trkpt><trkpt lat="43.4889431" lon="10.5928601"><ele>455.7142857142858</ele><time>2026-05-02T13:18:46.042Z</time></trkpt><trkpt lat="43.4889189" lon="10.5929564"><ele>457.00000000000006</ele><time>2026-05-02T13:18:50.051Z</time></trkpt><trkpt lat="43.4888763" lon="10.5930278"><ele>459.00000000000006</ele><time>2026-05-02T13:18:54.036Z</time></trkpt><trkpt lat="43.4888282" lon="10.5931081"><ele>461.0</ele><time>2026-05-02T13:18:58.031Z</time></trkpt><trkpt lat="43.4887926" lon="10.5931978"><ele>463.0</ele><time>2026-05-02T13:19:05.049Z</time></trkpt><trkpt lat="43.4887676" lon="10.5932921"><ele>465.0</ele><time>2026-05-02T13:19:09.042Z</time></trkpt><trkpt lat="43.4887416" lon="10.5933945"><ele>467.00000000000006</ele><time>2026-05-02T13:19:13.041Z</time></trkpt><trkpt lat="43.4887699" lon="10.5935128"><ele>469.0</ele><time>2026-05-02T13:19:17.069Z</time></trkpt><trkpt lat="43.4888054" lon="10.5935878"><ele>470.7142857142857</ele><time>2026-05-02T13:19:20.051Z</time></trkpt><trkpt lat="43.4888466" lon="10.5936758"><ele>472.42857142857144</ele><time>2026-05-02T13:19:24.046Z</time></trkpt><trkpt lat="43.4888789" lon="10.5937545"><ele>474.1428571428571</ele><time>2026-05-02T13:19:30.037Z</time></trkpt><trkpt lat="43.4888886" lon="10.593852"><ele>475.85714285714283</ele><time>2026-05-02T13:19:37.043Z</time></trkpt><trkpt lat="43.4889188" lon="10.5939282"><ele>477.57142857142856</ele><time>2026-05-02T13:19:40.034Z</time></trkpt><trkpt lat="43.4889544" lon="10.5940579"><ele>479.2857142857142</ele><time>2026-05-02T13:19:44.042Z</time></trkpt><trkpt lat="43.4889722" lon="10.5941429"><ele>480.99999999999994</ele><time>2026-05-02T13:19:46.046Z</time></trkpt><trkpt lat="43.4889992" lon="10.5942566"><ele>480.99999999999994</ele><time>2026-05-02T13:19:50.053Z</time></trkpt><trkpt lat="43.4890408" lon="10.5943358"><ele>481.0</ele><time>2026-05-02T13:19:53.05Z</time></trkpt><trkpt lat="43.4890852" lon="10.5944043"><ele>480.99999999999994</ele><time>2026-05-02T13:19:56.048Z</time></trkpt><trkpt lat="43.4891185" lon="10.5945079"><ele>480.99999999999994</ele><time>2026-05-02T13:20:00.042Z</time></trkpt><trkpt lat="43.4891495" lon="10.594585"><ele>481.0</ele><time>2026-05-02T13:20:03.039Z</time></trkpt><trkpt lat="43.4891754" lon="10.5946683"><ele>480.99999999999994</ele><time>2026-05-02T13:20:06.034Z</time></trkpt><trkpt lat="43.4891812" lon="10.5947809"><ele>480.99999999999994</ele><time>2026-05-02T13:20:10.043Z</time></trkpt><trkpt lat="43.4891493" lon="10.5948898"><ele>482.2857142857142</ele><time>2026-05-02T13:20:14.041Z</time></trkpt><trkpt lat="43.4891139" lon="10.5949761"><ele>483.57142857142856</ele><time>2026-05-02T13:20:18.047Z</time></trkpt><trkpt lat="43.4890783" lon="10.5950618"><ele>484.85714285714283</ele><time>2026-05-02T13:21:01.043Z</time></trkpt><trkpt lat="43.4890629" lon="10.5951559"><ele>486.1428571428571</ele><time>2026-05-02T13:32:07.026Z</time></trkpt><trkpt lat="43.4890284" lon="10.595231"><ele>487.42857142857144</ele><time>2026-05-02T13:32:13.036Z</time></trkpt><trkpt lat="43.4889871" lon="10.5953151"><ele>488.7142857142857</ele><time>2026-05-02T13:32:20.033Z</time></trkpt><trkpt lat="43.4889595" lon="10.5953959"><ele>490.0</ele><time>2026-05-02T13:34:02.036Z</time></trkpt><trkpt lat="43.4889049" lon="10.5954644"><ele>490.42857142857144</ele><time>2026-05-02T13:34:07.039Z</time></trkpt><trkpt lat="43.4888398" lon="10.5955102"><ele>490.8571428571429</ele><time>2026-05-02T13:34:11.039Z</time></trkpt><trkpt lat="43.4887843" lon="10.5955715"><ele>491.2857142857143</ele><time>2026-05-02T13:34:15.022Z</time></trkpt><trkpt lat="43.4887259" lon="10.5956096"><ele>491.7142857142857</ele><time>2026-05-02T13:34:18.029Z</time></trkpt><trkpt lat="43.4886661" lon="10.595563"><ele>492.14285714285717</ele><time>2026-05-02T13:34:22.036Z</time></trkpt><trkpt lat="43.4886453" lon="10.5954625"><ele>492.57142857142856</ele><time>2026-05-02T13:34:26.03Z</time></trkpt><trkpt lat="43.4886007" lon="10.595394"><ele>493.0</ele><time>2026-05-02T13:34:30.057Z</time></trkpt><trkpt lat="43.4885234" lon="10.5954259"><ele>494.0</ele><time>2026-05-02T13:34:34.048Z</time></trkpt><trkpt lat="43.4884957" lon="10.5955164"><ele>495.0</ele><time>2026-05-02T13:34:37.028Z</time></trkpt><trkpt lat="43.4885078" lon="10.5956064"><ele>496.0</ele><time>2026-05-02T13:34:40.035Z</time></trkpt><trkpt lat="43.4885596" lon="10.5956802"><ele>497.0</ele><time>2026-05-02T13:34:44.045Z</time></trkpt><trkpt lat="43.4886184" lon="10.5957128"><ele>498.0</ele><time>2026-05-02T13:34:47.061Z</time></trkpt><trkpt lat="43.4886742" lon="10.5956563"><ele>499.0</ele><time>2026-05-02T13:34:51.029Z</time></trkpt><trkpt lat="43.4886971" lon="10.5955626"><ele>500.0</ele><time>2026-05-02T13:34:54.024Z</time></trkpt><trkpt lat="43.4886776" lon="10.5954524"><ele>500.0</ele><time>2026-05-02T13:34:58.036Z</time></trkpt><trkpt lat="43.4885825" lon="10.595484"><ele>500.0</ele><time>2026-05-02T13:35:23.031Z</time></trkpt><trkpt lat="43.4885644" lon="10.5956232"><ele>500.0</ele><time>2026-05-02T13:35:25.045Z</time></trkpt><trkpt lat="43.488619" lon="10.5956718"><ele>500.0</ele><time>2026-05-02T13:35:26.039Z</time></trkpt><trkpt lat="43.4887266" lon="10.5955683"><ele>500.0</ele><time>2026-05-02T13:35:28.037Z</time></trkpt><trkpt lat="43.4886737" lon="10.5953993"><ele>499.99999999999994</ele><time>2026-05-02T13:35:30.03Z</time></trkpt><trkpt lat="43.4886168" lon="10.5953532"><ele>500.0</ele><time>2026-05-02T13:35:31.037Z</time></trkpt><trkpt lat="43.4885576" lon="10.595404"><ele>500.0</ele><time>2026-05-02T13:35:33.039Z</time></trkpt><trkpt lat="43.4885672" lon="10.5954916"><ele>500.0</ele><time>2026-05-02T13:35:34.026Z</time></trkpt><trkpt lat="43.4886425" lon="10.5955847"><ele>499.99999999999994</ele><time>2026-05-02T13:35:36.032Z</time></trkpt><trkpt lat="43.4886556" lon="10.5957382"><ele>500.0</ele><time>2026-05-02T13:35:38.026Z</time></trkpt><trkpt lat="43.4885507" lon="10.5957538"><ele>500.0</ele><time>2026-05-02T13:35:40.033Z</time></trkpt><trkpt lat="43.4885178" lon="10.595626"><ele>500.0</ele><time>2026-05-02T13:35:42.025Z</time></trkpt><trkpt lat="43.4886232" lon="10.5955149"><ele>500.0</ele><time>2026-05-02T13:35:44.036Z</time></trkpt><trkpt lat="43.4886559" lon="10.595621"><ele>500.0</ele><time>2026-05-02T13:35:46.057Z</time></trkpt><trkpt lat="43.4885875" lon="10.5957894"><ele>500.0</ele><time>2026-05-02T13:35:48.037Z</time></trkpt><trkpt lat="43.4885556" lon="10.5959096"><ele>500.0</ele><time>2026-05-02T13:35:49.025Z</time></trkpt><trkpt lat="43.4885375" lon="10.5960409"><ele>500.0</ele><time>2026-05-02T13:35:50.041Z</time></trkpt><trkpt lat="43.4885038" lon="10.596173"><ele>500.0</ele><time>2026-05-02T13:35:51.033Z</time></trkpt><trkpt lat="43.4884725" lon="10.5963107"><ele>500.0</ele><time>2026-05-02T13:35:52.037Z</time></trkpt><trkpt lat="43.488428" lon="10.5964531"><ele>499.8333333333333</ele><time>2026-05-02T13:35:53.043Z</time></trkpt><trkpt lat="43.4883939" lon="10.596583"><ele>499.66666666666663</ele><time>2026-05-02T13:35:54.046Z</time></trkpt><trkpt lat="43.4883664" lon="10.596692"><ele>499.5</ele><time>2026-05-02T13:35:55.047Z</time></trkpt><trkpt lat="43.488338" lon="10.5967929"><ele>499.33333333333337</ele><time>2026-05-02T13:35:56.028Z</time></trkpt><trkpt lat="43.4883088" lon="10.5968804"><ele>499.1666666666667</ele><time>2026-05-02T13:35:57.024Z</time></trkpt><trkpt lat="43.4882803" lon="10.5969642"><ele>499.0</ele><time>2026-05-02T13:35:58.036Z</time></trkpt><trkpt lat="43.4882291" lon="10.5971119"><ele>498.2</ele><time>2026-05-02T13:36:00.046Z</time></trkpt><trkpt lat="43.4881783" lon="10.5972553"><ele>497.4</ele><time>2026-05-02T13:36:02.033Z</time></trkpt><trkpt lat="43.4881243" lon="10.5974019"><ele>496.6</ele><time>2026-05-02T13:36:04.027Z</time></trkpt><trkpt lat="43.4880978" lon="10.5974873"><ele>495.8</ele><time>2026-05-02T13:36:05.035Z</time></trkpt><trkpt lat="43.48804" lon="10.5976314"><ele>495.0</ele><time>2026-05-02T13:36:07.032Z</time></trkpt><trkpt lat="43.4879922" lon="10.5977874"><ele>494.5</ele><time>2026-05-02T13:36:09.04Z</time></trkpt><trkpt lat="43.4879412" lon="10.5979337"><ele>494.0</ele><time>2026-05-02T13:36:11.041Z</time></trkpt><trkpt lat="43.4878912" lon="10.5980734"><ele>493.5</ele><time>2026-05-02T13:36:13.029Z</time></trkpt><trkpt lat="43.4878391" lon="10.5982262"><ele>493.0</ele><time>2026-05-02T13:36:15.073Z</time></trkpt><trkpt lat="43.4877933" lon="10.5983891"><ele>493.2</ele><time>2026-05-02T13:36:17.025Z</time></trkpt><trkpt lat="43.4877516" lon="10.5985409"><ele>493.4</ele><time>2026-05-02T13:36:19.05Z</time></trkpt><trkpt lat="43.4877284" lon="10.5986219"><ele>493.59999999999997</ele><time>2026-05-02T13:36:20.031Z</time></trkpt><trkpt lat="43.4877033" lon="10.5987022"><ele>493.79999999999995</ele><time>2026-05-02T13:36:21.024Z</time></trkpt><trkpt lat="43.4876354" lon="10.5988344"><ele>494.0</ele><time>2026-05-02T13:36:23.029Z</time></trkpt><trkpt lat="43.4875629" lon="10.5989486"><ele>494.0</ele><time>2026-05-02T13:36:25.037Z</time></trkpt><trkpt lat="43.4874812" lon="10.5990657"><ele>494.0</ele><time>2026-05-02T13:36:27.034Z</time></trkpt><trkpt lat="43.4873986" lon="10.5991847"><ele>494.0</ele><time>2026-05-02T13:36:29.034Z</time></trkpt><trkpt lat="43.4873101" lon="10.5993049"><ele>494.0</ele><time>2026-05-02T13:36:31.032Z</time></trkpt><trkpt lat="43.4872667" lon="10.5993683"><ele>494.0</ele><time>2026-05-02T13:36:32.031Z</time></trkpt><trkpt lat="43.4872196" lon="10.5994301"><ele>493.99999999999994</ele><time>2026-05-02T13:36:33.027Z</time></trkpt><trkpt lat="43.4871736" lon="10.5994894"><ele>494.0</ele><time>2026-05-02T13:36:34.036Z</time></trkpt><trkpt lat="43.4871256" lon="10.599549"><ele>494.0</ele><time>2026-05-02T13:36:35.033Z</time></trkpt><trkpt lat="43.4870737" lon="10.5996013"><ele>494.0</ele><time>2026-05-02T13:36:36.046Z</time></trkpt><trkpt lat="43.4869648" lon="10.599673"><ele>493.99999999999994</ele><time>2026-05-02T13:36:38.033Z</time></trkpt><trkpt lat="43.4869041" lon="10.5997032"><ele>494.0</ele><time>2026-05-02T13:36:39.041Z</time></trkpt><trkpt lat="43.4867875" lon="10.5997451"><ele>495.6</ele><time>2026-05-02T13:36:41.094Z</time></trkpt><trkpt lat="43.486658" lon="10.5997397"><ele>497.2</ele><time>2026-05-02T13:36:43.031Z</time></trkpt><trkpt lat="43.4865919" lon="10.5997263"><ele>498.80000000000007</ele><time>2026-05-02T13:36:44.046Z</time></trkpt><trkpt lat="43.4864658" lon="10.5996908"><ele>500.40000000000003</ele><time>2026-05-02T13:36:46.029Z</time></trkpt><trkpt lat="43.4864004" lon="10.5996718"><ele>502.0</ele><time>2026-05-02T13:36:47.037Z</time></trkpt><trkpt lat="43.4863353" lon="10.5996566"><ele>501.99999999999994</ele><time>2026-05-02T13:36:48.035Z</time></trkpt><trkpt lat="43.4862667" lon="10.5996391"><ele>502.0</ele><time>2026-05-02T13:36:49.041Z</time></trkpt><trkpt lat="43.4861979" lon="10.5996232"><ele>501.99999999999994</ele><time>2026-05-02T13:36:50.036Z</time></trkpt><trkpt lat="43.4861336" lon="10.59961"><ele>501.99999999999994</ele><time>2026-05-02T13:36:51.051Z</time></trkpt><trkpt lat="43.486067" lon="10.5996017"><ele>502.0</ele><time>2026-05-02T13:36:52.043Z</time></trkpt><trkpt lat="43.4859998" lon="10.5996019"><ele>501.99999999999994</ele><time>2026-05-02T13:36:53.043Z</time></trkpt><trkpt lat="43.485935" lon="10.5995995"><ele>501.99999999999994</ele><time>2026-05-02T13:36:54.046Z</time></trkpt><trkpt lat="43.4858697" lon="10.5996027"><ele>502.50000000000006</ele><time>2026-05-02T13:36:55.046Z</time></trkpt><trkpt lat="43.4858045" lon="10.5996144"><ele>503.0</ele><time>2026-05-02T13:36:56.045Z</time></trkpt><trkpt lat="43.4857385" lon="10.5996287"><ele>503.5</ele><time>2026-05-02T13:36:57.051Z</time></trkpt><trkpt lat="43.485675" lon="10.5996523"><ele>504.0</ele><time>2026-05-02T13:36:58.038Z</time></trkpt><trkpt lat="43.4855568" lon="10.5997141"><ele>504.50000000000006</ele><time>2026-05-02T13:37:00.043Z</time></trkpt><trkpt lat="43.4854615" lon="10.5997794"><ele>505.0</ele><time>2026-05-02T13:37:02.047Z</time></trkpt><trkpt lat="43.4853956" lon="10.5998419"><ele>505.0</ele><time>2026-05-02T13:37:19.032Z</time></trkpt><trkpt lat="43.4853242" lon="10.5998819"><ele>505.0</ele><time>2026-05-02T13:37:21.037Z</time></trkpt><trkpt lat="43.4852341" lon="10.5999247"><ele>505.0</ele><time>2026-05-02T13:37:23.036Z</time></trkpt><trkpt lat="43.485127" lon="10.5999607"><ele>505.0</ele><time>2026-05-02T13:37:25.041Z</time></trkpt><trkpt lat="43.4850096" lon="10.5999837"><ele>505.0</ele><time>2026-05-02T13:37:27.042Z</time></trkpt><trkpt lat="43.4849417" lon="10.5999944"><ele>505.0</ele><time>2026-05-02T13:37:28.031Z</time></trkpt><trkpt lat="43.4848701" lon="10.6000031"><ele>504.99999999999994</ele><time>2026-05-02T13:37:29.026Z</time></trkpt><trkpt lat="43.4847998" lon="10.6000036"><ele>505.0</ele><time>2026-05-02T13:37:30.035Z</time></trkpt><trkpt lat="43.4847309" lon="10.600009"><ele>505.0</ele><time>2026-05-02T13:37:31.033Z</time></trkpt><trkpt lat="43.4846659" lon="10.6000127"><ele>504.99999999999994</ele><time>2026-05-02T13:37:32.039Z</time></trkpt><trkpt lat="43.4845973" lon="10.600021"><ele>505.0</ele><time>2026-05-02T13:37:33.044Z</time></trkpt><trkpt lat="43.4845324" lon="10.600024"><ele>505.0</ele><time>2026-05-02T13:37:34.05Z</time></trkpt><trkpt lat="43.4844669" lon="10.6000329"><ele>504.6666666666667</ele><time>2026-05-02T13:37:35.035Z</time></trkpt><trkpt lat="43.4843442" lon="10.6000578"><ele>504.33333333333337</ele><time>2026-05-02T13:37:37.034Z</time></trkpt><trkpt lat="43.4842793" lon="10.6000718"><ele>504.0</ele><time>2026-05-02T13:37:38.05Z</time></trkpt><trkpt lat="43.4842155" lon="10.6000848"><ele>503.66666666666663</ele><time>2026-05-02T13:37:39.033Z</time></trkpt><trkpt lat="43.4841488" lon="10.6000843"><ele>503.3333333333333</ele><time>2026-05-02T13:37:40.03Z</time></trkpt><trkpt lat="43.4840209" lon="10.6000893"><ele>503.0</ele><time>2026-05-02T13:37:42.036Z</time></trkpt><trkpt lat="43.4839527" lon="10.6000972"><ele>503.0</ele><time>2026-05-02T13:37:43.045Z</time></trkpt><trkpt lat="43.4838864" lon="10.6001029"><ele>503.00000000000006</ele><time>2026-05-02T13:37:44.04Z</time></trkpt><trkpt lat="43.4838228" lon="10.6000984"><ele>503.0</ele><time>2026-05-02T13:37:45.026Z</time></trkpt><trkpt lat="43.4837537" lon="10.6000894"><ele>503.0</ele><time>2026-05-02T13:37:46.016Z</time></trkpt><trkpt lat="43.4836835" lon="10.600073"><ele>503.00000000000006</ele><time>2026-05-02T13:37:47.062Z</time></trkpt><trkpt lat="43.4836175" lon="10.6000595"><ele>503.0</ele><time>2026-05-02T13:37:48.034Z</time></trkpt><trkpt lat="43.4835475" lon="10.6000315"><ele>503.0</ele><time>2026-05-02T13:37:49.029Z</time></trkpt><trkpt lat="43.4834703" lon="10.6000003"><ele>501.99999999999994</ele><time>2026-05-02T13:37:50.04Z</time></trkpt><trkpt lat="43.4833937" lon="10.5999727"><ele>501.0</ele><time>2026-05-02T13:37:51.025Z</time></trkpt><trkpt lat="43.4833305" lon="10.5999369"><ele>500.0</ele><time>2026-05-02T13:37:52.031Z</time></trkpt><trkpt lat="43.4832585" lon="10.5998934"><ele>499.0</ele><time>2026-05-02T13:37:53.032Z</time></trkpt><trkpt lat="43.4831945" lon="10.5998548"><ele>497.99999999999994</ele><time>2026-05-02T13:37:54.029Z</time></trkpt><trkpt lat="43.4831281" lon="10.5998191"><ele>497.0</ele><time>2026-05-02T13:37:55.027Z</time></trkpt><trkpt lat="43.4830512" lon="10.5997776"><ele>497.0</ele><time>2026-05-02T13:37:56.035Z</time></trkpt><trkpt lat="43.4829653" lon="10.5997334"><ele>497.00000000000006</ele><time>2026-05-02T13:37:57.035Z</time></trkpt><trkpt lat="43.4828867" lon="10.5996828"><ele>497.00000000000006</ele><time>2026-05-02T13:37:58.029Z</time></trkpt><trkpt lat="43.482809" lon="10.5996313"><ele>497.0</ele><time>2026-05-02T13:37:59.031Z</time></trkpt><trkpt lat="43.4827225" lon="10.5995774"><ele>497.0</ele><time>2026-05-02T13:38:00.026Z</time></trkpt><trkpt lat="43.4826318" lon="10.5995174"><ele>496.8</ele><time>2026-05-02T13:38:01.037Z</time></trkpt><trkpt lat="43.4825385" lon="10.599452"><ele>496.6</ele><time>2026-05-02T13:38:02.031Z</time></trkpt><trkpt lat="43.4824416" lon="10.5993941"><ele>496.40000000000003</ele><time>2026-05-02T13:38:03.03Z</time></trkpt><trkpt lat="43.4823438" lon="10.5993551"><ele>496.20000000000005</ele><time>2026-05-02T13:38:04.03Z</time></trkpt><trkpt lat="43.4822468" lon="10.5993114"><ele>496.0</ele><time>2026-05-02T13:38:05.023Z</time></trkpt><trkpt lat="43.4821473" lon="10.5993021"><ele>499.20000000000005</ele><time>2026-05-02T13:38:06.037Z</time></trkpt><trkpt lat="43.4820468" lon="10.5993053"><ele>502.40000000000003</ele><time>2026-05-02T13:38:07.041Z</time></trkpt><trkpt lat="43.4819502" lon="10.5993205"><ele>505.6</ele><time>2026-05-02T13:38:08.033Z</time></trkpt><trkpt lat="43.4818617" lon="10.599334"><ele>508.8</ele><time>2026-05-02T13:38:09.036Z</time></trkpt><trkpt lat="43.4817785" lon="10.5993326"><ele>512.0</ele><time>2026-05-02T13:38:10.027Z</time></trkpt><trkpt lat="43.4816712" lon="10.5993292"><ele>512.0</ele><time>2026-05-02T13:38:12.023Z</time></trkpt><trkpt lat="43.481554" lon="10.5993293"><ele>512.0</ele><time>2026-05-02T13:38:14.032Z</time></trkpt><trkpt lat="43.4814541" lon="10.5993308"><ele>512.0</ele><time>2026-05-02T13:38:16.026Z</time></trkpt><trkpt lat="43.4813584" lon="10.5993331"><ele>512.0</ele><time>2026-05-02T13:38:18.03Z</time></trkpt><trkpt lat="43.481268" lon="10.5993633"><ele>512.0</ele><time>2026-05-02T13:38:20.025Z</time></trkpt><trkpt lat="43.4811796" lon="10.5993964"><ele>514.2</ele><time>2026-05-02T13:38:22.03Z</time></trkpt><trkpt lat="43.4810893" lon="10.5994363"><ele>516.4000000000001</ele><time>2026-05-02T13:38:24.032Z</time></trkpt><trkpt lat="43.4809967" lon="10.5994633"><ele>518.5999999999999</ele><time>2026-05-02T13:38:26.032Z</time></trkpt><trkpt lat="43.4808854" lon="10.5994957"><ele>520.8</ele><time>2026-05-02T13:38:28.035Z</time></trkpt><trkpt lat="43.4808152" lon="10.5995233"><ele>523.0</ele><time>2026-05-02T13:38:29.042Z</time></trkpt><trkpt lat="43.480742" lon="10.5995563"><ele>523.5</ele><time>2026-05-02T13:38:30.039Z</time></trkpt><trkpt lat="43.4806674" lon="10.5995827"><ele>524.0</ele><time>2026-05-02T13:38:31.029Z</time></trkpt><trkpt lat="43.4805917" lon="10.599616"><ele>524.5</ele><time>2026-05-02T13:38:32.034Z</time></trkpt><trkpt lat="43.4805168" lon="10.5996481"><ele>525.0</ele><time>2026-05-02T13:38:33.032Z</time></trkpt><trkpt lat="43.4804474" lon="10.5996865"><ele>525.5</ele><time>2026-05-02T13:38:34.04Z</time></trkpt><trkpt lat="43.4803802" lon="10.599733"><ele>526.0</ele><time>2026-05-02T13:38:35.033Z</time></trkpt><trkpt lat="43.4803168" lon="10.5997825"><ele>526.5714285714286</ele><time>2026-05-02T13:38:36.046Z</time></trkpt><trkpt lat="43.480259" lon="10.5998302"><ele>527.1428571428571</ele><time>2026-05-02T13:38:37.023Z</time></trkpt><trkpt lat="43.4802017" lon="10.5998933"><ele>527.7142857142857</ele><time>2026-05-02T13:38:38.029Z</time></trkpt><trkpt lat="43.4801476" lon="10.5999644"><ele>528.2857142857142</ele><time>2026-05-02T13:38:39.04Z</time></trkpt><trkpt lat="43.4800989" lon="10.6000395"><ele>528.8571428571429</ele><time>2026-05-02T13:38:40.034Z</time></trkpt><trkpt lat="43.4800528" lon="10.6001186"><ele>529.4285714285713</ele><time>2026-05-02T13:38:41.034Z</time></trkpt><trkpt lat="43.480014" lon="10.6002021"><ele>530.0</ele><time>2026-05-02T13:38:42.039Z</time></trkpt><trkpt lat="43.4799897" lon="10.6002937"><ele>530.5714285714286</ele><time>2026-05-02T13:38:43.034Z</time></trkpt><trkpt lat="43.4799768" lon="10.6003839"><ele>531.1428571428571</ele><time>2026-05-02T13:38:44.039Z</time></trkpt><trkpt lat="43.4799748" lon="10.6004753"><ele>531.7142857142858</ele><time>2026-05-02T13:38:45.033Z</time></trkpt><trkpt lat="43.4799757" lon="10.6005648"><ele>532.2857142857142</ele><time>2026-05-02T13:38:46.035Z</time></trkpt><trkpt lat="43.4799688" lon="10.6006532"><ele>532.8571428571429</ele><time>2026-05-02T13:38:47.039Z</time></trkpt><trkpt lat="43.4799573" lon="10.6007479"><ele>533.4285714285714</ele><time>2026-05-02T13:38:48.028Z</time></trkpt><trkpt lat="43.4799434" lon="10.6008365"><ele>534.0</ele><time>2026-05-02T13:38:49.028Z</time></trkpt><trkpt lat="43.479892" lon="10.6009787"><ele>534.0</ele><time>2026-05-02T13:38:51.025Z</time></trkpt><trkpt lat="43.4798117" lon="10.6010763"><ele>534.0</ele><time>2026-05-02T13:38:53.027Z</time></trkpt><trkpt lat="43.4797027" lon="10.6011618"><ele>534.0</ele><time>2026-05-02T13:38:55.035Z</time></trkpt><trkpt lat="43.4796469" lon="10.601206"><ele>534.0</ele><time>2026-05-02T13:38:56.031Z</time></trkpt><trkpt lat="43.4795917" lon="10.6012515"><ele>534.0</ele><time>2026-05-02T13:38:57.037Z</time></trkpt><trkpt lat="43.4795393" lon="10.6013062"><ele>534.0</ele><time>2026-05-02T13:38:58.037Z</time></trkpt><trkpt lat="43.479493" lon="10.6013684"><ele>535.5</ele><time>2026-05-02T13:38:59.03Z</time></trkpt><trkpt lat="43.4794537" lon="10.6014394"><ele>537.0</ele><time>2026-05-02T13:39:00.031Z</time></trkpt><trkpt lat="43.4794091" lon="10.6015197"><ele>538.5</ele><time>2026-05-02T13:39:01.039Z</time></trkpt><trkpt lat="43.4793679" lon="10.6015891"><ele>540.0</ele><time>2026-05-02T13:39:02.026Z</time></trkpt><trkpt lat="43.4793155" lon="10.6016471"><ele>541.5</ele><time>2026-05-02T13:39:03.027Z</time></trkpt><trkpt lat="43.4792592" lon="10.6016876"><ele>543.0</ele><time>2026-05-02T13:39:04.033Z</time></trkpt><trkpt lat="43.479141" lon="10.6017322"><ele>543.0</ele><time>2026-05-02T13:39:06.043Z</time></trkpt><trkpt lat="43.4790781" lon="10.6017257"><ele>543.0</ele><time>2026-05-02T13:39:07.025Z</time></trkpt><trkpt lat="43.479014" lon="10.6017056"><ele>543.0</ele><time>2026-05-02T13:39:08.032Z</time></trkpt><trkpt lat="43.4789015" lon="10.601657"><ele>543.0</ele><time>2026-05-02T13:39:10.037Z</time></trkpt><trkpt lat="43.4788109" lon="10.6016407"><ele>543.0</ele><time>2026-05-02T13:39:12.025Z</time></trkpt><trkpt lat="43.4787212" lon="10.6016803"><ele>543.0</ele><time>2026-05-02T13:39:14.025Z</time></trkpt><trkpt lat="43.4786421" lon="10.6017371"><ele>543.3333333333334</ele><time>2026-05-02T13:39:16.033Z</time></trkpt><trkpt lat="43.4785878" lon="10.6018168"><ele>543.6666666666666</ele><time>2026-05-02T13:39:18.034Z</time></trkpt><trkpt lat="43.4785339" lon="10.6019021"><ele>544.0</ele><time>2026-05-02T13:39:20.032Z</time></trkpt><trkpt lat="43.4784712" lon="10.6019854"><ele>544.3333333333333</ele><time>2026-05-02T13:39:22.033Z</time></trkpt><trkpt lat="43.4784098" lon="10.6020815"><ele>544.6666666666666</ele><time>2026-05-02T13:39:24.034Z</time></trkpt><trkpt lat="43.4783463" lon="10.6021665"><ele>545.0</ele><time>2026-05-02T13:39:26.032Z</time></trkpt><trkpt lat="43.4782832" lon="10.6022906"><ele>545.3333333333333</ele><time>2026-05-02T13:39:28.03Z</time></trkpt><trkpt lat="43.4782401" lon="10.6024616"><ele>545.6666666666666</ele><time>2026-05-02T13:39:30.031Z</time></trkpt><trkpt lat="43.4782192" lon="10.6025545"><ele>546.0</ele><time>2026-05-02T13:39:31.034Z</time></trkpt><trkpt lat="43.4781971" lon="10.6026508"><ele>546.3333333333334</ele><time>2026-05-02T13:39:32.032Z</time></trkpt><trkpt lat="43.4781639" lon="10.6027429"><ele>546.6666666666667</ele><time>2026-05-02T13:39:33.042Z</time></trkpt><trkpt lat="43.4781129" lon="10.6028157"><ele>547.0</ele><time>2026-05-02T13:39:34.037Z</time></trkpt><trkpt lat="43.4780647" lon="10.602888"><ele>546.3333333333334</ele><time>2026-05-02T13:39:35.033Z</time></trkpt><trkpt lat="43.4780069" lon="10.6029586"><ele>545.6666666666667</ele><time>2026-05-02T13:39:36.035Z</time></trkpt><trkpt lat="43.4779491" lon="10.6030273"><ele>545.0</ele><time>2026-05-02T13:39:37.032Z</time></trkpt><trkpt lat="43.4778916" lon="10.6030976"><ele>544.3333333333334</ele><time>2026-05-02T13:39:38.04Z</time></trkpt><trkpt lat="43.4778323" lon="10.603171"><ele>543.6666666666666</ele><time>2026-05-02T13:39:39.027Z</time></trkpt><trkpt lat="43.4777706" lon="10.6032529"><ele>543.0</ele><time>2026-05-02T13:39:40.036Z</time></trkpt><trkpt lat="43.4777096" lon="10.6033302"><ele>545.6666666666666</ele><time>2026-05-02T13:39:41.036Z</time></trkpt><trkpt lat="43.477652" lon="10.6034009"><ele>548.3333333333334</ele><time>2026-05-02T13:39:42.048Z</time></trkpt><trkpt lat="43.4775932" lon="10.6034587"><ele>551.0</ele><time>2026-05-02T13:39:43.035Z</time></trkpt><trkpt lat="43.4775372" lon="10.6035107"><ele>553.6666666666667</ele><time>2026-05-02T13:39:44.036Z</time></trkpt><trkpt lat="43.4774221" lon="10.603572"><ele>556.3333333333334</ele><time>2026-05-02T13:39:46.033Z</time></trkpt><trkpt lat="43.4773554" lon="10.6035928"><ele>559.0</ele><time>2026-05-02T13:39:47.04Z</time></trkpt><trkpt lat="43.4772887" lon="10.6036058"><ele>559.0</ele><time>2026-05-02T13:39:48.028Z</time></trkpt><trkpt lat="43.4772247" lon="10.6036172"><ele>559.0</ele><time>2026-05-02T13:39:49.04Z</time></trkpt><trkpt lat="43.4771626" lon="10.603635"><ele>559.0</ele><time>2026-05-02T13:39:50.025Z</time></trkpt><trkpt lat="43.4770391" lon="10.6036737"><ele>559.0</ele><time>2026-05-02T13:39:52.039Z</time></trkpt><trkpt lat="43.4769792" lon="10.6037067"><ele>559.0</ele><time>2026-05-02T13:39:53.034Z</time></trkpt><trkpt lat="43.4768834" lon="10.6037951"><ele>559.0</ele><time>2026-05-02T13:39:55.048Z</time></trkpt><trkpt lat="43.4768142" lon="10.6038848"><ele>560.8</ele><time>2026-05-02T13:39:57.035Z</time></trkpt><trkpt lat="43.4767879" lon="10.6040302"><ele>562.5999999999999</ele><time>2026-05-02T13:39:59.033Z</time></trkpt><trkpt lat="43.4767903" lon="10.6041216"><ele>564.4</ele><time>2026-05-02T13:40:00.028Z</time></trkpt><trkpt lat="43.4767987" lon="10.6042127"><ele>566.1999999999999</ele><time>2026-05-02T13:40:01.028Z</time></trkpt><trkpt lat="43.4768072" lon="10.6043705"><ele>568.0</ele><time>2026-05-02T13:40:03.032Z</time></trkpt><trkpt lat="43.4767919" lon="10.604499"><ele>568.8</ele><time>2026-05-02T13:40:05.038Z</time></trkpt><trkpt lat="43.4767279" lon="10.6046154"><ele>569.5999999999999</ele><time>2026-05-02T13:40:07.026Z</time></trkpt><trkpt lat="43.476658" lon="10.6047516"><ele>570.4000000000001</ele><time>2026-05-02T13:40:09.035Z</time></trkpt><trkpt lat="43.4766058" lon="10.6048873"><ele>571.2</ele><time>2026-05-02T13:40:11.049Z</time></trkpt><trkpt lat="43.4765779" lon="10.6049657"><ele>572.0</ele><time>2026-05-02T13:40:12.027Z</time></trkpt><trkpt lat="43.4765735" lon="10.605111"><ele>572.0</ele><time>2026-05-02T13:40:14.03Z</time></trkpt><trkpt lat="43.4766036" lon="10.6052585"><ele>572.0</ele><time>2026-05-02T13:40:16.028Z</time></trkpt><trkpt lat="43.4766553" lon="10.6053998"><ele>572.0</ele><time>2026-05-02T13:40:18.034Z</time></trkpt><trkpt lat="43.476687" lon="10.6055513"><ele>572.0</ele><time>2026-05-02T13:40:20.034Z</time></trkpt><trkpt lat="43.4767116" lon="10.6056855"><ele>572.0</ele><time>2026-05-02T13:40:22.035Z</time></trkpt><trkpt lat="43.4767323" lon="10.6057724"><ele>572.5</ele><time>2026-05-02T13:40:24.032Z</time></trkpt><trkpt lat="43.4767557" lon="10.6059037"><ele>573.0</ele><time>2026-05-02T13:40:27.035Z</time></trkpt><trkpt lat="43.4767888" lon="10.6059973"><ele>573.5</ele><time>2026-05-02T13:40:29.04Z</time></trkpt><trkpt lat="43.4768428" lon="10.6060688"><ele>574.0</ele><time>2026-05-02T13:40:36.033Z</time></trkpt><trkpt lat="43.4769121" lon="10.6060472"><ele>574.5</ele><time>2026-05-02T13:40:39.038Z</time></trkpt><trkpt lat="43.4769868" lon="10.605987"><ele>575.0</ele><time>2026-05-02T13:40:42.026Z</time></trkpt><trkpt lat="43.4770532" lon="10.6059252"><ele>575.0</ele><time>2026-05-02T13:40:46.031Z</time></trkpt><trkpt lat="43.4771255" lon="10.6059046"><ele>575.0</ele><time>2026-05-02T13:40:51.028Z</time></trkpt><trkpt lat="43.4771957" lon="10.6058823"><ele>575.0</ele><time>2026-05-02T13:40:56.034Z</time></trkpt><trkpt lat="43.4772588" lon="10.6058535"><ele>575.0</ele><time>2026-05-02T13:40:59.038Z</time></trkpt><trkpt lat="43.4773228" lon="10.6058232"><ele>575.0</ele><time>2026-05-02T13:41:02.038Z</time></trkpt><trkpt lat="43.4773967" lon="10.6057932"><ele>575.0</ele><time>2026-05-02T13:41:06.03Z</time></trkpt><trkpt lat="43.4774575" lon="10.605763"><ele>575.0</ele><time>2026-05-02T13:41:09.051Z</time></trkpt><trkpt lat="43.4775153" lon="10.6057025"><ele>575.0</ele><time>2026-05-02T13:41:13.037Z</time></trkpt><trkpt lat="43.4775772" lon="10.6056851"><ele>575.0</ele><time>2026-05-02T13:41:16.033Z</time></trkpt><trkpt lat="43.4776548" lon="10.6056587"><ele>575.0</ele><time>2026-05-02T13:41:21.035Z</time></trkpt><trkpt lat="43.4777184" lon="10.6056666"><ele>575.0</ele><time>2026-05-02T13:41:24.024Z</time></trkpt><trkpt lat="43.47778" lon="10.6056921"><ele>575.0</ele><time>2026-05-02T13:41:27.034Z</time></trkpt><trkpt lat="43.4778482" lon="10.6057555"><ele>575.0</ele><time>2026-05-02T13:41:31.039Z</time></trkpt><trkpt lat="43.4779096" lon="10.605798"><ele>575.0</ele><time>2026-05-02T13:41:35.034Z</time></trkpt><trkpt lat="43.4779824" lon="10.6058191"><ele>574.4285714285714</ele><time>2026-05-02T13:41:39.035Z</time></trkpt><trkpt lat="43.4780443" lon="10.6058497"><ele>573.8571428571428</ele><time>2026-05-02T13:41:42.027Z</time></trkpt><trkpt lat="43.4781041" lon="10.6058918"><ele>573.2857142857142</ele><time>2026-05-02T13:41:45.031Z</time></trkpt><trkpt lat="43.4781716" lon="10.6059311"><ele>572.7142857142857</ele><time>2026-05-02T13:41:48.033Z</time></trkpt><trkpt lat="43.478235" lon="10.6059699"><ele>572.1428571428571</ele><time>2026-05-02T13:41:51.028Z</time></trkpt><trkpt lat="43.4783104" lon="10.6059957"><ele>571.5714285714286</ele><time>2026-05-02T13:41:54.044Z</time></trkpt><trkpt lat="43.4783845" lon="10.6060008"><ele>571.0</ele><time>2026-05-02T13:41:57.03Z</time></trkpt><trkpt lat="43.4784613" lon="10.6060165"><ele>571.0</ele><time>2026-05-02T13:42:01.028Z</time></trkpt><trkpt lat="43.4785231" lon="10.605988"><ele>571.0</ele><time>2026-05-02T13:42:18.022Z</time></trkpt><trkpt lat="43.4785873" lon="10.6059802"><ele>571.0</ele><time>2026-05-02T13:42:26.027Z</time></trkpt><trkpt lat="43.4786537" lon="10.6059736"><ele>571.0</ele><time>2026-05-02T13:42:31.04Z</time></trkpt><trkpt lat="43.4787238" lon="10.6059674"><ele>571.0</ele><time>2026-05-02T13:42:36.033Z</time></trkpt><trkpt lat="43.4787974" lon="10.6059525"><ele>571.0</ele><time>2026-05-02T13:42:41.04Z</time></trkpt><trkpt lat="43.4788715" lon="10.6059476"><ele>571.0</ele><time>2026-05-02T13:42:46.03Z</time></trkpt><trkpt lat="43.4789369" lon="10.6059284"><ele>570.0</ele><time>2026-05-02T13:42:51.029Z</time></trkpt><trkpt lat="43.4790121" lon="10.6059116"><ele>569.0</ele><time>2026-05-02T13:42:56.031Z</time></trkpt><trkpt lat="43.4790876" lon="10.605897"><ele>568.0</ele><time>2026-05-02T13:43:00.039Z</time></trkpt><trkpt lat="43.4791542" lon="10.6058626"><ele>567.0</ele><time>2026-05-02T13:43:04.037Z</time></trkpt><trkpt lat="43.4792173" lon="10.605849"><ele>566.0</ele><time>2026-05-02T13:43:07.033Z</time></trkpt><trkpt lat="43.4792608" lon="10.6059186"><ele>565.0</ele><time>2026-05-02T13:43:13.027Z</time></trkpt><trkpt lat="43.4792368" lon="10.6060193"><ele>564.0</ele><time>2026-05-02T13:43:18.032Z</time></trkpt><trkpt lat="43.4792201" lon="10.6061222"><ele>564.5714285714286</ele><time>2026-05-02T13:43:22.037Z</time></trkpt><trkpt lat="43.4792019" lon="10.6062215"><ele>565.1428571428571</ele><time>2026-05-02T13:43:25.037Z</time></trkpt><trkpt lat="43.4791898" lon="10.6063114"><ele>565.7142857142857</ele><time>2026-05-02T13:43:28.039Z</time></trkpt><trkpt lat="43.4791813" lon="10.6064175"><ele>566.2857142857142</ele><time>2026-05-02T13:43:32.03Z</time></trkpt><trkpt lat="43.479161" lon="10.6065112"><ele>566.8571428571428</ele><time>2026-05-02T13:43:36.032Z</time></trkpt><trkpt lat="43.4791481" lon="10.6066142"><ele>567.4285714285714</ele><time>2026-05-02T13:43:40.036Z</time></trkpt><trkpt lat="43.4791395" lon="10.6067283"><ele>568.0</ele><time>2026-05-02T13:43:44.039Z</time></trkpt><trkpt lat="43.479132" lon="10.606817"><ele>568.0</ele><time>2026-05-02T13:43:47.029Z</time></trkpt><trkpt lat="43.4791261" lon="10.6069263"><ele>568.0</ele><time>2026-05-02T13:43:51.032Z</time></trkpt><trkpt lat="43.4791183" lon="10.6070467"><ele>568.0</ele><time>2026-05-02T13:43:55.039Z</time></trkpt><trkpt lat="43.479111" lon="10.6071447"><ele>568.0</ele><time>2026-05-02T13:43:59.03Z</time></trkpt><trkpt lat="43.4790757" lon="10.6072457"><ele>568.0</ele><time>2026-05-02T13:44:03.034Z</time></trkpt><trkpt lat="43.4790252" lon="10.6073297"><ele>568.0</ele><time>2026-05-02T13:44:07.032Z</time></trkpt><trkpt lat="43.478974" lon="10.6074152"><ele>568.0</ele><time>2026-05-02T13:44:11.035Z</time></trkpt><trkpt lat="43.4789331" lon="10.6074937"><ele>568.0</ele><time>2026-05-02T13:44:16.034Z</time></trkpt><trkpt lat="43.4789073" lon="10.6075777"><ele>568.0</ele><time>2026-05-02T13:45:16.031Z</time></trkpt><trkpt lat="43.4788786" lon="10.607677"><ele>568.0</ele><time>2026-05-02T13:45:20.034Z</time></trkpt><trkpt lat="43.4788414" lon="10.6077665"><ele>568.0</ele><time>2026-05-02T13:45:27.027Z</time></trkpt><trkpt lat="43.4788391" lon="10.6078757"><ele>568.0</ele><time>2026-05-02T13:45:32.029Z</time></trkpt><trkpt lat="43.478844" lon="10.607971"><ele>568.0</ele><time>2026-05-02T13:45:36.027Z</time></trkpt><trkpt lat="43.4788547" lon="10.6080844"><ele>567.2857142857142</ele><time>2026-05-02T13:45:40.027Z</time></trkpt><trkpt lat="43.4788606" lon="10.6081785"><ele>566.5714285714286</ele><time>2026-05-02T13:45:43.024Z</time></trkpt><trkpt lat="43.4788727" lon="10.6082796"><ele>565.8571428571429</ele><time>2026-05-02T13:45:46.03Z</time></trkpt><trkpt lat="43.4788864" lon="10.6083741"><ele>565.1428571428571</ele><time>2026-05-02T13:45:49.033Z</time></trkpt><trkpt lat="43.4788986" lon="10.6084688"><ele>564.4285714285714</ele><time>2026-05-02T13:45:52.022Z</time></trkpt><trkpt lat="43.4789091" lon="10.6085875"><ele>563.7142857142857</ele><time>2026-05-02T13:45:56.027Z</time></trkpt><trkpt lat="43.4789173" lon="10.6086837"><ele>563.0</ele><time>2026-05-02T13:45:59.028Z</time></trkpt><trkpt lat="43.4789213" lon="10.6087787"><ele>562.5714285714286</ele><time>2026-05-02T13:46:02.029Z</time></trkpt><trkpt lat="43.4789265" lon="10.608876"><ele>562.1428571428571</ele><time>2026-05-02T13:46:05.026Z</time></trkpt><trkpt lat="43.478908" lon="10.6089727"><ele>561.7142857142858</ele><time>2026-05-02T13:46:09.053Z</time></trkpt><trkpt lat="43.4788909" lon="10.6090662"><ele>561.2857142857142</ele><time>2026-05-02T13:46:13.024Z</time></trkpt><trkpt lat="43.4788563" lon="10.6091558"><ele>560.8571428571429</ele><time>2026-05-02T13:46:17.034Z</time></trkpt><trkpt lat="43.4788662" lon="10.6092443"><ele>560.4285714285714</ele><time>2026-05-02T13:46:20.028Z</time></trkpt><trkpt lat="43.4788782" lon="10.60934"><ele>560.0</ele><time>2026-05-02T13:46:24.03Z</time></trkpt><trkpt lat="43.4789038" lon="10.609425"><ele>560.0</ele><time>2026-05-02T13:46:27.039Z</time></trkpt><trkpt lat="43.4789351" lon="10.6095268"><ele>560.0</ele><time>2026-05-02T13:46:30.026Z</time></trkpt><trkpt lat="43.4789634" lon="10.6096291"><ele>560.0</ele><time>2026-05-02T13:46:33.026Z</time></trkpt><trkpt lat="43.4789853" lon="10.6097333"><ele>560.0</ele><time>2026-05-02T13:46:36.035Z</time></trkpt><trkpt lat="43.4789919" lon="10.6098278"><ele>560.0</ele><time>2026-05-02T13:46:39.034Z</time></trkpt><trkpt lat="43.4790013" lon="10.6099383"><ele>560.0</ele><time>2026-05-02T13:46:43.03Z</time></trkpt><trkpt lat="43.4790069" lon="10.6100313"><ele>560.0</ele><time>2026-05-02T13:46:47.038Z</time></trkpt><trkpt lat="43.4790318" lon="10.6101299"><ele>560.0</ele><time>2026-05-02T13:46:53.047Z</time></trkpt><trkpt lat="43.4790351" lon="10.610218"><ele>560.0</ele><time>2026-05-02T13:46:56.027Z</time></trkpt><trkpt lat="43.4790452" lon="10.6103326"><ele>560.0</ele><time>2026-05-02T13:47:00.037Z</time></trkpt><trkpt lat="43.479061" lon="10.610421"><ele>560.0</ele><time>2026-05-02T13:47:04.029Z</time></trkpt><trkpt lat="43.4790708" lon="10.6105138"><ele>560.0</ele><time>2026-05-02T13:47:09.027Z</time></trkpt><trkpt lat="43.479069" lon="10.6106152"><ele>560.0</ele><time>2026-05-02T13:47:13.026Z</time></trkpt><trkpt lat="43.4790563" lon="10.610721"><ele>559.8571428571429</ele><time>2026-05-02T13:47:17.024Z</time></trkpt><trkpt lat="43.4790523" lon="10.6108113"><ele>559.7142857142858</ele><time>2026-05-02T13:47:20.038Z</time></trkpt><trkpt lat="43.4790464" lon="10.6109121"><ele>559.5714285714286</ele><time>2026-05-02T13:47:24.031Z</time></trkpt><trkpt lat="43.4790392" lon="10.6110308"><ele>559.4285714285714</ele><time>2026-05-02T13:47:28.032Z</time></trkpt><trkpt lat="43.4790296" lon="10.6111282"><ele>559.2857142857143</ele><time>2026-05-02T13:47:31.038Z</time></trkpt><trkpt lat="43.4790288" lon="10.6112281"><ele>559.1428571428571</ele><time>2026-05-02T13:47:34.032Z</time></trkpt><trkpt lat="43.479031" lon="10.6113288"><ele>559.0</ele><time>2026-05-02T13:47:37.024Z</time></trkpt><trkpt lat="43.4790471" lon="10.6114233"><ele>558.8571428571429</ele><time>2026-05-02T13:47:40.026Z</time></trkpt><trkpt lat="43.4790755" lon="10.6115281"><ele>558.7142857142858</ele><time>2026-05-02T13:47:43.03Z</time></trkpt><trkpt lat="43.4791052" lon="10.6116155"><ele>558.5714285714286</ele><time>2026-05-02T13:47:46.024Z</time></trkpt><trkpt lat="43.4791269" lon="10.6117033"><ele>558.4285714285714</ele><time>2026-05-02T13:47:49.031Z</time></trkpt><trkpt lat="43.4791706" lon="10.6117889"><ele>558.2857142857142</ele><time>2026-05-02T13:47:52.028Z</time></trkpt><trkpt lat="43.4792057" lon="10.6118845"><ele>558.1428571428571</ele><time>2026-05-02T13:47:56.033Z</time></trkpt><trkpt lat="43.4792411" lon="10.6119791"><ele>558.0</ele><time>2026-05-02T13:48:00.035Z</time></trkpt><trkpt lat="43.4792798" lon="10.612072"><ele>557.4285714285713</ele><time>2026-05-02T13:48:04.027Z</time></trkpt><trkpt lat="43.4793205" lon="10.6121699"><ele>556.8571428571429</ele><time>2026-05-02T13:48:08.017Z</time></trkpt><trkpt lat="43.4793474" lon="10.6122719"><ele>556.2857142857142</ele><time>2026-05-02T13:48:12.037Z</time></trkpt><trkpt lat="43.4793725" lon="10.6123518"><ele>555.7142857142857</ele><time>2026-05-02T13:48:15.038Z</time></trkpt><trkpt lat="43.4793931" lon="10.6124444"><ele>555.1428571428571</ele><time>2026-05-02T13:48:20.04Z</time></trkpt><trkpt lat="43.479428" lon="10.6125192"><ele>554.5714285714286</ele><time>2026-05-02T13:48:25.025Z</time></trkpt><trkpt lat="43.4794633" lon="10.612601"><ele>554.0</ele><time>2026-05-02T13:48:29.032Z</time></trkpt><trkpt lat="43.4794992" lon="10.6126729"><ele>554.0</ele><time>2026-05-02T13:48:32.026Z</time></trkpt><trkpt lat="43.4795218" lon="10.6127757"><ele>554.0</ele><time>2026-05-02T13:48:36.043Z</time></trkpt><trkpt lat="43.4795456" lon="10.6128636"><ele>554.0</ele><time>2026-05-02T13:48:39.028Z</time></trkpt><trkpt lat="43.4795601" lon="10.6129599"><ele>554.0</ele><time>2026-05-02T13:48:42.03Z</time></trkpt><trkpt lat="43.4795924" lon="10.6130504"><ele>554.0</ele><time>2026-05-02T13:48:45.029Z</time></trkpt><trkpt lat="43.4796438" lon="10.6131142"><ele>554.0</ele><time>2026-05-02T13:48:48.024Z</time></trkpt><trkpt lat="43.4796862" lon="10.6131933"><ele>554.0</ele><time>2026-05-02T13:48:51.037Z</time></trkpt><trkpt lat="43.479734" lon="10.6132811"><ele>554.2857142857142</ele><time>2026-05-02T13:48:54.038Z</time></trkpt><trkpt lat="43.4797766" lon="10.6133656"><ele>554.5714285714286</ele><time>2026-05-02T13:48:57.036Z</time></trkpt><trkpt lat="43.479814" lon="10.6134431"><ele>554.8571428571429</ele><time>2026-05-02T13:49:00.029Z</time></trkpt><trkpt lat="43.479864" lon="10.6135353"><ele>555.1428571428571</ele><time>2026-05-02T13:49:04.021Z</time></trkpt><trkpt lat="43.4799209" lon="10.6136019"><ele>555.4285714285714</ele><time>2026-05-02T13:49:07.032Z</time></trkpt><trkpt lat="43.4799713" lon="10.613666"><ele>555.7142857142857</ele><time>2026-05-02T13:49:10.025Z</time></trkpt><trkpt lat="43.4800303" lon="10.6137291"><ele>556.0</ele><time>2026-05-02T13:49:13.034Z</time></trkpt><trkpt lat="43.4800858" lon="10.6138065"><ele>556.5714285714286</ele><time>2026-05-02T13:49:16.028Z</time></trkpt><trkpt lat="43.4801314" lon="10.6138765"><ele>557.1428571428571</ele><time>2026-05-02T13:49:19.026Z</time></trkpt><trkpt lat="43.4801595" lon="10.6139719"><ele>557.7142857142858</ele><time>2026-05-02T13:49:22.028Z</time></trkpt><trkpt lat="43.480177" lon="10.6140862"><ele>558.2857142857142</ele><time>2026-05-02T13:49:25.021Z</time></trkpt><trkpt lat="43.4801988" lon="10.6141715"><ele>558.8571428571429</ele><time>2026-05-02T13:49:28.033Z</time></trkpt><trkpt lat="43.4802154" lon="10.6142633"><ele>559.4285714285714</ele><time>2026-05-02T13:49:31.033Z</time></trkpt><trkpt lat="43.4802423" lon="10.614347"><ele>560.0</ele><time>2026-05-02T13:49:34.031Z</time></trkpt><trkpt lat="43.4802836" lon="10.6144162"><ele>560.0</ele><time>2026-05-02T13:49:37.03Z</time></trkpt><trkpt lat="43.4803302" lon="10.6144828"><ele>560.0</ele><time>2026-05-02T13:49:40.026Z</time></trkpt><trkpt lat="43.4803891" lon="10.614537"><ele>560.0</ele><time>2026-05-02T13:49:43.041Z</time></trkpt><trkpt lat="43.4804519" lon="10.6145746"><ele>560.0</ele><time>2026-05-02T13:49:46.027Z</time></trkpt><trkpt lat="43.4805143" lon="10.61459"><ele>560.0</ele><time>2026-05-02T13:49:49.029Z</time></trkpt><trkpt lat="43.4805986" lon="10.6146142"><ele>560.0</ele><time>2026-05-02T13:49:53.025Z</time></trkpt><trkpt lat="43.4806677" lon="10.6146318"><ele>560.0</ele><time>2026-05-02T13:49:56.034Z</time></trkpt><trkpt lat="43.4807396" lon="10.6146566"><ele>558.5</ele><time>2026-05-02T13:49:59.051Z</time></trkpt><trkpt lat="43.4808161" lon="10.6146998"><ele>557.0</ele><time>2026-05-02T13:50:02.022Z</time></trkpt><trkpt lat="43.4808873" lon="10.6147533"><ele>555.5</ele><time>2026-05-02T13:50:05.033Z</time></trkpt><trkpt lat="43.4809667" lon="10.6147875"><ele>554.0</ele><time>2026-05-02T13:50:08.028Z</time></trkpt><trkpt lat="43.4810341" lon="10.6148335"><ele>552.5</ele><time>2026-05-02T13:50:11.027Z</time></trkpt><trkpt lat="43.4811113" lon="10.6148957"><ele>551.0</ele><time>2026-05-02T13:50:14.033Z</time></trkpt><trkpt lat="43.4811742" lon="10.6149659"><ele>551.0</ele><time>2026-05-02T13:50:17.041Z</time></trkpt><trkpt lat="43.4812185" lon="10.6150449"><ele>551.0</ele><time>2026-05-02T13:50:20.026Z</time></trkpt><trkpt lat="43.4812679" lon="10.6151204"><ele>551.0</ele><time>2026-05-02T13:50:23.036Z</time></trkpt><trkpt lat="43.4813092" lon="10.6152287"><ele>551.0</ele><time>2026-05-02T13:50:26.027Z</time></trkpt><trkpt lat="43.4813417" lon="10.6153396"><ele>551.0</ele><time>2026-05-02T13:50:29.026Z</time></trkpt><trkpt lat="43.4813802" lon="10.6154488"><ele>551.0</ele><time>2026-05-02T13:50:32.029Z</time></trkpt><trkpt lat="43.4814168" lon="10.6155482"><ele>549.1666666666666</ele><time>2026-05-02T13:50:35.034Z</time></trkpt><trkpt lat="43.4814523" lon="10.615656"><ele>547.3333333333333</ele><time>2026-05-02T13:50:38.032Z</time></trkpt><trkpt lat="43.481494" lon="10.6157495"><ele>545.5</ele><time>2026-05-02T13:50:41.068Z</time></trkpt><trkpt lat="43.4815436" lon="10.6158391"><ele>543.6666666666666</ele><time>2026-05-02T13:50:44.029Z</time></trkpt><trkpt lat="43.4816045" lon="10.6159122"><ele>541.8333333333334</ele><time>2026-05-02T13:50:47.033Z</time></trkpt><trkpt lat="43.4816589" lon="10.6159851"><ele>540.0</ele><time>2026-05-02T13:50:50.026Z</time></trkpt><trkpt lat="43.4816961" lon="10.6160553"><ele>540.0</ele><time>2026-05-02T13:50:53.028Z</time></trkpt><trkpt lat="43.4817424" lon="10.6161389"><ele>540.0</ele><time>2026-05-02T13:50:56.022Z</time></trkpt><trkpt lat="43.4817968" lon="10.6162239"><ele>540.0</ele><time>2026-05-02T13:50:59.043Z</time></trkpt><trkpt lat="43.4818544" lon="10.6163085"><ele>540.0</ele><time>2026-05-02T13:51:02.032Z</time></trkpt><trkpt lat="43.4819153" lon="10.6164021"><ele>540.0</ele><time>2026-05-02T13:51:05.026Z</time></trkpt><trkpt lat="43.4819658" lon="10.6164906"><ele>540.0</ele><time>2026-05-02T13:51:08.031Z</time></trkpt><trkpt lat="43.4820073" lon="10.6165727"><ele>539.5</ele><time>2026-05-02T13:51:11.023Z</time></trkpt><trkpt lat="43.4820525" lon="10.6166854"><ele>539.0</ele><time>2026-05-02T13:51:14.047Z</time></trkpt><trkpt lat="43.4820817" lon="10.6167973"><ele>538.5</ele><time>2026-05-02T13:51:17.022Z</time></trkpt><trkpt lat="43.4821198" lon="10.6169017"><ele>538.0</ele><time>2026-05-02T13:51:20.036Z</time></trkpt><trkpt lat="43.4821636" lon="10.6169925"><ele>537.5</ele><time>2026-05-02T13:51:23.026Z</time></trkpt><trkpt lat="43.4822125" lon="10.6170801"><ele>537.0</ele><time>2026-05-02T13:51:26.027Z</time></trkpt><trkpt lat="43.4822426" lon="10.6171876"><ele>536.7142857142857</ele><time>2026-05-02T13:51:29.025Z</time></trkpt><trkpt lat="43.4822799" lon="10.617265"><ele>536.4285714285714</ele><time>2026-05-02T13:51:32.018Z</time></trkpt><trkpt lat="43.4823185" lon="10.617358"><ele>536.1428571428571</ele><time>2026-05-02T13:51:35.027Z</time></trkpt><trkpt lat="43.4823618" lon="10.6174219"><ele>535.8571428571429</ele><time>2026-05-02T13:51:38.06Z</time></trkpt><trkpt lat="43.4824126" lon="10.6174949"><ele>535.5714285714286</ele><time>2026-05-02T13:51:41.03Z</time></trkpt><trkpt lat="43.482467" lon="10.617548"><ele>535.2857142857142</ele><time>2026-05-02T13:51:44.037Z</time></trkpt><trkpt lat="43.4825108" lon="10.6176217"><ele>535.0</ele><time>2026-05-02T13:51:47.034Z</time></trkpt><trkpt lat="43.4825583" lon="10.617704"><ele>535.0</ele><time>2026-05-02T13:51:52.028Z</time></trkpt><trkpt lat="43.4826124" lon="10.6177721"><ele>535.0</ele><time>2026-05-02T13:51:57.023Z</time></trkpt><trkpt lat="43.4826622" lon="10.6178389"><ele>535.0</ele><time>2026-05-02T13:52:01.03Z</time></trkpt><trkpt lat="43.4827214" lon="10.6178913"><ele>535.0</ele><time>2026-05-02T13:52:05.042Z</time></trkpt><trkpt lat="43.4827745" lon="10.6179527"><ele>535.0</ele><time>2026-05-02T13:52:09.027Z</time></trkpt><trkpt lat="43.4828356" lon="10.6180259"><ele>535.0</ele><time>2026-05-02T13:52:14.029Z</time></trkpt><trkpt lat="43.4828905" lon="10.6180892"><ele>535.0</ele><time>2026-05-02T13:52:18.029Z</time></trkpt><trkpt lat="43.4829536" lon="10.6181553"><ele>532.2857142857142</ele><time>2026-05-02T13:52:22.022Z</time></trkpt><trkpt lat="43.4830092" lon="10.6182189"><ele>529.5714285714286</ele><time>2026-05-02T13:52:26.042Z</time></trkpt><trkpt lat="43.4830637" lon="10.6182877"><ele>526.8571428571429</ele><time>2026-05-02T13:52:30.045Z</time></trkpt><trkpt lat="43.4831191" lon="10.6183487"><ele>524.1428571428571</ele><time>2026-05-02T13:52:34.036Z</time></trkpt><trkpt lat="43.483194" lon="10.6183939"><ele>521.4285714285714</ele><time>2026-05-02T13:52:38.049Z</time></trkpt><trkpt lat="43.4832588" lon="10.6184335"><ele>518.7142857142857</ele><time>2026-05-02T13:52:42.016Z</time></trkpt><trkpt lat="43.4833271" lon="10.6184794"><ele>516.0</ele><time>2026-05-02T13:52:46.03Z</time></trkpt><trkpt lat="43.4833907" lon="10.6185425"><ele>515.9999999999999</ele><time>2026-05-02T13:52:51.053Z</time></trkpt><trkpt lat="43.4834556" lon="10.6185886"><ele>516.0</ele><time>2026-05-02T13:52:55.037Z</time></trkpt><trkpt lat="43.4835058" lon="10.6186447"><ele>516.0</ele><time>2026-05-02T13:52:58.03Z</time></trkpt><trkpt lat="43.4835476" lon="10.6187445"><ele>516.0</ele><time>2026-05-02T13:53:02.029Z</time></trkpt><trkpt lat="43.4835947" lon="10.6188253"><ele>516.0</ele><time>2026-05-02T13:53:06.034Z</time></trkpt><trkpt lat="43.4836394" lon="10.6188914"><ele>515.9999999999999</ele><time>2026-05-02T13:53:10.029Z</time></trkpt><trkpt lat="43.4836766" lon="10.6189743"><ele>516.0</ele><time>2026-05-02T13:53:15.018Z</time></trkpt><trkpt lat="43.4837307" lon="10.6190548"><ele>514.3333333333334</ele><time>2026-05-02T13:53:19.021Z</time></trkpt><trkpt lat="43.4837862" lon="10.6191307"><ele>512.6666666666666</ele><time>2026-05-02T13:53:23.06Z</time></trkpt><trkpt lat="43.4838342" lon="10.619218"><ele>511.0</ele><time>2026-05-02T13:53:27.031Z</time></trkpt><trkpt lat="43.4838818" lon="10.61929"><ele>509.3333333333333</ele><time>2026-05-02T13:53:31.028Z</time></trkpt><trkpt lat="43.4839438" lon="10.6193537"><ele>507.66666666666663</ele><time>2026-05-02T13:53:35.04Z</time></trkpt><trkpt lat="43.4840057" lon="10.619403"><ele>506.0</ele><time>2026-05-02T13:53:39.027Z</time></trkpt><trkpt lat="43.4840587" lon="10.6194727"><ele>505.1428571428572</ele><time>2026-05-02T13:53:44.037Z</time></trkpt><trkpt lat="43.4841154" lon="10.619521"><ele>504.28571428571433</ele><time>2026-05-02T13:53:49.025Z</time></trkpt><trkpt lat="43.4841693" lon="10.6195712"><ele>503.42857142857144</ele><time>2026-05-02T13:53:54.027Z</time></trkpt><trkpt lat="43.4842303" lon="10.6196282"><ele>502.5714285714286</ele><time>2026-05-02T13:53:59.039Z</time></trkpt><trkpt lat="43.4842957" lon="10.6196679"><ele>501.7142857142858</ele><time>2026-05-02T13:54:03.04Z</time></trkpt><trkpt lat="43.4843698" lon="10.6197024"><ele>500.85714285714283</ele><time>2026-05-02T13:54:07.028Z</time></trkpt><trkpt lat="43.4844446" lon="10.6197512"><ele>500.0</ele><time>2026-05-02T13:54:11.023Z</time></trkpt><trkpt lat="43.4845108" lon="10.6198038"><ele>499.99999999999994</ele><time>2026-05-02T13:54:14.032Z</time></trkpt><trkpt lat="43.4845877" lon="10.6198639"><ele>500.0</ele><time>2026-05-02T13:54:17.013Z</time></trkpt><trkpt lat="43.4846657" lon="10.6199235"><ele>500.0</ele><time>2026-05-02T13:54:20.042Z</time></trkpt><trkpt lat="43.4847293" lon="10.6199667"><ele>500.0</ele><time>2026-05-02T13:54:22.023Z</time></trkpt><trkpt lat="43.4847799" lon="10.6200194"><ele>499.99999999999994</ele><time>2026-05-02T13:54:24.022Z</time></trkpt><trkpt lat="43.4848562" lon="10.6200857"><ele>500.0</ele><time>2026-05-02T13:54:27.025Z</time></trkpt><trkpt lat="43.484924" lon="10.62014"><ele>499.49999999999994</ele><time>2026-05-02T13:54:30.044Z</time></trkpt><trkpt lat="43.4849906" lon="10.620209"><ele>499.0</ele><time>2026-05-02T13:54:33.039Z</time></trkpt><trkpt lat="43.4850603" lon="10.6202675"><ele>498.5</ele><time>2026-05-02T13:54:36.046Z</time></trkpt><trkpt lat="43.4851227" lon="10.6203306"><ele>498.0</ele><time>2026-05-02T13:54:39.02Z</time></trkpt><trkpt lat="43.4851888" lon="10.6203658"><ele>497.49999999999994</ele><time>2026-05-02T13:54:42.034Z</time></trkpt><trkpt lat="43.4852688" lon="10.6203327"><ele>497.0</ele><time>2026-05-02T13:54:46.033Z</time></trkpt><trkpt lat="43.4853183" lon="10.6202525"><ele>497.0</ele><time>2026-05-02T13:54:50.037Z</time></trkpt><trkpt lat="43.4853763" lon="10.6201863"><ele>497.0</ele><time>2026-05-02T13:54:54.026Z</time></trkpt><trkpt lat="43.4854308" lon="10.6201141"><ele>497.0</ele><time>2026-05-02T13:54:58.033Z</time></trkpt><trkpt lat="43.4854932" lon="10.6200506"><ele>497.0</ele><time>2026-05-02T13:55:03.021Z</time></trkpt><trkpt lat="43.4855569" lon="10.6200026"><ele>497.0</ele><time>2026-05-02T13:55:07.038Z</time></trkpt><trkpt lat="43.485622" lon="10.6199686"><ele>497.0</ele><time>2026-05-02T13:55:12.034Z</time></trkpt><trkpt lat="43.4856707" lon="10.6199074"><ele>497.0</ele><time>2026-05-02T13:55:16.027Z</time></trkpt><trkpt lat="43.4857184" lon="10.6198428"><ele>496.0</ele><time>2026-05-02T13:55:20.04Z</time></trkpt><trkpt lat="43.485776" lon="10.6197594"><ele>495.0</ele><time>2026-05-02T13:55:25.04Z</time></trkpt><trkpt lat="43.4858053" lon="10.619672"><ele>494.0</ele><time>2026-05-02T13:55:28.035Z</time></trkpt><trkpt lat="43.4858003" lon="10.6195749"><ele>493.0</ele><time>2026-05-02T13:55:31.03Z</time></trkpt><trkpt lat="43.4857756" lon="10.6194916"><ele>492.0</ele><time>2026-05-02T13:55:34.026Z</time></trkpt><trkpt lat="43.4857226" lon="10.6193925"><ele>491.0</ele><time>2026-05-02T13:55:37.033Z</time></trkpt><trkpt lat="43.4856834" lon="10.61932"><ele>490.0</ele><time>2026-05-02T13:55:39.037Z</time></trkpt><trkpt lat="43.4856428" lon="10.6192113"><ele>490.00000000000006</ele><time>2026-05-02T13:55:42.034Z</time></trkpt><trkpt lat="43.4856157" lon="10.6191253"><ele>490.0</ele><time>2026-05-02T13:55:44.016Z</time></trkpt><trkpt lat="43.4855643" lon="10.6190221"><ele>490.0</ele><time>2026-05-02T13:55:47.037Z</time></trkpt><trkpt lat="43.4855246" lon="10.6189488"><ele>490.0</ele><time>2026-05-02T13:55:50.019Z</time></trkpt><trkpt lat="43.485458" lon="10.6188952"><ele>490.00000000000006</ele><time>2026-05-02T13:55:54.027Z</time></trkpt><trkpt lat="43.4853751" lon="10.6188662"><ele>490.0</ele><time>2026-05-02T13:55:58.031Z</time></trkpt><trkpt lat="43.4853238" lon="10.6187925"><ele>490.33333333333337</ele><time>2026-05-02T13:56:01.023Z</time></trkpt><trkpt lat="43.4852992" lon="10.6186975"><ele>490.6666666666667</ele><time>2026-05-02T13:56:04.021Z</time></trkpt><trkpt lat="43.485237" lon="10.6186383"><ele>491.0</ele><time>2026-05-02T13:56:07.029Z</time></trkpt><trkpt lat="43.4851656" lon="10.6187008"><ele>491.33333333333337</ele><time>2026-05-02T13:56:10.03Z</time></trkpt><trkpt lat="43.4851666" lon="10.618791"><ele>491.6666666666667</ele><time>2026-05-02T13:56:12.039Z</time></trkpt><trkpt lat="43.4851896" lon="10.6189121"><ele>492.0</ele><time>2026-05-02T13:56:15.03Z</time></trkpt><trkpt lat="43.485207" lon="10.6190271"><ele>491.7142857142858</ele><time>2026-05-02T13:56:18.023Z</time></trkpt><trkpt lat="43.4852598" lon="10.6191274"><ele>491.42857142857144</ele><time>2026-05-02T13:56:21.025Z</time></trkpt><trkpt lat="43.4853075" lon="10.619194"><ele>491.14285714285717</ele><time>2026-05-02T13:56:23.024Z</time></trkpt><trkpt lat="43.4853554" lon="10.6192604"><ele>490.8571428571429</ele><time>2026-05-02T13:56:25.026Z</time></trkpt><trkpt lat="43.4854082" lon="10.6193145"><ele>490.57142857142856</ele><time>2026-05-02T13:56:27.021Z</time></trkpt><trkpt lat="43.4854701" lon="10.6193446"><ele>490.2857142857143</ele><time>2026-05-02T13:56:29.062Z</time></trkpt><trkpt lat="43.4855561" lon="10.6193678"><ele>490.0</ele><time>2026-05-02T13:56:32.027Z</time></trkpt><trkpt lat="43.4856191" lon="10.6193762"><ele>490.00000000000006</ele><time>2026-05-02T13:56:34.076Z</time></trkpt><trkpt lat="43.4857032" lon="10.6194221"><ele>490.0</ele><time>2026-05-02T13:56:37.022Z</time></trkpt><trkpt lat="43.4857642" lon="10.619456"><ele>490.0</ele><time>2026-05-02T13:56:40.046Z</time></trkpt><trkpt lat="43.4857616" lon="10.6193598"><ele>490.0</ele><time>2026-05-02T13:59:37.029Z</time></trkpt><trkpt lat="43.4857104" lon="10.6192655"><ele>490.00000000000006</ele><time>2026-05-02T13:59:41.025Z</time></trkpt><trkpt lat="43.4856756" lon="10.6191734"><ele>490.0</ele><time>2026-05-02T13:59:44.021Z</time></trkpt><trkpt lat="43.4856448" lon="10.6190928"><ele>490.0</ele><time>2026-05-02T13:59:47.023Z</time></trkpt><trkpt lat="43.4855961" lon="10.619003"><ele>490.0</ele><time>2026-05-02T13:59:51.029Z</time></trkpt><trkpt lat="43.4855556" lon="10.6189201"><ele>490.0</ele><time>2026-05-02T13:59:55.021Z</time></trkpt><trkpt lat="43.4854826" lon="10.6188613"><ele>490.0</ele><time>2026-05-02T13:59:59.025Z</time></trkpt><trkpt lat="43.4854116" lon="10.6188638"><ele>490.0</ele><time>2026-05-02T14:00:02.028Z</time></trkpt><trkpt lat="43.4853573" lon="10.6188176"><ele>490.0</ele><time>2026-05-02T14:00:05.025Z</time></trkpt><trkpt lat="43.4853296" lon="10.6187199"><ele>490.0</ele><time>2026-05-02T14:00:09.025Z</time></trkpt><trkpt lat="43.4853771" lon="10.6186571"><ele>490.2857142857143</ele><time>2026-05-02T14:00:14.009Z</time></trkpt><trkpt lat="43.4854286" lon="10.6185866"><ele>490.57142857142856</ele><time>2026-05-02T14:00:19.03Z</time></trkpt><trkpt lat="43.4853866" lon="10.6186671"><ele>490.8571428571429</ele><time>2026-05-02T14:00:42.015Z</time></trkpt><trkpt lat="43.4853471" lon="10.6185823"><ele>491.14285714285717</ele><time>2026-05-02T14:00:54.029Z</time></trkpt><trkpt lat="43.4852847" lon="10.6185548"><ele>491.42857142857144</ele><time>2026-05-02T14:00:57.014Z</time></trkpt><trkpt lat="43.4852064" lon="10.6185317"><ele>491.7142857142858</ele><time>2026-05-02T14:01:01.025Z</time></trkpt><trkpt lat="43.4851375" lon="10.6185268"><ele>492.00000000000006</ele><time>2026-05-02T14:01:05.02Z</time></trkpt><trkpt lat="43.4851204" lon="10.6186223"><ele>492.4285714285715</ele><time>2026-05-02T14:01:09.015Z</time></trkpt><trkpt lat="43.4851603" lon="10.6187119"><ele>492.8571428571429</ele><time>2026-05-02T14:01:13.019Z</time></trkpt><trkpt lat="43.4851882" lon="10.6187994"><ele>493.2857142857143</ele><time>2026-05-02T14:01:17.033Z</time></trkpt><trkpt lat="43.4852003" lon="10.6189066"><ele>493.7142857142857</ele><time>2026-05-02T14:01:21.023Z</time></trkpt><trkpt lat="43.4852113" lon="10.6189962"><ele>494.1428571428571</ele><time>2026-05-02T14:01:24.024Z</time></trkpt><trkpt lat="43.4852479" lon="10.6190983"><ele>494.5714285714285</ele><time>2026-05-02T14:01:28.028Z</time></trkpt><trkpt lat="43.4852922" lon="10.6191718"><ele>494.99999999999994</ele><time>2026-05-02T14:01:31.03Z</time></trkpt><trkpt lat="43.4853442" lon="10.6192361"><ele>495.0</ele><time>2026-05-02T14:01:34.035Z</time></trkpt><trkpt lat="43.4854005" lon="10.619291"><ele>495.0</ele><time>2026-05-02T14:01:37.015Z</time></trkpt><trkpt lat="43.4854787" lon="10.6193305"><ele>495.0</ele><time>2026-05-02T14:01:40.03Z</time></trkpt><trkpt lat="43.4855523" lon="10.6193573"><ele>495.0</ele><time>2026-05-02T14:01:43.023Z</time></trkpt><trkpt lat="43.4856266" lon="10.6193542"><ele>495.0</ele><time>2026-05-02T14:01:46.028Z</time></trkpt><trkpt lat="43.4856919" lon="10.61939"><ele>495.0</ele><time>2026-05-02T14:01:49.031Z</time></trkpt><trkpt lat="43.4857505" lon="10.6194607"><ele>494.1428571428571</ele><time>2026-05-02T14:01:52.032Z</time></trkpt><trkpt lat="43.4857835" lon="10.619551"><ele>493.2857142857143</ele><time>2026-05-02T14:01:55.028Z</time></trkpt><trkpt lat="43.4857957" lon="10.61964"><ele>492.42857142857144</ele><time>2026-05-02T14:01:58.04Z</time></trkpt><trkpt lat="43.4857911" lon="10.6197272"><ele>491.57142857142856</ele><time>2026-05-02T14:02:03.026Z</time></trkpt><trkpt lat="43.485755" lon="10.6198"><ele>490.7142857142858</ele><time>2026-05-02T14:02:24.033Z</time></trkpt><trkpt lat="43.4857045" lon="10.619881"><ele>489.8571428571429</ele><time>2026-05-02T14:02:28.028Z</time></trkpt><trkpt lat="43.4856448" lon="10.6199405"><ele>489.0</ele><time>2026-05-02T14:02:32.043Z</time></trkpt><trkpt lat="43.4855903" lon="10.6199859"><ele>489.0</ele><time>2026-05-02T14:02:35.027Z</time></trkpt><trkpt lat="43.4855178" lon="10.6200132"><ele>489.00000000000006</ele><time>2026-05-02T14:02:39.029Z</time></trkpt><trkpt lat="43.4854491" lon="10.6200722"><ele>489.0</ele><time>2026-05-02T14:02:43.027Z</time></trkpt><trkpt lat="43.4854046" lon="10.6201373"><ele>489.0</ele><time>2026-05-02T14:02:46.024Z</time></trkpt><trkpt lat="43.4853591" lon="10.6202174"><ele>489.00000000000006</ele><time>2026-05-02T14:02:50.027Z</time></trkpt><trkpt lat="43.4853046" lon="10.620285"><ele>489.0</ele><time>2026-05-02T14:02:55.025Z</time></trkpt><trkpt lat="43.4852536" lon="10.6203366"><ele>489.0</ele><time>2026-05-02T14:02:59.031Z</time></trkpt><trkpt lat="43.4852363" lon="10.6204251"><ele>489.14285714285717</ele><time>2026-05-02T14:03:05.046Z</time></trkpt><trkpt lat="43.4852821" lon="10.6204894"><ele>489.28571428571433</ele><time>2026-05-02T14:03:09.031Z</time></trkpt><trkpt lat="43.4853318" lon="10.6205512"><ele>489.42857142857144</ele><time>2026-05-02T14:03:13.048Z</time></trkpt><trkpt lat="43.4853862" lon="10.6206227"><ele>489.57142857142856</ele><time>2026-05-02T14:03:17.038Z</time></trkpt><trkpt lat="43.4854292" lon="10.6206876"><ele>489.7142857142857</ele><time>2026-05-02T14:03:21.033Z</time></trkpt><trkpt lat="43.4854763" lon="10.6207621"><ele>489.8571428571429</ele><time>2026-05-02T14:03:25.037Z</time></trkpt><trkpt lat="43.4855313" lon="10.62083"><ele>490.0</ele><time>2026-05-02T14:03:30.035Z</time></trkpt><trkpt lat="43.485583" lon="10.6209129"><ele>490.2857142857143</ele><time>2026-05-02T14:03:35.062Z</time></trkpt><trkpt lat="43.4856281" lon="10.6209947"><ele>490.57142857142856</ele><time>2026-05-02T14:03:39.025Z</time></trkpt><trkpt lat="43.4856804" lon="10.6210692"><ele>490.8571428571429</ele><time>2026-05-02T14:03:43.061Z</time></trkpt><trkpt lat="43.4857408" lon="10.6211349"><ele>491.14285714285717</ele><time>2026-05-02T14:03:47.062Z</time></trkpt><trkpt lat="43.4858071" lon="10.6211839"><ele>491.42857142857144</ele><time>2026-05-02T14:03:51.03Z</time></trkpt><trkpt lat="43.4858677" lon="10.6212184"><ele>491.7142857142858</ele><time>2026-05-02T14:03:55.017Z</time></trkpt><trkpt lat="43.4859348" lon="10.6212739"><ele>492.00000000000006</ele><time>2026-05-02T14:03:59.05Z</time></trkpt><trkpt lat="43.4859783" lon="10.6213493"><ele>490.6666666666667</ele><time>2026-05-02T14:04:03.034Z</time></trkpt><trkpt lat="43.4860321" lon="10.6214217"><ele>489.33333333333337</ele><time>2026-05-02T14:04:07.054Z</time></trkpt><trkpt lat="43.4860836" lon="10.6215138"><ele>488.0</ele><time>2026-05-02T14:04:11.046Z</time></trkpt><trkpt lat="43.4861501" lon="10.6215774"><ele>486.6666666666667</ele><time>2026-05-02T14:04:15.037Z</time></trkpt><trkpt lat="43.486207" lon="10.6216245"><ele>485.33333333333337</ele><time>2026-05-02T14:04:18.03Z</time></trkpt><trkpt lat="43.4862726" lon="10.6216816"><ele>484.0</ele><time>2026-05-02T14:04:22.035Z</time></trkpt><trkpt lat="43.486313" lon="10.6217774"><ele>483.0</ele><time>2026-05-02T14:04:27.03Z</time></trkpt><trkpt lat="43.4863318" lon="10.6218613"><ele>481.99999999999994</ele><time>2026-05-02T14:04:31.034Z</time></trkpt><trkpt lat="43.4863534" lon="10.6219476"><ele>481.0</ele><time>2026-05-02T14:04:35.049Z</time></trkpt><trkpt lat="43.4863904" lon="10.6220372"><ele>480.0</ele><time>2026-05-02T14:04:40.047Z</time></trkpt><trkpt lat="43.4864305" lon="10.6221162"><ele>478.99999999999994</ele><time>2026-05-02T14:04:44.038Z</time></trkpt><trkpt lat="43.4864737" lon="10.6222089"><ele>478.0</ele><time>2026-05-02T14:04:49.019Z</time></trkpt><trkpt lat="43.4865132" lon="10.6222804"><ele>477.0</ele><time>2026-05-02T14:04:53.043Z</time></trkpt><trkpt lat="43.4865635" lon="10.6223527"><ele>477.0</ele><time>2026-05-02T14:04:58.064Z</time></trkpt><trkpt lat="43.4866136" lon="10.6224275"><ele>476.99999999999994</ele><time>2026-05-02T14:05:02.042Z</time></trkpt><trkpt lat="43.4866675" lon="10.6224967"><ele>477.0</ele><time>2026-05-02T14:05:06.026Z</time></trkpt><trkpt lat="43.4867293" lon="10.622555"><ele>477.0</ele><time>2026-05-02T14:05:10.034Z</time></trkpt><trkpt lat="43.4867858" lon="10.6226308"><ele>476.99999999999994</ele><time>2026-05-02T14:05:14.017Z</time></trkpt><trkpt lat="43.48683" lon="10.6227086"><ele>477.0</ele><time>2026-05-02T14:05:18.023Z</time></trkpt><trkpt lat="43.486879" lon="10.6227714"><ele>477.0</ele><time>2026-05-02T14:05:22.025Z</time></trkpt><trkpt lat="43.4869186" lon="10.6228509"><ele>475.85714285714283</ele><time>2026-05-02T14:05:27.029Z</time></trkpt><trkpt lat="43.4869579" lon="10.6229282"><ele>474.71428571428567</ele><time>2026-05-02T14:05:31.039Z</time></trkpt><trkpt lat="43.4870003" lon="10.6230041"><ele>473.57142857142856</ele><time>2026-05-02T14:05:35.022Z</time></trkpt><trkpt lat="43.4870269" lon="10.6230953"><ele>472.42857142857144</ele><time>2026-05-02T14:05:39.033Z</time></trkpt><trkpt lat="43.4870587" lon="10.6231966"><ele>471.2857142857143</ele><time>2026-05-02T14:05:44.032Z</time></trkpt><trkpt lat="43.4870996" lon="10.6232702"><ele>470.1428571428571</ele><time>2026-05-02T14:05:48.027Z</time></trkpt><trkpt lat="43.4871356" lon="10.6233452"><ele>469.0</ele><time>2026-05-02T14:05:51.038Z</time></trkpt><trkpt lat="43.4871835" lon="10.6234081"><ele>467.8571428571429</ele><time>2026-05-02T14:05:55.028Z</time></trkpt><trkpt lat="43.4872345" lon="10.623492"><ele>466.7142857142857</ele><time>2026-05-02T14:06:00.028Z</time></trkpt><trkpt lat="43.4872606" lon="10.6235742"><ele>465.57142857142856</ele><time>2026-05-02T14:06:05.018Z</time></trkpt><trkpt lat="43.4872784" lon="10.6236775"><ele>464.42857142857144</ele><time>2026-05-02T14:06:10.032Z</time></trkpt><trkpt lat="43.4872877" lon="10.6237789"><ele>463.28571428571433</ele><time>2026-05-02T14:06:14.019Z</time></trkpt><trkpt lat="43.4873192" lon="10.6238642"><ele>462.14285714285717</ele><time>2026-05-02T14:06:19.02Z</time></trkpt><trkpt lat="43.4873499" lon="10.6239557"><ele>461.0</ele><time>2026-05-02T14:06:24.019Z</time></trkpt><trkpt lat="43.4873945" lon="10.6240339"><ele>459.5714285714286</ele><time>2026-05-02T14:06:28.036Z</time></trkpt><trkpt lat="43.4874212" lon="10.6241157"><ele>458.1428571428572</ele><time>2026-05-02T14:06:32.025Z</time></trkpt><trkpt lat="43.4874533" lon="10.624211"><ele>456.7142857142857</ele><time>2026-05-02T14:06:37.026Z</time></trkpt><trkpt lat="43.4874901" lon="10.6242947"><ele>455.28571428571433</ele><time>2026-05-02T14:06:41.022Z</time></trkpt><trkpt lat="43.4875233" lon="10.6243849"><ele>453.8571428571429</ele><time>2026-05-02T14:06:46.022Z</time></trkpt><trkpt lat="43.4875452" lon="10.6244731"><ele>452.42857142857144</ele><time>2026-05-02T14:06:51.026Z</time></trkpt><trkpt lat="43.4875742" lon="10.6245575"><ele>451.0</ele><time>2026-05-02T14:06:56.029Z</time></trkpt><trkpt lat="43.4876034" lon="10.6246504"><ele>449.83333333333337</ele><time>2026-05-02T14:07:01.021Z</time></trkpt><trkpt lat="43.4876309" lon="10.6247353"><ele>448.6666666666667</ele><time>2026-05-02T14:07:05.03Z</time></trkpt><trkpt lat="43.4876586" lon="10.6248345"><ele>447.5</ele><time>2026-05-02T14:07:10.028Z</time></trkpt><trkpt lat="43.4876949" lon="10.6249285"><ele>446.33333333333337</ele><time>2026-05-02T14:07:14.015Z</time></trkpt><trkpt lat="43.4877404" lon="10.6249914"><ele>445.1666666666667</ele><time>2026-05-02T14:07:17.027Z</time></trkpt><trkpt lat="43.4878231" lon="10.6250702"><ele>444.0</ele><time>2026-05-02T14:07:20.029Z</time></trkpt><trkpt lat="43.4878871" lon="10.6251241"><ele>443.8333333333333</ele><time>2026-05-02T14:07:22.021Z</time></trkpt><trkpt lat="43.4879514" lon="10.6251975"><ele>443.66666666666663</ele><time>2026-05-02T14:07:24.032Z</time></trkpt><trkpt lat="43.4880055" lon="10.6252646"><ele>443.5</ele><time>2026-05-02T14:07:26.019Z</time></trkpt><trkpt lat="43.4880666" lon="10.6253331"><ele>443.3333333333333</ele><time>2026-05-02T14:07:28.035Z</time></trkpt><trkpt lat="43.4881391" lon="10.6253993"><ele>443.16666666666663</ele><time>2026-05-02T14:07:30.023Z</time></trkpt><trkpt lat="43.4882103" lon="10.6254558"><ele>443.0</ele><time>2026-05-02T14:07:32.019Z</time></trkpt><trkpt lat="43.4882832" lon="10.6255096"><ele>443.0</ele><time>2026-05-02T14:07:35.023Z</time></trkpt><trkpt lat="43.4883417" lon="10.6255537"><ele>442.99999999999994</ele><time>2026-05-02T14:07:38.016Z</time></trkpt><trkpt lat="43.4884291" lon="10.6255804"><ele>442.99999999999994</ele><time>2026-05-02T14:07:40.025Z</time></trkpt><trkpt lat="43.4885277" lon="10.6256237"><ele>443.0</ele><time>2026-05-02T14:07:42.025Z</time></trkpt><trkpt lat="43.4886213" lon="10.6256783"><ele>443.0</ele><time>2026-05-02T14:07:44.029Z</time></trkpt><trkpt lat="43.4887241" lon="10.6257128"><ele>437.59999999999997</ele><time>2026-05-02T14:07:46.023Z</time></trkpt><trkpt lat="43.4888166" lon="10.625742"><ele>432.19999999999993</ele><time>2026-05-02T14:07:48.036Z</time></trkpt><trkpt lat="43.4888965" lon="10.6258149"><ele>426.8</ele><time>2026-05-02T14:07:50.022Z</time></trkpt><trkpt lat="43.4889481" lon="10.6259127"><ele>421.4</ele><time>2026-05-02T14:07:52.031Z</time></trkpt><trkpt lat="43.4889988" lon="10.6260301"><ele>416.0</ele><time>2026-05-02T14:07:54.013Z</time></trkpt><trkpt lat="43.4890564" lon="10.6261448"><ele>416.49999999999994</ele><time>2026-05-02T14:07:56.031Z</time></trkpt><trkpt lat="43.4891045" lon="10.6262515"><ele>417.0</ele><time>2026-05-02T14:07:58.027Z</time></trkpt><trkpt lat="43.4891449" lon="10.6263617"><ele>417.5</ele><time>2026-05-02T14:08:00.022Z</time></trkpt><trkpt lat="43.4891832" lon="10.6264617"><ele>418.0</ele><time>2026-05-02T14:08:02.097Z</time></trkpt><trkpt lat="43.4892107" lon="10.6265732"><ele>418.49999999999994</ele><time>2026-05-02T14:08:04.027Z</time></trkpt><trkpt lat="43.4892409" lon="10.6266813"><ele>419.0</ele><time>2026-05-02T14:08:06.043Z</time></trkpt><trkpt lat="43.4892562" lon="10.6267723"><ele>418.99999999999994</ele><time>2026-05-02T14:08:08.018Z</time></trkpt><trkpt lat="43.4892696" lon="10.6268821"><ele>419.0</ele><time>2026-05-02T14:08:10.027Z</time></trkpt><trkpt lat="43.4892906" lon="10.6270085"><ele>419.0</ele><time>2026-05-02T14:08:12.026Z</time></trkpt><trkpt lat="43.4893038" lon="10.6271167"><ele>419.0</ele><time>2026-05-02T14:08:14.013Z</time></trkpt><trkpt lat="43.4893024" lon="10.627216"><ele>418.99999999999994</ele><time>2026-05-02T14:08:16.03Z</time></trkpt><trkpt lat="43.4892942" lon="10.6273118"><ele>419.0</ele><time>2026-05-02T14:08:19.034Z</time></trkpt><trkpt lat="43.4892679" lon="10.6274315"><ele>417.66666666666663</ele><time>2026-05-02T14:08:22.028Z</time></trkpt><trkpt lat="43.4892778" lon="10.6275248"><ele>416.3333333333333</ele><time>2026-05-02T14:08:24.067Z</time></trkpt><trkpt lat="43.4893361" lon="10.6275782"><ele>415.0</ele><time>2026-05-02T14:08:26.033Z</time></trkpt><trkpt lat="43.4894256" lon="10.627583"><ele>413.66666666666663</ele><time>2026-05-02T14:08:29.014Z</time></trkpt><trkpt lat="43.4895067" lon="10.6276282"><ele>412.3333333333333</ele><time>2026-05-02T14:08:32.027Z</time></trkpt><trkpt lat="43.4895453" lon="10.6276984"><ele>411.0</ele><time>2026-05-02T14:08:34.014Z</time></trkpt><trkpt lat="43.4895594" lon="10.627812"><ele>407.20000000000005</ele><time>2026-05-02T14:08:37.042Z</time></trkpt><trkpt lat="43.4895208" lon="10.6279331"><ele>403.40000000000003</ele><time>2026-05-02T14:08:40.025Z</time></trkpt><trkpt lat="43.4894678" lon="10.6279873"><ele>399.6</ele><time>2026-05-02T14:08:42.027Z</time></trkpt><trkpt lat="43.4893777" lon="10.6280448"><ele>395.8</ele><time>2026-05-02T14:08:44.032Z</time></trkpt><trkpt lat="43.4892785" lon="10.6281023"><ele>392.0</ele><time>2026-05-02T14:08:46.034Z</time></trkpt><trkpt lat="43.4891682" lon="10.6281361"><ele>392.0</ele><time>2026-05-02T14:08:48.027Z</time></trkpt><trkpt lat="43.4890555" lon="10.6281509"><ele>392.0</ele><time>2026-05-02T14:08:50.017Z</time></trkpt><trkpt lat="43.4889397" lon="10.6281611"><ele>392.0</ele><time>2026-05-02T14:08:52.033Z</time></trkpt><trkpt lat="43.4888358" lon="10.6281747"><ele>392.0</ele><time>2026-05-02T14:08:54.032Z</time></trkpt><trkpt lat="43.4887154" lon="10.6281933"><ele>391.6</ele><time>2026-05-02T14:08:56.039Z</time></trkpt><trkpt lat="43.4885836" lon="10.6282069"><ele>391.20000000000005</ele><time>2026-05-02T14:08:58.022Z</time></trkpt><trkpt lat="43.488515" lon="10.6282257"><ele>390.8</ele><time>2026-05-02T14:08:59.018Z</time></trkpt><trkpt lat="43.4884492" lon="10.6282504"><ele>390.4</ele><time>2026-05-02T14:09:00.027Z</time></trkpt><trkpt lat="43.4883251" lon="10.6282924"><ele>390.0</ele><time>2026-05-02T14:09:02.02Z</time></trkpt><trkpt lat="43.4882199" lon="10.6283266"><ele>390.0</ele><time>2026-05-02T14:09:04.014Z</time></trkpt><trkpt lat="43.4881568" lon="10.6283826"><ele>390.0</ele><time>2026-05-02T14:09:06.019Z</time></trkpt><trkpt lat="43.4881965" lon="10.6284779"><ele>390.0</ele><time>2026-05-02T14:09:09.041Z</time></trkpt><trkpt lat="43.4882496" lon="10.6285249"><ele>390.0</ele><time>2026-05-02T14:09:11.02Z</time></trkpt><trkpt lat="43.4883221" lon="10.628569"><ele>390.0</ele><time>2026-05-02T14:09:14.019Z</time></trkpt><trkpt lat="43.4884111" lon="10.6286225"><ele>390.0</ele><time>2026-05-02T14:09:17.016Z</time></trkpt><trkpt lat="43.4884812" lon="10.6286664"><ele>390.6</ele><time>2026-05-02T14:09:19.048Z</time></trkpt><trkpt lat="43.4885914" lon="10.6287235"><ele>391.2</ele><time>2026-05-02T14:09:21.02Z</time></trkpt><trkpt lat="43.4887068" lon="10.6287833"><ele>391.79999999999995</ele><time>2026-05-02T14:09:23.031Z</time></trkpt><trkpt lat="43.4887684" lon="10.6288242"><ele>392.4</ele><time>2026-05-02T14:09:24.019Z</time></trkpt><trkpt lat="43.4888349" lon="10.6288736"><ele>393.0</ele><time>2026-05-02T14:09:25.026Z</time></trkpt><trkpt lat="43.4888964" lon="10.6289346"><ele>391.8571428571429</ele><time>2026-05-02T14:09:26.022Z</time></trkpt><trkpt lat="43.4889609" lon="10.6290042"><ele>390.7142857142857</ele><time>2026-05-02T14:09:27.034Z</time></trkpt><trkpt lat="43.4890107" lon="10.6290708"><ele>389.57142857142856</ele><time>2026-05-02T14:09:28.039Z</time></trkpt><trkpt lat="43.4890619" lon="10.6291363"><ele>388.42857142857144</ele><time>2026-05-02T14:09:29.017Z</time></trkpt><trkpt lat="43.4891126" lon="10.6292149"><ele>387.2857142857143</ele><time>2026-05-02T14:09:30.016Z</time></trkpt><trkpt lat="43.4891649" lon="10.6292849"><ele>386.14285714285717</ele><time>2026-05-02T14:09:31.027Z</time></trkpt><trkpt lat="43.4892207" lon="10.6293612"><ele>385.0</ele><time>2026-05-02T14:09:32.013Z</time></trkpt><trkpt lat="43.4892761" lon="10.6294381"><ele>386.1666666666667</ele><time>2026-05-02T14:09:33.018Z</time></trkpt><trkpt lat="43.4893181" lon="10.6295081"><ele>387.33333333333337</ele><time>2026-05-02T14:09:34.01Z</time></trkpt><trkpt lat="43.4893665" lon="10.6295741"><ele>388.5</ele><time>2026-05-02T14:09:35.03Z</time></trkpt><trkpt lat="43.4894107" lon="10.6296441"><ele>389.66666666666663</ele><time>2026-05-02T14:09:36.03Z</time></trkpt><trkpt lat="43.4895205" lon="10.6297408"><ele>390.8333333333333</ele><time>2026-05-02T14:09:38.027Z</time></trkpt><trkpt lat="43.4895861" lon="10.6297615"><ele>392.0</ele><time>2026-05-02T14:09:39.028Z</time></trkpt><trkpt lat="43.4896508" lon="10.629779"><ele>391.99999999999994</ele><time>2026-05-02T14:09:40.009Z</time></trkpt><trkpt lat="43.4897145" lon="10.6297993"><ele>392.0</ele><time>2026-05-02T14:09:41.058Z</time></trkpt><trkpt lat="43.4898287" lon="10.6298602"><ele>392.0</ele><time>2026-05-02T14:09:43.006Z</time></trkpt><trkpt lat="43.4899318" lon="10.6299518"><ele>392.0</ele><time>2026-05-02T14:09:45.013Z</time></trkpt><trkpt lat="43.4899875" lon="10.6300026"><ele>391.99999999999994</ele><time>2026-05-02T14:09:46.011Z</time></trkpt><trkpt lat="43.4900447" lon="10.6300469"><ele>392.0</ele><time>2026-05-02T14:09:47.027Z</time></trkpt><trkpt lat="43.4900975" lon="10.6300953"><ele>392.0</ele><time>2026-05-02T14:09:48.027Z</time></trkpt><trkpt lat="43.4901765" lon="10.6301998"><ele>392.0</ele><time>2026-05-02T14:09:50.018Z</time></trkpt><trkpt lat="43.4902399" lon="10.6303062"><ele>392.0</ele><time>2026-05-02T14:09:52.015Z</time></trkpt><trkpt lat="43.4902828" lon="10.6304282"><ele>392.0</ele><time>2026-05-02T14:09:54.028Z</time></trkpt><trkpt lat="43.4903232" lon="10.6305141"><ele>392.0</ele><time>2026-05-02T14:09:56.025Z</time></trkpt><trkpt lat="43.4903646" lon="10.6306028"><ele>393.20000000000005</ele><time>2026-05-02T14:09:59.03Z</time></trkpt><trkpt lat="43.4904158" lon="10.630727"><ele>394.4</ele><time>2026-05-02T14:10:02.076Z</time></trkpt><trkpt lat="43.4904477" lon="10.6308452"><ele>395.6</ele><time>2026-05-02T14:10:04.071Z</time></trkpt><trkpt lat="43.4904794" lon="10.6309835"><ele>396.79999999999995</ele><time>2026-05-02T14:10:06.07Z</time></trkpt><trkpt lat="43.4905242" lon="10.6310916"><ele>398.0</ele><time>2026-05-02T14:10:08.086Z</time></trkpt><trkpt lat="43.490586" lon="10.6312136"><ele>398.2</ele><time>2026-05-02T14:10:10.085Z</time></trkpt><trkpt lat="43.4906512" lon="10.6313268"><ele>398.4</ele><time>2026-05-02T14:10:12.094Z</time></trkpt><trkpt lat="43.4907097" lon="10.6314521"><ele>398.59999999999997</ele><time>2026-05-02T14:10:14.087Z</time></trkpt><trkpt lat="43.4907748" lon="10.631574"><ele>398.79999999999995</ele><time>2026-05-02T14:10:16.072Z</time></trkpt><trkpt lat="43.4908437" lon="10.6316772"><ele>399.0</ele><time>2026-05-02T14:10:18.071Z</time></trkpt><trkpt lat="43.4909053" lon="10.631764"><ele>399.0</ele><time>2026-05-02T14:10:20.071Z</time></trkpt><trkpt lat="43.4909561" lon="10.6318553"><ele>399.0</ele><time>2026-05-02T14:10:22.07Z</time></trkpt><trkpt lat="43.4910167" lon="10.6319569"><ele>399.0</ele><time>2026-05-02T14:10:24.07Z</time></trkpt><trkpt lat="43.4910872" lon="10.6320508"><ele>399.0</ele><time>2026-05-02T14:10:26.071Z</time></trkpt><trkpt lat="43.491159" lon="10.6321533"><ele>399.0</ele><time>2026-05-02T14:10:28.074Z</time></trkpt><trkpt lat="43.4912314" lon="10.632263"><ele>397.6666666666667</ele><time>2026-05-02T14:10:30.072Z</time></trkpt><trkpt lat="43.491282" lon="10.6323148"><ele>396.33333333333337</ele><time>2026-05-02T14:10:31.07Z</time></trkpt><trkpt lat="43.4913425" lon="10.6323973"><ele>395.0</ele><time>2026-05-02T14:10:33.06Z</time></trkpt><trkpt lat="43.4914037" lon="10.632484"><ele>393.6666666666667</ele><time>2026-05-02T14:10:35.061Z</time></trkpt><trkpt lat="43.4914669" lon="10.6325904"><ele>392.33333333333337</ele><time>2026-05-02T14:10:37.065Z</time></trkpt><trkpt lat="43.4915371" lon="10.6326933"><ele>391.0</ele><time>2026-05-02T14:10:39.078Z</time></trkpt><trkpt lat="43.4916247" lon="10.632799"><ele>387.33333333333337</ele><time>2026-05-02T14:10:41.072Z</time></trkpt><trkpt lat="43.4917353" lon="10.6328931"><ele>383.6666666666667</ele><time>2026-05-02T14:10:43.08Z</time></trkpt><trkpt lat="43.4918023" lon="10.6329395"><ele>380.0</ele><time>2026-05-02T14:10:44.07Z</time></trkpt><trkpt lat="43.4918668" lon="10.6329989"><ele>376.33333333333337</ele><time>2026-05-02T14:10:45.074Z</time></trkpt><trkpt lat="43.4919305" lon="10.6330638"><ele>372.6666666666667</ele><time>2026-05-02T14:10:46.076Z</time></trkpt><trkpt lat="43.49199" lon="10.6331405"><ele>369.0</ele><time>2026-05-02T14:10:47.074Z</time></trkpt><trkpt lat="43.4920506" lon="10.6332294"><ele>370.3333333333333</ele><time>2026-05-02T14:10:48.073Z</time></trkpt><trkpt lat="43.4921078" lon="10.6333239"><ele>371.6666666666667</ele><time>2026-05-02T14:10:49.068Z</time></trkpt><trkpt lat="43.4921809" lon="10.6334063"><ele>373.0</ele><time>2026-05-02T14:10:50.086Z</time></trkpt><trkpt lat="43.4922464" lon="10.6334842"><ele>374.33333333333337</ele><time>2026-05-02T14:10:51.063Z</time></trkpt><trkpt lat="43.4923084" lon="10.633557"><ele>375.6666666666667</ele><time>2026-05-02T14:10:52.077Z</time></trkpt><trkpt lat="43.4923695" lon="10.6336272"><ele>377.0</ele><time>2026-05-02T14:10:53.075Z</time></trkpt><trkpt lat="43.492429" lon="10.633692"><ele>374.33333333333337</ele><time>2026-05-02T14:10:54.066Z</time></trkpt><trkpt lat="43.4924832" lon="10.6337445"><ele>371.6666666666667</ele><time>2026-05-02T14:10:55.08Z</time></trkpt><trkpt lat="43.4925887" lon="10.6337914"><ele>369.0</ele><time>2026-05-02T14:10:57.065Z</time></trkpt><trkpt lat="43.492701" lon="10.6338501"><ele>366.3333333333333</ele><time>2026-05-02T14:10:59.063Z</time></trkpt><trkpt lat="43.4927559" lon="10.6338953"><ele>363.66666666666663</ele><time>2026-05-02T14:11:00.071Z</time></trkpt><trkpt lat="43.4928056" lon="10.6339508"><ele>361.0</ele><time>2026-05-02T14:11:01.067Z</time></trkpt><trkpt lat="43.4928478" lon="10.6340164"><ele>361.0</ele><time>2026-05-02T14:11:02.064Z</time></trkpt><trkpt lat="43.4928824" lon="10.6340891"><ele>361.0</ele><time>2026-05-02T14:11:03.065Z</time></trkpt><trkpt lat="43.492911" lon="10.6341816"><ele>361.0</ele><time>2026-05-02T14:11:04.06Z</time></trkpt><trkpt lat="43.4929394" lon="10.6342716"><ele>361.0</ele><time>2026-05-02T14:11:05.064Z</time></trkpt><trkpt lat="43.4929608" lon="10.6343682"><ele>361.0</ele><time>2026-05-02T14:11:06.062Z</time></trkpt><trkpt lat="43.4929863" lon="10.6344521"><ele>361.0</ele><time>2026-05-02T14:11:07.062Z</time></trkpt><trkpt lat="43.4930053" lon="10.6345414"><ele>361.0</ele><time>2026-05-02T14:11:08.081Z</time></trkpt><trkpt lat="43.4930277" lon="10.6346259"><ele>361.8</ele><time>2026-05-02T14:11:09.061Z</time></trkpt><trkpt lat="43.4930885" lon="10.6347548"><ele>362.6</ele><time>2026-05-02T14:11:11.068Z</time></trkpt><trkpt lat="43.4931468" lon="10.6348912"><ele>363.4</ele><time>2026-05-02T14:11:13.069Z</time></trkpt><trkpt lat="43.4932094" lon="10.6350478"><ele>364.2</ele><time>2026-05-02T14:11:15.059Z</time></trkpt><trkpt lat="43.4932483" lon="10.6351323"><ele>365.0</ele><time>2026-05-02T14:11:16.08Z</time></trkpt><trkpt lat="43.493295" lon="10.6352145"><ele>365.0</ele><time>2026-05-02T14:11:17.071Z</time></trkpt><trkpt lat="43.4933436" lon="10.6352992"><ele>365.0</ele><time>2026-05-02T14:11:18.074Z</time></trkpt><trkpt lat="43.4933932" lon="10.6353793"><ele>365.0</ele><time>2026-05-02T14:11:19.069Z</time></trkpt><trkpt lat="43.4934512" lon="10.6354482"><ele>365.0</ele><time>2026-05-02T14:11:20.073Z</time></trkpt><trkpt lat="43.4934983" lon="10.6355208"><ele>365.0</ele><time>2026-05-02T14:11:21.073Z</time></trkpt><trkpt lat="43.4935442" lon="10.6355846"><ele>365.0</ele><time>2026-05-02T14:11:22.065Z</time></trkpt><trkpt lat="43.4936101" lon="10.635687"><ele>363.6</ele><time>2026-05-02T14:11:24.072Z</time></trkpt><trkpt lat="43.4936728" lon="10.6357459"><ele>362.2</ele><time>2026-05-02T14:11:27.08Z</time></trkpt><trkpt lat="43.4937476" lon="10.6358391"><ele>360.79999999999995</ele><time>2026-05-02T14:11:30.067Z</time></trkpt><trkpt lat="43.4938229" lon="10.6359289"><ele>359.4</ele><time>2026-05-02T14:11:32.069Z</time></trkpt><trkpt lat="43.4939037" lon="10.6360294"><ele>358.0</ele><time>2026-05-02T14:11:34.078Z</time></trkpt><trkpt lat="43.4939842" lon="10.6361221"><ele>356.5</ele><time>2026-05-02T14:11:36.072Z</time></trkpt><trkpt lat="43.4940707" lon="10.6362156"><ele>355.0</ele><time>2026-05-02T14:11:38.092Z</time></trkpt><trkpt lat="43.4941669" lon="10.636331"><ele>353.5</ele><time>2026-05-02T14:11:40.069Z</time></trkpt><trkpt lat="43.4942229" lon="10.6363875"><ele>352.0</ele><time>2026-05-02T14:11:41.075Z</time></trkpt><trkpt lat="43.4942782" lon="10.6364499"><ele>350.5</ele><time>2026-05-02T14:11:42.076Z</time></trkpt><trkpt lat="43.4943328" lon="10.6365087"><ele>349.0</ele><time>2026-05-02T14:11:43.068Z</time></trkpt><trkpt lat="43.4943874" lon="10.6365689"><ele>349.0</ele><time>2026-05-02T14:11:44.074Z</time></trkpt><trkpt lat="43.4944484" lon="10.6366257"><ele>349.0</ele><time>2026-05-02T14:11:45.072Z</time></trkpt><trkpt lat="43.4945055" lon="10.6366954"><ele>349.0</ele><time>2026-05-02T14:11:46.068Z</time></trkpt><trkpt lat="43.4945517" lon="10.6367683"><ele>349.0</ele><time>2026-05-02T14:11:47.066Z</time></trkpt><trkpt lat="43.4946298" lon="10.6368883"><ele>349.0</ele><time>2026-05-02T14:11:49.077Z</time></trkpt><trkpt lat="43.4947055" lon="10.6369852"><ele>349.0</ele><time>2026-05-02T14:11:51.076Z</time></trkpt><trkpt lat="43.4947658" lon="10.6370629"><ele>347.66666666666663</ele><time>2026-05-02T14:11:53.072Z</time></trkpt><trkpt lat="43.4948071" lon="10.6371349"><ele>346.3333333333333</ele><time>2026-05-02T14:11:55.075Z</time></trkpt><trkpt lat="43.494828" lon="10.6372217"><ele>345.0</ele><time>2026-05-02T14:11:58.068Z</time></trkpt><trkpt lat="43.4948092" lon="10.6373115"><ele>343.6666666666667</ele><time>2026-05-02T14:12:02.072Z</time></trkpt><trkpt lat="43.4947311" lon="10.6374264"><ele>342.33333333333337</ele><time>2026-05-02T14:12:09.095Z</time></trkpt><trkpt lat="43.4946482" lon="10.6375334"><ele>341.0</ele><time>2026-05-02T14:12:11.073Z</time></trkpt><trkpt lat="43.4945692" lon="10.6376288"><ele>341.0</ele><time>2026-05-02T14:12:13.109Z</time></trkpt><trkpt lat="43.494494" lon="10.6377013"><ele>341.0</ele><time>2026-05-02T14:12:15.075Z</time></trkpt><trkpt lat="43.4944205" lon="10.6377624"><ele>341.0</ele><time>2026-05-02T14:12:17.078Z</time></trkpt><trkpt lat="43.4943377" lon="10.6378011"><ele>341.0</ele><time>2026-05-02T14:12:19.084Z</time></trkpt><trkpt lat="43.4942566" lon="10.6378484"><ele>341.0</ele><time>2026-05-02T14:12:21.09Z</time></trkpt><trkpt lat="43.4941724" lon="10.6378911"><ele>341.0</ele><time>2026-05-02T14:12:23.081Z</time></trkpt><trkpt lat="43.4940748" lon="10.6379375"><ele>340.8</ele><time>2026-05-02T14:12:25.088Z</time></trkpt><trkpt lat="43.4939759" lon="10.6379684"><ele>340.6</ele><time>2026-05-02T14:12:27.088Z</time></trkpt><trkpt lat="43.4938788" lon="10.6379655"><ele>340.4</ele><time>2026-05-02T14:12:29.083Z</time></trkpt><trkpt lat="43.4938018" lon="10.6379063"><ele>340.2</ele><time>2026-05-02T14:12:31.099Z</time></trkpt><trkpt lat="43.4937422" lon="10.6378124"><ele>340.0</ele><time>2026-05-02T14:12:33.076Z</time></trkpt><trkpt lat="43.4936917" lon="10.6377083"><ele>340.0</ele><time>2026-05-02T14:12:35.085Z</time></trkpt><trkpt lat="43.4936456" lon="10.6376063"><ele>340.0</ele><time>2026-05-02T14:12:37.081Z</time></trkpt><trkpt lat="43.4936022" lon="10.6375104"><ele>340.0</ele><time>2026-05-02T14:12:39.08Z</time></trkpt><trkpt lat="43.4935516" lon="10.6374059"><ele>340.0</ele><time>2026-05-02T14:12:41.082Z</time></trkpt><trkpt lat="43.4934972" lon="10.6372889"><ele>340.0</ele><time>2026-05-02T14:12:43.08Z</time></trkpt><trkpt lat="43.493446" lon="10.6371815"><ele>340.0</ele><time>2026-05-02T14:12:45.075Z</time></trkpt><trkpt lat="43.4933963" lon="10.6371133"><ele>340.0</ele><time>2026-05-02T14:12:47.078Z</time></trkpt><trkpt lat="43.4933245" lon="10.6371671"><ele>340.0</ele><time>2026-05-02T14:12:50.087Z</time></trkpt><trkpt lat="43.4933382" lon="10.6372594"><ele>340.0</ele><time>2026-05-02T14:12:52.08Z</time></trkpt><trkpt lat="43.493417" lon="10.637351"><ele>340.0</ele><time>2026-05-02T14:12:54.081Z</time></trkpt><trkpt lat="43.4935184" lon="10.6374353"><ele>340.0</ele><time>2026-05-02T14:12:56.082Z</time></trkpt><trkpt lat="43.493598" lon="10.6375297"><ele>340.0</ele><time>2026-05-02T14:12:58.086Z</time></trkpt><trkpt lat="43.493635" lon="10.6376734"><ele>340.0</ele><time>2026-05-02T14:13:00.083Z</time></trkpt><trkpt lat="43.4936421" lon="10.6378128"><ele>340.0</ele><time>2026-05-02T14:13:02.093Z</time></trkpt><trkpt lat="43.4936686" lon="10.637948"><ele>340.0</ele><time>2026-05-02T14:13:04.078Z</time></trkpt><trkpt lat="43.4937171" lon="10.6380773"><ele>340.0</ele><time>2026-05-02T14:13:06.077Z</time></trkpt><trkpt lat="43.4937576" lon="10.638151"><ele>337.2</ele><time>2026-05-02T14:13:07.075Z</time></trkpt><trkpt lat="43.4938092" lon="10.6382061"><ele>334.4</ele><time>2026-05-02T14:13:08.115Z</time></trkpt><trkpt lat="43.493921" lon="10.6382627"><ele>331.6</ele><time>2026-05-02T14:13:10.071Z</time></trkpt><trkpt lat="43.4940539" lon="10.6382623"><ele>328.8</ele><time>2026-05-02T14:13:12.098Z</time></trkpt><trkpt lat="43.4941325" lon="10.6382621"><ele>326.0</ele><time>2026-05-02T14:13:13.077Z</time></trkpt><trkpt lat="43.4942061" lon="10.6382531"><ele>326.0</ele><time>2026-05-02T14:13:14.074Z</time></trkpt><trkpt lat="43.4942754" lon="10.6382377"><ele>326.0</ele><time>2026-05-02T14:13:15.084Z</time></trkpt><trkpt lat="43.4943388" lon="10.6382176"><ele>326.0</ele><time>2026-05-02T14:13:16.086Z</time></trkpt><trkpt lat="43.4944044" lon="10.6381881"><ele>326.0</ele><time>2026-05-02T14:13:17.092Z</time></trkpt><trkpt lat="43.4944673" lon="10.6381475"><ele>326.0</ele><time>2026-05-02T14:13:18.102Z</time></trkpt><trkpt lat="43.4945351" lon="10.6380998"><ele>326.0</ele><time>2026-05-02T14:13:19.086Z</time></trkpt><trkpt lat="43.4945968" lon="10.6380462"><ele>326.0</ele><time>2026-05-02T14:13:20.073Z</time></trkpt><trkpt lat="43.4946598" lon="10.6379829"><ele>324.6666666666667</ele><time>2026-05-02T14:13:21.087Z</time></trkpt><trkpt lat="43.494722" lon="10.6379155"><ele>323.33333333333337</ele><time>2026-05-02T14:13:22.089Z</time></trkpt><trkpt lat="43.4947852" lon="10.6378445"><ele>322.0</ele><time>2026-05-02T14:13:23.078Z</time></trkpt><trkpt lat="43.4948516" lon="10.6377804"><ele>320.6666666666667</ele><time>2026-05-02T14:13:24.087Z</time></trkpt><trkpt lat="43.4949229" lon="10.6377213"><ele>319.3333333333333</ele><time>2026-05-02T14:13:25.082Z</time></trkpt><trkpt lat="43.4949948" lon="10.6376779"><ele>318.0</ele><time>2026-05-02T14:13:26.088Z</time></trkpt><trkpt lat="43.4950664" lon="10.6376596"><ele>318.0</ele><time>2026-05-02T14:13:27.087Z</time></trkpt><trkpt lat="43.4951336" lon="10.6376788"><ele>318.0</ele><time>2026-05-02T14:13:28.076Z</time></trkpt><trkpt lat="43.4951927" lon="10.6377336"><ele>318.0</ele><time>2026-05-02T14:13:29.079Z</time></trkpt><trkpt lat="43.4952363" lon="10.6378001"><ele>318.0</ele><time>2026-05-02T14:13:30.09Z</time></trkpt><trkpt lat="43.4952945" lon="10.6379227"><ele>318.0</ele><time>2026-05-02T14:13:32.081Z</time></trkpt><trkpt lat="43.4953895" lon="10.637959"><ele>318.0</ele><time>2026-05-02T14:13:34.075Z</time></trkpt><trkpt lat="43.4954961" lon="10.6379166"><ele>319.4</ele><time>2026-05-02T14:13:36.078Z</time></trkpt><trkpt lat="43.4955905" lon="10.6378275"><ele>320.8</ele><time>2026-05-02T14:13:38.071Z</time></trkpt><trkpt lat="43.4956732" lon="10.6377125"><ele>322.2</ele><time>2026-05-02T14:13:40.075Z</time></trkpt><trkpt lat="43.4957116" lon="10.6376416"><ele>323.6</ele><time>2026-05-02T14:13:41.079Z</time></trkpt><trkpt lat="43.4957926" lon="10.6375114"><ele>325.0</ele><time>2026-05-02T14:13:43.075Z</time></trkpt><trkpt lat="43.4958789" lon="10.6373932"><ele>325.0</ele><time>2026-05-02T14:13:45.086Z</time></trkpt><trkpt lat="43.4959416" lon="10.6373532"><ele>325.0</ele><time>2026-05-02T14:13:46.087Z</time></trkpt><trkpt lat="43.4960024" lon="10.6373263"><ele>325.0</ele><time>2026-05-02T14:13:47.071Z</time></trkpt><trkpt lat="43.4961227" lon="10.6372933"><ele>325.0</ele><time>2026-05-02T14:13:49.079Z</time></trkpt><trkpt lat="43.4961871" lon="10.6372804"><ele>325.0</ele><time>2026-05-02T14:13:50.07Z</time></trkpt><trkpt lat="43.4962673" lon="10.6372687"><ele>325.0</ele><time>2026-05-02T14:13:51.073Z</time></trkpt><trkpt lat="43.4963685" lon="10.6371654"><ele>323.85714285714283</ele><time>2026-05-02T14:13:53.123Z</time></trkpt><trkpt lat="43.4964129" lon="10.6370946"><ele>322.7142857142857</ele><time>2026-05-02T14:13:54.085Z</time></trkpt><trkpt lat="43.4964602" lon="10.6370137"><ele>321.57142857142856</ele><time>2026-05-02T14:13:55.085Z</time></trkpt><trkpt lat="43.496507" lon="10.6369176"><ele>320.42857142857144</ele><time>2026-05-02T14:13:56.103Z</time></trkpt><trkpt lat="43.4965377" lon="10.6368344"><ele>319.2857142857143</ele><time>2026-05-02T14:13:57.081Z</time></trkpt><trkpt lat="43.4965733" lon="10.6367481"><ele>318.14285714285717</ele><time>2026-05-02T14:13:58.091Z</time></trkpt><trkpt lat="43.4966045" lon="10.6366554"><ele>317.0</ele><time>2026-05-02T14:13:59.09Z</time></trkpt><trkpt lat="43.4966256" lon="10.6365551"><ele>317.0</ele><time>2026-05-02T14:14:00.109Z</time></trkpt><trkpt lat="43.4966303" lon="10.6364685"><ele>317.0</ele><time>2026-05-02T14:14:01.085Z</time></trkpt><trkpt lat="43.4966296" lon="10.6363708"><ele>317.0</ele><time>2026-05-02T14:14:02.084Z</time></trkpt><trkpt lat="43.4966326" lon="10.6362837"><ele>317.0</ele><time>2026-05-02T14:14:03.084Z</time></trkpt><trkpt lat="43.496675" lon="10.636177"><ele>317.0</ele><time>2026-05-02T14:14:05.08Z</time></trkpt><trkpt lat="43.4967744" lon="10.6361928"><ele>317.0</ele><time>2026-05-02T14:14:07.079Z</time></trkpt><trkpt lat="43.496831" lon="10.6362465"><ele>317.0</ele><time>2026-05-02T14:14:08.075Z</time></trkpt><trkpt lat="43.4969241" lon="10.6363487"><ele>317.0</ele><time>2026-05-02T14:14:10.087Z</time></trkpt><trkpt lat="43.4970304" lon="10.6363444"><ele>317.0</ele><time>2026-05-02T14:14:12.101Z</time></trkpt><trkpt lat="43.4971004" lon="10.6362175"><ele>317.0</ele><time>2026-05-02T14:14:14.085Z</time></trkpt><trkpt lat="43.4971102" lon="10.6361134"><ele>317.0</ele><time>2026-05-02T14:14:15.106Z</time></trkpt><trkpt lat="43.4970892" lon="10.6359453"><ele>314.1666666666667</ele><time>2026-05-02T14:14:17.078Z</time></trkpt><trkpt lat="43.497088" lon="10.6358527"><ele>311.33333333333337</ele><time>2026-05-02T14:14:18.083Z</time></trkpt><trkpt lat="43.4970974" lon="10.635757"><ele>308.5</ele><time>2026-05-02T14:14:19.092Z</time></trkpt><trkpt lat="43.4971224" lon="10.6356678"><ele>305.6666666666667</ele><time>2026-05-02T14:14:20.103Z</time></trkpt><trkpt lat="43.4972122" lon="10.6355636"><ele>302.8333333333333</ele><time>2026-05-02T14:14:22.089Z</time></trkpt><trkpt lat="43.4972739" lon="10.6355213"><ele>300.0</ele><time>2026-05-02T14:14:23.08Z</time></trkpt><trkpt lat="43.4973302" lon="10.6354648"><ele>299.99999999999994</ele><time>2026-05-02T14:14:24.075Z</time></trkpt><trkpt lat="43.4973748" lon="10.6353907"><ele>300.0</ele><time>2026-05-02T14:14:25.098Z</time></trkpt><trkpt lat="43.4974145" lon="10.635307"><ele>300.0</ele><time>2026-05-02T14:14:26.078Z</time></trkpt><trkpt lat="43.4974597" lon="10.6352162"><ele>300.0</ele><time>2026-05-02T14:14:27.077Z</time></trkpt><trkpt lat="43.4975137" lon="10.6351453"><ele>300.0</ele><time>2026-05-02T14:14:28.06Z</time></trkpt><trkpt lat="43.4975749" lon="10.6350813"><ele>299.99999999999994</ele><time>2026-05-02T14:14:29.085Z</time></trkpt><trkpt lat="43.4976445" lon="10.6350426"><ele>300.0</ele><time>2026-05-02T14:14:30.075Z</time></trkpt><trkpt lat="43.4977211" lon="10.6350323"><ele>299.0</ele><time>2026-05-02T14:14:31.074Z</time></trkpt><trkpt lat="43.4977928" lon="10.6350543"><ele>298.0</ele><time>2026-05-02T14:14:32.084Z</time></trkpt><trkpt lat="43.4978702" lon="10.6350917"><ele>297.0</ele><time>2026-05-02T14:14:33.084Z</time></trkpt><trkpt lat="43.497948" lon="10.6351147"><ele>296.0</ele><time>2026-05-02T14:14:34.094Z</time></trkpt><trkpt lat="43.4980233" lon="10.6351333"><ele>295.0</ele><time>2026-05-02T14:14:35.084Z</time></trkpt><trkpt lat="43.4981006" lon="10.6351281"><ele>294.0</ele><time>2026-05-02T14:14:36.098Z</time></trkpt><trkpt lat="43.4981889" lon="10.6351018"><ele>294.0</ele><time>2026-05-02T14:14:37.077Z</time></trkpt><trkpt lat="43.4982706" lon="10.6350555"><ele>294.0</ele><time>2026-05-02T14:14:38.098Z</time></trkpt><trkpt lat="43.4983432" lon="10.6349911"><ele>294.0</ele><time>2026-05-02T14:14:39.078Z</time></trkpt><trkpt lat="43.4984027" lon="10.6349198"><ele>294.0</ele><time>2026-05-02T14:14:40.092Z</time></trkpt><trkpt lat="43.4984645" lon="10.6348354"><ele>294.0</ele><time>2026-05-02T14:14:41.082Z</time></trkpt><trkpt lat="43.4985298" lon="10.6347593"><ele>294.0</ele><time>2026-05-02T14:14:42.089Z</time></trkpt><trkpt lat="43.4986" lon="10.634692"><ele>294.0</ele><time>2026-05-02T14:14:43.081Z</time></trkpt><trkpt lat="43.4986769" lon="10.6346423"><ele>294.0</ele><time>2026-05-02T14:14:44.085Z</time></trkpt><trkpt lat="43.4987598" lon="10.6346026"><ele>294.0</ele><time>2026-05-02T14:14:45.088Z</time></trkpt><trkpt lat="43.4988447" lon="10.634574"><ele>294.0</ele><time>2026-05-02T14:14:46.085Z</time></trkpt><trkpt lat="43.4989312" lon="10.6345499"><ele>294.0</ele><time>2026-05-02T14:14:47.089Z</time></trkpt><trkpt lat="43.4990215" lon="10.6345268"><ele>294.0</ele><time>2026-05-02T14:14:48.07Z</time></trkpt><trkpt lat="43.499099" lon="10.634502"><ele>292.3333333333333</ele><time>2026-05-02T14:14:49.09Z</time></trkpt><trkpt lat="43.4991701" lon="10.6344619"><ele>290.6666666666667</ele><time>2026-05-02T14:14:50.088Z</time></trkpt><trkpt lat="43.4992326" lon="10.6344101"><ele>289.0</ele><time>2026-05-02T14:14:51.101Z</time></trkpt><trkpt lat="43.4992874" lon="10.6343517"><ele>287.33333333333337</ele><time>2026-05-02T14:14:52.091Z</time></trkpt><trkpt lat="43.4993751" lon="10.6342599"><ele>285.6666666666667</ele><time>2026-05-02T14:14:54.078Z</time></trkpt><trkpt lat="43.4994682" lon="10.6342757"><ele>284.0</ele><time>2026-05-02T14:14:56.08Z</time></trkpt><trkpt lat="43.4995185" lon="10.6343339"><ele>284.0</ele><time>2026-05-02T14:14:57.083Z</time></trkpt><trkpt lat="43.4995489" lon="10.6344175"><ele>284.0</ele><time>2026-05-02T14:14:58.087Z</time></trkpt><trkpt lat="43.4995571" lon="10.6345117"><ele>284.0</ele><time>2026-05-02T14:14:59.086Z</time></trkpt><trkpt lat="43.4995331" lon="10.6346013"><ele>284.0</ele><time>2026-05-02T14:15:00.087Z</time></trkpt><trkpt lat="43.4994983" lon="10.6346791"><ele>284.0</ele><time>2026-05-02T14:15:01.087Z</time></trkpt><trkpt lat="43.4994631" lon="10.634762"><ele>284.0</ele><time>2026-05-02T14:15:02.08Z</time></trkpt><trkpt lat="43.4994362" lon="10.63485"><ele>284.0</ele><time>2026-05-02T14:15:03.081Z</time></trkpt><trkpt lat="43.4994123" lon="10.6349401"><ele>282.83333333333337</ele><time>2026-05-02T14:15:04.091Z</time></trkpt><trkpt lat="43.4993907" lon="10.6350369"><ele>281.6666666666667</ele><time>2026-05-02T14:15:05.087Z</time></trkpt><trkpt lat="43.4993732" lon="10.6351372"><ele>280.5</ele><time>2026-05-02T14:15:06.075Z</time></trkpt><trkpt lat="43.4993538" lon="10.6352386"><ele>279.3333333333333</ele><time>2026-05-02T14:15:07.082Z</time></trkpt><trkpt lat="43.4993315" lon="10.6353401"><ele>278.16666666666663</ele><time>2026-05-02T14:15:08.083Z</time></trkpt><trkpt lat="43.4993059" lon="10.6354373"><ele>277.0</ele><time>2026-05-02T14:15:09.084Z</time></trkpt><trkpt lat="43.4992693" lon="10.6355293"><ele>273.5</ele><time>2026-05-02T14:15:10.078Z</time></trkpt><trkpt lat="43.4992233" lon="10.6356079"><ele>270.0</ele><time>2026-05-02T14:15:11.088Z</time></trkpt><trkpt lat="43.4991617" lon="10.6356694"><ele>266.5</ele><time>2026-05-02T14:15:12.074Z</time></trkpt><trkpt lat="43.4990899" lon="10.6357234"><ele>263.0</ele><time>2026-05-02T14:15:13.079Z</time></trkpt><trkpt lat="43.4990169" lon="10.6357775"><ele>259.5</ele><time>2026-05-02T14:15:14.077Z</time></trkpt><trkpt lat="43.4989371" lon="10.6358241"><ele>256.0</ele><time>2026-05-02T14:15:15.073Z</time></trkpt><trkpt lat="43.4988551" lon="10.6358743"><ele>255.99999999999997</ele><time>2026-05-02T14:15:16.076Z</time></trkpt><trkpt lat="43.4987741" lon="10.6359218"><ele>256.0</ele><time>2026-05-02T14:15:17.076Z</time></trkpt><trkpt lat="43.4986915" lon="10.6359704"><ele>256.0</ele><time>2026-05-02T14:15:18.079Z</time></trkpt><trkpt lat="43.4986098" lon="10.636022"><ele>256.0</ele><time>2026-05-02T14:15:19.072Z</time></trkpt><trkpt lat="43.4985269" lon="10.6360611"><ele>255.99999999999997</ele><time>2026-05-02T14:15:20.066Z</time></trkpt><trkpt lat="43.4984558" lon="10.6361113"><ele>256.0</ele><time>2026-05-02T14:15:21.077Z</time></trkpt><trkpt lat="43.4983857" lon="10.6361579"><ele>256.16666666666663</ele><time>2026-05-02T14:15:22.07Z</time></trkpt><trkpt lat="43.4983202" lon="10.6362159"><ele>256.3333333333333</ele><time>2026-05-02T14:15:23.076Z</time></trkpt><trkpt lat="43.498272" lon="10.636305"><ele>256.5</ele><time>2026-05-02T14:15:24.072Z</time></trkpt><trkpt lat="43.4982452" lon="10.6364105"><ele>256.6666666666667</ele><time>2026-05-02T14:15:25.073Z</time></trkpt><trkpt lat="43.4982644" lon="10.6365377"><ele>256.83333333333337</ele><time>2026-05-02T14:15:26.078Z</time></trkpt><trkpt lat="43.4982863" lon="10.6366712"><ele>257.0</ele><time>2026-05-02T14:15:27.094Z</time></trkpt><trkpt lat="43.4982983" lon="10.6367942"><ele>257.0</ele><time>2026-05-02T14:15:28.073Z</time></trkpt><trkpt lat="43.4983232" lon="10.6368977"><ele>257.0</ele><time>2026-05-02T14:15:29.079Z</time></trkpt><trkpt lat="43.4983556" lon="10.6369985"><ele>257.0</ele><time>2026-05-02T14:15:30.07Z</time></trkpt><trkpt lat="43.4984116" lon="10.6370784"><ele>257.0</ele><time>2026-05-02T14:15:31.077Z</time></trkpt><trkpt lat="43.4984831" lon="10.6371329"><ele>257.0</ele><time>2026-05-02T14:15:32.079Z</time></trkpt><trkpt lat="43.4985681" lon="10.6371721"><ele>257.0</ele><time>2026-05-02T14:15:33.076Z</time></trkpt><trkpt lat="43.4986547" lon="10.6372091"><ele>255.83333333333334</ele><time>2026-05-02T14:15:34.086Z</time></trkpt><trkpt lat="43.498738" lon="10.6372509"><ele>254.66666666666669</ele><time>2026-05-02T14:15:35.076Z</time></trkpt><trkpt lat="43.4988174" lon="10.6372846"><ele>253.5</ele><time>2026-05-02T14:15:36.084Z</time></trkpt><trkpt lat="43.4988982" lon="10.6373146"><ele>252.33333333333331</ele><time>2026-05-02T14:15:37.082Z</time></trkpt><trkpt lat="43.498985" lon="10.637321"><ele>251.16666666666666</ele><time>2026-05-02T14:15:38.092Z</time></trkpt><trkpt lat="43.4990691" lon="10.6372948"><ele>250.0</ele><time>2026-05-02T14:15:39.085Z</time></trkpt><trkpt lat="43.4991525" lon="10.6372493"><ele>246.66666666666666</ele><time>2026-05-02T14:15:40.084Z</time></trkpt><trkpt lat="43.499236" lon="10.6371973"><ele>243.33333333333331</ele><time>2026-05-02T14:15:41.084Z</time></trkpt><trkpt lat="43.4993194" lon="10.6371474"><ele>240.0</ele><time>2026-05-02T14:15:42.085Z</time></trkpt><trkpt lat="43.4993917" lon="10.6371091"><ele>236.66666666666669</ele><time>2026-05-02T14:15:43.095Z</time></trkpt><trkpt lat="43.4994592" lon="10.6370745"><ele>233.33333333333334</ele><time>2026-05-02T14:15:44.078Z</time></trkpt><trkpt lat="43.4995241" lon="10.6370585"><ele>230.0</ele><time>2026-05-02T14:15:45.097Z</time></trkpt><trkpt lat="43.4995991" lon="10.6371285"><ele>227.6</ele><time>2026-05-02T14:15:47.087Z</time></trkpt><trkpt lat="43.499604" lon="10.6372949"><ele>225.2</ele><time>2026-05-02T14:15:49.083Z</time></trkpt><trkpt lat="43.4995939" lon="10.6373936"><ele>222.8</ele><time>2026-05-02T14:15:50.079Z</time></trkpt><trkpt lat="43.4996233" lon="10.6376446"><ele>220.4</ele><time>2026-05-02T14:15:53.072Z</time></trkpt><trkpt lat="43.4996755" lon="10.6376978"><ele>218.0</ele><time>2026-05-02T14:15:54.092Z</time></trkpt><trkpt lat="43.4997431" lon="10.6377118"><ele>218.0</ele><time>2026-05-02T14:15:55.074Z</time></trkpt><trkpt lat="43.4998171" lon="10.6376834"><ele>218.0</ele><time>2026-05-02T14:15:56.092Z</time></trkpt><trkpt lat="43.4998858" lon="10.6376421"><ele>218.0</ele><time>2026-05-02T14:15:57.081Z</time></trkpt><trkpt lat="43.499952" lon="10.6376013"><ele>218.0</ele><time>2026-05-02T14:15:58.091Z</time></trkpt><trkpt lat="43.5000192" lon="10.637583"><ele>218.0</ele><time>2026-05-02T14:15:59.085Z</time></trkpt><trkpt lat="43.5000912" lon="10.6375893"><ele>218.0</ele><time>2026-05-02T14:16:00.083Z</time></trkpt><trkpt lat="43.5001621" lon="10.6376109"><ele>218.0</ele><time>2026-05-02T14:16:01.093Z</time></trkpt><trkpt lat="43.5002338" lon="10.6376374"><ele>218.00000000000003</ele><time>2026-05-02T14:16:02.094Z</time></trkpt><trkpt lat="43.5003063" lon="10.6376756"><ele>218.0</ele><time>2026-05-02T14:16:03.079Z</time></trkpt><trkpt lat="43.5003813" lon="10.637703"><ele>218.0</ele><time>2026-05-02T14:16:04.084Z</time></trkpt><trkpt lat="43.5004597" lon="10.6377189"><ele>218.0</ele><time>2026-05-02T14:16:05.076Z</time></trkpt><trkpt lat="43.5005376" lon="10.6377104"><ele>218.00000000000003</ele><time>2026-05-02T14:16:06.095Z</time></trkpt><trkpt lat="43.5006229" lon="10.6376825"><ele>218.0</ele><time>2026-05-02T14:16:07.093Z</time></trkpt><trkpt lat="43.5007005" lon="10.6376406"><ele>215.60000000000002</ele><time>2026-05-02T14:16:08.082Z</time></trkpt><trkpt lat="43.5007967" lon="10.6376026"><ele>213.20000000000002</ele><time>2026-05-02T14:16:09.103Z</time></trkpt><trkpt lat="43.5008896" lon="10.637559"><ele>210.8</ele><time>2026-05-02T14:16:10.094Z</time></trkpt><trkpt lat="43.5009894" lon="10.6375212"><ele>208.4</ele><time>2026-05-02T14:16:11.087Z</time></trkpt><trkpt lat="43.5010923" lon="10.6374783"><ele>206.0</ele><time>2026-05-02T14:16:12.072Z</time></trkpt><trkpt lat="43.5011983" lon="10.6374367"><ele>202.8</ele><time>2026-05-02T14:16:13.096Z</time></trkpt><trkpt lat="43.5013001" lon="10.6373967"><ele>199.60000000000002</ele><time>2026-05-02T14:16:14.078Z</time></trkpt><trkpt lat="43.5014018" lon="10.6373644"><ele>196.4</ele><time>2026-05-02T14:16:15.091Z</time></trkpt><trkpt lat="43.5015018" lon="10.637341"><ele>193.2</ele><time>2026-05-02T14:16:16.088Z</time></trkpt><trkpt lat="43.5015945" lon="10.6373217"><ele>190.0</ele><time>2026-05-02T14:16:17.124Z</time></trkpt><trkpt lat="43.5016805" lon="10.6372872"><ele>190.0</ele><time>2026-05-02T14:16:18.078Z</time></trkpt><trkpt lat="43.5017561" lon="10.6372161"><ele>190.0</ele><time>2026-05-02T14:16:19.088Z</time></trkpt><trkpt lat="43.5018224" lon="10.6371095"><ele>190.0</ele><time>2026-05-02T14:16:20.104Z</time></trkpt><trkpt lat="43.5018709" lon="10.6369959"><ele>190.0</ele><time>2026-05-02T14:16:21.082Z</time></trkpt><trkpt lat="43.5019046" lon="10.6368622"><ele>190.0</ele><time>2026-05-02T14:16:22.086Z</time></trkpt><trkpt lat="43.5019332" lon="10.6367393"><ele>191.14285714285714</ele><time>2026-05-02T14:16:23.081Z</time></trkpt><trkpt lat="43.5019517" lon="10.6366334"><ele>192.28571428571428</ele><time>2026-05-02T14:16:24.079Z</time></trkpt><trkpt lat="43.5019829" lon="10.6365403"><ele>193.42857142857144</ele><time>2026-05-02T14:16:25.086Z</time></trkpt><trkpt lat="43.5020286" lon="10.6364595"><ele>194.57142857142856</ele><time>2026-05-02T14:16:26.075Z</time></trkpt><trkpt lat="43.5020954" lon="10.6364215"><ele>195.7142857142857</ele><time>2026-05-02T14:16:27.083Z</time></trkpt><trkpt lat="43.5021637" lon="10.63643"><ele>196.85714285714286</ele><time>2026-05-02T14:16:28.084Z</time></trkpt><trkpt lat="43.5022221" lon="10.6364792"><ele>198.0</ele><time>2026-05-02T14:16:29.094Z</time></trkpt><trkpt lat="43.5022547" lon="10.6365642"><ele>195.33333333333334</ele><time>2026-05-02T14:16:30.082Z</time></trkpt><trkpt lat="43.5022518" lon="10.6366609"><ele>192.66666666666666</ele><time>2026-05-02T14:16:31.071Z</time></trkpt><trkpt lat="43.5022186" lon="10.6367524"><ele>190.0</ele><time>2026-05-02T14:16:32.08Z</time></trkpt><trkpt lat="43.5021913" lon="10.6368507"><ele>187.33333333333331</ele><time>2026-05-02T14:16:33.09Z</time></trkpt><trkpt lat="43.5021676" lon="10.6369424"><ele>184.66666666666666</ele><time>2026-05-02T14:16:34.085Z</time></trkpt><trkpt lat="43.5021508" lon="10.6370326"><ele>182.0</ele><time>2026-05-02T14:16:35.077Z</time></trkpt><trkpt lat="43.5021459" lon="10.6371832"><ele>181.0</ele><time>2026-05-02T14:16:37.082Z</time></trkpt><trkpt lat="43.5021918" lon="10.6372642"><ele>180.0</ele><time>2026-05-02T14:16:39.087Z</time></trkpt><trkpt lat="43.5022792" lon="10.6372833"><ele>179.0</ele><time>2026-05-02T14:16:43.078Z</time></trkpt><trkpt lat="43.5023522" lon="10.6372668"><ele>178.0</ele><time>2026-05-02T14:16:45.09Z</time></trkpt><trkpt lat="43.5024317" lon="10.6371748"><ele>177.0</ele><time>2026-05-02T14:16:47.085Z</time></trkpt><trkpt lat="43.5024876" lon="10.6370515"><ele>176.0</ele><time>2026-05-02T14:16:49.079Z</time></trkpt><trkpt lat="43.5025224" lon="10.6369725"><ele>175.42857142857144</ele><time>2026-05-02T14:16:50.07Z</time></trkpt><trkpt lat="43.5025644" lon="10.6368953"><ele>174.85714285714286</ele><time>2026-05-02T14:16:51.091Z</time></trkpt><trkpt lat="43.502603" lon="10.6368056"><ele>174.28571428571428</ele><time>2026-05-02T14:16:52.07Z</time></trkpt><trkpt lat="43.5026528" lon="10.6367395"><ele>173.71428571428572</ele><time>2026-05-02T14:16:53.085Z</time></trkpt><trkpt lat="43.5027154" lon="10.6367037"><ele>173.14285714285714</ele><time>2026-05-02T14:16:54.081Z</time></trkpt><trkpt lat="43.5027838" lon="10.6366735"><ele>172.57142857142858</ele><time>2026-05-02T14:16:55.089Z</time></trkpt><trkpt lat="43.5028525" lon="10.6366697"><ele>172.0</ele><time>2026-05-02T14:16:56.08Z</time></trkpt><trkpt lat="43.5029244" lon="10.6366649"><ele>172.0</ele><time>2026-05-02T14:16:57.079Z</time></trkpt><trkpt lat="43.5029942" lon="10.6366538"><ele>172.0</ele><time>2026-05-02T14:16:58.072Z</time></trkpt><trkpt lat="43.5030711" lon="10.636631"><ele>172.0</ele><time>2026-05-02T14:16:59.064Z</time></trkpt><trkpt lat="43.5031426" lon="10.6365875"><ele>172.0</ele><time>2026-05-02T14:17:00.101Z</time></trkpt><trkpt lat="43.5032204" lon="10.6365418"><ele>172.0</ele><time>2026-05-02T14:17:01.071Z</time></trkpt><trkpt lat="43.5032824" lon="10.6364965"><ele>172.0</ele><time>2026-05-02T14:17:02.075Z</time></trkpt><trkpt lat="43.5033595" lon="10.6364506"><ele>172.0</ele><time>2026-05-02T14:17:03.067Z</time></trkpt><trkpt lat="43.5034332" lon="10.6363982"><ele>172.0</ele><time>2026-05-02T14:17:04.077Z</time></trkpt><trkpt lat="43.5035119" lon="10.6363501"><ele>172.0</ele><time>2026-05-02T14:17:05.075Z</time></trkpt><trkpt lat="43.5035779" lon="10.6362943"><ele>172.0</ele><time>2026-05-02T14:17:06.074Z</time></trkpt><trkpt lat="43.5036506" lon="10.6362353"><ele>172.0</ele><time>2026-05-02T14:17:07.084Z</time></trkpt><trkpt lat="43.5037113" lon="10.6361667"><ele>172.0</ele><time>2026-05-02T14:17:08.07Z</time></trkpt><trkpt lat="43.5037663" lon="10.6360905"><ele>171.16666666666669</ele><time>2026-05-02T14:17:09.083Z</time></trkpt><trkpt lat="43.5038125" lon="10.6360023"><ele>170.33333333333334</ele><time>2026-05-02T14:17:10.074Z</time></trkpt><trkpt lat="43.5038462" lon="10.6359072"><ele>169.5</ele><time>2026-05-02T14:17:11.071Z</time></trkpt><trkpt lat="43.5038862" lon="10.6357619"><ele>168.66666666666666</ele><time>2026-05-02T14:17:13.075Z</time></trkpt><trkpt lat="43.5039064" lon="10.635657"><ele>167.83333333333331</ele><time>2026-05-02T14:17:16.085Z</time></trkpt><trkpt lat="43.503952" lon="10.6357175"><ele>167.0</ele><time>2026-05-02T14:19:17.068Z</time></trkpt><trkpt lat="43.5040308" lon="10.6357802"><ele>167.0</ele><time>2026-05-02T14:22:29.058Z</time></trkpt><trkpt lat="43.5039932" lon="10.6357088"><ele>167.0</ele><time>2026-05-02T14:22:32.069Z</time></trkpt><trkpt lat="43.5039297" lon="10.6357035"><ele>167.0</ele><time>2026-05-02T14:22:47.064Z</time></trkpt><trkpt lat="43.5038874" lon="10.6357949"><ele>167.0</ele><time>2026-05-02T14:22:51.068Z</time></trkpt><trkpt lat="43.5038584" lon="10.6358766"><ele>167.0</ele><time>2026-05-02T14:22:54.068Z</time></trkpt><trkpt lat="43.5038212" lon="10.6359712"><ele>167.0</ele><time>2026-05-02T14:22:57.079Z</time></trkpt><trkpt lat="43.5037777" lon="10.6360538"><ele>167.0</ele><time>2026-05-02T14:23:00.085Z</time></trkpt><trkpt lat="43.5037345" lon="10.6361212"><ele>167.83333333333331</ele><time>2026-05-02T14:23:03.069Z</time></trkpt><trkpt lat="43.5036871" lon="10.636187"><ele>168.66666666666666</ele><time>2026-05-02T14:23:07.085Z</time></trkpt><trkpt lat="43.5036137" lon="10.6362379"><ele>169.5</ele><time>2026-05-02T14:23:10.084Z</time></trkpt><trkpt lat="43.5035454" lon="10.6362842"><ele>170.33333333333334</ele><time>2026-05-02T14:23:12.093Z</time></trkpt><trkpt lat="43.5034723" lon="10.636332"><ele>171.16666666666669</ele><time>2026-05-02T14:23:14.092Z</time></trkpt><trkpt lat="43.5033817" lon="10.636394"><ele>172.0</ele><time>2026-05-02T14:23:16.072Z</time></trkpt><trkpt lat="43.5032736" lon="10.6364733"><ele>172.0</ele><time>2026-05-02T14:23:18.091Z</time></trkpt><trkpt lat="43.5032178" lon="10.6365141"><ele>172.0</ele><time>2026-05-02T14:23:19.078Z</time></trkpt><trkpt lat="43.5031035" lon="10.6365741"><ele>172.0</ele><time>2026-05-02T14:23:21.077Z</time></trkpt><trkpt lat="43.5030045" lon="10.6366086"><ele>172.0</ele><time>2026-05-02T14:23:23.075Z</time></trkpt><trkpt lat="43.50292" lon="10.6366203"><ele>172.0</ele><time>2026-05-02T14:23:25.071Z</time></trkpt><trkpt lat="43.5028454" lon="10.6366738"><ele>172.66666666666669</ele><time>2026-05-02T14:23:27.074Z</time></trkpt><trkpt lat="43.5028323" lon="10.6368051"><ele>173.33333333333334</ele><time>2026-05-02T14:23:29.071Z</time></trkpt><trkpt lat="43.502818" lon="10.6369757"><ele>174.0</ele><time>2026-05-02T14:23:31.071Z</time></trkpt><trkpt lat="43.5028051" lon="10.6370711"><ele>174.66666666666666</ele><time>2026-05-02T14:23:32.072Z</time></trkpt><trkpt lat="43.5027964" lon="10.6371701"><ele>175.33333333333331</ele><time>2026-05-02T14:23:33.073Z</time></trkpt><trkpt lat="43.5027933" lon="10.6372723"><ele>176.0</ele><time>2026-05-02T14:23:34.083Z</time></trkpt><trkpt lat="43.5027969" lon="10.6373804"><ele>176.0</ele><time>2026-05-02T14:23:35.071Z</time></trkpt><trkpt lat="43.5028119" lon="10.6374833"><ele>176.0</ele><time>2026-05-02T14:23:36.088Z</time></trkpt><trkpt lat="43.5028437" lon="10.6375904"><ele>176.0</ele><time>2026-05-02T14:23:37.073Z</time></trkpt><trkpt lat="43.5028852" lon="10.6376953"><ele>176.0</ele><time>2026-05-02T14:23:38.086Z</time></trkpt><trkpt lat="43.5029382" lon="10.637803"><ele>176.0</ele><time>2026-05-02T14:23:39.071Z</time></trkpt><trkpt lat="43.5029938" lon="10.637916"><ele>176.0</ele><time>2026-05-02T14:23:40.085Z</time></trkpt><trkpt lat="43.503051" lon="10.6380343"><ele>173.0</ele><time>2026-05-02T14:23:41.087Z</time></trkpt><trkpt lat="43.5031094" lon="10.6381562"><ele>170.0</ele><time>2026-05-02T14:23:42.098Z</time></trkpt><trkpt lat="43.5031685" lon="10.6382798"><ele>167.0</ele><time>2026-05-02T14:23:43.101Z</time></trkpt><trkpt lat="43.5032303" lon="10.6384028"><ele>164.0</ele><time>2026-05-02T14:23:44.088Z</time></trkpt><trkpt lat="43.5032942" lon="10.6385278"><ele>161.0</ele><time>2026-05-02T14:23:45.086Z</time></trkpt><trkpt lat="43.5033611" lon="10.6386539"><ele>159.5</ele><time>2026-05-02T14:23:46.084Z</time></trkpt><trkpt lat="43.5034294" lon="10.6387806"><ele>158.0</ele><time>2026-05-02T14:23:47.078Z</time></trkpt><trkpt lat="43.5034965" lon="10.6389112"><ele>156.5</ele><time>2026-05-02T14:23:48.083Z</time></trkpt><trkpt lat="43.5035611" lon="10.6390427"><ele>155.0</ele><time>2026-05-02T14:23:49.066Z</time></trkpt><trkpt lat="43.5036257" lon="10.6391753"><ele>155.0</ele><time>2026-05-02T14:23:50.079Z</time></trkpt><trkpt lat="43.5036979" lon="10.6393027"><ele>155.0</ele><time>2026-05-02T14:23:51.081Z</time></trkpt><trkpt lat="43.5037818" lon="10.6394154"><ele>155.0</ele><time>2026-05-02T14:23:52.108Z</time></trkpt><trkpt lat="43.5038838" lon="10.6394969"><ele>155.0</ele><time>2026-05-02T14:23:53.089Z</time></trkpt><trkpt lat="43.5039948" lon="10.6395568"><ele>151.5</ele><time>2026-05-02T14:23:54.096Z</time></trkpt><trkpt lat="43.5041099" lon="10.6395976"><ele>148.0</ele><time>2026-05-02T14:23:55.084Z</time></trkpt><trkpt lat="43.5042253" lon="10.6396363"><ele>144.5</ele><time>2026-05-02T14:23:56.087Z</time></trkpt><trkpt lat="43.5043372" lon="10.6396914"><ele>141.0</ele><time>2026-05-02T14:23:57.084Z</time></trkpt><trkpt lat="43.5044433" lon="10.6397639"><ele>141.0</ele><time>2026-05-02T14:23:58.08Z</time></trkpt><trkpt lat="43.5045381" lon="10.6398566"><ele>141.0</ele><time>2026-05-02T14:23:59.072Z</time></trkpt><trkpt lat="43.5046252" lon="10.6399675"><ele>141.0</ele><time>2026-05-02T14:24:00.079Z</time></trkpt><trkpt lat="43.5047075" lon="10.6400892"><ele>141.0</ele><time>2026-05-02T14:24:01.074Z</time></trkpt><trkpt lat="43.5047835" lon="10.6402232"><ele>138.75</ele><time>2026-05-02T14:24:02.092Z</time></trkpt><trkpt lat="43.5048527" lon="10.640361"><ele>136.5</ele><time>2026-05-02T14:24:03.076Z</time></trkpt><trkpt lat="43.5049214" lon="10.6405009"><ele>134.25</ele><time>2026-05-02T14:24:04.08Z</time></trkpt><trkpt lat="43.5049894" lon="10.6406393"><ele>132.0</ele><time>2026-05-02T14:24:05.091Z</time></trkpt><trkpt lat="43.5050565" lon="10.640773"><ele>132.0</ele><time>2026-05-02T14:24:06.082Z</time></trkpt><trkpt lat="43.5051202" lon="10.6409035"><ele>132.0</ele><time>2026-05-02T14:24:07.074Z</time></trkpt><trkpt lat="43.5051854" lon="10.6410282"><ele>132.0</ele><time>2026-05-02T14:24:08.083Z</time></trkpt><trkpt lat="43.505253" lon="10.6411335"><ele>132.0</ele><time>2026-05-02T14:24:09.085Z</time></trkpt><trkpt lat="43.5053372" lon="10.6412181"><ele>132.0</ele><time>2026-05-02T14:24:10.101Z</time></trkpt><trkpt lat="43.5054308" lon="10.6412618"><ele>131.0</ele><time>2026-05-02T14:24:11.087Z</time></trkpt><trkpt lat="43.5055288" lon="10.6412712"><ele>130.0</ele><time>2026-05-02T14:24:12.087Z</time></trkpt><trkpt lat="43.505625" lon="10.6412386"><ele>129.0</ele><time>2026-05-02T14:24:13.082Z</time></trkpt><trkpt lat="43.5057107" lon="10.6411702"><ele>128.0</ele><time>2026-05-02T14:24:14.086Z</time></trkpt><trkpt lat="43.5057873" lon="10.6410773"><ele>127.0</ele><time>2026-05-02T14:24:15.093Z</time></trkpt><trkpt lat="43.5058546" lon="10.6409682"><ele>127.0</ele><time>2026-05-02T14:24:16.08Z</time></trkpt><trkpt lat="43.5059091" lon="10.6408546"><ele>126.99999999999999</ele><time>2026-05-02T14:24:17.089Z</time></trkpt><trkpt lat="43.5059704" lon="10.6407493"><ele>126.99999999999999</ele><time>2026-05-02T14:24:18.074Z</time></trkpt><trkpt lat="43.5060432" lon="10.6406566"><ele>127.0</ele><time>2026-05-02T14:24:19.081Z</time></trkpt><trkpt lat="43.5061277" lon="10.6405983"><ele>127.0</ele><time>2026-05-02T14:24:20.075Z</time></trkpt><trkpt lat="43.5062226" lon="10.6405801"><ele>125.8</ele><time>2026-05-02T14:24:21.061Z</time></trkpt><trkpt lat="43.5063194" lon="10.6406038"><ele>124.6</ele><time>2026-05-02T14:24:22.075Z</time></trkpt><trkpt lat="43.5064137" lon="10.6406622"><ele>123.39999999999999</ele><time>2026-05-02T14:24:23.086Z</time></trkpt><trkpt lat="43.5065064" lon="10.6407382"><ele>122.19999999999999</ele><time>2026-05-02T14:24:24.091Z</time></trkpt><trkpt lat="43.5066031" lon="10.640817"><ele>121.0</ele><time>2026-05-02T14:24:25.09Z</time></trkpt><trkpt lat="43.5066995" lon="10.6408973"><ele>121.0</ele><time>2026-05-02T14:24:26.091Z</time></trkpt><trkpt lat="43.5067957" lon="10.640979"><ele>121.0</ele><time>2026-05-02T14:24:27.086Z</time></trkpt><trkpt lat="43.5068928" lon="10.6410663"><ele>121.0</ele><time>2026-05-02T14:24:28.083Z</time></trkpt><trkpt lat="43.5069807" lon="10.6411684"><ele>121.0</ele><time>2026-05-02T14:24:29.08Z</time></trkpt><trkpt lat="43.5070577" lon="10.6412893"><ele>119.0</ele><time>2026-05-02T14:24:30.086Z</time></trkpt><trkpt lat="43.507132" lon="10.6414287"><ele>117.0</ele><time>2026-05-02T14:24:31.087Z</time></trkpt><trkpt lat="43.5072131" lon="10.641581"><ele>115.0</ele><time>2026-05-02T14:24:32.089Z</time></trkpt><trkpt lat="43.5072928" lon="10.6417416"><ele>113.0</ele><time>2026-05-02T14:24:33.084Z</time></trkpt><trkpt lat="43.5073754" lon="10.6419063"><ele>112.33333333333333</ele><time>2026-05-02T14:24:34.101Z</time></trkpt><trkpt lat="43.5074627" lon="10.6420758"><ele>111.66666666666666</ele><time>2026-05-02T14:24:35.09Z</time></trkpt><trkpt lat="43.5075569" lon="10.6422505"><ele>111.0</ele><time>2026-05-02T14:24:36.083Z</time></trkpt><trkpt lat="43.5076472" lon="10.6424247"><ele>111.0</ele><time>2026-05-02T14:24:37.092Z</time></trkpt><trkpt lat="43.5077392" lon="10.6426025"><ele>111.0</ele><time>2026-05-02T14:24:38.087Z</time></trkpt><trkpt lat="43.5078285" lon="10.6427807"><ele>111.0</ele><time>2026-05-02T14:24:39.089Z</time></trkpt><trkpt lat="43.5079123" lon="10.642935"><ele>110.0</ele><time>2026-05-02T14:24:40.083Z</time></trkpt><trkpt lat="43.5080045" lon="10.6431091"><ele>109.0</ele><time>2026-05-02T14:24:41.09Z</time></trkpt><trkpt lat="43.5080984" lon="10.643283"><ele>108.0</ele><time>2026-05-02T14:24:42.066Z</time></trkpt><trkpt lat="43.5081909" lon="10.643454"><ele>108.0</ele><time>2026-05-02T14:24:43.098Z</time></trkpt><trkpt lat="43.5082803" lon="10.6436263"><ele>108.0</ele><time>2026-05-02T14:24:44.085Z</time></trkpt><trkpt lat="43.5083708" lon="10.6437985"><ele>108.0</ele><time>2026-05-02T14:24:45.092Z</time></trkpt><trkpt lat="43.5084603" lon="10.6439723"><ele>107.66666666666666</ele><time>2026-05-02T14:24:46.093Z</time></trkpt><trkpt lat="43.5085491" lon="10.6441462"><ele>107.33333333333333</ele><time>2026-05-02T14:24:47.088Z</time></trkpt><trkpt lat="43.5086408" lon="10.6443179"><ele>107.0</ele><time>2026-05-02T14:24:48.089Z</time></trkpt><trkpt lat="43.5087302" lon="10.6444938"><ele>107.0</ele><time>2026-05-02T14:24:49.069Z</time></trkpt><trkpt lat="43.5088191" lon="10.6446745"><ele>107.0</ele><time>2026-05-02T14:24:50.081Z</time></trkpt><trkpt lat="43.5089032" lon="10.6448609"><ele>107.0</ele><time>2026-05-02T14:24:51.082Z</time></trkpt><trkpt lat="43.5089823" lon="10.6450538"><ele>107.0</ele><time>2026-05-02T14:24:52.094Z</time></trkpt><trkpt lat="43.5090586" lon="10.6452546"><ele>107.0</ele><time>2026-05-02T14:24:53.099Z</time></trkpt><trkpt lat="43.5091302" lon="10.645461"><ele>107.0</ele><time>2026-05-02T14:24:54.087Z</time></trkpt><trkpt lat="43.5091986" lon="10.6456717"><ele>106.66666666666666</ele><time>2026-05-02T14:24:55.094Z</time></trkpt><trkpt lat="43.5092652" lon="10.6458828"><ele>106.33333333333334</ele><time>2026-05-02T14:24:56.105Z</time></trkpt><trkpt lat="43.5093271" lon="10.646097"><ele>106.0</ele><time>2026-05-02T14:24:57.092Z</time></trkpt><trkpt lat="43.5093899" lon="10.6463123"><ele>104.33333333333334</ele><time>2026-05-02T14:24:58.095Z</time></trkpt><trkpt lat="43.5094506" lon="10.6465218"><ele>102.66666666666666</ele><time>2026-05-02T14:24:59.092Z</time></trkpt><trkpt lat="43.5095121" lon="10.646726"><ele>101.0</ele><time>2026-05-02T14:25:00.082Z</time></trkpt><trkpt lat="43.5095732" lon="10.6469276"><ele>101.33333333333333</ele><time>2026-05-02T14:25:01.092Z</time></trkpt><trkpt lat="43.5096337" lon="10.6471251"><ele>101.66666666666666</ele><time>2026-05-02T14:25:02.079Z</time></trkpt><trkpt lat="43.5096943" lon="10.6473201"><ele>102.0</ele><time>2026-05-02T14:25:03.097Z</time></trkpt><trkpt lat="43.5097606" lon="10.6475168"><ele>102.0</ele><time>2026-05-02T14:25:04.086Z</time></trkpt><trkpt lat="43.5098378" lon="10.6477099"><ele>102.0</ele><time>2026-05-02T14:25:05.085Z</time></trkpt><trkpt lat="43.5099243" lon="10.6478995"><ele>102.0</ele><time>2026-05-02T14:25:06.101Z</time></trkpt><trkpt lat="43.5100225" lon="10.6480795"><ele>102.33333333333334</ele><time>2026-05-02T14:25:07.082Z</time></trkpt><trkpt lat="43.5101304" lon="10.6482496"><ele>102.66666666666667</ele><time>2026-05-02T14:25:08.099Z</time></trkpt><trkpt lat="43.510246" lon="10.6484063"><ele>103.0</ele><time>2026-05-02T14:25:09.096Z</time></trkpt><trkpt lat="43.510368" lon="10.6485554"><ele>101.33333333333334</ele><time>2026-05-02T14:25:10.085Z</time></trkpt><trkpt lat="43.5104881" lon="10.6487038"><ele>99.66666666666666</ele><time>2026-05-02T14:25:11.092Z</time></trkpt><trkpt lat="43.5106073" lon="10.6488558"><ele>98.0</ele><time>2026-05-02T14:25:12.083Z</time></trkpt><trkpt lat="43.5107221" lon="10.6490209"><ele>98.0</ele><time>2026-05-02T14:25:13.093Z</time></trkpt><trkpt lat="43.5108279" lon="10.6492024"><ele>98.0</ele><time>2026-05-02T14:25:14.082Z</time></trkpt><trkpt lat="43.5109225" lon="10.6493968"><ele>98.0</ele><time>2026-05-02T14:25:15.071Z</time></trkpt><trkpt lat="43.5110071" lon="10.6496045"><ele>98.0</ele><time>2026-05-02T14:25:16.103Z</time></trkpt><trkpt lat="43.5110821" lon="10.6498203"><ele>98.0</ele><time>2026-05-02T14:25:17.1Z</time></trkpt><trkpt lat="43.5111552" lon="10.6500407"><ele>98.0</ele><time>2026-05-02T14:25:18.109Z</time></trkpt><trkpt lat="43.5112198" lon="10.6502674"><ele>94.0</ele><time>2026-05-02T14:25:19.076Z</time></trkpt><trkpt lat="43.5112831" lon="10.6504991"><ele>90.0</ele><time>2026-05-02T14:25:20.078Z</time></trkpt><trkpt lat="43.5113466" lon="10.6507237"><ele>86.0</ele><time>2026-05-02T14:25:21.094Z</time></trkpt><trkpt lat="43.511408" lon="10.6509478"><ele>86.0</ele><time>2026-05-02T14:25:22.096Z</time></trkpt><trkpt lat="43.5114721" lon="10.6511678"><ele>86.0</ele><time>2026-05-02T14:25:23.083Z</time></trkpt><trkpt lat="43.5115346" lon="10.6513916"><ele>86.0</ele><time>2026-05-02T14:25:24.1Z</time></trkpt><trkpt lat="43.5115983" lon="10.6516124"><ele>86.0</ele><time>2026-05-02T14:25:25.109Z</time></trkpt><trkpt lat="43.5116574" lon="10.6518353"><ele>86.0</ele><time>2026-05-02T14:25:26.101Z</time></trkpt><trkpt lat="43.5117134" lon="10.6520589"><ele>86.0</ele><time>2026-05-02T14:25:27.081Z</time></trkpt><trkpt lat="43.5117682" lon="10.6522817"><ele>86.0</ele><time>2026-05-02T14:25:28.114Z</time></trkpt><trkpt lat="43.5118203" lon="10.6525029"><ele>86.0</ele><time>2026-05-02T14:25:29.084Z</time></trkpt><trkpt lat="43.5118699" lon="10.6527185"><ele>86.0</ele><time>2026-05-02T14:25:30.091Z</time></trkpt><trkpt lat="43.5119148" lon="10.652933"><ele>85.0</ele><time>2026-05-02T14:25:31.085Z</time></trkpt><trkpt lat="43.5119574" lon="10.6531441"><ele>84.0</ele><time>2026-05-02T14:25:32.102Z</time></trkpt><trkpt lat="43.5119989" lon="10.6533515"><ele>83.0</ele><time>2026-05-02T14:25:33.107Z</time></trkpt><trkpt lat="43.512043" lon="10.6535478"><ele>81.5</ele><time>2026-05-02T14:25:34.094Z</time></trkpt><trkpt lat="43.5120909" lon="10.6537274"><ele>80.0</ele><time>2026-05-02T14:25:35.095Z</time></trkpt><trkpt lat="43.5121398" lon="10.6538918"><ele>78.5</ele><time>2026-05-02T14:25:36.115Z</time></trkpt><trkpt lat="43.5121966" lon="10.6540352"><ele>77.0</ele><time>2026-05-02T14:25:37.091Z</time></trkpt><trkpt lat="43.5122564" lon="10.6541561"><ele>77.0</ele><time>2026-05-02T14:25:38.09Z</time></trkpt><trkpt lat="43.5123152" lon="10.6542605"><ele>77.0</ele><time>2026-05-02T14:25:39.081Z</time></trkpt><trkpt lat="43.512366" lon="10.6543406"><ele>77.0</ele><time>2026-05-02T14:25:40.091Z</time></trkpt><trkpt lat="43.5123803" lon="10.6544278"><ele>77.0</ele><time>2026-05-02T14:25:41.109Z</time></trkpt><trkpt lat="43.5123336" lon="10.6545835"><ele>77.0</ele><time>2026-05-02T14:25:43.082Z</time></trkpt><trkpt lat="43.5122725" lon="10.6546468"><ele>77.0</ele><time>2026-05-02T14:25:44.086Z</time></trkpt><trkpt lat="43.5122054" lon="10.6547118"><ele>76.8</ele><time>2026-05-02T14:25:45.084Z</time></trkpt><trkpt lat="43.5121274" lon="10.6547947"><ele>76.6</ele><time>2026-05-02T14:25:46.078Z</time></trkpt><trkpt lat="43.5120466" lon="10.6548853"><ele>76.39999999999999</ele><time>2026-05-02T14:25:47.102Z</time></trkpt><trkpt lat="43.5119602" lon="10.6549835"><ele>76.2</ele><time>2026-05-02T14:25:48.116Z</time></trkpt><trkpt lat="43.5118663" lon="10.6550889"><ele>76.0</ele><time>2026-05-02T14:25:49.099Z</time></trkpt><trkpt lat="43.5117668" lon="10.6551953"><ele>75.25</ele><time>2026-05-02T14:25:50.101Z</time></trkpt><trkpt lat="43.5116637" lon="10.6553035"><ele>74.5</ele><time>2026-05-02T14:25:51.107Z</time></trkpt><trkpt lat="43.5115584" lon="10.6554134"><ele>73.75</ele><time>2026-05-02T14:25:52.081Z</time></trkpt><trkpt lat="43.5114521" lon="10.6555293"><ele>73.0</ele><time>2026-05-02T14:25:53.086Z</time></trkpt><trkpt lat="43.5113448" lon="10.6556428"><ele>73.33333333333333</ele><time>2026-05-02T14:25:54.095Z</time></trkpt><trkpt lat="43.5112346" lon="10.6557593"><ele>73.66666666666667</ele><time>2026-05-02T14:25:55.083Z</time></trkpt><trkpt lat="43.5110133" lon="10.6560001"><ele>74.0</ele><time>2026-05-02T14:25:57.093Z</time></trkpt><trkpt lat="43.5109013" lon="10.6561186"><ele>74.5</ele><time>2026-05-02T14:25:58.077Z</time></trkpt><trkpt lat="43.5107889" lon="10.6562308"><ele>75.0</ele><time>2026-05-02T14:25:59.107Z</time></trkpt><trkpt lat="43.5106803" lon="10.6563376"><ele>75.5</ele><time>2026-05-02T14:26:00.089Z</time></trkpt><trkpt lat="43.5105715" lon="10.6564396"><ele>76.0</ele><time>2026-05-02T14:26:01.093Z</time></trkpt><trkpt lat="43.5104616" lon="10.6565353"><ele>76.0</ele><time>2026-05-02T14:26:02.107Z</time></trkpt><trkpt lat="43.5103449" lon="10.6566142"><ele>76.0</ele><time>2026-05-02T14:26:03.12Z</time></trkpt><trkpt lat="43.510222" lon="10.6566804"><ele>76.0</ele><time>2026-05-02T14:26:04.119Z</time></trkpt><trkpt lat="43.5100961" lon="10.6567356"><ele>76.0</ele><time>2026-05-02T14:26:05.113Z</time></trkpt><trkpt lat="43.509967" lon="10.6567778"><ele>76.0</ele><time>2026-05-02T14:26:06.096Z</time></trkpt><trkpt lat="43.5098354" lon="10.6568088"><ele>76.0</ele><time>2026-05-02T14:26:07.102Z</time></trkpt><trkpt lat="43.5097049" lon="10.6568393"><ele>76.0</ele><time>2026-05-02T14:26:08.091Z</time></trkpt><trkpt lat="43.5095713" lon="10.6568742"><ele>76.0</ele><time>2026-05-02T14:26:09.091Z</time></trkpt><trkpt lat="43.5094349" lon="10.6569121"><ele>76.0</ele><time>2026-05-02T14:26:10.101Z</time></trkpt><trkpt lat="43.5092991" lon="10.6569545"><ele>76.0</ele><time>2026-05-02T14:26:11.094Z</time></trkpt><trkpt lat="43.5091634" lon="10.6570045"><ele>76.0</ele><time>2026-05-02T14:26:12.097Z</time></trkpt><trkpt lat="43.5090322" lon="10.6570679"><ele>76.0</ele><time>2026-05-02T14:26:13.093Z</time></trkpt><trkpt lat="43.5089041" lon="10.6571453"><ele>76.0</ele><time>2026-05-02T14:26:14.088Z</time></trkpt><trkpt lat="43.5087777" lon="10.6572373"><ele>76.0</ele><time>2026-05-02T14:26:15.098Z</time></trkpt><trkpt lat="43.5086563" lon="10.6573419"><ele>76.0</ele><time>2026-05-02T14:26:16.096Z</time></trkpt><trkpt lat="43.5085359" lon="10.6574564"><ele>76.0</ele><time>2026-05-02T14:26:17.087Z</time></trkpt><trkpt lat="43.5084148" lon="10.6575702"><ele>76.0</ele><time>2026-05-02T14:26:18.088Z</time></trkpt><trkpt lat="43.5082917" lon="10.6576823"><ele>76.0</ele><time>2026-05-02T14:26:19.089Z</time></trkpt><trkpt lat="43.5081704" lon="10.6577935"><ele>76.0</ele><time>2026-05-02T14:26:20.097Z</time></trkpt><trkpt lat="43.5080479" lon="10.6579044"><ele>76.0</ele><time>2026-05-02T14:26:21.09Z</time></trkpt><trkpt lat="43.5079263" lon="10.6580125"><ele>76.0</ele><time>2026-05-02T14:26:22.098Z</time></trkpt><trkpt lat="43.5078034" lon="10.6581206"><ele>76.0</ele><time>2026-05-02T14:26:23.11Z</time></trkpt><trkpt lat="43.5076827" lon="10.658231"><ele>76.0</ele><time>2026-05-02T14:26:24.098Z</time></trkpt><trkpt lat="43.5075629" lon="10.6583408"><ele>76.0</ele><time>2026-05-02T14:26:25.1Z</time></trkpt><trkpt lat="43.5074417" lon="10.6584521"><ele>76.0</ele><time>2026-05-02T14:26:26.101Z</time></trkpt><trkpt lat="43.5073221" lon="10.6585638"><ele>76.0</ele><time>2026-05-02T14:26:27.118Z</time></trkpt><trkpt lat="43.5072013" lon="10.6586776"><ele>76.0</ele><time>2026-05-02T14:26:28.099Z</time></trkpt><trkpt lat="43.50708" lon="10.6587981"><ele>76.0</ele><time>2026-05-02T14:26:29.106Z</time></trkpt><trkpt lat="43.5069579" lon="10.6589177"><ele>76.0</ele><time>2026-05-02T14:26:30.093Z</time></trkpt><trkpt lat="43.5068374" lon="10.6590492"><ele>76.0</ele><time>2026-05-02T14:26:31.087Z</time></trkpt><trkpt lat="43.5067222" lon="10.6591798"><ele>76.0</ele><time>2026-05-02T14:26:32.09Z</time></trkpt><trkpt lat="43.5066153" lon="10.6593115"><ele>76.0</ele><time>2026-05-02T14:26:33.093Z</time></trkpt><trkpt lat="43.5065163" lon="10.6594513"><ele>75.75</ele><time>2026-05-02T14:26:34.09Z</time></trkpt><trkpt lat="43.5064248" lon="10.6596002"><ele>75.5</ele><time>2026-05-02T14:26:35.084Z</time></trkpt><trkpt lat="43.5063294" lon="10.659724"><ele>75.25</ele><time>2026-05-02T14:26:36.093Z</time></trkpt><trkpt lat="43.5062386" lon="10.6598645"><ele>75.0</ele><time>2026-05-02T14:26:37.093Z</time></trkpt><trkpt lat="43.5061426" lon="10.6599894"><ele>76.25</ele><time>2026-05-02T14:26:38.088Z</time></trkpt><trkpt lat="43.506039" lon="10.6600938"><ele>77.5</ele><time>2026-05-02T14:26:39.075Z</time></trkpt><trkpt lat="43.5059277" lon="10.6601687"><ele>78.75</ele><time>2026-05-02T14:26:40.09Z</time></trkpt><trkpt lat="43.5058125" lon="10.6602096"><ele>80.0</ele><time>2026-05-02T14:26:41.087Z</time></trkpt><trkpt lat="43.5056942" lon="10.6602406"><ele>80.0</ele><time>2026-05-02T14:26:42.093Z</time></trkpt><trkpt lat="43.5055684" lon="10.6602498"><ele>80.0</ele><time>2026-05-02T14:26:43.102Z</time></trkpt><trkpt lat="43.5054414" lon="10.6602465"><ele>80.0</ele><time>2026-05-02T14:26:44.11Z</time></trkpt><trkpt lat="43.5053213" lon="10.6602411"><ele>80.0</ele><time>2026-05-02T14:26:45.108Z</time></trkpt><trkpt lat="43.5052109" lon="10.6602381"><ele>80.0</ele><time>2026-05-02T14:26:46.099Z</time></trkpt><trkpt lat="43.5051137" lon="10.660232"><ele>80.0</ele><time>2026-05-02T14:26:47.083Z</time></trkpt><trkpt lat="43.5050365" lon="10.6602329"><ele>80.0</ele><time>2026-05-02T14:26:48.102Z</time></trkpt><trkpt lat="43.5049372" lon="10.6602306"><ele>80.0</ele><time>2026-05-02T14:26:50.095Z</time></trkpt><trkpt lat="43.504876" lon="10.6603035"><ele>80.0</ele><time>2026-05-02T14:26:53.077Z</time></trkpt><trkpt lat="43.504885" lon="10.6604309"><ele>80.0</ele><time>2026-05-02T14:26:55.083Z</time></trkpt><trkpt lat="43.5048946" lon="10.660522"><ele>80.0</ele><time>2026-05-02T14:26:56.075Z</time></trkpt><trkpt lat="43.5049046" lon="10.6606173"><ele>80.0</ele><time>2026-05-02T14:26:57.086Z</time></trkpt><trkpt lat="43.5049114" lon="10.6607077"><ele>80.0</ele><time>2026-05-02T14:26:58.1Z</time></trkpt><trkpt lat="43.5049201" lon="10.6607965"><ele>80.0</ele><time>2026-05-02T14:26:59.087Z</time></trkpt><trkpt lat="43.5049349" lon="10.6608858"><ele>80.0</ele><time>2026-05-02T14:27:00.08Z</time></trkpt><trkpt lat="43.5049456" lon="10.6609725"><ele>80.0</ele><time>2026-05-02T14:27:01.092Z</time></trkpt><trkpt lat="43.5049621" lon="10.6611299"><ele>80.0</ele><time>2026-05-02T14:27:03.112Z</time></trkpt><trkpt lat="43.5049906" lon="10.6612638"><ele>80.0</ele><time>2026-05-02T14:27:05.094Z</time></trkpt><trkpt lat="43.5050217" lon="10.6614294"><ele>80.0</ele><time>2026-05-02T14:27:07.088Z</time></trkpt><trkpt lat="43.5050244" lon="10.6615798"><ele>80.0</ele><time>2026-05-02T14:27:09.082Z</time></trkpt><trkpt lat="43.5050159" lon="10.6617275"><ele>80.0</ele><time>2026-05-02T14:27:11.097Z</time></trkpt><trkpt lat="43.5050138" lon="10.6618963"><ele>80.0</ele><time>2026-05-02T14:27:13.079Z</time></trkpt><trkpt lat="43.5050271" lon="10.6620536"><ele>80.0</ele><time>2026-05-02T14:27:15.081Z</time></trkpt><trkpt lat="43.5050234" lon="10.6622165"><ele>80.0</ele><time>2026-05-02T14:27:17.078Z</time></trkpt><trkpt lat="43.5050188" lon="10.6623857"><ele>80.0</ele><time>2026-05-02T14:27:19.108Z</time></trkpt><trkpt lat="43.5050003" lon="10.6625504"><ele>80.0</ele><time>2026-05-02T14:27:21.102Z</time></trkpt><trkpt lat="43.5049861" lon="10.6627025"><ele>80.0</ele><time>2026-05-02T14:27:23.089Z</time></trkpt><trkpt lat="43.504975" lon="10.6628386"><ele>80.0</ele><time>2026-05-02T14:27:25.089Z</time></trkpt><trkpt lat="43.5049532" lon="10.6629851"><ele>80.0</ele><time>2026-05-02T14:27:27.084Z</time></trkpt><trkpt lat="43.5049246" lon="10.6631269"><ele>80.0</ele><time>2026-05-02T14:27:29.08Z</time></trkpt><trkpt lat="43.5048866" lon="10.6632707"><ele>80.83333333333334</ele><time>2026-05-02T14:27:31.082Z</time></trkpt><trkpt lat="43.5048438" lon="10.6633968"><ele>81.66666666666667</ele><time>2026-05-02T14:27:33.08Z</time></trkpt><trkpt lat="43.5048525" lon="10.6635698"><ele>82.5</ele><time>2026-05-02T14:27:35.096Z</time></trkpt><trkpt lat="43.5048547" lon="10.6636601"><ele>83.33333333333333</ele><time>2026-05-02T14:27:36.081Z</time></trkpt><trkpt lat="43.5048605" lon="10.6637537"><ele>84.16666666666666</ele><time>2026-05-02T14:27:37.08Z</time></trkpt><trkpt lat="43.5048727" lon="10.6638491"><ele>85.0</ele><time>2026-05-02T14:27:38.089Z</time></trkpt><trkpt lat="43.5048842" lon="10.6639423"><ele>86.0</ele><time>2026-05-02T14:27:39.096Z</time></trkpt><trkpt lat="43.5048961" lon="10.6640344"><ele>87.0</ele><time>2026-05-02T14:27:40.081Z</time></trkpt><trkpt lat="43.5049117" lon="10.6641288"><ele>88.0</ele><time>2026-05-02T14:27:41.095Z</time></trkpt><trkpt lat="43.5049294" lon="10.6642218"><ele>89.0</ele><time>2026-05-02T14:27:42.094Z</time></trkpt><trkpt lat="43.5049454" lon="10.6643186"><ele>90.0</ele><time>2026-05-02T14:27:43.1Z</time></trkpt><trkpt lat="43.5049619" lon="10.6644104"><ele>91.0</ele><time>2026-05-02T14:27:44.11Z</time></trkpt><trkpt lat="43.5049756" lon="10.6644965"><ele>92.0</ele><time>2026-05-02T14:27:45.083Z</time></trkpt><trkpt lat="43.5049921" lon="10.6645874"><ele>93.16666666666667</ele><time>2026-05-02T14:27:46.057Z</time></trkpt><trkpt lat="43.5050088" lon="10.6646799"><ele>94.33333333333334</ele><time>2026-05-02T14:27:47.08Z</time></trkpt><trkpt lat="43.5050314" lon="10.6648136"><ele>95.5</ele><time>2026-05-02T14:27:48.072Z</time></trkpt><trkpt lat="43.5050434" lon="10.6649455"><ele>96.66666666666667</ele><time>2026-05-02T14:27:49.098Z</time></trkpt><trkpt lat="43.5050566" lon="10.6650479"><ele>97.83333333333333</ele><time>2026-05-02T14:27:50.073Z</time></trkpt><trkpt lat="43.5050691" lon="10.665138"><ele>99.0</ele><time>2026-05-02T14:27:51.065Z</time></trkpt><trkpt lat="43.5050716" lon="10.6652263"><ele>100.28571428571429</ele><time>2026-05-02T14:27:52.083Z</time></trkpt><trkpt lat="43.5050706" lon="10.6653153"><ele>101.57142857142857</ele><time>2026-05-02T14:27:53.082Z</time></trkpt><trkpt lat="43.5050656" lon="10.6654047"><ele>102.85714285714286</ele><time>2026-05-02T14:27:54.082Z</time></trkpt><trkpt lat="43.505056" lon="10.6654923"><ele>104.14285714285714</ele><time>2026-05-02T14:27:55.076Z</time></trkpt><trkpt lat="43.5050452" lon="10.6655826"><ele>105.42857142857142</ele><time>2026-05-02T14:27:56.084Z</time></trkpt><trkpt lat="43.5050342" lon="10.6656748"><ele>106.71428571428571</ele><time>2026-05-02T14:27:57.082Z</time></trkpt><trkpt lat="43.5050212" lon="10.6657702"><ele>108.0</ele><time>2026-05-02T14:27:58.085Z</time></trkpt><trkpt lat="43.5050108" lon="10.6658689"><ele>108.0</ele><time>2026-05-02T14:27:59.092Z</time></trkpt><trkpt lat="43.5050039" lon="10.6659679"><ele>108.0</ele><time>2026-05-02T14:28:00.084Z</time></trkpt><trkpt lat="43.504991" lon="10.6660673"><ele>108.0</ele><time>2026-05-02T14:28:01.08Z</time></trkpt><trkpt lat="43.5049789" lon="10.6661644"><ele>108.0</ele><time>2026-05-02T14:28:02.077Z</time></trkpt><trkpt lat="43.5049667" lon="10.666261"><ele>108.0</ele><time>2026-05-02T14:28:03.085Z</time></trkpt><trkpt lat="43.5049431" lon="10.6663449"><ele>108.0</ele><time>2026-05-02T14:28:04.077Z</time></trkpt><trkpt lat="43.5048598" lon="10.6664669"><ele>109.16666666666667</ele><time>2026-05-02T14:28:06.095Z</time></trkpt><trkpt lat="43.5047831" lon="10.6665533"><ele>110.33333333333334</ele><time>2026-05-02T14:28:08.064Z</time></trkpt><trkpt lat="43.5047281" lon="10.666631"><ele>111.5</ele><time>2026-05-02T14:28:10.084Z</time></trkpt><trkpt lat="43.504707" lon="10.6667209"><ele>112.66666666666667</ele><time>2026-05-02T14:28:13.092Z</time></trkpt><trkpt lat="43.5047142" lon="10.6668172"><ele>113.83333333333334</ele><time>2026-05-02T14:28:17.095Z</time></trkpt><trkpt lat="43.5047179" lon="10.6669156"><ele>115.0</ele><time>2026-05-02T14:28:19.096Z</time></trkpt><trkpt lat="43.5047279" lon="10.6670121"><ele>115.85714285714283</ele><time>2026-05-02T14:28:21.086Z</time></trkpt><trkpt lat="43.5047365" lon="10.6671131"><ele>116.71428571428571</ele><time>2026-05-02T14:28:23.096Z</time></trkpt><trkpt lat="43.504752" lon="10.6672158"><ele>117.57142857142856</ele><time>2026-05-02T14:28:25.085Z</time></trkpt><trkpt lat="43.5047714" lon="10.667319"><ele>118.42857142857142</ele><time>2026-05-02T14:28:27.088Z</time></trkpt><trkpt lat="43.5047892" lon="10.6674159"><ele>119.28571428571428</ele><time>2026-05-02T14:28:29.089Z</time></trkpt><trkpt lat="43.5048057" lon="10.6675069"><ele>120.14285714285714</ele><time>2026-05-02T14:28:31.093Z</time></trkpt><trkpt lat="43.5048341" lon="10.667598"><ele>121.0</ele><time>2026-05-02T14:28:34.099Z</time></trkpt><trkpt lat="43.5047712" lon="10.667592"><ele>121.0</ele><time>2026-05-02T14:30:38.143Z</time></trkpt></trkseg><trkseg><trkpt lat="43.502306" lon="10.6800943"><ele>145.0</ele><time>2026-05-02T14:46:44.014Z</time></trkpt><trkpt lat="43.5022541" lon="10.680154"><ele>145.0</ele><time>2026-05-02T14:46:47.017Z</time></trkpt><trkpt lat="43.5022044" lon="10.6802186"><ele>145.0</ele><time>2026-05-02T14:46:50.014Z</time></trkpt><trkpt lat="43.5021373" lon="10.6803012"><ele>145.0</ele><time>2026-05-02T14:46:53.018Z</time></trkpt><trkpt lat="43.5020732" lon="10.6803907"><ele>145.0</ele><time>2026-05-02T14:46:56.027Z</time></trkpt><trkpt lat="43.5020244" lon="10.6804569"><ele>145.0</ele><time>2026-05-02T14:46:58.009Z</time></trkpt><trkpt lat="43.5019568" lon="10.6805498"><ele>145.71428571428572</ele><time>2026-05-02T14:47:01.011Z</time></trkpt><trkpt lat="43.5019079" lon="10.6806175"><ele>146.42857142857144</ele><time>2026-05-02T14:47:03.012Z</time></trkpt><trkpt lat="43.5018674" lon="10.6806854"><ele>147.14285714285714</ele><time>2026-05-02T14:47:05.017Z</time></trkpt><trkpt lat="43.5018143" lon="10.6807493"><ele>147.85714285714286</ele><time>2026-05-02T14:47:07.017Z</time></trkpt><trkpt lat="43.5017582" lon="10.6808167"><ele>148.57142857142856</ele><time>2026-05-02T14:47:09.023Z</time></trkpt><trkpt lat="43.5016979" lon="10.6808829"><ele>149.28571428571428</ele><time>2026-05-02T14:47:11.017Z</time></trkpt><trkpt lat="43.5016411" lon="10.6809486"><ele>150.0</ele><time>2026-05-02T14:47:13.023Z</time></trkpt><trkpt lat="43.5015777" lon="10.6810088"><ele>149.99999999999997</ele><time>2026-05-02T14:47:15.024Z</time></trkpt><trkpt lat="43.50152" lon="10.6810699"><ele>150.0</ele><time>2026-05-02T14:47:17.023Z</time></trkpt><trkpt lat="43.5014616" lon="10.6811208"><ele>150.0</ele><time>2026-05-02T14:47:19.025Z</time></trkpt><trkpt lat="43.5013921" lon="10.6811752"><ele>150.0</ele><time>2026-05-02T14:47:21.002Z</time></trkpt><trkpt lat="43.5013243" lon="10.6812132"><ele>150.0</ele><time>2026-05-02T14:47:23.014Z</time></trkpt><trkpt lat="43.5012646" lon="10.681244"><ele>149.99999999999997</ele><time>2026-05-02T14:47:24.881Z</time></trkpt><trkpt lat="43.5012013" lon="10.6812639"><ele>150.0</ele><time>2026-05-02T14:47:27.013Z</time></trkpt><trkpt lat="43.5011149" lon="10.6812814"><ele>150.14285714285714</ele><time>2026-05-02T14:47:30.02Z</time></trkpt><trkpt lat="43.501049" lon="10.6813002"><ele>150.28571428571428</ele><time>2026-05-02T14:47:32.02Z</time></trkpt><trkpt lat="43.5009842" lon="10.6813053"><ele>150.42857142857144</ele><time>2026-05-02T14:47:33.962Z</time></trkpt><trkpt lat="43.5009154" lon="10.6813166"><ele>150.57142857142856</ele><time>2026-05-02T14:47:36.018Z</time></trkpt><trkpt lat="43.5008437" lon="10.6813342"><ele>150.71428571428572</ele><time>2026-05-02T14:47:38.021Z</time></trkpt><trkpt lat="43.5007684" lon="10.6813439"><ele>150.85714285714286</ele><time>2026-05-02T14:47:39.963Z</time></trkpt><trkpt lat="43.5006974" lon="10.6813614"><ele>151.0</ele><time>2026-05-02T14:47:42.019Z</time></trkpt><trkpt lat="43.5006257" lon="10.6813763"><ele>151.0</ele><time>2026-05-02T14:47:44.022Z</time></trkpt><trkpt lat="43.5005538" lon="10.6813924"><ele>151.0</ele><time>2026-05-02T14:47:46.023Z</time></trkpt><trkpt lat="43.5004776" lon="10.6814021"><ele>151.0</ele><time>2026-05-02T14:47:47.921Z</time></trkpt><trkpt lat="43.5003949" lon="10.6814293"><ele>151.0</ele><time>2026-05-02T14:47:51.021Z</time></trkpt><trkpt lat="43.5002798" lon="10.6814476"><ele>151.0</ele><time>2026-05-02T14:48:15.026Z</time></trkpt><trkpt lat="43.5001944" lon="10.6814148"><ele>151.0</ele><time>2026-05-02T14:48:18.057Z</time></trkpt><trkpt lat="43.5001137" lon="10.6813744"><ele>151.33333333333334</ele><time>2026-05-02T14:48:21.051Z</time></trkpt><trkpt lat="43.5000382" lon="10.6813424"><ele>151.66666666666669</ele><time>2026-05-02T14:48:24.069Z</time></trkpt><trkpt lat="43.4999621" lon="10.6813172"><ele>152.0</ele><time>2026-05-02T14:48:27.016Z</time></trkpt><trkpt lat="43.4998815" lon="10.6812812"><ele>152.33333333333334</ele><time>2026-05-02T14:48:30.016Z</time></trkpt><trkpt lat="43.4997997" lon="10.681245"><ele>152.66666666666666</ele><time>2026-05-02T14:48:33.018Z</time></trkpt><trkpt lat="43.4997154" lon="10.6812001"><ele>153.0</ele><time>2026-05-02T14:48:36.039Z</time></trkpt><trkpt lat="43.4996391" lon="10.6811493"><ele>153.85714285714286</ele><time>2026-05-02T14:48:39.044Z</time></trkpt><trkpt lat="43.4995652" lon="10.6810866"><ele>154.71428571428572</ele><time>2026-05-02T14:48:42.018Z</time></trkpt><trkpt lat="43.4995117" lon="10.6810336"><ele>155.57142857142856</ele><time>2026-05-02T14:48:44.028Z</time></trkpt><trkpt lat="43.4994624" lon="10.6809747"><ele>156.42857142857144</ele><time>2026-05-02T14:48:46.016Z</time></trkpt><trkpt lat="43.4994111" lon="10.6809151"><ele>157.2857142857143</ele><time>2026-05-02T14:48:48.018Z</time></trkpt><trkpt lat="43.4993623" lon="10.6808542"><ele>158.14285714285714</ele><time>2026-05-02T14:48:50.018Z</time></trkpt><trkpt lat="43.499317" lon="10.6807917"><ele>159.0</ele><time>2026-05-02T14:48:52.016Z</time></trkpt><trkpt lat="43.4992609" lon="10.6806989"><ele>159.0</ele><time>2026-05-02T14:48:55.014Z</time></trkpt><trkpt lat="43.4992152" lon="10.6805953"><ele>159.0</ele><time>2026-05-02T14:48:58.026Z</time></trkpt><trkpt lat="43.4991755" lon="10.6804853"><ele>159.0</ele><time>2026-05-02T14:49:01.018Z</time></trkpt><trkpt lat="43.4991518" lon="10.6803692"><ele>159.0</ele><time>2026-05-02T14:49:04.008Z</time></trkpt><trkpt lat="43.4991643" lon="10.680243"><ele>159.0</ele><time>2026-05-02T14:49:07.014Z</time></trkpt><trkpt lat="43.4991726" lon="10.6801444"><ele>159.0</ele><time>2026-05-02T14:49:09.013Z</time></trkpt><trkpt lat="43.4991774" lon="10.6800294"><ele>158.85714285714286</ele><time>2026-05-02T14:49:11.02Z</time></trkpt><trkpt lat="43.4991896" lon="10.6799255"><ele>158.71428571428572</ele><time>2026-05-02T14:49:13.019Z</time></trkpt><trkpt lat="43.4991954" lon="10.6798335"><ele>158.57142857142858</ele><time>2026-05-02T14:49:15.024Z</time></trkpt><trkpt lat="43.4991967" lon="10.6797393"><ele>158.42857142857144</ele><time>2026-05-02T14:49:17.078Z</time></trkpt><trkpt lat="43.4991977" lon="10.6796394"><ele>158.28571428571428</ele><time>2026-05-02T14:49:19.01Z</time></trkpt><trkpt lat="43.4991958" lon="10.6795452"><ele>158.14285714285717</ele><time>2026-05-02T14:49:21.009Z</time></trkpt><trkpt lat="43.4991995" lon="10.6794185"><ele>158.0</ele><time>2026-05-02T14:49:24.018Z</time></trkpt><trkpt lat="43.4992038" lon="10.679291"><ele>157.33333333333331</ele><time>2026-05-02T14:49:27.03Z</time></trkpt><trkpt lat="43.4992029" lon="10.6792019"><ele>156.66666666666666</ele><time>2026-05-02T14:49:29.016Z</time></trkpt><trkpt lat="43.4991919" lon="10.679073"><ele>156.0</ele><time>2026-05-02T14:49:32.005Z</time></trkpt><trkpt lat="43.4991723" lon="10.6789783"><ele>155.33333333333334</ele><time>2026-05-02T14:49:34.02Z</time></trkpt><trkpt lat="43.4991568" lon="10.6788858"><ele>154.66666666666669</ele><time>2026-05-02T14:49:36.02Z</time></trkpt><trkpt lat="43.4991369" lon="10.6787672"><ele>154.0</ele><time>2026-05-02T14:49:39.019Z</time></trkpt><trkpt lat="43.4991221" lon="10.678655"><ele>154.0</ele><time>2026-05-02T14:49:42.029Z</time></trkpt><trkpt lat="43.4991205" lon="10.6785347"><ele>154.0</ele><time>2026-05-02T14:49:45.032Z</time></trkpt><trkpt lat="43.499123" lon="10.6784085"><ele>154.0</ele><time>2026-05-02T14:49:48.018Z</time></trkpt><trkpt lat="43.4991326" lon="10.6783207"><ele>154.0</ele><time>2026-05-02T14:49:50.013Z</time></trkpt><trkpt lat="43.4991536" lon="10.67819"><ele>154.0</ele><time>2026-05-02T14:49:53.02Z</time></trkpt><trkpt lat="43.4991837" lon="10.6781024"><ele>154.0</ele><time>2026-05-02T14:49:55.012Z</time></trkpt><trkpt lat="43.4992164" lon="10.6780144"><ele>154.0</ele><time>2026-05-02T14:49:57.024Z</time></trkpt><trkpt lat="43.4992411" lon="10.6779334"><ele>154.0</ele><time>2026-05-02T14:49:59.018Z</time></trkpt><trkpt lat="43.4992665" lon="10.6778432"><ele>154.0</ele><time>2026-05-02T14:50:01.023Z</time></trkpt><trkpt lat="43.4992844" lon="10.6777461"><ele>154.0</ele><time>2026-05-02T14:50:03.006Z</time></trkpt><trkpt lat="43.4992959" lon="10.6776332"><ele>154.0</ele><time>2026-05-02T14:50:05.008Z</time></trkpt><trkpt lat="43.4993125" lon="10.6775119"><ele>154.0</ele><time>2026-05-02T14:50:07.02Z</time></trkpt><trkpt lat="43.4993103" lon="10.6774027"><ele>153.66666666666669</ele><time>2026-05-02T14:50:09.013Z</time></trkpt><trkpt lat="43.4993129" lon="10.6772913"><ele>153.33333333333334</ele><time>2026-05-02T14:50:11.014Z</time></trkpt><trkpt lat="43.4993124" lon="10.6771867"><ele>153.0</ele><time>2026-05-02T14:50:13.022Z</time></trkpt><trkpt lat="43.4993009" lon="10.6770897"><ele>152.66666666666666</ele><time>2026-05-02T14:50:15.006Z</time></trkpt><trkpt lat="43.4992909" lon="10.6769884"><ele>152.33333333333331</ele><time>2026-05-02T14:50:17.025Z</time></trkpt><trkpt lat="43.4992755" lon="10.6768843"><ele>152.0</ele><time>2026-05-02T14:50:19.028Z</time></trkpt><trkpt lat="43.4992471" lon="10.6767739"><ele>150.66666666666666</ele><time>2026-05-02T14:50:21.017Z</time></trkpt><trkpt lat="43.4992092" lon="10.6766515"><ele>149.33333333333331</ele><time>2026-05-02T14:50:23.013Z</time></trkpt><trkpt lat="43.49917" lon="10.6765374"><ele>148.0</ele><time>2026-05-02T14:50:25.019Z</time></trkpt><trkpt lat="43.4991381" lon="10.676431"><ele>146.66666666666666</ele><time>2026-05-02T14:50:27.014Z</time></trkpt><trkpt lat="43.4991081" lon="10.6763211"><ele>145.33333333333334</ele><time>2026-05-02T14:50:29.013Z</time></trkpt><trkpt lat="43.4990721" lon="10.6762109"><ele>144.0</ele><time>2026-05-02T14:50:31.02Z</time></trkpt><trkpt lat="43.4990238" lon="10.6760941"><ele>142.2</ele><time>2026-05-02T14:50:33Z</time></trkpt><trkpt lat="43.4989703" lon="10.6759741"><ele>140.4</ele><time>2026-05-02T14:50:35.016Z</time></trkpt><trkpt lat="43.4989216" lon="10.6758423"><ele>138.6</ele><time>2026-05-02T14:50:37.014Z</time></trkpt><trkpt lat="43.4988707" lon="10.6757008"><ele>136.8</ele><time>2026-05-02T14:50:39.024Z</time></trkpt><trkpt lat="43.4988242" lon="10.6755709"><ele>135.0</ele><time>2026-05-02T14:50:41.016Z</time></trkpt><trkpt lat="43.4987777" lon="10.6754384"><ele>134.8</ele><time>2026-05-02T14:50:43.018Z</time></trkpt><trkpt lat="43.4987435" lon="10.6753126"><ele>134.6</ele><time>2026-05-02T14:50:45.016Z</time></trkpt><trkpt lat="43.4987002" lon="10.6751927"><ele>134.4</ele><time>2026-05-02T14:50:47.01Z</time></trkpt><trkpt lat="43.4986606" lon="10.6750705"><ele>134.2</ele><time>2026-05-02T14:50:49.025Z</time></trkpt><trkpt lat="43.4986155" lon="10.6749414"><ele>134.0</ele><time>2026-05-02T14:50:51.017Z</time></trkpt><trkpt lat="43.4985684" lon="10.6747994"><ele>134.0</ele><time>2026-05-02T14:50:53.018Z</time></trkpt><trkpt lat="43.4985254" lon="10.6746492"><ele>134.0</ele><time>2026-05-02T14:50:55.032Z</time></trkpt><trkpt lat="43.498492" lon="10.6745098"><ele>134.0</ele><time>2026-05-02T14:50:57.021Z</time></trkpt><trkpt lat="43.4984662" lon="10.6743663"><ele>134.0</ele><time>2026-05-02T14:50:59.013Z</time></trkpt><trkpt lat="43.4984423" lon="10.6742219"><ele>134.0</ele><time>2026-05-02T14:51:01.007Z</time></trkpt><trkpt lat="43.4984364" lon="10.6740594"><ele>134.16666666666666</ele><time>2026-05-02T14:51:03.017Z</time></trkpt><trkpt lat="43.498435" lon="10.6739657"><ele>134.33333333333331</ele><time>2026-05-02T14:51:04.023Z</time></trkpt><trkpt lat="43.4984339" lon="10.673875"><ele>134.5</ele><time>2026-05-02T14:51:05.015Z</time></trkpt><trkpt lat="43.4984303" lon="10.6737256"><ele>134.66666666666666</ele><time>2026-05-02T14:51:07.014Z</time></trkpt><trkpt lat="43.4984299" lon="10.6735991"><ele>134.83333333333334</ele><time>2026-05-02T14:51:09.025Z</time></trkpt><trkpt lat="43.4984112" lon="10.6734895"><ele>135.0</ele><time>2026-05-02T14:51:11.006Z</time></trkpt><trkpt lat="43.4983793" lon="10.6733804"><ele>134.4</ele><time>2026-05-02T14:51:13.015Z</time></trkpt><trkpt lat="43.4983418" lon="10.6732624"><ele>133.8</ele><time>2026-05-02T14:51:15.017Z</time></trkpt><trkpt lat="43.4982934" lon="10.6731242"><ele>133.2</ele><time>2026-05-02T14:51:17.015Z</time></trkpt><trkpt lat="43.4982395" lon="10.6729853"><ele>132.6</ele><time>2026-05-02T14:51:19.021Z</time></trkpt><trkpt lat="43.4981824" lon="10.6728511"><ele>132.0</ele><time>2026-05-02T14:51:21.013Z</time></trkpt><trkpt lat="43.4981071" lon="10.6727088"><ele>131.0</ele><time>2026-05-02T14:51:23.015Z</time></trkpt><trkpt lat="43.4980675" lon="10.6726335"><ele>130.0</ele><time>2026-05-02T14:51:24.004Z</time></trkpt><trkpt lat="43.4979976" lon="10.672508"><ele>129.0</ele><time>2026-05-02T14:51:26.018Z</time></trkpt><trkpt lat="43.4979531" lon="10.6723551"><ele>128.0</ele><time>2026-05-02T14:51:28.01Z</time></trkpt><trkpt lat="43.4979114" lon="10.6722083"><ele>127.0</ele><time>2026-05-02T14:51:30.013Z</time></trkpt><trkpt lat="43.4978729" lon="10.6720504"><ele>126.25</ele><time>2026-05-02T14:51:32.019Z</time></trkpt><trkpt lat="43.4978528" lon="10.6718924"><ele>125.5</ele><time>2026-05-02T14:51:34.022Z</time></trkpt><trkpt lat="43.4978348" lon="10.6717398"><ele>124.75</ele><time>2026-05-02T14:51:36.018Z</time></trkpt><trkpt lat="43.4978138" lon="10.6715881"><ele>124.0</ele><time>2026-05-02T14:51:38.02Z</time></trkpt><trkpt lat="43.4977873" lon="10.6714291"><ele>124.0</ele><time>2026-05-02T14:51:40.055Z</time></trkpt><trkpt lat="43.4977625" lon="10.6712805"><ele>124.0</ele><time>2026-05-02T14:51:42.023Z</time></trkpt><trkpt lat="43.4977437" lon="10.6711282"><ele>124.0</ele><time>2026-05-02T14:51:44.021Z</time></trkpt><trkpt lat="43.497735" lon="10.6709739"><ele>124.0</ele><time>2026-05-02T14:51:46.013Z</time></trkpt><trkpt lat="43.497726" lon="10.6708103"><ele>123.6</ele><time>2026-05-02T14:51:48.022Z</time></trkpt><trkpt lat="43.4977168" lon="10.6707226"><ele>123.2</ele><time>2026-05-02T14:51:49.012Z</time></trkpt><trkpt lat="43.497706" lon="10.6706336"><ele>122.79999999999998</ele><time>2026-05-02T14:51:50.006Z</time></trkpt><trkpt lat="43.4976786" lon="10.6704667"><ele>122.39999999999999</ele><time>2026-05-02T14:51:52.013Z</time></trkpt><trkpt lat="43.4976559" lon="10.6703033"><ele>122.0</ele><time>2026-05-02T14:51:54.008Z</time></trkpt><trkpt lat="43.4976372" lon="10.6701459"><ele>120.99999999999999</ele><time>2026-05-02T14:51:56.007Z</time></trkpt><trkpt lat="43.4976049" lon="10.6699863"><ele>120.0</ele><time>2026-05-02T14:51:58.02Z</time></trkpt><trkpt lat="43.4975842" lon="10.6699028"><ele>118.99999999999999</ele><time>2026-05-02T14:51:59.02Z</time></trkpt><trkpt lat="43.4975629" lon="10.6698184"><ele>117.99999999999999</ele><time>2026-05-02T14:52:00.015Z</time></trkpt><trkpt lat="43.4975426" lon="10.6697338"><ele>117.0</ele><time>2026-05-02T14:52:01.02Z</time></trkpt><trkpt lat="43.4975236" lon="10.6696483"><ele>115.99999999999999</ele><time>2026-05-02T14:52:02.026Z</time></trkpt><trkpt lat="43.4974997" lon="10.6695668"><ele>114.99999999999999</ele><time>2026-05-02T14:52:03.018Z</time></trkpt><trkpt lat="43.4974665" lon="10.6694115"><ele>114.6</ele><time>2026-05-02T14:52:05.016Z</time></trkpt><trkpt lat="43.4974272" lon="10.6692612"><ele>114.2</ele><time>2026-05-02T14:52:07.017Z</time></trkpt><trkpt lat="43.4973716" lon="10.6691221"><ele>113.80000000000001</ele><time>2026-05-02T14:52:09.017Z</time></trkpt><trkpt lat="43.4973066" lon="10.6690044"><ele>113.4</ele><time>2026-05-02T14:52:11.025Z</time></trkpt><trkpt lat="43.4972425" lon="10.6689045"><ele>113.0</ele><time>2026-05-02T14:52:13.018Z</time></trkpt><trkpt lat="43.497151" lon="10.6688143"><ele>111.80000000000001</ele><time>2026-05-02T14:52:15.007Z</time></trkpt><trkpt lat="43.497049" lon="10.6687594"><ele>110.60000000000001</ele><time>2026-05-02T14:52:17.031Z</time></trkpt><trkpt lat="43.4969466" lon="10.6687099"><ele>109.39999999999999</ele><time>2026-05-02T14:52:19.025Z</time></trkpt><trkpt lat="43.496848" lon="10.6686386"><ele>108.19999999999999</ele><time>2026-05-02T14:52:21.017Z</time></trkpt><trkpt lat="43.4967505" lon="10.6685631"><ele>107.0</ele><time>2026-05-02T14:52:23.022Z</time></trkpt><trkpt lat="43.496663" lon="10.668465"><ele>107.0</ele><time>2026-05-02T14:52:25.016Z</time></trkpt><trkpt lat="43.4965946" lon="10.6683414"><ele>106.99999999999999</ele><time>2026-05-02T14:52:27.022Z</time></trkpt><trkpt lat="43.4965401" lon="10.668192"><ele>106.99999999999999</ele><time>2026-05-02T14:52:29.031Z</time></trkpt><trkpt lat="43.4964909" lon="10.6680393"><ele>107.0</ele><time>2026-05-02T14:52:31.04Z</time></trkpt><trkpt lat="43.4964597" lon="10.6679626"><ele>107.0</ele><time>2026-05-02T14:52:32.033Z</time></trkpt><trkpt lat="43.4964208" lon="10.6678912"><ele>107.00000000000001</ele><time>2026-05-02T14:52:33.018Z</time></trkpt><trkpt lat="43.496374" lon="10.6678218"><ele>107.0</ele><time>2026-05-02T14:52:34.026Z</time></trkpt><trkpt lat="43.4963271" lon="10.667747"><ele>107.0</ele><time>2026-05-02T14:52:35.024Z</time></trkpt><trkpt lat="43.4962805" lon="10.6676731"><ele>107.0</ele><time>2026-05-02T14:52:36.027Z</time></trkpt><trkpt lat="43.4962434" lon="10.6675859"><ele>107.0</ele><time>2026-05-02T14:52:37.015Z</time></trkpt><trkpt lat="43.4962275" lon="10.6674919"><ele>107.00000000000001</ele><time>2026-05-02T14:52:38.02Z</time></trkpt><trkpt lat="43.4962354" lon="10.6673889"><ele>107.0</ele><time>2026-05-02T14:52:39.023Z</time></trkpt><trkpt lat="43.4962479" lon="10.6672888"><ele>106.42857142857143</ele><time>2026-05-02T14:52:40.012Z</time></trkpt><trkpt lat="43.4962605" lon="10.6671967"><ele>105.85714285714286</ele><time>2026-05-02T14:52:41.027Z</time></trkpt><trkpt lat="43.4962768" lon="10.6671038"><ele>105.28571428571428</ele><time>2026-05-02T14:52:42.017Z</time></trkpt><trkpt lat="43.4962945" lon="10.6670065"><ele>104.71428571428572</ele><time>2026-05-02T14:52:43.028Z</time></trkpt><trkpt lat="43.4963037" lon="10.6669107"><ele>104.14285714285714</ele><time>2026-05-02T14:52:44.019Z</time></trkpt><trkpt lat="43.4963211" lon="10.6668199"><ele>103.57142857142857</ele><time>2026-05-02T14:52:45.018Z</time></trkpt><trkpt lat="43.4963393" lon="10.6667313"><ele>103.0</ele><time>2026-05-02T14:52:46.021Z</time></trkpt><trkpt lat="43.4963621" lon="10.6666449"><ele>101.99999999999999</ele><time>2026-05-02T14:52:47.03Z</time></trkpt><trkpt lat="43.4963905" lon="10.6665597"><ele>101.0</ele><time>2026-05-02T14:52:48.029Z</time></trkpt><trkpt lat="43.4964276" lon="10.6664821"><ele>100.0</ele><time>2026-05-02T14:52:49.015Z</time></trkpt><trkpt lat="43.4964741" lon="10.6664143"><ele>99.0</ele><time>2026-05-02T14:52:50.017Z</time></trkpt><trkpt lat="43.4965297" lon="10.6663448"><ele>98.0</ele><time>2026-05-02T14:52:51.022Z</time></trkpt><trkpt lat="43.4965799" lon="10.6662833"><ele>96.99999999999999</ele><time>2026-05-02T14:52:52.019Z</time></trkpt><trkpt lat="43.4966325" lon="10.6662236"><ele>96.0</ele><time>2026-05-02T14:52:53.018Z</time></trkpt><trkpt lat="43.4967091" lon="10.6660938"><ele>95.33333333333333</ele><time>2026-05-02T14:52:55.019Z</time></trkpt><trkpt lat="43.4967438" lon="10.6660187"><ele>94.66666666666667</ele><time>2026-05-02T14:52:56.015Z</time></trkpt><trkpt lat="43.4968009" lon="10.6658699"><ele>94.0</ele><time>2026-05-02T14:52:58.03Z</time></trkpt><trkpt lat="43.4968277" lon="10.6657513"><ele>93.33333333333334</ele><time>2026-05-02T14:53:00.103Z</time></trkpt><trkpt lat="43.4968409" lon="10.6656618"><ele>92.66666666666667</ele><time>2026-05-02T14:53:02.074Z</time></trkpt><trkpt lat="43.4968442" lon="10.6655498"><ele>92.0</ele><time>2026-05-02T14:53:05.085Z</time></trkpt><trkpt lat="43.4968511" lon="10.6654563"><ele>92.0</ele><time>2026-05-02T14:53:07.081Z</time></trkpt><trkpt lat="43.4968695" lon="10.6653607"><ele>92.0</ele><time>2026-05-02T14:53:09.074Z</time></trkpt><trkpt lat="43.4968965" lon="10.6652385"><ele>92.0</ele><time>2026-05-02T14:53:11.079Z</time></trkpt><trkpt lat="43.4968845" lon="10.6651005"><ele>92.0</ele><time>2026-05-02T14:53:13.081Z</time></trkpt><trkpt lat="43.4968819" lon="10.6649613"><ele>92.0</ele><time>2026-05-02T14:53:15.068Z</time></trkpt><trkpt lat="43.4969029" lon="10.6648168"><ele>92.25</ele><time>2026-05-02T14:53:17.081Z</time></trkpt><trkpt lat="43.4969494" lon="10.6646741"><ele>92.5</ele><time>2026-05-02T14:53:19.072Z</time></trkpt><trkpt lat="43.4969956" lon="10.6645236"><ele>92.75</ele><time>2026-05-02T14:53:21.069Z</time></trkpt><trkpt lat="43.4970374" lon="10.6643746"><ele>93.0</ele><time>2026-05-02T14:53:23.093Z</time></trkpt><trkpt lat="43.4970871" lon="10.6642308"><ele>93.0</ele><time>2026-05-02T14:53:25.067Z</time></trkpt><trkpt lat="43.4971479" lon="10.6641009"><ele>93.0</ele><time>2026-05-02T14:53:27.088Z</time></trkpt><trkpt lat="43.4972201" lon="10.663988"><ele>93.0</ele><time>2026-05-02T14:53:29.075Z</time></trkpt><trkpt lat="43.4972783" lon="10.6639496"><ele>93.0</ele><time>2026-05-02T14:53:30.072Z</time></trkpt><trkpt lat="43.497341" lon="10.663865"><ele>93.0</ele><time>2026-05-02T14:53:32.079Z</time></trkpt><trkpt lat="43.4973935" lon="10.663813"><ele>93.0</ele><time>2026-05-02T14:53:42.067Z</time></trkpt><trkpt lat="43.4974625" lon="10.6638157"><ele>93.0</ele><time>2026-05-02T14:54:02.076Z</time></trkpt><trkpt lat="43.4975261" lon="10.66383"><ele>93.0</ele><time>2026-05-02T14:54:07.074Z</time></trkpt><trkpt lat="43.4976083" lon="10.6638145"><ele>93.0</ele><time>2026-05-02T14:54:18.079Z</time></trkpt><trkpt lat="43.4976854" lon="10.6638162"><ele>93.0</ele><time>2026-05-02T14:54:20.106Z</time></trkpt><trkpt lat="43.497796" lon="10.6638187"><ele>93.0</ele><time>2026-05-02T14:54:22.072Z</time></trkpt><trkpt lat="43.497859" lon="10.6638176"><ele>93.0</ele><time>2026-05-02T14:54:23.072Z</time></trkpt><trkpt lat="43.4979279" lon="10.6638191"><ele>93.0</ele><time>2026-05-02T14:54:24.083Z</time></trkpt><trkpt lat="43.4980038" lon="10.6638232"><ele>93.0</ele><time>2026-05-02T14:54:25.073Z</time></trkpt><trkpt lat="43.4980931" lon="10.6638199"><ele>93.0</ele><time>2026-05-02T14:54:26.064Z</time></trkpt><trkpt lat="43.498196" lon="10.663809"><ele>93.0</ele><time>2026-05-02T14:54:27.081Z</time></trkpt><trkpt lat="43.4982982" lon="10.6637923"><ele>93.0</ele><time>2026-05-02T14:54:28.077Z</time></trkpt><trkpt lat="43.4984037" lon="10.663773"><ele>93.0</ele><time>2026-05-02T14:54:29.078Z</time></trkpt><trkpt lat="43.4985172" lon="10.6637548"><ele>93.0</ele><time>2026-05-02T14:54:30.08Z</time></trkpt><trkpt lat="43.4986436" lon="10.6637354"><ele>93.0</ele><time>2026-05-02T14:54:31.079Z</time></trkpt><trkpt lat="43.4987763" lon="10.6637137"><ele>93.0</ele><time>2026-05-02T14:54:32.082Z</time></trkpt><trkpt lat="43.4989096" lon="10.6636923"><ele>92.5</ele><time>2026-05-02T14:54:33.073Z</time></trkpt><trkpt lat="43.4990419" lon="10.6636724"><ele>92.0</ele><time>2026-05-02T14:54:34.088Z</time></trkpt><trkpt lat="43.4991718" lon="10.6636542"><ele>91.5</ele><time>2026-05-02T14:54:35.078Z</time></trkpt><trkpt lat="43.4993069" lon="10.6636392"><ele>91.0</ele><time>2026-05-02T14:54:36.078Z</time></trkpt><trkpt lat="43.4994453" lon="10.6636233"><ele>92.0</ele><time>2026-05-02T14:54:37.084Z</time></trkpt><trkpt lat="43.4995947" lon="10.6636037"><ele>93.0</ele><time>2026-05-02T14:54:38.071Z</time></trkpt><trkpt lat="43.499746" lon="10.663583"><ele>94.0</ele><time>2026-05-02T14:54:39.08Z</time></trkpt><trkpt lat="43.4998934" lon="10.6635633"><ele>94.0</ele><time>2026-05-02T14:54:40.081Z</time></trkpt><trkpt lat="43.5000396" lon="10.6635428"><ele>94.0</ele><time>2026-05-02T14:54:41.089Z</time></trkpt><trkpt lat="43.5001867" lon="10.663514"><ele>94.0</ele><time>2026-05-02T14:54:42.073Z</time></trkpt><trkpt lat="43.5003355" lon="10.6634776"><ele>94.0</ele><time>2026-05-02T14:54:43.082Z</time></trkpt><trkpt lat="43.5004832" lon="10.6634264"><ele>92.66666666666666</ele><time>2026-05-02T14:54:44.102Z</time></trkpt><trkpt lat="43.500628" lon="10.6633651"><ele>91.33333333333333</ele><time>2026-05-02T14:54:45.073Z</time></trkpt><trkpt lat="43.5007715" lon="10.6632923"><ele>90.0</ele><time>2026-05-02T14:54:46.08Z</time></trkpt><trkpt lat="43.5009131" lon="10.6632115"><ele>90.0</ele><time>2026-05-02T14:54:47.074Z</time></trkpt><trkpt lat="43.501051" lon="10.6631287"><ele>90.0</ele><time>2026-05-02T14:54:48.077Z</time></trkpt><trkpt lat="43.5011874" lon="10.6630451"><ele>90.0</ele><time>2026-05-02T14:54:49.096Z</time></trkpt><trkpt lat="43.5013181" lon="10.662957"><ele>90.0</ele><time>2026-05-02T14:54:50.089Z</time></trkpt><trkpt lat="43.5014427" lon="10.6628598"><ele>89.5</ele><time>2026-05-02T14:54:51.083Z</time></trkpt><trkpt lat="43.5015602" lon="10.6627562"><ele>89.0</ele><time>2026-05-02T14:54:52.067Z</time></trkpt><trkpt lat="43.5016747" lon="10.6626453"><ele>88.5</ele><time>2026-05-02T14:54:53.076Z</time></trkpt><trkpt lat="43.5017873" lon="10.6625309"><ele>88.0</ele><time>2026-05-02T14:54:54.075Z</time></trkpt><trkpt lat="43.5018946" lon="10.6624101"><ele>88.0</ele><time>2026-05-02T14:54:55.068Z</time></trkpt><trkpt lat="43.5019981" lon="10.6622794"><ele>88.0</ele><time>2026-05-02T14:54:56.074Z</time></trkpt><trkpt lat="43.5020968" lon="10.6621386"><ele>88.0</ele><time>2026-05-02T14:54:57.079Z</time></trkpt><trkpt lat="43.5021995" lon="10.6619927"><ele>88.0</ele><time>2026-05-02T14:54:58.062Z</time></trkpt><trkpt lat="43.5023039" lon="10.6618473"><ele>87.25</ele><time>2026-05-02T14:54:59.085Z</time></trkpt><trkpt lat="43.5024002" lon="10.6617026"><ele>86.5</ele><time>2026-05-02T14:55:00.082Z</time></trkpt><trkpt lat="43.5025023" lon="10.6615642"><ele>85.75</ele><time>2026-05-02T14:55:01.076Z</time></trkpt><trkpt lat="43.5026135" lon="10.6614395"><ele>85.0</ele><time>2026-05-02T14:55:02.079Z</time></trkpt><trkpt lat="43.5027316" lon="10.6613254"><ele>85.0</ele><time>2026-05-02T14:55:03.081Z</time></trkpt><trkpt lat="43.5028592" lon="10.6612247"><ele>85.0</ele><time>2026-05-02T14:55:04.091Z</time></trkpt><trkpt lat="43.5029864" lon="10.6611241"><ele>85.0</ele><time>2026-05-02T14:55:05.077Z</time></trkpt><trkpt lat="43.5031248" lon="10.661037"><ele>85.0</ele><time>2026-05-02T14:55:06.08Z</time></trkpt><trkpt lat="43.5032666" lon="10.6609623"><ele>85.0</ele><time>2026-05-02T14:55:07.082Z</time></trkpt><trkpt lat="43.5034121" lon="10.660896"><ele>85.0</ele><time>2026-05-02T14:55:08.08Z</time></trkpt><trkpt lat="43.5035561" lon="10.6608364"><ele>85.0</ele><time>2026-05-02T14:55:09.076Z</time></trkpt><trkpt lat="43.5036913" lon="10.6607767"><ele>85.0</ele><time>2026-05-02T14:55:10.102Z</time></trkpt><trkpt lat="43.5038247" lon="10.6607105"><ele>84.0</ele><time>2026-05-02T14:55:11.076Z</time></trkpt><trkpt lat="43.5039563" lon="10.660646"><ele>83.0</ele><time>2026-05-02T14:55:12.062Z</time></trkpt><trkpt lat="43.5040905" lon="10.6605813"><ele>82.0</ele><time>2026-05-02T14:55:13.084Z</time></trkpt><trkpt lat="43.5042276" lon="10.6605207"><ele>81.0</ele><time>2026-05-02T14:55:14.085Z</time></trkpt><trkpt lat="43.5043656" lon="10.660461"><ele>81.0</ele><time>2026-05-02T14:55:15.079Z</time></trkpt><trkpt lat="43.5045028" lon="10.6603959"><ele>81.0</ele><time>2026-05-02T14:55:16.081Z</time></trkpt><trkpt lat="43.5046414" lon="10.6603334"><ele>81.0</ele><time>2026-05-02T14:55:17.067Z</time></trkpt><trkpt lat="43.5047841" lon="10.6602869"><ele>81.0</ele><time>2026-05-02T14:55:18.072Z</time></trkpt><trkpt lat="43.5049272" lon="10.6602611"><ele>81.5</ele><time>2026-05-02T14:55:19.078Z</time></trkpt><trkpt lat="43.5050724" lon="10.6602588"><ele>82.0</ele><time>2026-05-02T14:55:20.08Z</time></trkpt><trkpt lat="43.5052187" lon="10.6602654"><ele>82.5</ele><time>2026-05-02T14:55:21.085Z</time></trkpt><trkpt lat="43.5053667" lon="10.6602784"><ele>83.0</ele><time>2026-05-02T14:55:22.08Z</time></trkpt><trkpt lat="43.5055117" lon="10.6602857"><ele>82.25</ele><time>2026-05-02T14:55:23.076Z</time></trkpt><trkpt lat="43.5056519" lon="10.6602851"><ele>81.5</ele><time>2026-05-02T14:55:24.086Z</time></trkpt><trkpt lat="43.5057883" lon="10.6602671"><ele>80.75</ele><time>2026-05-02T14:55:25.091Z</time></trkpt><trkpt lat="43.5059233" lon="10.6602254"><ele>80.0</ele><time>2026-05-02T14:55:26.09Z</time></trkpt><trkpt lat="43.5060494" lon="10.6601535"><ele>80.0</ele><time>2026-05-02T14:55:27.082Z</time></trkpt><trkpt lat="43.5061649" lon="10.660049"><ele>80.0</ele><time>2026-05-02T14:55:28.076Z</time></trkpt><trkpt lat="43.5062662" lon="10.6599182"><ele>80.0</ele><time>2026-05-02T14:55:29.079Z</time></trkpt><trkpt lat="43.5063605" lon="10.6597714"><ele>80.0</ele><time>2026-05-02T14:55:30.079Z</time></trkpt><trkpt lat="43.5064563" lon="10.6596196"><ele>79.0</ele><time>2026-05-02T14:55:31.078Z</time></trkpt><trkpt lat="43.5065507" lon="10.6594626"><ele>78.0</ele><time>2026-05-02T14:55:32.073Z</time></trkpt><trkpt lat="43.5066492" lon="10.6593107"><ele>77.0</ele><time>2026-05-02T14:55:33.077Z</time></trkpt><trkpt lat="43.5067496" lon="10.6591713"><ele>76.0</ele><time>2026-05-02T14:55:34.085Z</time></trkpt><trkpt lat="43.5068625" lon="10.6590426"><ele>76.0</ele><time>2026-05-02T14:55:35.081Z</time></trkpt><trkpt lat="43.5069824" lon="10.6589187"><ele>76.0</ele><time>2026-05-02T14:55:36.086Z</time></trkpt><trkpt lat="43.5071108" lon="10.6587985"><ele>76.0</ele><time>2026-05-02T14:55:37.073Z</time></trkpt><trkpt lat="43.5072402" lon="10.658685"><ele>76.0</ele><time>2026-05-02T14:55:38.078Z</time></trkpt><trkpt lat="43.5073687" lon="10.6585722"><ele>76.0</ele><time>2026-05-02T14:55:39.095Z</time></trkpt><trkpt lat="43.5075008" lon="10.658454"><ele>76.0</ele><time>2026-05-02T14:55:40.085Z</time></trkpt><trkpt lat="43.5076351" lon="10.658337"><ele>76.0</ele><time>2026-05-02T14:55:41.075Z</time></trkpt><trkpt lat="43.5077675" lon="10.658221"><ele>76.0</ele><time>2026-05-02T14:55:42.092Z</time></trkpt><trkpt lat="43.5078974" lon="10.6581037"><ele>76.0</ele><time>2026-05-02T14:55:43.074Z</time></trkpt><trkpt lat="43.5080272" lon="10.6579848"><ele>76.0</ele><time>2026-05-02T14:55:44.083Z</time></trkpt><trkpt lat="43.5081579" lon="10.6578651"><ele>76.0</ele><time>2026-05-02T14:55:45.072Z</time></trkpt><trkpt lat="43.5082901" lon="10.6577462"><ele>76.0</ele><time>2026-05-02T14:55:46.078Z</time></trkpt><trkpt lat="43.5084234" lon="10.6576286"><ele>76.0</ele><time>2026-05-02T14:55:47.074Z</time></trkpt><trkpt lat="43.5085559" lon="10.6575098"><ele>76.0</ele><time>2026-05-02T14:55:48.079Z</time></trkpt><trkpt lat="43.5086859" lon="10.6573904"><ele>76.0</ele><time>2026-05-02T14:55:49.07Z</time></trkpt><trkpt lat="43.508818" lon="10.6572757"><ele>76.0</ele><time>2026-05-02T14:55:50.082Z</time></trkpt><trkpt lat="43.5089525" lon="10.6571744"><ele>76.0</ele><time>2026-05-02T14:55:51.066Z</time></trkpt><trkpt lat="43.5090872" lon="10.6570917"><ele>76.0</ele><time>2026-05-02T14:55:52.075Z</time></trkpt><trkpt lat="43.5092225" lon="10.6570285"><ele>76.0</ele><time>2026-05-02T14:55:53.074Z</time></trkpt><trkpt lat="43.5093575" lon="10.6569801"><ele>76.0</ele><time>2026-05-02T14:55:54.089Z</time></trkpt><trkpt lat="43.5094952" lon="10.6569402"><ele>76.0</ele><time>2026-05-02T14:55:55.085Z</time></trkpt><trkpt lat="43.5096375" lon="10.6569063"><ele>76.0</ele><time>2026-05-02T14:55:56.077Z</time></trkpt><trkpt lat="43.5097785" lon="10.6568697"><ele>76.0</ele><time>2026-05-02T14:55:57.075Z</time></trkpt><trkpt lat="43.5099248" lon="10.6568326"><ele>76.0</ele><time>2026-05-02T14:55:58.074Z</time></trkpt><trkpt lat="43.510072" lon="10.6567917"><ele>76.0</ele><time>2026-05-02T14:55:59.085Z</time></trkpt><trkpt lat="43.5102133" lon="10.6567411"><ele>76.0</ele><time>2026-05-02T14:56:00.073Z</time></trkpt><trkpt lat="43.5103529" lon="10.6566683"><ele>76.0</ele><time>2026-05-02T14:56:01.065Z</time></trkpt><trkpt lat="43.5104872" lon="10.6565753"><ele>76.0</ele><time>2026-05-02T14:56:02.082Z</time></trkpt><trkpt lat="43.5106156" lon="10.656466"><ele>76.0</ele><time>2026-05-02T14:56:03.079Z</time></trkpt><trkpt lat="43.5107412" lon="10.6563473"><ele>76.0</ele><time>2026-05-02T14:56:04.088Z</time></trkpt><trkpt lat="43.5108633" lon="10.6562238"><ele>75.33333333333333</ele><time>2026-05-02T14:56:05.078Z</time></trkpt><trkpt lat="43.5109868" lon="10.6561011"><ele>74.66666666666667</ele><time>2026-05-02T14:56:06.076Z</time></trkpt><trkpt lat="43.511108" lon="10.6559718"><ele>74.0</ele><time>2026-05-02T14:56:07.074Z</time></trkpt><trkpt lat="43.5112309" lon="10.6558396"><ele>73.66666666666667</ele><time>2026-05-02T14:56:08.076Z</time></trkpt><trkpt lat="43.5113561" lon="10.6557103"><ele>73.33333333333333</ele><time>2026-05-02T14:56:09.072Z</time></trkpt><trkpt lat="43.5114784" lon="10.6555778"><ele>73.0</ele><time>2026-05-02T14:56:10.087Z</time></trkpt><trkpt lat="43.5115987" lon="10.6554479"><ele>73.0</ele><time>2026-05-02T14:56:11.078Z</time></trkpt><trkpt lat="43.5117119" lon="10.6553248"><ele>73.0</ele><time>2026-05-02T14:56:12.082Z</time></trkpt><trkpt lat="43.5118179" lon="10.6552062"><ele>73.0</ele><time>2026-05-02T14:56:13.086Z</time></trkpt><trkpt lat="43.5119183" lon="10.6550907"><ele>73.0</ele><time>2026-05-02T14:56:14.072Z</time></trkpt><trkpt lat="43.5120126" lon="10.6549788"><ele>73.4</ele><time>2026-05-02T14:56:15.073Z</time></trkpt><trkpt lat="43.5121085" lon="10.6548738"><ele>73.8</ele><time>2026-05-02T14:56:16.089Z</time></trkpt><trkpt lat="43.5121955" lon="10.6547759"><ele>74.2</ele><time>2026-05-02T14:56:17.067Z</time></trkpt><trkpt lat="43.5122699" lon="10.6546968"><ele>74.6</ele><time>2026-05-02T14:56:18.068Z</time></trkpt><trkpt lat="43.5123299" lon="10.6546336"><ele>75.0</ele><time>2026-05-02T14:56:19.081Z</time></trkpt><trkpt lat="43.5124119" lon="10.6545535"><ele>75.0</ele><time>2026-05-02T14:56:21.071Z</time></trkpt><trkpt lat="43.5124607" lon="10.654498"><ele>75.0</ele><time>2026-05-02T14:56:23.076Z</time></trkpt><trkpt lat="43.5124766" lon="10.6543894"><ele>75.0</ele><time>2026-05-02T14:56:26.075Z</time></trkpt><trkpt lat="43.5124108" lon="10.6542892"><ele>75.0</ele><time>2026-05-02T14:56:28.078Z</time></trkpt><trkpt lat="43.5123649" lon="10.6542198"><ele>75.0</ele><time>2026-05-02T14:56:29.076Z</time></trkpt><trkpt lat="43.5123123" lon="10.6541391"><ele>75.0</ele><time>2026-05-02T14:56:30.077Z</time></trkpt><trkpt lat="43.5122609" lon="10.6540468"><ele>75.2</ele><time>2026-05-02T14:56:31.08Z</time></trkpt><trkpt lat="43.5122057" lon="10.6539338"><ele>75.4</ele><time>2026-05-02T14:56:32.072Z</time></trkpt><trkpt lat="43.5121588" lon="10.6538139"><ele>75.6</ele><time>2026-05-02T14:56:33.085Z</time></trkpt><trkpt lat="43.5121217" lon="10.6536889"><ele>75.8</ele><time>2026-05-02T14:56:34.082Z</time></trkpt><trkpt lat="43.5120879" lon="10.6535488"><ele>76.0</ele><time>2026-05-02T14:56:35.08Z</time></trkpt><trkpt lat="43.5120554" lon="10.6533985"><ele>77.75</ele><time>2026-05-02T14:56:36.089Z</time></trkpt><trkpt lat="43.5120194" lon="10.65324"><ele>79.5</ele><time>2026-05-02T14:56:37.077Z</time></trkpt><trkpt lat="43.5119784" lon="10.6530775"><ele>81.25</ele><time>2026-05-02T14:56:38.076Z</time></trkpt><trkpt lat="43.5119377" lon="10.6529079"><ele>83.0</ele><time>2026-05-02T14:56:39.076Z</time></trkpt><trkpt lat="43.5118954" lon="10.6527339"><ele>83.75</ele><time>2026-05-02T14:56:40.083Z</time></trkpt><trkpt lat="43.5118526" lon="10.6525541"><ele>84.5</ele><time>2026-05-02T14:56:41.072Z</time></trkpt><trkpt lat="43.5118091" lon="10.6523691"><ele>85.25</ele><time>2026-05-02T14:56:42.082Z</time></trkpt><trkpt lat="43.511766" lon="10.6521779"><ele>86.0</ele><time>2026-05-02T14:56:43.076Z</time></trkpt><trkpt lat="43.5117219" lon="10.651981"><ele>86.0</ele><time>2026-05-02T14:56:44.082Z</time></trkpt><trkpt lat="43.5116768" lon="10.6517829"><ele>86.0</ele><time>2026-05-02T14:56:45.079Z</time></trkpt><trkpt lat="43.5116254" lon="10.6515851"><ele>86.0</ele><time>2026-05-02T14:56:46.085Z</time></trkpt><trkpt lat="43.511573" lon="10.651386"><ele>86.0</ele><time>2026-05-02T14:56:47.082Z</time></trkpt><trkpt lat="43.5115161" lon="10.6511875"><ele>86.0</ele><time>2026-05-02T14:56:48.087Z</time></trkpt><trkpt lat="43.5114561" lon="10.6509895"><ele>86.0</ele><time>2026-05-02T14:56:49.066Z</time></trkpt><trkpt lat="43.5113945" lon="10.6507916"><ele>86.0</ele><time>2026-05-02T14:56:50.074Z</time></trkpt><trkpt lat="43.5113351" lon="10.6505871"><ele>86.0</ele><time>2026-05-02T14:56:51.073Z</time></trkpt><trkpt lat="43.5112782" lon="10.6503791"><ele>86.0</ele><time>2026-05-02T14:56:52.077Z</time></trkpt><trkpt lat="43.5112177" lon="10.6501718"><ele>90.0</ele><time>2026-05-02T14:56:53.083Z</time></trkpt><trkpt lat="43.5111577" lon="10.6499659"><ele>94.0</ele><time>2026-05-02T14:56:54.077Z</time></trkpt><trkpt lat="43.5110909" lon="10.6497485"><ele>98.0</ele><time>2026-05-02T14:56:55.073Z</time></trkpt><trkpt lat="43.5110173" lon="10.6495344"><ele>98.0</ele><time>2026-05-02T14:56:56.088Z</time></trkpt><trkpt lat="43.5109234" lon="10.6493201"><ele>98.0</ele><time>2026-05-02T14:56:57.084Z</time></trkpt><trkpt lat="43.5108159" lon="10.6491124"><ele>98.0</ele><time>2026-05-02T14:56:58.071Z</time></trkpt><trkpt lat="43.5106898" lon="10.6489118"><ele>98.0</ele><time>2026-05-02T14:56:59.07Z</time></trkpt><trkpt lat="43.5105525" lon="10.6487233"><ele>98.0</ele><time>2026-05-02T14:57:00.085Z</time></trkpt><trkpt lat="43.5104065" lon="10.6485337"><ele>98.0</ele><time>2026-05-02T14:57:01.079Z</time></trkpt><trkpt lat="43.5102742" lon="10.6483593"><ele>99.66666666666666</ele><time>2026-05-02T14:57:02.074Z</time></trkpt><trkpt lat="43.5101489" lon="10.6481939"><ele>101.33333333333334</ele><time>2026-05-02T14:57:03.075Z</time></trkpt><trkpt lat="43.5100407" lon="10.6480286"><ele>103.0</ele><time>2026-05-02T14:57:04.077Z</time></trkpt><trkpt lat="43.5099446" lon="10.6478606"><ele>102.75</ele><time>2026-05-02T14:57:05.076Z</time></trkpt><trkpt lat="43.5098648" lon="10.6476863"><ele>102.5</ele><time>2026-05-02T14:57:06.082Z</time></trkpt><trkpt lat="43.5097979" lon="10.6475091"><ele>102.25</ele><time>2026-05-02T14:57:07.083Z</time></trkpt><trkpt lat="43.5097394" lon="10.6473304"><ele>102.0</ele><time>2026-05-02T14:57:08.098Z</time></trkpt><trkpt lat="43.5096848" lon="10.6471496"><ele>102.0</ele><time>2026-05-02T14:57:09.081Z</time></trkpt><trkpt lat="43.5096284" lon="10.6469722"><ele>102.0</ele><time>2026-05-02T14:57:10.074Z</time></trkpt><trkpt lat="43.5095723" lon="10.6467922"><ele>102.0</ele><time>2026-05-02T14:57:11.072Z</time></trkpt><trkpt lat="43.5095175" lon="10.6466113"><ele>102.0</ele><time>2026-05-02T14:57:12.085Z</time></trkpt><trkpt lat="43.5094566" lon="10.6464336"><ele>101.75</ele><time>2026-05-02T14:57:13.073Z</time></trkpt><trkpt lat="43.5094002" lon="10.6462582"><ele>101.5</ele><time>2026-05-02T14:57:14.082Z</time></trkpt><trkpt lat="43.5093388" lon="10.6460789"><ele>101.25</ele><time>2026-05-02T14:57:15.081Z</time></trkpt><trkpt lat="43.5092856" lon="10.6459007"><ele>101.0</ele><time>2026-05-02T14:57:16.081Z</time></trkpt><trkpt lat="43.5092302" lon="10.6457216"><ele>102.25</ele><time>2026-05-02T14:57:17.079Z</time></trkpt><trkpt lat="43.5091767" lon="10.645537"><ele>103.5</ele><time>2026-05-02T14:57:18.08Z</time></trkpt><trkpt lat="43.5091191" lon="10.6453507"><ele>104.75</ele><time>2026-05-02T14:57:19.066Z</time></trkpt><trkpt lat="43.5090585" lon="10.6451668"><ele>106.0</ele><time>2026-05-02T14:57:20.081Z</time></trkpt><trkpt lat="43.508991" lon="10.6449843"><ele>106.33333333333334</ele><time>2026-05-02T14:57:21.082Z</time></trkpt><trkpt lat="43.5089158" lon="10.6448056"><ele>106.66666666666666</ele><time>2026-05-02T14:57:22.075Z</time></trkpt><trkpt lat="43.5088324" lon="10.6446297"><ele>107.0</ele><time>2026-05-02T14:57:23.083Z</time></trkpt><trkpt lat="43.5087464" lon="10.6444536"><ele>107.0</ele><time>2026-05-02T14:57:24.078Z</time></trkpt><trkpt lat="43.5086584" lon="10.6442767"><ele>107.0</ele><time>2026-05-02T14:57:25.076Z</time></trkpt><trkpt lat="43.5085692" lon="10.6440986"><ele>107.0</ele><time>2026-05-02T14:57:26.074Z</time></trkpt><trkpt lat="43.5084753" lon="10.643924"><ele>107.0</ele><time>2026-05-02T14:57:27.071Z</time></trkpt><trkpt lat="43.5083826" lon="10.6437528"><ele>107.0</ele><time>2026-05-02T14:57:28.085Z</time></trkpt><trkpt lat="43.5082918" lon="10.643582"><ele>107.0</ele><time>2026-05-02T14:57:29.067Z</time></trkpt><trkpt lat="43.5082045" lon="10.6434116"><ele>107.33333333333333</ele><time>2026-05-02T14:57:30.067Z</time></trkpt><trkpt lat="43.50812" lon="10.6432418"><ele>107.66666666666666</ele><time>2026-05-02T14:57:31.075Z</time></trkpt><trkpt lat="43.5080326" lon="10.643073"><ele>108.0</ele><time>2026-05-02T14:57:32.085Z</time></trkpt><trkpt lat="43.5079419" lon="10.6429068"><ele>109.0</ele><time>2026-05-02T14:57:33.077Z</time></trkpt><trkpt lat="43.5078532" lon="10.6427392"><ele>110.0</ele><time>2026-05-02T14:57:34.084Z</time></trkpt><trkpt lat="43.507765" lon="10.6425698"><ele>111.0</ele><time>2026-05-02T14:57:35.073Z</time></trkpt><trkpt lat="43.5076764" lon="10.6424058"><ele>111.0</ele><time>2026-05-02T14:57:36.075Z</time></trkpt><trkpt lat="43.5075873" lon="10.6422404"><ele>111.0</ele><time>2026-05-02T14:57:37.072Z</time></trkpt><trkpt lat="43.5074993" lon="10.6420703"><ele>111.0</ele><time>2026-05-02T14:57:38.071Z</time></trkpt><trkpt lat="43.5074094" lon="10.6419014"><ele>111.66666666666666</ele><time>2026-05-02T14:57:39.074Z</time></trkpt><trkpt lat="43.5073203" lon="10.6417311"><ele>112.33333333333333</ele><time>2026-05-02T14:57:40.076Z</time></trkpt><trkpt lat="43.5072314" lon="10.6415594"><ele>113.0</ele><time>2026-05-02T14:57:41.072Z</time></trkpt><trkpt lat="43.5071383" lon="10.6413886"><ele>114.66666666666666</ele><time>2026-05-02T14:57:42.083Z</time></trkpt><trkpt lat="43.5070408" lon="10.6412199"><ele>116.33333333333334</ele><time>2026-05-02T14:57:43.077Z</time></trkpt><trkpt lat="43.5069325" lon="10.6410666"><ele>118.0</ele><time>2026-05-02T14:57:44.072Z</time></trkpt><trkpt lat="43.5068068" lon="10.6409371"><ele>118.75</ele><time>2026-05-02T14:57:45.073Z</time></trkpt><trkpt lat="43.5066753" lon="10.6408312"><ele>119.5</ele><time>2026-05-02T14:57:46.078Z</time></trkpt><trkpt lat="43.506546" lon="10.6407294"><ele>120.25</ele><time>2026-05-02T14:57:47.072Z</time></trkpt><trkpt lat="43.5064258" lon="10.6406377"><ele>121.0</ele><time>2026-05-02T14:57:48.072Z</time></trkpt><trkpt lat="43.506313" lon="10.6405626"><ele>122.19999999999999</ele><time>2026-05-02T14:57:49.077Z</time></trkpt><trkpt lat="43.5062023" lon="10.6405245"><ele>123.39999999999999</ele><time>2026-05-02T14:57:50.072Z</time></trkpt><trkpt lat="43.5060942" lon="10.6405434"><ele>124.6</ele><time>2026-05-02T14:57:51.079Z</time></trkpt><trkpt lat="43.5059948" lon="10.6406083"><ele>125.8</ele><time>2026-05-02T14:57:52.086Z</time></trkpt><trkpt lat="43.5059177" lon="10.6407177"><ele>127.0</ele><time>2026-05-02T14:57:53.069Z</time></trkpt><trkpt lat="43.5058574" lon="10.6408446"><ele>127.0</ele><time>2026-05-02T14:57:54.071Z</time></trkpt><trkpt lat="43.5057911" lon="10.640994"><ele>126.99999999999999</ele><time>2026-05-02T14:57:55.089Z</time></trkpt><trkpt lat="43.5057192" lon="10.6410967"><ele>126.99999999999999</ele><time>2026-05-02T14:57:56.065Z</time></trkpt><trkpt lat="43.5056327" lon="10.6411728"><ele>127.0</ele><time>2026-05-02T14:57:57.075Z</time></trkpt><trkpt lat="43.505526" lon="10.6412049"><ele>127.0</ele><time>2026-05-02T14:57:58.068Z</time></trkpt><trkpt lat="43.5054222" lon="10.6411953"><ele>126.19999999999999</ele><time>2026-05-02T14:57:59.061Z</time></trkpt><trkpt lat="43.5053249" lon="10.6411452"><ele>125.39999999999999</ele><time>2026-05-02T14:58:00.07Z</time></trkpt><trkpt lat="43.5052502" lon="10.6410546"><ele>124.60000000000001</ele><time>2026-05-02T14:58:01.068Z</time></trkpt><trkpt lat="43.5051843" lon="10.640928"><ele>123.80000000000001</ele><time>2026-05-02T14:58:02.076Z</time></trkpt><trkpt lat="43.5051185" lon="10.6408093"><ele>123.0</ele><time>2026-05-02T14:58:03.085Z</time></trkpt><trkpt lat="43.5050567" lon="10.6406978"><ele>124.80000000000001</ele><time>2026-05-02T14:58:04.078Z</time></trkpt><trkpt lat="43.5049937" lon="10.6405794"><ele>126.60000000000001</ele><time>2026-05-02T14:58:05.087Z</time></trkpt><trkpt lat="43.5049251" lon="10.6404551"><ele>128.39999999999998</ele><time>2026-05-02T14:58:06.081Z</time></trkpt><trkpt lat="43.5048573" lon="10.6403291"><ele>130.2</ele><time>2026-05-02T14:58:07.083Z</time></trkpt><trkpt lat="43.5047921" lon="10.6402023"><ele>132.0</ele><time>2026-05-02T14:58:08.081Z</time></trkpt><trkpt lat="43.5047178" lon="10.6400774"><ele>132.6</ele><time>2026-05-02T14:58:09.075Z</time></trkpt><trkpt lat="43.504648" lon="10.6399585"><ele>133.2</ele><time>2026-05-02T14:58:10.077Z</time></trkpt><trkpt lat="43.5045717" lon="10.639849"><ele>133.8</ele><time>2026-05-02T14:58:11.072Z</time></trkpt><trkpt lat="43.5044925" lon="10.6397601"><ele>134.4</ele><time>2026-05-02T14:58:12.076Z</time></trkpt><trkpt lat="43.5044169" lon="10.6396998"><ele>135.0</ele><time>2026-05-02T14:58:13.077Z</time></trkpt><trkpt lat="43.5043365" lon="10.6396459"><ele>136.2</ele><time>2026-05-02T14:58:14.072Z</time></trkpt><trkpt lat="43.5042506" lon="10.6395949"><ele>137.4</ele><time>2026-05-02T14:58:15.075Z</time></trkpt><trkpt lat="43.5041604" lon="10.6395576"><ele>138.6</ele><time>2026-05-02T14:58:16.074Z</time></trkpt><trkpt lat="43.5040701" lon="10.6395247"><ele>139.8</ele><time>2026-05-02T14:58:17.076Z</time></trkpt><trkpt lat="43.5039827" lon="10.6394917"><ele>141.0</ele><time>2026-05-02T14:58:18.078Z</time></trkpt><trkpt lat="43.5039035" lon="10.6394509"><ele>142.33333333333334</ele><time>2026-05-02T14:58:19.078Z</time></trkpt><trkpt lat="43.5038345" lon="10.639402"><ele>143.66666666666666</ele><time>2026-05-02T14:58:20.072Z</time></trkpt><trkpt lat="43.5037818" lon="10.6393447"><ele>145.0</ele><time>2026-05-02T14:58:21.071Z</time></trkpt><trkpt lat="43.5037298" lon="10.6392763"><ele>146.33333333333331</ele><time>2026-05-02T14:58:22.08Z</time></trkpt><trkpt lat="43.5036792" lon="10.6392"><ele>147.66666666666666</ele><time>2026-05-02T14:58:23.075Z</time></trkpt><trkpt lat="43.5036287" lon="10.639109"><ele>149.0</ele><time>2026-05-02T14:58:24.077Z</time></trkpt><trkpt lat="43.5035839" lon="10.6390195"><ele>150.0</ele><time>2026-05-02T14:58:25.079Z</time></trkpt><trkpt lat="43.503537" lon="10.6389391"><ele>151.0</ele><time>2026-05-02T14:58:26.161Z</time></trkpt><trkpt lat="43.5034895" lon="10.638841"><ele>152.0</ele><time>2026-05-02T14:58:27.081Z</time></trkpt><trkpt lat="43.5034359" lon="10.6387398"><ele>153.0</ele><time>2026-05-02T14:58:28.078Z</time></trkpt><trkpt lat="43.5033828" lon="10.6386381"><ele>154.0</ele><time>2026-05-02T14:58:29.087Z</time></trkpt><trkpt lat="43.5033277" lon="10.6385327"><ele>155.0</ele><time>2026-05-02T14:58:30.075Z</time></trkpt><trkpt lat="43.5032749" lon="10.638423"><ele>156.2</ele><time>2026-05-02T14:58:31.08Z</time></trkpt><trkpt lat="43.5032205" lon="10.6383113"><ele>157.4</ele><time>2026-05-02T14:58:32.076Z</time></trkpt><trkpt lat="43.5031638" lon="10.6381955"><ele>158.60000000000002</ele><time>2026-05-02T14:58:33.076Z</time></trkpt><trkpt lat="43.5031068" lon="10.6380778"><ele>159.8</ele><time>2026-05-02T14:58:34.075Z</time></trkpt><trkpt lat="43.5030474" lon="10.6379554"><ele>161.0</ele><time>2026-05-02T14:58:35.076Z</time></trkpt><trkpt lat="43.5029864" lon="10.6378316"><ele>162.0</ele><time>2026-05-02T14:58:36.078Z</time></trkpt><trkpt lat="43.502921" lon="10.6377036"><ele>163.0</ele><time>2026-05-02T14:58:37.067Z</time></trkpt><trkpt lat="43.5028682" lon="10.6375741"><ele>164.0</ele><time>2026-05-02T14:58:38.089Z</time></trkpt><trkpt lat="43.5028329" lon="10.6374357"><ele>165.0</ele><time>2026-05-02T14:58:39.077Z</time></trkpt><trkpt lat="43.5028163" lon="10.6372967"><ele>166.0</ele><time>2026-05-02T14:58:40.074Z</time></trkpt><trkpt lat="43.5028141" lon="10.6371664"><ele>167.0</ele><time>2026-05-02T14:58:41.072Z</time></trkpt><trkpt lat="43.5028282" lon="10.6370463"><ele>168.0</ele><time>2026-05-02T14:58:42.074Z</time></trkpt><trkpt lat="43.5028496" lon="10.6369378"><ele>169.0</ele><time>2026-05-02T14:58:43.071Z</time></trkpt><trkpt lat="43.5028737" lon="10.6368493"><ele>170.0</ele><time>2026-05-02T14:58:44.078Z</time></trkpt><trkpt lat="43.5029343" lon="10.6367284"><ele>171.0</ele><time>2026-05-02T14:58:46.073Z</time></trkpt><trkpt lat="43.5030005" lon="10.636672"><ele>172.0</ele><time>2026-05-02T14:58:48.077Z</time></trkpt><trkpt lat="43.5030622" lon="10.6366388"><ele>172.00000000000003</ele><time>2026-05-02T14:58:53.079Z</time></trkpt><trkpt lat="43.5031264" lon="10.6365853"><ele>172.0</ele><time>2026-05-02T14:59:41.092Z</time></trkpt><trkpt lat="43.5032014" lon="10.6365537"><ele>172.0</ele><time>2026-05-02T14:59:45.08Z</time></trkpt><trkpt lat="43.5032762" lon="10.636504"><ele>172.0</ele><time>2026-05-02T14:59:49.073Z</time></trkpt><trkpt lat="43.5033351" lon="10.6364622"><ele>172.0</ele><time>2026-05-02T14:59:52.075Z</time></trkpt><trkpt lat="43.5033917" lon="10.6364132"><ele>172.00000000000003</ele><time>2026-05-02T14:59:57.069Z</time></trkpt><trkpt lat="43.5034587" lon="10.636365"><ele>172.0</ele><time>2026-05-02T15:01:10.082Z</time></trkpt><trkpt lat="43.5035515" lon="10.6363017"><ele>172.0</ele><time>2026-05-02T15:01:13.076Z</time></trkpt><trkpt lat="43.5036293" lon="10.636229"><ele>172.0</ele><time>2026-05-02T15:01:15.069Z</time></trkpt><trkpt lat="43.5037201" lon="10.6361562"><ele>172.0</ele><time>2026-05-02T15:01:17.074Z</time></trkpt><trkpt lat="43.5037994" lon="10.6360505"><ele>172.0</ele><time>2026-05-02T15:01:19.071Z</time></trkpt><trkpt lat="43.5038446" lon="10.6359251"><ele>172.0</ele><time>2026-05-02T15:01:21.071Z</time></trkpt><trkpt lat="43.5038657" lon="10.6358031"><ele>171.2857142857143</ele><time>2026-05-02T15:01:23.071Z</time></trkpt><trkpt lat="43.5038768" lon="10.635708"><ele>170.57142857142858</ele><time>2026-05-02T15:01:25.077Z</time></trkpt><trkpt lat="43.5038951" lon="10.6355812"><ele>169.85714285714286</ele><time>2026-05-02T15:01:28.072Z</time></trkpt><trkpt lat="43.5039166" lon="10.6354877"><ele>169.14285714285717</ele><time>2026-05-02T15:01:30.07Z</time></trkpt><trkpt lat="43.5039528" lon="10.6353984"><ele>168.42857142857144</ele><time>2026-05-02T15:01:32.066Z</time></trkpt><trkpt lat="43.5039931" lon="10.6353264"><ele>167.71428571428572</ele><time>2026-05-02T15:01:34.077Z</time></trkpt><trkpt lat="43.5040456" lon="10.6352777"><ele>167.0</ele><time>2026-05-02T15:01:36.08Z</time></trkpt><trkpt lat="43.5041137" lon="10.6352564"><ele>167.0</ele><time>2026-05-02T15:01:38.093Z</time></trkpt><trkpt lat="43.5041867" lon="10.6352651"><ele>167.0</ele><time>2026-05-02T15:01:40.074Z</time></trkpt><trkpt lat="43.5042551" lon="10.635311"><ele>167.0</ele><time>2026-05-02T15:01:42.074Z</time></trkpt><trkpt lat="43.5043337" lon="10.6354101"><ele>167.0</ele><time>2026-05-02T15:01:44.075Z</time></trkpt><trkpt lat="43.5044323" lon="10.6355205"><ele>167.0</ele><time>2026-05-02T15:01:46.079Z</time></trkpt><trkpt lat="43.5044867" lon="10.635582"><ele>167.0</ele><time>2026-05-02T15:01:47.072Z</time></trkpt><trkpt lat="43.5045471" lon="10.6356493"><ele>167.0</ele><time>2026-05-02T15:01:48.077Z</time></trkpt><trkpt lat="43.5046132" lon="10.6357227"><ele>167.0</ele><time>2026-05-02T15:01:49.075Z</time></trkpt><trkpt lat="43.50468" lon="10.6358003"><ele>167.0</ele><time>2026-05-02T15:01:50.076Z</time></trkpt><trkpt lat="43.5047453" lon="10.6358797"><ele>167.0</ele><time>2026-05-02T15:01:51.074Z</time></trkpt><trkpt lat="43.5048071" lon="10.6359644"><ele>167.0</ele><time>2026-05-02T15:01:52.085Z</time></trkpt><trkpt lat="43.5048634" lon="10.6360589"><ele>165.66666666666666</ele><time>2026-05-02T15:01:53.084Z</time></trkpt><trkpt lat="43.5049093" lon="10.6361572"><ele>164.33333333333331</ele><time>2026-05-02T15:01:54.088Z</time></trkpt><trkpt lat="43.5049587" lon="10.6362613"><ele>163.0</ele><time>2026-05-02T15:01:55.072Z</time></trkpt><trkpt lat="43.5049992" lon="10.6363641"><ele>161.66666666666666</ele><time>2026-05-02T15:01:56.078Z</time></trkpt><trkpt lat="43.5050276" lon="10.6364713"><ele>160.33333333333334</ele><time>2026-05-02T15:01:57.068Z</time></trkpt><trkpt lat="43.5050505" lon="10.6365749"><ele>159.0</ele><time>2026-05-02T15:01:58.078Z</time></trkpt><trkpt lat="43.5050737" lon="10.636674"><ele>159.0</ele><time>2026-05-02T15:01:59.077Z</time></trkpt><trkpt lat="43.5051039" lon="10.6367593"><ele>159.0</ele><time>2026-05-02T15:02:00.078Z</time></trkpt><trkpt lat="43.5051537" lon="10.6368266"><ele>159.0</ele><time>2026-05-02T15:02:01.072Z</time></trkpt><trkpt lat="43.505215" lon="10.6368671"><ele>159.0</ele><time>2026-05-02T15:02:02.097Z</time></trkpt><trkpt lat="43.5052824" lon="10.6368781"><ele>159.0</ele><time>2026-05-02T15:02:03.071Z</time></trkpt><trkpt lat="43.5053484" lon="10.6368494"><ele>159.0</ele><time>2026-05-02T15:02:04.086Z</time></trkpt><trkpt lat="43.5053969" lon="10.6367895"><ele>159.0</ele><time>2026-05-02T15:02:05.078Z</time></trkpt><trkpt lat="43.5054287" lon="10.6367098"><ele>159.0</ele><time>2026-05-02T15:02:06.074Z</time></trkpt><trkpt lat="43.5054486" lon="10.6366103"><ele>159.0</ele><time>2026-05-02T15:02:07.077Z</time></trkpt><trkpt lat="43.5054499" lon="10.6364986"><ele>159.0</ele><time>2026-05-02T15:02:08.072Z</time></trkpt><trkpt lat="43.5054288" lon="10.6363905"><ele>159.0</ele><time>2026-05-02T15:02:09.069Z</time></trkpt><trkpt lat="43.5053897" lon="10.6362838"><ele>159.0</ele><time>2026-05-02T15:02:10.067Z</time></trkpt><trkpt lat="43.5053377" lon="10.6361917"><ele>159.0</ele><time>2026-05-02T15:02:11.072Z</time></trkpt><trkpt lat="43.5052862" lon="10.6361061"><ele>158.66666666666666</ele><time>2026-05-02T15:02:12.076Z</time></trkpt><trkpt lat="43.5052406" lon="10.6360215"><ele>158.33333333333334</ele><time>2026-05-02T15:02:13.07Z</time></trkpt><trkpt lat="43.5052064" lon="10.6359267"><ele>158.0</ele><time>2026-05-02T15:02:14.073Z</time></trkpt><trkpt lat="43.5051897" lon="10.635821"><ele>157.66666666666669</ele><time>2026-05-02T15:02:15.069Z</time></trkpt><trkpt lat="43.5051925" lon="10.6357064"><ele>157.33333333333334</ele><time>2026-05-02T15:02:16.077Z</time></trkpt><trkpt lat="43.5052082" lon="10.6355877"><ele>157.0</ele><time>2026-05-02T15:02:17.072Z</time></trkpt><trkpt lat="43.5052376" lon="10.6354745"><ele>157.0</ele><time>2026-05-02T15:02:18.073Z</time></trkpt><trkpt lat="43.5052635" lon="10.6353612"><ele>157.0</ele><time>2026-05-02T15:02:19.074Z</time></trkpt><trkpt lat="43.5052771" lon="10.6352453"><ele>157.0</ele><time>2026-05-02T15:02:20.098Z</time></trkpt><trkpt lat="43.5052783" lon="10.6351287"><ele>157.0</ele><time>2026-05-02T15:02:21.079Z</time></trkpt><trkpt lat="43.5052657" lon="10.6350147"><ele>157.0</ele><time>2026-05-02T15:02:22.071Z</time></trkpt><trkpt lat="43.5052398" lon="10.6349033"><ele>157.0</ele><time>2026-05-02T15:02:23.086Z</time></trkpt><trkpt lat="43.5052071" lon="10.6347979"><ele>156.33333333333334</ele><time>2026-05-02T15:02:24.082Z</time></trkpt><trkpt lat="43.5051808" lon="10.6346886"><ele>155.66666666666669</ele><time>2026-05-02T15:02:25.083Z</time></trkpt><trkpt lat="43.5051566" lon="10.6345734"><ele>155.0</ele><time>2026-05-02T15:02:26.08Z</time></trkpt><trkpt lat="43.5051421" lon="10.6344548"><ele>154.33333333333334</ele><time>2026-05-02T15:02:27.078Z</time></trkpt><trkpt lat="43.5051374" lon="10.634329"><ele>153.66666666666666</ele><time>2026-05-02T15:02:28.066Z</time></trkpt><trkpt lat="43.5051452" lon="10.634206"><ele>153.0</ele><time>2026-05-02T15:02:29.074Z</time></trkpt><trkpt lat="43.505156" lon="10.6340807"><ele>152.5</ele><time>2026-05-02T15:02:30.064Z</time></trkpt><trkpt lat="43.5051723" lon="10.633959"><ele>152.0</ele><time>2026-05-02T15:02:31.078Z</time></trkpt><trkpt lat="43.5051912" lon="10.6338359"><ele>151.5</ele><time>2026-05-02T15:02:32.074Z</time></trkpt><trkpt lat="43.5051983" lon="10.6337134"><ele>151.0</ele><time>2026-05-02T15:02:33.071Z</time></trkpt><trkpt lat="43.5051923" lon="10.6335928"><ele>150.5</ele><time>2026-05-02T15:02:34.07Z</time></trkpt><trkpt lat="43.5051775" lon="10.6334749"><ele>150.0</ele><time>2026-05-02T15:02:35.074Z</time></trkpt><trkpt lat="43.5051575" lon="10.6333562"><ele>150.0</ele><time>2026-05-02T15:02:36.064Z</time></trkpt><trkpt lat="43.5051361" lon="10.6332321"><ele>150.0</ele><time>2026-05-02T15:02:37.074Z</time></trkpt><trkpt lat="43.5051162" lon="10.6331104"><ele>150.0</ele><time>2026-05-02T15:02:38.08Z</time></trkpt><trkpt lat="43.5050973" lon="10.6329899"><ele>150.0</ele><time>2026-05-02T15:02:39.076Z</time></trkpt><trkpt lat="43.5050835" lon="10.6328718"><ele>150.0</ele><time>2026-05-02T15:02:40.082Z</time></trkpt><trkpt lat="43.5050855" lon="10.6327632"><ele>150.0</ele><time>2026-05-02T15:02:41.076Z</time></trkpt><trkpt lat="43.505114" lon="10.6326603"><ele>149.5</ele><time>2026-05-02T15:02:42.072Z</time></trkpt><trkpt lat="43.5051558" lon="10.6325733"><ele>149.0</ele><time>2026-05-02T15:02:43.111Z</time></trkpt><trkpt lat="43.5052136" lon="10.6325065"><ele>148.5</ele><time>2026-05-02T15:02:44.068Z</time></trkpt><trkpt lat="43.5052822" lon="10.6324593"><ele>148.0</ele><time>2026-05-02T15:02:45.065Z</time></trkpt><trkpt lat="43.5053569" lon="10.632416"><ele>147.5</ele><time>2026-05-02T15:02:46.071Z</time></trkpt><trkpt lat="43.5054347" lon="10.6323728"><ele>147.0</ele><time>2026-05-02T15:02:47.083Z</time></trkpt><trkpt lat="43.5055115" lon="10.6323277"><ele>145.6</ele><time>2026-05-02T15:02:48.068Z</time></trkpt><trkpt lat="43.5055931" lon="10.6322815"><ele>144.2</ele><time>2026-05-02T15:02:49.07Z</time></trkpt><trkpt lat="43.5056782" lon="10.6322389"><ele>142.8</ele><time>2026-05-02T15:02:50.078Z</time></trkpt><trkpt lat="43.5057658" lon="10.6321968"><ele>141.4</ele><time>2026-05-02T15:02:51.079Z</time></trkpt><trkpt lat="43.5058598" lon="10.6321629"><ele>140.0</ele><time>2026-05-02T15:02:52.069Z</time></trkpt><trkpt lat="43.5059604" lon="10.6321408"><ele>140.0</ele><time>2026-05-02T15:02:53.068Z</time></trkpt><trkpt lat="43.5060582" lon="10.6321291"><ele>140.0</ele><time>2026-05-02T15:02:54.069Z</time></trkpt><trkpt lat="43.5061592" lon="10.6321302"><ele>140.0</ele><time>2026-05-02T15:02:55.073Z</time></trkpt><trkpt lat="43.5062592" lon="10.6321443"><ele>140.0</ele><time>2026-05-02T15:02:56.074Z</time></trkpt><trkpt lat="43.5063608" lon="10.6321674"><ele>140.0</ele><time>2026-05-02T15:02:57.064Z</time></trkpt><trkpt lat="43.5064643" lon="10.6321927"><ele>140.0</ele><time>2026-05-02T15:02:58.062Z</time></trkpt><trkpt lat="43.5065703" lon="10.6322169"><ele>140.0</ele><time>2026-05-02T15:02:59.06Z</time></trkpt><trkpt lat="43.5066781" lon="10.6322408"><ele>140.0</ele><time>2026-05-02T15:03:00.057Z</time></trkpt><trkpt lat="43.5067876" lon="10.6322679"><ele>140.0</ele><time>2026-05-02T15:03:01.057Z</time></trkpt><trkpt lat="43.506898" lon="10.6322974"><ele>140.0</ele><time>2026-05-02T15:03:02.058Z</time></trkpt><trkpt lat="43.5070028" lon="10.632331"><ele>142.2</ele><time>2026-05-02T15:03:03.064Z</time></trkpt><trkpt lat="43.5071041" lon="10.6323785"><ele>144.4</ele><time>2026-05-02T15:03:04.063Z</time></trkpt><trkpt lat="43.5072013" lon="10.6324433"><ele>146.6</ele><time>2026-05-02T15:03:05.058Z</time></trkpt><trkpt lat="43.5072959" lon="10.6325241"><ele>148.8</ele><time>2026-05-02T15:03:06.06Z</time></trkpt><trkpt lat="43.5073814" lon="10.6326182"><ele>151.0</ele><time>2026-05-02T15:03:07.056Z</time></trkpt><trkpt lat="43.5074544" lon="10.6327256"><ele>148.2</ele><time>2026-05-02T15:03:08.055Z</time></trkpt><trkpt lat="43.5075118" lon="10.6328421"><ele>145.39999999999998</ele><time>2026-05-02T15:03:09.062Z</time></trkpt><trkpt lat="43.5075601" lon="10.6329695"><ele>142.6</ele><time>2026-05-02T15:03:10.061Z</time></trkpt><trkpt lat="43.5075888" lon="10.6330924"><ele>139.79999999999998</ele><time>2026-05-02T15:03:11.054Z</time></trkpt><trkpt lat="43.5076145" lon="10.63321"><ele>137.0</ele><time>2026-05-02T15:03:12.057Z</time></trkpt><trkpt lat="43.5076517" lon="10.6333111"><ele>137.0</ele><time>2026-05-02T15:03:13.066Z</time></trkpt><trkpt lat="43.507705" lon="10.6333885"><ele>137.0</ele><time>2026-05-02T15:03:14.058Z</time></trkpt><trkpt lat="43.5077774" lon="10.6334345"><ele>137.0</ele><time>2026-05-02T15:03:15.062Z</time></trkpt><trkpt lat="43.5078598" lon="10.6334266"><ele>137.0</ele><time>2026-05-02T15:03:16.062Z</time></trkpt><trkpt lat="43.507934" lon="10.6333759"><ele>137.0</ele><time>2026-05-02T15:03:17.065Z</time></trkpt><trkpt lat="43.5079975" lon="10.6333052"><ele>137.0</ele><time>2026-05-02T15:03:18.057Z</time></trkpt><trkpt lat="43.5080642" lon="10.6332483"><ele>138.0</ele><time>2026-05-02T15:03:19.062Z</time></trkpt><trkpt lat="43.5081334" lon="10.6331959"><ele>139.0</ele><time>2026-05-02T15:03:20.052Z</time></trkpt><trkpt lat="43.5082115" lon="10.633165"><ele>140.0</ele><time>2026-05-02T15:03:21.062Z</time></trkpt><trkpt lat="43.5082868" lon="10.6331591"><ele>141.0</ele><time>2026-05-02T15:03:22.058Z</time></trkpt><trkpt lat="43.5083597" lon="10.6331855"><ele>142.0</ele><time>2026-05-02T15:03:23.061Z</time></trkpt><trkpt lat="43.5084239" lon="10.6332488"><ele>143.0</ele><time>2026-05-02T15:03:24.058Z</time></trkpt><trkpt lat="43.5084779" lon="10.6333381"><ele>143.0</ele><time>2026-05-02T15:03:25.06Z</time></trkpt><trkpt lat="43.5085221" lon="10.6334476"><ele>143.0</ele><time>2026-05-02T15:03:26.075Z</time></trkpt><trkpt lat="43.508578" lon="10.6335597"><ele>143.0</ele><time>2026-05-02T15:03:27.061Z</time></trkpt><trkpt lat="43.508644" lon="10.6336585"><ele>143.0</ele><time>2026-05-02T15:03:28.068Z</time></trkpt><trkpt lat="43.5086993" lon="10.6337716"><ele>143.0</ele><time>2026-05-02T15:03:29.064Z</time></trkpt><trkpt lat="43.5087628" lon="10.6338745"><ele>143.0</ele><time>2026-05-02T15:03:30.069Z</time></trkpt><trkpt lat="43.5088323" lon="10.633963"><ele>143.0</ele><time>2026-05-02T15:03:31.068Z</time></trkpt><trkpt lat="43.5089067" lon="10.6340474"><ele>143.0</ele><time>2026-05-02T15:03:32.067Z</time></trkpt><trkpt lat="43.5089825" lon="10.6341252"><ele>143.0</ele><time>2026-05-02T15:03:33.058Z</time></trkpt><trkpt lat="43.5090564" lon="10.6342101"><ele>143.0</ele><time>2026-05-02T15:03:34.072Z</time></trkpt><trkpt lat="43.5091352" lon="10.6342898"><ele>143.0</ele><time>2026-05-02T15:03:35.07Z</time></trkpt><trkpt lat="43.5092133" lon="10.6343767"><ele>143.0</ele><time>2026-05-02T15:03:36.065Z</time></trkpt><trkpt lat="43.5092911" lon="10.6344584"><ele>143.0</ele><time>2026-05-02T15:03:37.075Z</time></trkpt><trkpt lat="43.5093711" lon="10.6345416"><ele>143.0</ele><time>2026-05-02T15:03:38.068Z</time></trkpt><trkpt lat="43.5094503" lon="10.6346219"><ele>143.0</ele><time>2026-05-02T15:03:39.077Z</time></trkpt><trkpt lat="43.5095322" lon="10.6347041"><ele>142.20000000000002</ele><time>2026-05-02T15:03:40.077Z</time></trkpt><trkpt lat="43.5096129" lon="10.6347804"><ele>141.4</ele><time>2026-05-02T15:03:41.077Z</time></trkpt><trkpt lat="43.509696" lon="10.6348472"><ele>140.60000000000002</ele><time>2026-05-02T15:03:42.075Z</time></trkpt><trkpt lat="43.5097802" lon="10.6349124"><ele>139.8</ele><time>2026-05-02T15:03:43.082Z</time></trkpt><trkpt lat="43.5098598" lon="10.6349701"><ele>139.0</ele><time>2026-05-02T15:03:44.074Z</time></trkpt><trkpt lat="43.5099285" lon="10.6350127"><ele>139.0</ele><time>2026-05-02T15:03:45.064Z</time></trkpt><trkpt lat="43.5099893" lon="10.635053"><ele>139.0</ele><time>2026-05-02T15:03:46.069Z</time></trkpt><trkpt lat="43.5100487" lon="10.6350877"><ele>139.0</ele><time>2026-05-02T15:03:47.068Z</time></trkpt><trkpt lat="43.5101081" lon="10.6351188"><ele>139.0</ele><time>2026-05-02T15:03:48.077Z</time></trkpt><trkpt lat="43.5102028" lon="10.6351779"><ele>139.0</ele><time>2026-05-02T15:03:50.083Z</time></trkpt><trkpt lat="43.5102579" lon="10.6352451"><ele>139.0</ele><time>2026-05-02T15:03:53.079Z</time></trkpt><trkpt lat="43.5102947" lon="10.6351711"><ele>139.0</ele><time>2026-05-02T15:04:07.087Z</time></trkpt><trkpt lat="43.510227" lon="10.6351312"><ele>139.0</ele><time>2026-05-02T15:04:10.068Z</time></trkpt><trkpt lat="43.5101532" lon="10.635099"><ele>139.0</ele><time>2026-05-02T15:04:12.087Z</time></trkpt><trkpt lat="43.5100696" lon="10.6350562"><ele>139.0</ele><time>2026-05-02T15:04:14.077Z</time></trkpt><trkpt lat="43.5099901" lon="10.6350228"><ele>139.0</ele><time>2026-05-02T15:04:16.073Z</time></trkpt><trkpt lat="43.509957" lon="10.6349333"><ele>139.0</ele><time>2026-05-02T15:04:20.079Z</time></trkpt><trkpt lat="43.5100364" lon="10.6348917"><ele>139.0</ele><time>2026-05-02T15:04:23.06Z</time></trkpt><trkpt lat="43.5101082" lon="10.6349028"><ele>139.0</ele><time>2026-05-02T15:04:25.069Z</time></trkpt><trkpt lat="43.5101863" lon="10.6349177"><ele>139.0</ele><time>2026-05-02T15:04:27.069Z</time></trkpt><trkpt lat="43.5102654" lon="10.6348989"><ele>139.0</ele><time>2026-05-02T15:04:29.067Z</time></trkpt><trkpt lat="43.5103324" lon="10.6348345"><ele>139.0</ele><time>2026-05-02T15:04:31.067Z</time></trkpt><trkpt lat="43.5103613" lon="10.6347507"><ele>139.0</ele><time>2026-05-02T15:04:33.07Z</time></trkpt><trkpt lat="43.5103613" lon="10.6346574"><ele>139.0</ele><time>2026-05-02T15:04:35.076Z</time></trkpt><trkpt lat="43.5103426" lon="10.6345682"><ele>139.0</ele><time>2026-05-02T15:04:37.072Z</time></trkpt><trkpt lat="43.5103201" lon="10.6344812"><ele>141.4</ele><time>2026-05-02T15:04:39.079Z</time></trkpt><trkpt lat="43.5102825" lon="10.6343873"><ele>143.8</ele><time>2026-05-02T15:04:41.089Z</time></trkpt><trkpt lat="43.5102424" lon="10.634282"><ele>146.2</ele><time>2026-05-02T15:04:43.068Z</time></trkpt><trkpt lat="43.510196" lon="10.6341647"><ele>148.6</ele><time>2026-05-02T15:04:45.072Z</time></trkpt><trkpt lat="43.5101475" lon="10.6340488"><ele>151.0</ele><time>2026-05-02T15:04:47.069Z</time></trkpt><trkpt lat="43.5100974" lon="10.6339375"><ele>151.0</ele><time>2026-05-02T15:04:49.079Z</time></trkpt><trkpt lat="43.5100505" lon="10.6338311"><ele>151.0</ele><time>2026-05-02T15:04:51.077Z</time></trkpt><trkpt lat="43.5100069" lon="10.6337196"><ele>151.0</ele><time>2026-05-02T15:04:53.074Z</time></trkpt><trkpt lat="43.5099691" lon="10.6336042"><ele>151.0</ele><time>2026-05-02T15:04:55.074Z</time></trkpt><trkpt lat="43.5099458" lon="10.6334824"><ele>151.0</ele><time>2026-05-02T15:04:57.074Z</time></trkpt><trkpt lat="43.5099381" lon="10.6333597"><ele>152.8</ele><time>2026-05-02T15:04:59.085Z</time></trkpt><trkpt lat="43.5099408" lon="10.6332413"><ele>154.6</ele><time>2026-05-02T15:05:01.069Z</time></trkpt><trkpt lat="43.5099328" lon="10.6331157"><ele>156.4</ele><time>2026-05-02T15:05:03.071Z</time></trkpt><trkpt lat="43.5099062" lon="10.632993"><ele>158.2</ele><time>2026-05-02T15:05:05.067Z</time></trkpt><trkpt lat="43.5098534" lon="10.632877"><ele>160.0</ele><time>2026-05-02T15:05:07.067Z</time></trkpt><trkpt lat="43.5097851" lon="10.6327804"><ele>160.66666666666669</ele><time>2026-05-02T15:05:09.068Z</time></trkpt><trkpt lat="43.5097181" lon="10.6326911"><ele>161.33333333333334</ele><time>2026-05-02T15:05:11.072Z</time></trkpt><trkpt lat="43.5096659" lon="10.6326"><ele>162.0</ele><time>2026-05-02T15:05:13.077Z</time></trkpt><trkpt lat="43.5096246" lon="10.6325029"><ele>162.66666666666666</ele><time>2026-05-02T15:05:16.072Z</time></trkpt><trkpt lat="43.5096003" lon="10.6324179"><ele>163.33333333333331</ele><time>2026-05-02T15:05:19.077Z</time></trkpt><trkpt lat="43.5096102" lon="10.6325061"><ele>164.0</ele><time>2026-05-02T15:05:37.063Z</time></trkpt><trkpt lat="43.5096868" lon="10.6325779"><ele>163.99999999999997</ele><time>2026-05-02T15:05:43.059Z</time></trkpt><trkpt lat="43.5097341" lon="10.6326614"><ele>164.0</ele><time>2026-05-02T15:05:45.063Z</time></trkpt><trkpt lat="43.5097873" lon="10.6327377"><ele>164.0</ele><time>2026-05-02T15:05:47.071Z</time></trkpt><trkpt lat="43.5098508" lon="10.6327732"><ele>164.0</ele><time>2026-05-02T15:05:56.07Z</time></trkpt><trkpt lat="43.5099075" lon="10.6327349"><ele>164.0</ele><time>2026-05-02T15:06:00.065Z</time></trkpt><trkpt lat="43.509959" lon="10.6326474"><ele>163.99999999999997</ele><time>2026-05-02T15:06:06.073Z</time></trkpt><trkpt lat="43.5099927" lon="10.6325559"><ele>164.0</ele><time>2026-05-02T15:06:10.068Z</time></trkpt><trkpt lat="43.5099794" lon="10.6324697"><ele>163.99999999999997</ele><time>2026-05-02T15:06:14.076Z</time></trkpt><trkpt lat="43.5099557" lon="10.632381"><ele>164.0</ele><time>2026-05-02T15:06:17.073Z</time></trkpt><trkpt lat="43.509927" lon="10.6322879"><ele>164.0</ele><time>2026-05-02T15:06:20.07Z</time></trkpt><trkpt lat="43.5099006" lon="10.6321891"><ele>164.0</ele><time>2026-05-02T15:06:23.072Z</time></trkpt><trkpt lat="43.5098692" lon="10.6320884"><ele>164.0</ele><time>2026-05-02T15:06:26.065Z</time></trkpt><trkpt lat="43.5098471" lon="10.6319962"><ele>163.99999999999997</ele><time>2026-05-02T15:06:29.077Z</time></trkpt><trkpt lat="43.5098258" lon="10.6318976"><ele>164.0</ele><time>2026-05-02T15:06:32.067Z</time></trkpt><trkpt lat="43.5098088" lon="10.6318007"><ele>165.28571428571428</ele><time>2026-05-02T15:06:35.077Z</time></trkpt><trkpt lat="43.5097858" lon="10.6317089"><ele>166.57142857142856</ele><time>2026-05-02T15:06:38.07Z</time></trkpt><trkpt lat="43.5097662" lon="10.6316158"><ele>167.85714285714283</ele><time>2026-05-02T15:06:41.072Z</time></trkpt><trkpt lat="43.5097416" lon="10.6315197"><ele>169.14285714285714</ele><time>2026-05-02T15:06:44.068Z</time></trkpt><trkpt lat="43.5097193" lon="10.6314251"><ele>170.42857142857144</ele><time>2026-05-02T15:06:47.072Z</time></trkpt><trkpt lat="43.5097008" lon="10.6313379"><ele>171.7142857142857</ele><time>2026-05-02T15:06:50.064Z</time></trkpt><trkpt lat="43.5096824" lon="10.6312482"><ele>173.0</ele><time>2026-05-02T15:06:53.064Z</time></trkpt><trkpt lat="43.5096776" lon="10.6311616"><ele>174.7142857142857</ele><time>2026-05-02T15:06:56.069Z</time></trkpt><trkpt lat="43.5097065" lon="10.6310756"><ele>176.42857142857144</ele><time>2026-05-02T15:06:59.07Z</time></trkpt><trkpt lat="43.5097543" lon="10.6309979"><ele>178.14285714285714</ele><time>2026-05-02T15:07:02.08Z</time></trkpt><trkpt lat="43.5098119" lon="10.6309268"><ele>179.85714285714283</ele><time>2026-05-02T15:07:05.059Z</time></trkpt><trkpt lat="43.5098694" lon="10.6308682"><ele>181.57142857142856</ele><time>2026-05-02T15:07:08.077Z</time></trkpt><trkpt lat="43.5099211" lon="10.6308117"><ele>183.28571428571428</ele><time>2026-05-02T15:07:11.079Z</time></trkpt><trkpt lat="43.5099611" lon="10.6307392"><ele>185.0</ele><time>2026-05-02T15:07:15.074Z</time></trkpt><trkpt lat="43.5099517" lon="10.6306342"><ele>185.0</ele><time>2026-05-02T15:07:19.078Z</time></trkpt><trkpt lat="43.5099133" lon="10.6305503"><ele>185.0</ele><time>2026-05-02T15:07:25.079Z</time></trkpt><trkpt lat="43.5098626" lon="10.6304878"><ele>185.0</ele><time>2026-05-02T15:07:30.065Z</time></trkpt><trkpt lat="43.5098095" lon="10.6304071"><ele>185.0</ele><time>2026-05-02T15:07:35.071Z</time></trkpt><trkpt lat="43.5097695" lon="10.6303116"><ele>185.0</ele><time>2026-05-02T15:07:40.065Z</time></trkpt><trkpt lat="43.509722" lon="10.6302197"><ele>185.0</ele><time>2026-05-02T15:07:45.059Z</time></trkpt><trkpt lat="43.5096656" lon="10.6301403"><ele>185.33333333333331</ele><time>2026-05-02T15:07:49.077Z</time></trkpt><trkpt lat="43.5096203" lon="10.6300687"><ele>185.66666666666666</ele><time>2026-05-02T15:07:52.06Z</time></trkpt><trkpt lat="43.5095734" lon="10.6299864"><ele>186.0</ele><time>2026-05-02T15:07:55.073Z</time></trkpt><trkpt lat="43.5095338" lon="10.6299079"><ele>186.33333333333334</ele><time>2026-05-02T15:07:58.066Z</time></trkpt><trkpt lat="43.5094742" lon="10.6298185"><ele>186.66666666666669</ele><time>2026-05-02T15:08:02.078Z</time></trkpt><trkpt lat="43.5094216" lon="10.6297324"><ele>187.0</ele><time>2026-05-02T15:08:06.065Z</time></trkpt><trkpt lat="43.5093759" lon="10.6296348"><ele>188.85714285714286</ele><time>2026-05-02T15:08:10.064Z</time></trkpt><trkpt lat="43.509335" lon="10.629566"><ele>190.71428571428572</ele><time>2026-05-02T15:08:13.06Z</time></trkpt><trkpt lat="43.5092584" lon="10.6295832"><ele>192.57142857142858</ele><time>2026-05-02T15:08:17.069Z</time></trkpt><trkpt lat="43.5091994" lon="10.6296343"><ele>194.42857142857144</ele><time>2026-05-02T15:08:22.059Z</time></trkpt><trkpt lat="43.5091438" lon="10.6296978"><ele>196.28571428571428</ele><time>2026-05-02T15:08:49.08Z</time></trkpt><trkpt lat="43.5090802" lon="10.6296994"><ele>198.14285714285717</ele><time>2026-05-02T15:08:53.066Z</time></trkpt><trkpt lat="43.5090533" lon="10.6296124"><ele>200.0</ele><time>2026-05-02T15:08:57.062Z</time></trkpt><trkpt lat="43.509032" lon="10.629519"><ele>202.14285714285717</ele><time>2026-05-02T15:09:01.063Z</time></trkpt><trkpt lat="43.508986" lon="10.6294506"><ele>204.28571428571428</ele><time>2026-05-02T15:09:05.062Z</time></trkpt><trkpt lat="43.5089443" lon="10.6293611"><ele>206.42857142857144</ele><time>2026-05-02T15:09:09.061Z</time></trkpt><trkpt lat="43.508907" lon="10.6292692"><ele>208.57142857142858</ele><time>2026-05-02T15:09:13.068Z</time></trkpt><trkpt lat="43.5089108" lon="10.6291744"><ele>210.71428571428572</ele><time>2026-05-02T15:09:17.064Z</time></trkpt><trkpt lat="43.5089163" lon="10.6290841"><ele>212.85714285714286</ele><time>2026-05-02T15:09:21.057Z</time></trkpt><trkpt lat="43.5089214" lon="10.6289793"><ele>215.0</ele><time>2026-05-02T15:09:26.069Z</time></trkpt><trkpt lat="43.5089722" lon="10.6289123"><ele>215.0</ele><time>2026-05-02T15:09:30.057Z</time></trkpt><trkpt lat="43.5089976" lon="10.6288213"><ele>215.0</ele><time>2026-05-02T15:09:35.064Z</time></trkpt><trkpt lat="43.5089813" lon="10.6287342"><ele>215.0</ele><time>2026-05-02T15:09:39.07Z</time></trkpt><trkpt lat="43.5089637" lon="10.6286282"><ele>215.0</ele><time>2026-05-02T15:09:44.073Z</time></trkpt><trkpt lat="43.5089251" lon="10.6285464"><ele>215.0</ele><time>2026-05-02T15:09:49.085Z</time></trkpt><trkpt lat="43.5088907" lon="10.6284595"><ele>215.0</ele><time>2026-05-02T15:09:53.076Z</time></trkpt><trkpt lat="43.5088625" lon="10.6283616"><ele>215.0</ele><time>2026-05-02T15:09:57.071Z</time></trkpt><trkpt lat="43.5088291" lon="10.6282846"><ele>216.28571428571428</ele><time>2026-05-02T15:10:00.077Z</time></trkpt><trkpt lat="43.5087887" lon="10.6281792"><ele>217.57142857142858</ele><time>2026-05-02T15:10:04.065Z</time></trkpt><trkpt lat="43.508758" lon="10.6280963"><ele>218.85714285714286</ele><time>2026-05-02T15:10:07.077Z</time></trkpt><trkpt lat="43.508703" lon="10.6280112"><ele>220.14285714285714</ele><time>2026-05-02T15:10:11.067Z</time></trkpt><trkpt lat="43.5086635" lon="10.6279367"><ele>221.42857142857144</ele><time>2026-05-02T15:10:14.094Z</time></trkpt><trkpt lat="43.5086245" lon="10.6278626"><ele>222.71428571428572</ele><time>2026-05-02T15:10:17.076Z</time></trkpt><trkpt lat="43.5085964" lon="10.6277795"><ele>224.0</ele><time>2026-05-02T15:10:20.06Z</time></trkpt><trkpt lat="43.5085767" lon="10.6276796"><ele>223.57142857142858</ele><time>2026-05-02T15:10:24.065Z</time></trkpt><trkpt lat="43.5086165" lon="10.6275941"><ele>223.14285714285714</ele><time>2026-05-02T15:10:28.08Z</time></trkpt><trkpt lat="43.5086797" lon="10.6275877"><ele>222.71428571428572</ele><time>2026-05-02T15:10:31.066Z</time></trkpt><trkpt lat="43.5087503" lon="10.6275832"><ele>222.28571428571428</ele><time>2026-05-02T15:10:34.077Z</time></trkpt><trkpt lat="43.5087236" lon="10.6274941"><ele>221.85714285714286</ele><time>2026-05-02T15:10:57.063Z</time></trkpt><trkpt lat="43.5086618" lon="10.6275216"><ele>221.42857142857144</ele><time>2026-05-02T15:11:01.08Z</time></trkpt><trkpt lat="43.5086098" lon="10.6275727"><ele>221.0</ele><time>2026-05-02T15:11:04.074Z</time></trkpt><trkpt lat="43.5085452" lon="10.6276097"><ele>222.16666666666669</ele><time>2026-05-02T15:11:07.067Z</time></trkpt><trkpt lat="43.5084685" lon="10.6276393"><ele>223.33333333333334</ele><time>2026-05-02T15:11:11.07Z</time></trkpt><trkpt lat="43.5083988" lon="10.6276698"><ele>224.5</ele><time>2026-05-02T15:11:14.065Z</time></trkpt><trkpt lat="43.508327" lon="10.6277083"><ele>225.66666666666669</ele><time>2026-05-02T15:11:17.066Z</time></trkpt><trkpt lat="43.5082602" lon="10.6277544"><ele>226.83333333333334</ele><time>2026-05-02T15:11:20.071Z</time></trkpt><trkpt lat="43.5081914" lon="10.6278057"><ele>228.0</ele><time>2026-05-02T15:11:23.07Z</time></trkpt><trkpt lat="43.5081343" lon="10.6278789"><ele>228.0</ele><time>2026-05-02T15:11:27.071Z</time></trkpt><trkpt lat="43.5080881" lon="10.6279452"><ele>227.99999999999997</ele><time>2026-05-02T15:11:30.071Z</time></trkpt><trkpt lat="43.5080314" lon="10.6280049"><ele>228.0</ele><time>2026-05-02T15:11:33.069Z</time></trkpt><trkpt lat="43.5079648" lon="10.6280335"><ele>228.0</ele><time>2026-05-02T15:11:36.083Z</time></trkpt><trkpt lat="43.507892" lon="10.6280245"><ele>227.99999999999997</ele><time>2026-05-02T15:11:39.066Z</time></trkpt><trkpt lat="43.5078277" lon="10.6279842"><ele>228.0</ele><time>2026-05-02T15:11:42.079Z</time></trkpt><trkpt lat="43.5077831" lon="10.6278908"><ele>228.0</ele><time>2026-05-02T15:11:45.067Z</time></trkpt><trkpt lat="43.5077748" lon="10.6277842"><ele>229.0</ele><time>2026-05-02T15:11:48.078Z</time></trkpt><trkpt lat="43.5077748" lon="10.6276972"><ele>229.99999999999997</ele><time>2026-05-02T15:11:51.074Z</time></trkpt><trkpt lat="43.507757" lon="10.6275962"><ele>231.0</ele><time>2026-05-02T15:11:54.067Z</time></trkpt><trkpt lat="43.5077476" lon="10.6275019"><ele>232.0</ele><time>2026-05-02T15:11:57.075Z</time></trkpt><trkpt lat="43.5077137" lon="10.6274134"><ele>232.99999999999997</ele><time>2026-05-02T15:12:00.07Z</time></trkpt><trkpt lat="43.5076779" lon="10.6273348"><ele>234.0</ele><time>2026-05-02T15:12:03.068Z</time></trkpt><trkpt lat="43.5076157" lon="10.6272756"><ele>235.0</ele><time>2026-05-02T15:12:06.067Z</time></trkpt><trkpt lat="43.5075526" lon="10.6272332"><ele>235.0</ele><time>2026-05-02T15:12:09.078Z</time></trkpt><trkpt lat="43.5074779" lon="10.6271958"><ele>234.99999999999997</ele><time>2026-05-02T15:12:12.065Z</time></trkpt><trkpt lat="43.5074084" lon="10.6271469"><ele>235.0</ele><time>2026-05-02T15:12:15.058Z</time></trkpt><trkpt lat="43.5073462" lon="10.627103"><ele>235.0</ele><time>2026-05-02T15:12:18.061Z</time></trkpt><trkpt lat="43.5073412" lon="10.627014"><ele>234.99999999999997</ele><time>2026-05-02T15:12:21.072Z</time></trkpt><trkpt lat="43.5073848" lon="10.6269467"><ele>235.0</ele><time>2026-05-02T15:12:24.085Z</time></trkpt><trkpt lat="43.5074251" lon="10.6268492"><ele>235.0</ele><time>2026-05-02T15:12:28.064Z</time></trkpt><trkpt lat="43.5073878" lon="10.626759"><ele>235.99999999999997</ele><time>2026-05-02T15:12:31.061Z</time></trkpt><trkpt lat="43.5073172" lon="10.6267135"><ele>237.0</ele><time>2026-05-02T15:12:34.071Z</time></trkpt><trkpt lat="43.5072579" lon="10.6266577"><ele>238.0</ele><time>2026-05-02T15:12:37.064Z</time></trkpt><trkpt lat="43.5072192" lon="10.6265715"><ele>239.0</ele><time>2026-05-02T15:12:40.076Z</time></trkpt><trkpt lat="43.5071988" lon="10.6264814"><ele>239.99999999999997</ele><time>2026-05-02T15:12:43.059Z</time></trkpt><trkpt lat="43.5071978" lon="10.6263713"><ele>241.0</ele><time>2026-05-02T15:12:46.071Z</time></trkpt><trkpt lat="43.5071995" lon="10.6262503"><ele>240.99999999999997</ele><time>2026-05-02T15:12:49.074Z</time></trkpt><trkpt lat="43.5072158" lon="10.6261536"><ele>241.0</ele><time>2026-05-02T15:12:51.073Z</time></trkpt><trkpt lat="43.5072212" lon="10.6260544"><ele>241.0</ele><time>2026-05-02T15:12:53.061Z</time></trkpt><trkpt lat="43.5072327" lon="10.6259516"><ele>241.0</ele><time>2026-05-02T15:12:55.076Z</time></trkpt><trkpt lat="43.5072382" lon="10.6258418"><ele>240.99999999999997</ele><time>2026-05-02T15:12:57.072Z</time></trkpt><trkpt lat="43.5072393" lon="10.6257259"><ele>241.0</ele><time>2026-05-02T15:12:59.072Z</time></trkpt><trkpt lat="43.5072301" lon="10.6256035"><ele>242.0</ele><time>2026-05-02T15:13:01.075Z</time></trkpt><trkpt lat="43.5072133" lon="10.6254807"><ele>243.00000000000003</ele><time>2026-05-02T15:13:03.065Z</time></trkpt><trkpt lat="43.507203" lon="10.6253567"><ele>244.00000000000003</ele><time>2026-05-02T15:13:05.078Z</time></trkpt><trkpt lat="43.5072202" lon="10.6252377"><ele>245.0</ele><time>2026-05-02T15:13:07.079Z</time></trkpt><trkpt lat="43.5072186" lon="10.625115"><ele>246.0</ele><time>2026-05-02T15:13:09.062Z</time></trkpt><trkpt lat="43.5072214" lon="10.6249795"><ele>246.28571428571433</ele><time>2026-05-02T15:13:11.055Z</time></trkpt><trkpt lat="43.5072262" lon="10.6248581"><ele>246.57142857142858</ele><time>2026-05-02T15:13:13.063Z</time></trkpt><trkpt lat="43.5072321" lon="10.6247646"><ele>246.8571428571429</ele><time>2026-05-02T15:13:15.066Z</time></trkpt><trkpt lat="43.5072197" lon="10.6246762"><ele>247.14285714285717</ele><time>2026-05-02T15:13:17.07Z</time></trkpt><trkpt lat="43.5072053" lon="10.6245868"><ele>247.42857142857144</ele><time>2026-05-02T15:13:19.081Z</time></trkpt><trkpt lat="43.507176" lon="10.6244999"><ele>247.71428571428572</ele><time>2026-05-02T15:13:21.073Z</time></trkpt><trkpt lat="43.5071422" lon="10.6244162"><ele>248.0</ele><time>2026-05-02T15:13:23.071Z</time></trkpt><trkpt lat="43.5071089" lon="10.6243339"><ele>250.83333333333334</ele><time>2026-05-02T15:13:25.056Z</time></trkpt><trkpt lat="43.5070697" lon="10.6242496"><ele>253.66666666666669</ele><time>2026-05-02T15:13:27.066Z</time></trkpt><trkpt lat="43.5070252" lon="10.6241705"><ele>256.5</ele><time>2026-05-02T15:13:29.061Z</time></trkpt><trkpt lat="43.5069784" lon="10.6241035"><ele>259.3333333333333</ele><time>2026-05-02T15:13:31.064Z</time></trkpt><trkpt lat="43.5069181" lon="10.6240111"><ele>262.16666666666663</ele><time>2026-05-02T15:13:33.061Z</time></trkpt><trkpt lat="43.5068702" lon="10.6239158"><ele>265.0</ele><time>2026-05-02T15:13:35.058Z</time></trkpt><trkpt lat="43.5068251" lon="10.6238046"><ele>265.0</ele><time>2026-05-02T15:13:37.063Z</time></trkpt><trkpt lat="43.5067817" lon="10.6236766"><ele>265.0</ele><time>2026-05-02T15:13:39.068Z</time></trkpt><trkpt lat="43.5067433" lon="10.6235551"><ele>265.0</ele><time>2026-05-02T15:13:41.068Z</time></trkpt><trkpt lat="43.5067011" lon="10.623442"><ele>265.0</ele><time>2026-05-02T15:13:43.075Z</time></trkpt><trkpt lat="43.5066491" lon="10.6233229"><ele>265.0</ele><time>2026-05-02T15:13:45.071Z</time></trkpt><trkpt lat="43.5066132" lon="10.6232009"><ele>264.0</ele><time>2026-05-02T15:13:47.072Z</time></trkpt><trkpt lat="43.5065852" lon="10.6230647"><ele>263.0</ele><time>2026-05-02T15:13:49.07Z</time></trkpt><trkpt lat="43.506542" lon="10.6229283"><ele>262.0</ele><time>2026-05-02T15:13:51.075Z</time></trkpt><trkpt lat="43.5064992" lon="10.6228008"><ele>261.0</ele><time>2026-05-02T15:13:53.062Z</time></trkpt><trkpt lat="43.5064472" lon="10.622676"><ele>260.0</ele><time>2026-05-02T15:13:55.063Z</time></trkpt><trkpt lat="43.5063861" lon="10.6225704"><ele>259.6666666666667</ele><time>2026-05-02T15:13:57.062Z</time></trkpt><trkpt lat="43.506322" lon="10.6224694"><ele>259.33333333333337</ele><time>2026-05-02T15:13:59.061Z</time></trkpt><trkpt lat="43.5062724" lon="10.6223737"><ele>259.0</ele><time>2026-05-02T15:14:01.05Z</time></trkpt><trkpt lat="43.5062361" lon="10.6222747"><ele>258.6666666666667</ele><time>2026-05-02T15:14:03.059Z</time></trkpt><trkpt lat="43.5062011" lon="10.6221706"><ele>258.3333333333333</ele><time>2026-05-02T15:14:05.068Z</time></trkpt><trkpt lat="43.506173" lon="10.6220691"><ele>258.0</ele><time>2026-05-02T15:14:07.062Z</time></trkpt><trkpt lat="43.5061718" lon="10.6219553"><ele>258.4</ele><time>2026-05-02T15:14:09.054Z</time></trkpt><trkpt lat="43.5062005" lon="10.6218358"><ele>258.8</ele><time>2026-05-02T15:14:11.061Z</time></trkpt><trkpt lat="43.5062605" lon="10.6217215"><ele>259.2</ele><time>2026-05-02T15:14:13.058Z</time></trkpt><trkpt lat="43.5062947" lon="10.6216128"><ele>259.6</ele><time>2026-05-02T15:14:15.051Z</time></trkpt><trkpt lat="43.5063061" lon="10.6214846"><ele>260.0</ele><time>2026-05-02T15:14:17.072Z</time></trkpt><trkpt lat="43.5062975" lon="10.6213614"><ele>260.0</ele><time>2026-05-02T15:14:19.068Z</time></trkpt><trkpt lat="43.5062752" lon="10.6212675"><ele>260.0</ele><time>2026-05-02T15:14:21.063Z</time></trkpt><trkpt lat="43.5062616" lon="10.6211785"><ele>260.0</ele><time>2026-05-02T15:14:23.062Z</time></trkpt><trkpt lat="43.5062656" lon="10.6210768"><ele>260.0</ele><time>2026-05-02T15:14:25.064Z</time></trkpt><trkpt lat="43.5062752" lon="10.6209576"><ele>260.0</ele><time>2026-05-02T15:14:27.071Z</time></trkpt><trkpt lat="43.5062726" lon="10.6208352"><ele>260.0</ele><time>2026-05-02T15:14:29.059Z</time></trkpt><trkpt lat="43.5062538" lon="10.6207161"><ele>262.0</ele><time>2026-05-02T15:14:31.054Z</time></trkpt><trkpt lat="43.506247" lon="10.6206047"><ele>264.0</ele><time>2026-05-02T15:14:33.064Z</time></trkpt><trkpt lat="43.5062308" lon="10.6204978"><ele>266.0</ele><time>2026-05-02T15:14:35.057Z</time></trkpt><trkpt lat="43.5062047" lon="10.6203974"><ele>268.0</ele><time>2026-05-02T15:14:37.054Z</time></trkpt><trkpt lat="43.5061692" lon="10.6203101"><ele>270.0</ele><time>2026-05-02T15:14:39.065Z</time></trkpt><trkpt lat="43.5061916" lon="10.6202185"><ele>272.0</ele><time>2026-05-02T15:14:41.061Z</time></trkpt><trkpt lat="43.5062606" lon="10.6201309"><ele>274.1666666666667</ele><time>2026-05-02T15:14:43.06Z</time></trkpt><trkpt lat="43.5063331" lon="10.6200548"><ele>276.33333333333337</ele><time>2026-05-02T15:14:45.059Z</time></trkpt><trkpt lat="43.5064094" lon="10.6199969"><ele>278.5</ele><time>2026-05-02T15:14:47.059Z</time></trkpt><trkpt lat="43.5064674" lon="10.6199528"><ele>280.6666666666667</ele><time>2026-05-02T15:14:49.058Z</time></trkpt><trkpt lat="43.5065191" lon="10.6199002"><ele>282.8333333333333</ele><time>2026-05-02T15:14:51.053Z</time></trkpt><trkpt lat="43.5065769" lon="10.6198269"><ele>285.0</ele><time>2026-05-02T15:14:53.056Z</time></trkpt><trkpt lat="43.5066395" lon="10.6197631"><ele>285.0</ele><time>2026-05-02T15:14:55.058Z</time></trkpt><trkpt lat="43.5066857" lon="10.6196878"><ele>285.0</ele><time>2026-05-02T15:14:57.066Z</time></trkpt><trkpt lat="43.5067148" lon="10.6195997"><ele>285.0</ele><time>2026-05-02T15:14:59.059Z</time></trkpt><trkpt lat="43.506751" lon="10.6195053"><ele>285.0</ele><time>2026-05-02T15:15:01.067Z</time></trkpt><trkpt lat="43.5067799" lon="10.6194124"><ele>285.0</ele><time>2026-05-02T15:15:03.073Z</time></trkpt><trkpt lat="43.5068155" lon="10.6193233"><ele>285.0</ele><time>2026-05-02T15:15:05.063Z</time></trkpt><trkpt lat="43.5068226" lon="10.6192309"><ele>285.0</ele><time>2026-05-02T15:15:13.069Z</time></trkpt><trkpt lat="43.5067564" lon="10.6192209"><ele>285.57142857142856</ele><time>2026-05-02T15:15:23.074Z</time></trkpt><trkpt lat="43.5066916" lon="10.6192599"><ele>286.14285714285717</ele><time>2026-05-02T15:15:27.071Z</time></trkpt><trkpt lat="43.5066149" lon="10.6192889"><ele>286.7142857142857</ele><time>2026-05-02T15:15:30.076Z</time></trkpt><trkpt lat="43.5065513" lon="10.6193042"><ele>287.2857142857143</ele><time>2026-05-02T15:15:32.067Z</time></trkpt><trkpt lat="43.5064865" lon="10.6193013"><ele>287.85714285714283</ele><time>2026-05-02T15:15:34.067Z</time></trkpt><trkpt lat="43.5064213" lon="10.6192926"><ele>288.42857142857144</ele><time>2026-05-02T15:15:36.063Z</time></trkpt><trkpt lat="43.5063209" lon="10.6192875"><ele>289.0</ele><time>2026-05-02T15:15:39.068Z</time></trkpt><trkpt lat="43.506249" lon="10.619302"><ele>290.57142857142856</ele><time>2026-05-02T15:15:41.068Z</time></trkpt><trkpt lat="43.5061819" lon="10.6193267"><ele>292.1428571428571</ele><time>2026-05-02T15:15:43.072Z</time></trkpt><trkpt lat="43.506121" lon="10.6193518"><ele>293.71428571428567</ele><time>2026-05-02T15:15:45.065Z</time></trkpt><trkpt lat="43.506054" lon="10.6193718"><ele>295.2857142857143</ele><time>2026-05-02T15:15:47.069Z</time></trkpt><trkpt lat="43.5059789" lon="10.619391"><ele>296.85714285714283</ele><time>2026-05-02T15:15:49.064Z</time></trkpt><trkpt lat="43.5059129" lon="10.6194177"><ele>298.4285714285714</ele><time>2026-05-02T15:15:51.068Z</time></trkpt><trkpt lat="43.5058271" lon="10.6194538"><ele>300.0</ele><time>2026-05-02T15:15:54.061Z</time></trkpt><trkpt lat="43.5057598" lon="10.6194737"><ele>300.0</ele><time>2026-05-02T15:15:56.07Z</time></trkpt><trkpt lat="43.5056653" lon="10.6194681"><ele>300.0</ele><time>2026-05-02T15:15:59.077Z</time></trkpt><trkpt lat="43.5056022" lon="10.61945"><ele>300.0</ele><time>2026-05-02T15:16:01.072Z</time></trkpt><trkpt lat="43.5055164" lon="10.6194095"><ele>300.0</ele><time>2026-05-02T15:16:04.06Z</time></trkpt><trkpt lat="43.5054542" lon="10.6193817"><ele>300.0</ele><time>2026-05-02T15:16:06.064Z</time></trkpt><trkpt lat="43.5053894" lon="10.6193563"><ele>300.0</ele><time>2026-05-02T15:16:08.057Z</time></trkpt><trkpt lat="43.5053243" lon="10.6193335"><ele>301.2857142857143</ele><time>2026-05-02T15:16:10.06Z</time></trkpt><trkpt lat="43.5052624" lon="10.6193148"><ele>302.57142857142856</ele><time>2026-05-02T15:16:12.074Z</time></trkpt><trkpt lat="43.505171" lon="10.6193509"><ele>303.8571428571429</ele><time>2026-05-02T15:16:15.063Z</time></trkpt><trkpt lat="43.5051279" lon="10.6194324"><ele>305.1428571428571</ele><time>2026-05-02T15:16:17.063Z</time></trkpt><trkpt lat="43.5050985" lon="10.6195158"><ele>306.42857142857144</ele><time>2026-05-02T15:16:19.062Z</time></trkpt><trkpt lat="43.5050771" lon="10.6196008"><ele>307.7142857142857</ele><time>2026-05-02T15:16:21.066Z</time></trkpt><trkpt lat="43.5050536" lon="10.6196885"><ele>309.0</ele><time>2026-05-02T15:16:23.058Z</time></trkpt><trkpt lat="43.5050242" lon="10.6197706"><ele>309.00000000000006</ele><time>2026-05-02T15:16:25.077Z</time></trkpt><trkpt lat="43.504982" lon="10.6198413"><ele>309.0</ele><time>2026-05-02T15:16:27.066Z</time></trkpt><trkpt lat="43.5049218" lon="10.6199048"><ele>309.0</ele><time>2026-05-02T15:16:29.076Z</time></trkpt><trkpt lat="43.5048629" lon="10.6199691"><ele>309.0</ele><time>2026-05-02T15:16:31.064Z</time></trkpt><trkpt lat="43.5048034" lon="10.6200371"><ele>309.0</ele><time>2026-05-02T15:16:33.074Z</time></trkpt><trkpt lat="43.5047481" lon="10.6201066"><ele>309.00000000000006</ele><time>2026-05-02T15:16:35.071Z</time></trkpt><trkpt lat="43.5046922" lon="10.6201538"><ele>309.0</ele><time>2026-05-02T15:16:37.071Z</time></trkpt><trkpt lat="43.5046152" lon="10.6201586"><ele>309.28571428571433</ele><time>2026-05-02T15:16:40.065Z</time></trkpt><trkpt lat="43.504558" lon="10.6201123"><ele>309.57142857142856</ele><time>2026-05-02T15:16:42.071Z</time></trkpt><trkpt lat="43.5045138" lon="10.6200417"><ele>309.8571428571429</ele><time>2026-05-02T15:16:44.068Z</time></trkpt><trkpt lat="43.50448" lon="10.6199644"><ele>310.14285714285717</ele><time>2026-05-02T15:16:46.065Z</time></trkpt><trkpt lat="43.5044527" lon="10.6198857"><ele>310.42857142857144</ele><time>2026-05-02T15:16:48.057Z</time></trkpt><trkpt lat="43.5044246" lon="10.6198069"><ele>310.7142857142857</ele><time>2026-05-02T15:16:50.062Z</time></trkpt><trkpt lat="43.5043944" lon="10.6197248"><ele>311.0</ele><time>2026-05-02T15:16:52.059Z</time></trkpt><trkpt lat="43.5043669" lon="10.6196377"><ele>311.0</ele><time>2026-05-02T15:16:54.054Z</time></trkpt><trkpt lat="43.5043433" lon="10.6195555"><ele>311.0</ele><time>2026-05-02T15:16:56.078Z</time></trkpt><trkpt lat="43.5043226" lon="10.6194355"><ele>311.0</ele><time>2026-05-02T15:16:59.08Z</time></trkpt><trkpt lat="43.5043469" lon="10.6193504"><ele>311.0</ele><time>2026-05-02T15:17:02.075Z</time></trkpt><trkpt lat="43.5043449" lon="10.6192455"><ele>311.0</ele><time>2026-05-02T15:17:06.064Z</time></trkpt><trkpt lat="43.504312" lon="10.6191654"><ele>311.0</ele><time>2026-05-02T15:17:10.079Z</time></trkpt><trkpt lat="43.5042826" lon="10.6190603"><ele>311.0</ele><time>2026-05-02T15:17:14.086Z</time></trkpt><trkpt lat="43.5042584" lon="10.6189625"><ele>312.2857142857143</ele><time>2026-05-02T15:17:18.073Z</time></trkpt><trkpt lat="43.5042309" lon="10.6188573"><ele>313.5714285714286</ele><time>2026-05-02T15:17:22.074Z</time></trkpt><trkpt lat="43.5042471" lon="10.6187664"><ele>314.8571428571429</ele><time>2026-05-02T15:17:25.075Z</time></trkpt><trkpt lat="43.5042563" lon="10.6186741"><ele>316.1428571428571</ele><time>2026-05-02T15:17:28.083Z</time></trkpt><trkpt lat="43.5042482" lon="10.6185815"><ele>317.42857142857144</ele><time>2026-05-02T15:17:31.076Z</time></trkpt><trkpt lat="43.5042163" lon="10.6184949"><ele>318.7142857142857</ele><time>2026-05-02T15:17:34.095Z</time></trkpt><trkpt lat="43.5041882" lon="10.6184109"><ele>320.0</ele><time>2026-05-02T15:17:37.064Z</time></trkpt><trkpt lat="43.5041384" lon="10.6183407"><ele>321.6666666666667</ele><time>2026-05-02T15:17:40.06Z</time></trkpt><trkpt lat="43.5040852" lon="10.6182667"><ele>323.33333333333337</ele><time>2026-05-02T15:17:43.054Z</time></trkpt><trkpt lat="43.5040356" lon="10.6181957"><ele>325.0</ele><time>2026-05-02T15:17:46.071Z</time></trkpt><trkpt lat="43.503986" lon="10.6181231"><ele>326.6666666666667</ele><time>2026-05-02T15:17:49.072Z</time></trkpt><trkpt lat="43.5039228" lon="10.6180385"><ele>328.3333333333333</ele><time>2026-05-02T15:17:53.083Z</time></trkpt><trkpt lat="43.5038643" lon="10.61795"><ele>330.0</ele><time>2026-05-02T15:17:55.072Z</time></trkpt><trkpt lat="43.503879" lon="10.6178619"><ele>330.0</ele><time>2026-05-02T15:17:59.071Z</time></trkpt></trkseg></trk></gpx>